<?xml version="1.0" encoding="UTF-8" standalone="no" ?>
<gpx xmlns="http://www.topografix.com/GPX/1/1" xmlns:xsi="http://www.w3.org/2001/XMLSchema-instance" xsi:schemaLocation="http://www.topografix.com/GPX/1/1 http://www.topografix.com/GPX/1/1/gpx.xsd" version="1.1" creator="VisuGPX - https://www.visugpx.com">
  <metadata>
    <name>Boucle 18 km incluant Cohons et la source de la Marne</name>
    <desc><![CDATA[Dernière matinée du séjour en Haute Marne]]></desc>
  </metadata>
  <trk>
    <name><![CDATA[SityTrail - Boucle 18 km incluant Cohons et la source de la Marne]]></name>
    <desc><![CDATA[Dernière matinée du séjour en Haute Marne]]></desc>
    <trkseg>
      <trkpt lat="47.81434" lon="5.3309">
        <ele>473</ele>
        <time>2024-05-17T06:34:53.206Z</time>
      </trkpt>
      <trkpt lat="47.81434" lon="5.3309">
        <ele>473</ele>
        <time>2024-05-17T06:34:53.206Z</time>
      </trkpt>
      <trkpt lat="47.81431" lon="5.33088">
        <ele>473</ele>
        <time>2024-05-17T06:38:42.205Z</time>
      </trkpt>
      <trkpt lat="47.81432" lon="5.33085">
        <ele>473</ele>
        <time>2024-05-17T06:38:46.460Z</time>
      </trkpt>
      <trkpt lat="47.8143" lon="5.3308">
        <ele>474</ele>
        <time>2024-05-17T06:38:50.862Z</time>
      </trkpt>
      <trkpt lat="47.81429" lon="5.33074">
        <ele>474</ele>
        <time>2024-05-17T06:38:55.238Z</time>
      </trkpt>
      <trkpt lat="47.81428" lon="5.33069">
        <ele>474</ele>
        <time>2024-05-17T06:38:59.982Z</time>
      </trkpt>
      <trkpt lat="47.81426" lon="5.33066">
        <ele>474</ele>
        <time>2024-05-17T06:39:08.205Z</time>
      </trkpt>
      <trkpt lat="47.81426" lon="5.33067">
        <ele>474</ele>
        <time>2024-05-17T06:39:12.686Z</time>
      </trkpt>
      <trkpt lat="47.81425" lon="5.33067">
        <ele>474</ele>
        <time>2024-05-17T06:39:17.122Z</time>
      </trkpt>
      <trkpt lat="47.81422" lon="5.3306">
        <ele>474</ele>
        <time>2024-05-17T06:39:22.205Z</time>
      </trkpt>
      <trkpt lat="47.81418" lon="5.33057">
        <ele>474</ele>
        <time>2024-05-17T06:39:26.621Z</time>
      </trkpt>
      <trkpt lat="47.81414" lon="5.33055">
        <ele>474</ele>
        <time>2024-05-17T06:39:31.020Z</time>
      </trkpt>
      <trkpt lat="47.81409" lon="5.33052">
        <ele>474</ele>
        <time>2024-05-17T06:39:35.204Z</time>
      </trkpt>
      <trkpt lat="47.81404" lon="5.33048">
        <ele>474</ele>
        <time>2024-05-17T06:39:39.679Z</time>
      </trkpt>
      <trkpt lat="47.814" lon="5.33044">
        <ele>473</ele>
        <time>2024-05-17T06:39:44.180Z</time>
      </trkpt>
      <trkpt lat="47.81401" lon="5.3304">
        <ele>473</ele>
        <time>2024-05-17T06:39:49.061Z</time>
      </trkpt>
      <trkpt lat="47.81398" lon="5.33032">
        <ele>473</ele>
        <time>2024-05-17T06:39:53.717Z</time>
      </trkpt>
      <trkpt lat="47.81392" lon="5.33026">
        <ele>473</ele>
        <time>2024-05-17T06:39:58.205Z</time>
      </trkpt>
      <trkpt lat="47.81385" lon="5.33022">
        <ele>473</ele>
        <time>2024-05-17T06:40:02.882Z</time>
      </trkpt>
      <trkpt lat="47.81381" lon="5.33014">
        <ele>473</ele>
        <time>2024-05-17T06:40:07.163Z</time>
      </trkpt>
      <trkpt lat="47.81377" lon="5.33009">
        <ele>474</ele>
        <time>2024-05-17T06:40:11.205Z</time>
      </trkpt>
      <trkpt lat="47.81373" lon="5.33003">
        <ele>474</ele>
        <time>2024-05-17T06:40:15.840Z</time>
      </trkpt>
      <trkpt lat="47.8137" lon="5.32996">
        <ele>474</ele>
        <time>2024-05-17T06:40:20.205Z</time>
      </trkpt>
      <trkpt lat="47.81365" lon="5.32992">
        <ele>474</ele>
        <time>2024-05-17T06:40:24.618Z</time>
      </trkpt>
      <trkpt lat="47.81359" lon="5.32987">
        <ele>474</ele>
        <time>2024-05-17T06:40:29.205Z</time>
      </trkpt>
      <trkpt lat="47.81355" lon="5.3298">
        <ele>474</ele>
        <time>2024-05-17T06:40:33.541Z</time>
      </trkpt>
      <trkpt lat="47.81355" lon="5.3297">
        <ele>474</ele>
        <time>2024-05-17T06:40:37.576Z</time>
      </trkpt>
      <trkpt lat="47.81352" lon="5.32963">
        <ele>474</ele>
        <time>2024-05-17T06:40:41.859Z</time>
      </trkpt>
      <trkpt lat="47.81349" lon="5.32959">
        <ele>474</ele>
        <time>2024-05-17T06:40:46.204Z</time>
      </trkpt>
      <trkpt lat="47.81345" lon="5.32954">
        <ele>475</ele>
        <time>2024-05-17T06:40:50.655Z</time>
      </trkpt>
      <trkpt lat="47.81342" lon="5.32948">
        <ele>475</ele>
        <time>2024-05-17T06:40:54.775Z</time>
      </trkpt>
      <trkpt lat="47.81337" lon="5.32943">
        <ele>475</ele>
        <time>2024-05-17T06:40:59.119Z</time>
      </trkpt>
      <trkpt lat="47.81331" lon="5.3294">
        <ele>475</ele>
        <time>2024-05-17T06:41:03.442Z</time>
      </trkpt>
      <trkpt lat="47.81324" lon="5.32936">
        <ele>475</ele>
        <time>2024-05-17T06:41:07.819Z</time>
      </trkpt>
      <trkpt lat="47.81322" lon="5.32931">
        <ele>475</ele>
        <time>2024-05-17T06:41:12.161Z</time>
      </trkpt>
      <trkpt lat="47.81316" lon="5.3293">
        <ele>475</ele>
        <time>2024-05-17T06:41:16.555Z</time>
      </trkpt>
      <trkpt lat="47.81309" lon="5.32929">
        <ele>475</ele>
        <time>2024-05-17T06:41:21.205Z</time>
      </trkpt>
      <trkpt lat="47.81304" lon="5.32931">
        <ele>475</ele>
        <time>2024-05-17T06:41:26.204Z</time>
      </trkpt>
      <trkpt lat="47.81299" lon="5.32934">
        <ele>475</ele>
        <time>2024-05-17T06:41:31.205Z</time>
      </trkpt>
      <trkpt lat="47.81296" lon="5.32936">
        <ele>475</ele>
        <time>2024-05-17T06:41:36.205Z</time>
      </trkpt>
      <trkpt lat="47.81297" lon="5.32936">
        <ele>475</ele>
        <time>2024-05-17T06:41:40.621Z</time>
      </trkpt>
      <trkpt lat="47.81301" lon="5.32936">
        <ele>475</ele>
        <time>2024-05-17T06:41:45.205Z</time>
      </trkpt>
      <trkpt lat="47.81308" lon="5.32938">
        <ele>475</ele>
        <time>2024-05-17T06:41:49.936Z</time>
      </trkpt>
      <trkpt lat="47.81313" lon="5.32937">
        <ele>475</ele>
        <time>2024-05-17T06:41:54.419Z</time>
      </trkpt>
      <trkpt lat="47.81315" lon="5.32931">
        <ele>475</ele>
        <time>2024-05-17T06:41:58.918Z</time>
      </trkpt>
      <trkpt lat="47.81314" lon="5.32922">
        <ele>475</ele>
        <time>2024-05-17T06:42:03.696Z</time>
      </trkpt>
      <trkpt lat="47.81311" lon="5.32916">
        <ele>475</ele>
        <time>2024-05-17T06:42:08.204Z</time>
      </trkpt>
      <trkpt lat="47.8131" lon="5.32907">
        <ele>475</ele>
        <time>2024-05-17T06:42:12.836Z</time>
      </trkpt>
      <trkpt lat="47.8131" lon="5.329">
        <ele>475</ele>
        <time>2024-05-17T06:42:16.923Z</time>
      </trkpt>
      <trkpt lat="47.81309" lon="5.32893">
        <ele>475</ele>
        <time>2024-05-17T06:42:21.205Z</time>
      </trkpt>
      <trkpt lat="47.81308" lon="5.32887">
        <ele>475</ele>
        <time>2024-05-17T06:42:25.498Z</time>
      </trkpt>
      <trkpt lat="47.81306" lon="5.32881">
        <ele>475</ele>
        <time>2024-05-17T06:42:29.549Z</time>
      </trkpt>
      <trkpt lat="47.81301" lon="5.32877">
        <ele>475</ele>
        <time>2024-05-17T06:42:33.779Z</time>
      </trkpt>
      <trkpt lat="47.813" lon="5.32866">
        <ele>474</ele>
        <time>2024-05-17T06:42:38.205Z</time>
      </trkpt>
      <trkpt lat="47.81299" lon="5.32857">
        <ele>474</ele>
        <time>2024-05-17T06:42:42.676Z</time>
      </trkpt>
      <trkpt lat="47.81298" lon="5.32848">
        <ele>474</ele>
        <time>2024-05-17T06:42:47.181Z</time>
      </trkpt>
      <trkpt lat="47.81298" lon="5.32841">
        <ele>472</ele>
        <time>2024-05-17T06:42:51.205Z</time>
      </trkpt>
      <trkpt lat="47.81296" lon="5.32832">
        <ele>472</ele>
        <time>2024-05-17T06:42:55.678Z</time>
      </trkpt>
      <trkpt lat="47.81294" lon="5.32825">
        <ele>472</ele>
        <time>2024-05-17T06:43:00.061Z</time>
      </trkpt>
      <trkpt lat="47.81292" lon="5.32817">
        <ele>472</ele>
        <time>2024-05-17T06:43:04.556Z</time>
      </trkpt>
      <trkpt lat="47.81291" lon="5.3281">
        <ele>472</ele>
        <time>2024-05-17T06:43:08.907Z</time>
      </trkpt>
      <trkpt lat="47.81289" lon="5.32803">
        <ele>472</ele>
        <time>2024-05-17T06:43:12.938Z</time>
      </trkpt>
      <trkpt lat="47.81288" lon="5.32795">
        <ele>472</ele>
        <time>2024-05-17T06:43:17.417Z</time>
      </trkpt>
      <trkpt lat="47.81286" lon="5.32789">
        <ele>472</ele>
        <time>2024-05-17T06:43:21.877Z</time>
      </trkpt>
      <trkpt lat="47.81285" lon="5.32783">
        <ele>472</ele>
        <time>2024-05-17T06:43:26.322Z</time>
      </trkpt>
      <trkpt lat="47.81285" lon="5.32775">
        <ele>472</ele>
        <time>2024-05-17T06:43:30.698Z</time>
      </trkpt>
      <trkpt lat="47.81283" lon="5.32768">
        <ele>472</ele>
        <time>2024-05-17T06:43:35.205Z</time>
      </trkpt>
      <trkpt lat="47.81282" lon="5.3276">
        <ele>473</ele>
        <time>2024-05-17T06:43:39.740Z</time>
      </trkpt>
      <trkpt lat="47.81281" lon="5.32751">
        <ele>473</ele>
        <time>2024-05-17T06:43:44.204Z</time>
      </trkpt>
      <trkpt lat="47.81278" lon="5.32744">
        <ele>473</ele>
        <time>2024-05-17T06:43:48.757Z</time>
      </trkpt>
      <trkpt lat="47.81275" lon="5.32736">
        <ele>473</ele>
        <time>2024-05-17T06:43:53.205Z</time>
      </trkpt>
      <trkpt lat="47.81272" lon="5.32728">
        <ele>473</ele>
        <time>2024-05-17T06:43:57.620Z</time>
      </trkpt>
      <trkpt lat="47.81269" lon="5.3272">
        <ele>473</ele>
        <time>2024-05-17T06:44:01.962Z</time>
      </trkpt>
      <trkpt lat="47.81269" lon="5.3271">
        <ele>473</ele>
        <time>2024-05-17T06:44:07.097Z</time>
      </trkpt>
      <trkpt lat="47.81267" lon="5.32702">
        <ele>472</ele>
        <time>2024-05-17T06:44:11.220Z</time>
      </trkpt>
      <trkpt lat="47.81266" lon="5.32697">
        <ele>472</ele>
        <time>2024-05-17T06:44:15.478Z</time>
      </trkpt>
      <trkpt lat="47.81264" lon="5.32689">
        <ele>472</ele>
        <time>2024-05-17T06:44:19.956Z</time>
      </trkpt>
      <trkpt lat="47.81263" lon="5.32679">
        <ele>472</ele>
        <time>2024-05-17T06:44:24.562Z</time>
      </trkpt>
      <trkpt lat="47.81262" lon="5.3267">
        <ele>472</ele>
        <time>2024-05-17T06:44:28.938Z</time>
      </trkpt>
      <trkpt lat="47.81261" lon="5.32662">
        <ele>472</ele>
        <time>2024-05-17T06:44:33.413Z</time>
      </trkpt>
      <trkpt lat="47.81257" lon="5.32655">
        <ele>472</ele>
        <time>2024-05-17T06:44:37.742Z</time>
      </trkpt>
      <trkpt lat="47.81255" lon="5.32647">
        <ele>471</ele>
        <time>2024-05-17T06:44:42.160Z</time>
      </trkpt>
      <trkpt lat="47.81252" lon="5.32638">
        <ele>471</ele>
        <time>2024-05-17T06:44:46.682Z</time>
      </trkpt>
      <trkpt lat="47.81248" lon="5.32632">
        <ele>471</ele>
        <time>2024-05-17T06:44:51.083Z</time>
      </trkpt>
      <trkpt lat="47.81246" lon="5.32621">
        <ele>469</ele>
        <time>2024-05-17T06:44:55.519Z</time>
      </trkpt>
      <trkpt lat="47.81245" lon="5.32611">
        <ele>469</ele>
        <time>2024-05-17T06:45:00.205Z</time>
      </trkpt>
      <trkpt lat="47.81244" lon="5.32604">
        <ele>469</ele>
        <time>2024-05-17T06:45:04.560Z</time>
      </trkpt>
      <trkpt lat="47.81242" lon="5.32598">
        <ele>469</ele>
        <time>2024-05-17T06:45:08.859Z</time>
      </trkpt>
      <trkpt lat="47.81239" lon="5.32594">
        <ele>467</ele>
        <time>2024-05-17T06:45:13.178Z</time>
      </trkpt>
      <trkpt lat="47.81238" lon="5.32586">
        <ele>467</ele>
        <time>2024-05-17T06:45:18.037Z</time>
      </trkpt>
      <trkpt lat="47.81235" lon="5.32583">
        <ele>466</ele>
        <time>2024-05-17T06:45:22.157Z</time>
      </trkpt>
      <trkpt lat="47.81232" lon="5.32579">
        <ele>466</ele>
        <time>2024-05-17T06:45:26.900Z</time>
      </trkpt>
      <trkpt lat="47.81229" lon="5.32577">
        <ele>466</ele>
        <time>2024-05-17T06:45:30.934Z</time>
      </trkpt>
      <trkpt lat="47.81225" lon="5.32584">
        <ele>466</ele>
        <time>2024-05-17T06:45:35.204Z</time>
      </trkpt>
      <trkpt lat="47.81221" lon="5.3259">
        <ele>466</ele>
        <time>2024-05-17T06:45:39.721Z</time>
      </trkpt>
      <trkpt lat="47.81216" lon="5.32592">
        <ele>466</ele>
        <time>2024-05-17T06:45:43.819Z</time>
      </trkpt>
      <trkpt lat="47.81212" lon="5.32595">
        <ele>466</ele>
        <time>2024-05-17T06:45:48.101Z</time>
      </trkpt>
      <trkpt lat="47.81207" lon="5.32596">
        <ele>463</ele>
        <time>2024-05-17T06:45:52.204Z</time>
      </trkpt>
      <trkpt lat="47.81203" lon="5.32599">
        <ele>466</ele>
        <time>2024-05-17T06:45:56.921Z</time>
      </trkpt>
      <trkpt lat="47.81189" lon="5.32597">
        <ele>463</ele>
        <time>2024-05-17T06:46:15.205Z</time>
      </trkpt>
      <trkpt lat="47.81187" lon="5.32597">
        <ele>466</ele>
        <time>2024-05-17T06:46:20.205Z</time>
      </trkpt>
      <trkpt lat="47.81181" lon="5.326">
        <ele>466</ele>
        <time>2024-05-17T06:46:24.941Z</time>
      </trkpt>
      <trkpt lat="47.81176" lon="5.326">
        <ele>465</ele>
        <time>2024-05-17T06:46:28.941Z</time>
      </trkpt>
      <trkpt lat="47.81171" lon="5.32603">
        <ele>465</ele>
        <time>2024-05-17T06:46:33.377Z</time>
      </trkpt>
      <trkpt lat="47.81165" lon="5.32604">
        <ele>465</ele>
        <time>2024-05-17T06:46:37.974Z</time>
      </trkpt>
      <trkpt lat="47.8116" lon="5.32605">
        <ele>465</ele>
        <time>2024-05-17T06:46:42.034Z</time>
      </trkpt>
      <trkpt lat="47.81156" lon="5.32606">
        <ele>465</ele>
        <time>2024-05-17T06:46:46.095Z</time>
      </trkpt>
      <trkpt lat="47.81149" lon="5.32605">
        <ele>463</ele>
        <time>2024-05-17T06:46:50.581Z</time>
      </trkpt>
      <trkpt lat="47.81144" lon="5.32604">
        <ele>463</ele>
        <time>2024-05-17T06:46:55.205Z</time>
      </trkpt>
      <trkpt lat="47.81139" lon="5.32605">
        <ele>463</ele>
        <time>2024-05-17T06:46:59.205Z</time>
      </trkpt>
      <trkpt lat="47.81133" lon="5.32605">
        <ele>463</ele>
        <time>2024-05-17T06:47:03.721Z</time>
      </trkpt>
      <trkpt lat="47.81128" lon="5.32606">
        <ele>463</ele>
        <time>2024-05-17T06:47:08.205Z</time>
      </trkpt>
      <trkpt lat="47.81125" lon="5.32607">
        <ele>461</ele>
        <time>2024-05-17T06:47:12.959Z</time>
      </trkpt>
      <trkpt lat="47.81118" lon="5.32607">
        <ele>461</ele>
        <time>2024-05-17T06:47:17.003Z</time>
      </trkpt>
      <trkpt lat="47.81113" lon="5.32609">
        <ele>461</ele>
        <time>2024-05-17T06:47:21.648Z</time>
      </trkpt>
      <trkpt lat="47.81108" lon="5.32609">
        <ele>461</ele>
        <time>2024-05-17T06:47:25.980Z</time>
      </trkpt>
      <trkpt lat="47.81102" lon="5.32612">
        <ele>461</ele>
        <time>2024-05-17T06:47:30.205Z</time>
      </trkpt>
      <trkpt lat="47.81096" lon="5.32607">
        <ele>460</ele>
        <time>2024-05-17T06:47:34.578Z</time>
      </trkpt>
      <trkpt lat="47.81091" lon="5.32609">
        <ele>460</ele>
        <time>2024-05-17T06:47:38.882Z</time>
      </trkpt>
      <trkpt lat="47.81086" lon="5.3261">
        <ele>460</ele>
        <time>2024-05-17T06:47:43.205Z</time>
      </trkpt>
      <trkpt lat="47.81079" lon="5.32607">
        <ele>460</ele>
        <time>2024-05-17T06:47:47.999Z</time>
      </trkpt>
      <trkpt lat="47.81074" lon="5.32608">
        <ele>460</ele>
        <time>2024-05-17T06:47:52.043Z</time>
      </trkpt>
      <trkpt lat="47.81069" lon="5.32608">
        <ele>459</ele>
        <time>2024-05-17T06:47:56.742Z</time>
      </trkpt>
      <trkpt lat="47.81063" lon="5.32609">
        <ele>459</ele>
        <time>2024-05-17T06:48:01.205Z</time>
      </trkpt>
      <trkpt lat="47.81059" lon="5.32609">
        <ele>459</ele>
        <time>2024-05-17T06:48:05.443Z</time>
      </trkpt>
      <trkpt lat="47.81053" lon="5.32611">
        <ele>459</ele>
        <time>2024-05-17T06:48:09.820Z</time>
      </trkpt>
      <trkpt lat="47.81047" lon="5.32613">
        <ele>459</ele>
        <time>2024-05-17T06:48:14.205Z</time>
      </trkpt>
      <trkpt lat="47.81045" lon="5.32614">
        <ele>459</ele>
        <time>2024-05-17T06:48:19.115Z</time>
      </trkpt>
      <trkpt lat="47.81043" lon="5.32616">
        <ele>459</ele>
        <time>2024-05-17T06:48:23.175Z</time>
      </trkpt>
      <trkpt lat="47.81037" lon="5.32621">
        <ele>456</ele>
        <time>2024-05-17T06:48:27.204Z</time>
      </trkpt>
      <trkpt lat="47.81032" lon="5.32622">
        <ele>456</ele>
        <time>2024-05-17T06:48:32.205Z</time>
      </trkpt>
      <trkpt lat="47.81026" lon="5.32627">
        <ele>459</ele>
        <time>2024-05-17T06:48:36.438Z</time>
      </trkpt>
      <trkpt lat="47.81022" lon="5.32631">
        <ele>459</ele>
        <time>2024-05-17T06:48:41.002Z</time>
      </trkpt>
      <trkpt lat="47.81016" lon="5.32631">
        <ele>459</ele>
        <time>2024-05-17T06:48:45.542Z</time>
      </trkpt>
      <trkpt lat="47.81012" lon="5.32634">
        <ele>456</ele>
        <time>2024-05-17T06:48:50.205Z</time>
      </trkpt>
      <trkpt lat="47.81008" lon="5.32637">
        <ele>456</ele>
        <time>2024-05-17T06:48:54.820Z</time>
      </trkpt>
      <trkpt lat="47.81004" lon="5.32638">
        <ele>456</ele>
        <time>2024-05-17T06:48:59.205Z</time>
      </trkpt>
      <trkpt lat="47.80999" lon="5.3264">
        <ele>456</ele>
        <time>2024-05-17T06:49:04.205Z</time>
      </trkpt>
      <trkpt lat="47.80994" lon="5.32641">
        <ele>456</ele>
        <time>2024-05-17T06:49:08.442Z</time>
      </trkpt>
      <trkpt lat="47.80989" lon="5.32641">
        <ele>456</ele>
        <time>2024-05-17T06:49:12.800Z</time>
      </trkpt>
      <trkpt lat="47.80984" lon="5.32642">
        <ele>456</ele>
        <time>2024-05-17T06:49:17.142Z</time>
      </trkpt>
      <trkpt lat="47.80979" lon="5.32643">
        <ele>456</ele>
        <time>2024-05-17T06:49:21.645Z</time>
      </trkpt>
      <trkpt lat="47.80974" lon="5.32643">
        <ele>456</ele>
        <time>2024-05-17T06:49:25.868Z</time>
      </trkpt>
      <trkpt lat="47.80969" lon="5.32643">
        <ele>456</ele>
        <time>2024-05-17T06:49:30.204Z</time>
      </trkpt>
      <trkpt lat="47.80964" lon="5.32644">
        <ele>456</ele>
        <time>2024-05-17T06:49:35.063Z</time>
      </trkpt>
      <trkpt lat="47.80963" lon="5.32642">
        <ele>456</ele>
        <time>2024-05-17T06:49:39.205Z</time>
      </trkpt>
      <trkpt lat="47.80959" lon="5.32642">
        <ele>456</ele>
        <time>2024-05-17T06:49:43.825Z</time>
      </trkpt>
      <trkpt lat="47.80954" lon="5.32645">
        <ele>458</ele>
        <time>2024-05-17T06:49:48.002Z</time>
      </trkpt>
      <trkpt lat="47.8095" lon="5.32647">
        <ele>458</ele>
        <time>2024-05-17T06:49:52.204Z</time>
      </trkpt>
      <trkpt lat="47.80946" lon="5.3265">
        <ele>458</ele>
        <time>2024-05-17T06:49:56.667Z</time>
      </trkpt>
      <trkpt lat="47.80942" lon="5.32652">
        <ele>458</ele>
        <time>2024-05-17T06:50:01.206Z</time>
      </trkpt>
      <trkpt lat="47.80939" lon="5.32656">
        <ele>461</ele>
        <time>2024-05-17T06:50:05.914Z</time>
      </trkpt>
      <trkpt lat="47.80935" lon="5.32658">
        <ele>461</ele>
        <time>2024-05-17T06:50:10.205Z</time>
      </trkpt>
      <trkpt lat="47.80933" lon="5.32665">
        <ele>461</ele>
        <time>2024-05-17T06:50:14.205Z</time>
      </trkpt>
      <trkpt lat="47.80936" lon="5.32669">
        <ele>461</ele>
        <time>2024-05-17T06:50:19.204Z</time>
      </trkpt>
      <trkpt lat="47.80939" lon="5.32673">
        <ele>461</ele>
        <time>2024-05-17T06:50:24.204Z</time>
      </trkpt>
      <trkpt lat="47.80938" lon="5.32674">
        <ele>461</ele>
        <time>2024-05-17T06:50:33.205Z</time>
      </trkpt>
      <trkpt lat="47.8094" lon="5.32677">
        <ele>461</ele>
        <time>2024-05-17T06:50:37.541Z</time>
      </trkpt>
      <trkpt lat="47.80943" lon="5.32683">
        <ele>465</ele>
        <time>2024-05-17T06:50:41.848Z</time>
      </trkpt>
      <trkpt lat="47.80943" lon="5.32684">
        <ele>465</ele>
        <time>2024-05-17T06:50:46.205Z</time>
      </trkpt>
      <trkpt lat="47.80944" lon="5.32686">
        <ele>465</ele>
        <time>2024-05-17T06:50:50.985Z</time>
      </trkpt>
      <trkpt lat="47.80943" lon="5.32695">
        <ele>465</ele>
        <time>2024-05-17T06:51:36.204Z</time>
      </trkpt>
      <trkpt lat="47.80943" lon="5.32696">
        <ele>465</ele>
        <time>2024-05-17T06:51:41.205Z</time>
      </trkpt>
      <trkpt lat="47.80943" lon="5.32698">
        <ele>465</ele>
        <time>2024-05-17T06:51:45.205Z</time>
      </trkpt>
      <trkpt lat="47.80944" lon="5.32701">
        <ele>465</ele>
        <time>2024-05-17T06:51:50.205Z</time>
      </trkpt>
      <trkpt lat="47.80946" lon="5.32706">
        <ele>465</ele>
        <time>2024-05-17T06:51:54.205Z</time>
      </trkpt>
      <trkpt lat="47.80948" lon="5.3271">
        <ele>467</ele>
        <time>2024-05-17T06:52:07.836Z</time>
      </trkpt>
      <trkpt lat="47.80949" lon="5.32716">
        <ele>467</ele>
        <time>2024-05-17T06:52:12.126Z</time>
      </trkpt>
      <trkpt lat="47.80949" lon="5.3272">
        <ele>467</ele>
        <time>2024-05-17T06:52:16.205Z</time>
      </trkpt>
      <trkpt lat="47.80949" lon="5.32721">
        <ele>467</ele>
        <time>2024-05-17T06:52:21.204Z</time>
      </trkpt>
      <trkpt lat="47.8095" lon="5.32724">
        <ele>467</ele>
        <time>2024-05-17T06:52:25.765Z</time>
      </trkpt>
      <trkpt lat="47.80953" lon="5.32735">
        <ele>467</ele>
        <time>2024-05-17T06:52:45.204Z</time>
      </trkpt>
      <trkpt lat="47.80953" lon="5.32737">
        <ele>469</ele>
        <time>2024-05-17T06:52:50.211Z</time>
      </trkpt>
      <trkpt lat="47.80953" lon="5.32738">
        <ele>469</ele>
        <time>2024-05-17T06:52:55.204Z</time>
      </trkpt>
      <trkpt lat="47.80953" lon="5.32739">
        <ele>469</ele>
        <time>2024-05-17T06:53:00.205Z</time>
      </trkpt>
      <trkpt lat="47.80953" lon="5.3274">
        <ele>469</ele>
        <time>2024-05-17T06:53:04.205Z</time>
      </trkpt>
      <trkpt lat="47.80953" lon="5.32742">
        <ele>469</ele>
        <time>2024-05-17T06:54:03.207Z</time>
      </trkpt>
      <trkpt lat="47.80954" lon="5.32744">
        <ele>469</ele>
        <time>2024-05-17T06:54:08.205Z</time>
      </trkpt>
      <trkpt lat="47.80955" lon="5.32747">
        <ele>469</ele>
        <time>2024-05-17T06:54:13.204Z</time>
      </trkpt>
      <trkpt lat="47.80956" lon="5.32753">
        <ele>469</ele>
        <time>2024-05-17T06:54:18.205Z</time>
      </trkpt>
      <trkpt lat="47.80956" lon="5.32755">
        <ele>469</ele>
        <time>2024-05-17T06:54:23.141Z</time>
      </trkpt>
      <trkpt lat="47.80956" lon="5.32756">
        <ele>469</ele>
        <time>2024-05-17T06:54:27.944Z</time>
      </trkpt>
      <trkpt lat="47.80958" lon="5.32761">
        <ele>469</ele>
        <time>2024-05-17T06:54:32.205Z</time>
      </trkpt>
      <trkpt lat="47.8096" lon="5.32767">
        <ele>469</ele>
        <time>2024-05-17T06:54:36.848Z</time>
      </trkpt>
      <trkpt lat="47.80958" lon="5.32772">
        <ele>469</ele>
        <time>2024-05-17T06:54:41.204Z</time>
      </trkpt>
      <trkpt lat="47.80963" lon="5.32788">
        <ele>469</ele>
        <time>2024-05-17T06:55:05.205Z</time>
      </trkpt>
      <trkpt lat="47.80963" lon="5.32788">
        <ele>469</ele>
        <time>2024-05-17T06:55:10.204Z</time>
      </trkpt>
      <trkpt lat="47.80963" lon="5.3279">
        <ele>469</ele>
        <time>2024-05-17T06:55:14.660Z</time>
      </trkpt>
      <trkpt lat="47.80965" lon="5.32796">
        <ele>469</ele>
        <time>2024-05-17T06:55:19.204Z</time>
      </trkpt>
      <trkpt lat="47.80965" lon="5.328">
        <ele>469</ele>
        <time>2024-05-17T06:55:23.762Z</time>
      </trkpt>
      <trkpt lat="47.80965" lon="5.32804">
        <ele>469</ele>
        <time>2024-05-17T06:55:32.205Z</time>
      </trkpt>
      <trkpt lat="47.80966" lon="5.32803">
        <ele>469</ele>
        <time>2024-05-17T06:55:36.205Z</time>
      </trkpt>
      <trkpt lat="47.80966" lon="5.32804">
        <ele>469</ele>
        <time>2024-05-17T06:55:40.426Z</time>
      </trkpt>
      <trkpt lat="47.80968" lon="5.32812">
        <ele>469</ele>
        <time>2024-05-17T06:55:45.142Z</time>
      </trkpt>
      <trkpt lat="47.8097" lon="5.32816">
        <ele>469</ele>
        <time>2024-05-17T06:55:50.211Z</time>
      </trkpt>
      <trkpt lat="47.8097" lon="5.3282">
        <ele>470</ele>
        <time>2024-05-17T06:55:54.204Z</time>
      </trkpt>
      <trkpt lat="47.80972" lon="5.32824">
        <ele>470</ele>
        <time>2024-05-17T06:55:58.721Z</time>
      </trkpt>
      <trkpt lat="47.80973" lon="5.3283">
        <ele>470</ele>
        <time>2024-05-17T06:56:02.866Z</time>
      </trkpt>
      <trkpt lat="47.80975" lon="5.32835">
        <ele>470</ele>
        <time>2024-05-17T06:56:06.904Z</time>
      </trkpt>
      <trkpt lat="47.80976" lon="5.3284">
        <ele>470</ele>
        <time>2024-05-17T06:56:11.205Z</time>
      </trkpt>
      <trkpt lat="47.80976" lon="5.32845">
        <ele>470</ele>
        <time>2024-05-17T06:56:15.765Z</time>
      </trkpt>
      <trkpt lat="47.80977" lon="5.32849">
        <ele>470</ele>
        <time>2024-05-17T06:56:20.205Z</time>
      </trkpt>
      <trkpt lat="47.80977" lon="5.32852">
        <ele>470</ele>
        <time>2024-05-17T06:56:24.346Z</time>
      </trkpt>
      <trkpt lat="47.80976" lon="5.32854">
        <ele>470</ele>
        <time>2024-05-17T06:56:28.883Z</time>
      </trkpt>
      <trkpt lat="47.80978" lon="5.32864">
        <ele>470</ele>
        <time>2024-05-17T06:56:57.204Z</time>
      </trkpt>
      <trkpt lat="47.80978" lon="5.32865">
        <ele>470</ele>
        <time>2024-05-17T06:57:02.205Z</time>
      </trkpt>
      <trkpt lat="47.80979" lon="5.32867">
        <ele>470</ele>
        <time>2024-05-17T06:57:07.205Z</time>
      </trkpt>
      <trkpt lat="47.8098" lon="5.32869">
        <ele>470</ele>
        <time>2024-05-17T06:57:11.821Z</time>
      </trkpt>
      <trkpt lat="47.80981" lon="5.32873">
        <ele>470</ele>
        <time>2024-05-17T06:57:16.205Z</time>
      </trkpt>
      <trkpt lat="47.80982" lon="5.32876">
        <ele>470</ele>
        <time>2024-05-17T06:57:21.025Z</time>
      </trkpt>
      <trkpt lat="47.80983" lon="5.32879">
        <ele>470</ele>
        <time>2024-05-17T06:57:25.205Z</time>
      </trkpt>
      <trkpt lat="47.80984" lon="5.32882">
        <ele>470</ele>
        <time>2024-05-17T06:57:30.205Z</time>
      </trkpt>
      <trkpt lat="47.80986" lon="5.32887">
        <ele>470</ele>
        <time>2024-05-17T06:57:35.204Z</time>
      </trkpt>
      <trkpt lat="47.80988" lon="5.3289">
        <ele>470</ele>
        <time>2024-05-17T06:57:40.205Z</time>
      </trkpt>
      <trkpt lat="47.8099" lon="5.32896">
        <ele>470</ele>
        <time>2024-05-17T06:57:55.205Z</time>
      </trkpt>
      <trkpt lat="47.80991" lon="5.329">
        <ele>470</ele>
        <time>2024-05-17T06:58:00.205Z</time>
      </trkpt>
      <trkpt lat="47.80991" lon="5.32902">
        <ele>470</ele>
        <time>2024-05-17T06:58:05.205Z</time>
      </trkpt>
      <trkpt lat="47.8099" lon="5.32905">
        <ele>470</ele>
        <time>2024-05-17T06:58:10.205Z</time>
      </trkpt>
      <trkpt lat="47.80991" lon="5.32908">
        <ele>470</ele>
        <time>2024-05-17T06:58:15.205Z</time>
      </trkpt>
      <trkpt lat="47.80993" lon="5.32913">
        <ele>470</ele>
        <time>2024-05-17T06:58:20.205Z</time>
      </trkpt>
      <trkpt lat="47.80994" lon="5.32919">
        <ele>470</ele>
        <time>2024-05-17T06:58:24.742Z</time>
      </trkpt>
      <trkpt lat="47.80995" lon="5.32923">
        <ele>470</ele>
        <time>2024-05-17T06:58:29.205Z</time>
      </trkpt>
      <trkpt lat="47.80997" lon="5.32927">
        <ele>470</ele>
        <time>2024-05-17T06:58:34.167Z</time>
      </trkpt>
      <trkpt lat="47.80998" lon="5.32932">
        <ele>470</ele>
        <time>2024-05-17T06:58:38.205Z</time>
      </trkpt>
      <trkpt lat="47.80998" lon="5.32939">
        <ele>470</ele>
        <time>2024-05-17T06:58:43.064Z</time>
      </trkpt>
      <trkpt lat="47.81" lon="5.32944">
        <ele>470</ele>
        <time>2024-05-17T06:58:47.228Z</time>
      </trkpt>
      <trkpt lat="47.81001" lon="5.32951">
        <ele>470</ele>
        <time>2024-05-17T06:58:51.705Z</time>
      </trkpt>
      <trkpt lat="47.81004" lon="5.32957">
        <ele>470</ele>
        <time>2024-05-17T06:58:56.045Z</time>
      </trkpt>
      <trkpt lat="47.81006" lon="5.32964">
        <ele>469</ele>
        <time>2024-05-17T06:59:01.205Z</time>
      </trkpt>
      <trkpt lat="47.81007" lon="5.32969">
        <ele>469</ele>
        <time>2024-05-17T06:59:06.205Z</time>
      </trkpt>
      <trkpt lat="47.81007" lon="5.32974">
        <ele>469</ele>
        <time>2024-05-17T06:59:10.742Z</time>
      </trkpt>
      <trkpt lat="47.81009" lon="5.32981">
        <ele>469</ele>
        <time>2024-05-17T06:59:19.204Z</time>
      </trkpt>
      <trkpt lat="47.8101" lon="5.32983">
        <ele>469</ele>
        <time>2024-05-17T06:59:24.205Z</time>
      </trkpt>
      <trkpt lat="47.81011" lon="5.32987">
        <ele>469</ele>
        <time>2024-05-17T06:59:28.782Z</time>
      </trkpt>
      <trkpt lat="47.81011" lon="5.32989">
        <ele>469</ele>
        <time>2024-05-17T06:59:33.567Z</time>
      </trkpt>
      <trkpt lat="47.81012" lon="5.32993">
        <ele>469</ele>
        <time>2024-05-17T06:59:38.204Z</time>
      </trkpt>
      <trkpt lat="47.81013" lon="5.32998">
        <ele>469</ele>
        <time>2024-05-17T06:59:47.205Z</time>
      </trkpt>
      <trkpt lat="47.81014" lon="5.33001">
        <ele>469</ele>
        <time>2024-05-17T06:59:51.671Z</time>
      </trkpt>
      <trkpt lat="47.81014" lon="5.33006">
        <ele>469</ele>
        <time>2024-05-17T06:59:56.205Z</time>
      </trkpt>
      <trkpt lat="47.81014" lon="5.33009">
        <ele>469</ele>
        <time>2024-05-17T07:00:01.186Z</time>
      </trkpt>
      <trkpt lat="47.81015" lon="5.33011">
        <ele>469</ele>
        <time>2024-05-17T07:00:05.205Z</time>
      </trkpt>
      <trkpt lat="47.81016" lon="5.33014">
        <ele>469</ele>
        <time>2024-05-17T07:00:09.768Z</time>
      </trkpt>
      <trkpt lat="47.81017" lon="5.33018">
        <ele>469</ele>
        <time>2024-05-17T07:00:14.066Z</time>
      </trkpt>
      <trkpt lat="47.81018" lon="5.33025">
        <ele>469</ele>
        <time>2024-05-17T07:00:18.725Z</time>
      </trkpt>
      <trkpt lat="47.81018" lon="5.33028">
        <ele>469</ele>
        <time>2024-05-17T07:00:23.108Z</time>
      </trkpt>
      <trkpt lat="47.81019" lon="5.33033">
        <ele>469</ele>
        <time>2024-05-17T07:00:27.705Z</time>
      </trkpt>
      <trkpt lat="47.81021" lon="5.33037">
        <ele>469</ele>
        <time>2024-05-17T07:00:32.140Z</time>
      </trkpt>
      <trkpt lat="47.81022" lon="5.33042">
        <ele>468</ele>
        <time>2024-05-17T07:00:36.346Z</time>
      </trkpt>
      <trkpt lat="47.81023" lon="5.33048">
        <ele>468</ele>
        <time>2024-05-17T07:00:40.482Z</time>
      </trkpt>
      <trkpt lat="47.81023" lon="5.33054">
        <ele>468</ele>
        <time>2024-05-17T07:00:49.080Z</time>
      </trkpt>
      <trkpt lat="47.81023" lon="5.33058">
        <ele>468</ele>
        <time>2024-05-17T07:00:53.448Z</time>
      </trkpt>
      <trkpt lat="47.81024" lon="5.33061">
        <ele>468</ele>
        <time>2024-05-17T07:00:58.204Z</time>
      </trkpt>
      <trkpt lat="47.81024" lon="5.33062">
        <ele>468</ele>
        <time>2024-05-17T07:01:03.204Z</time>
      </trkpt>
      <trkpt lat="47.81024" lon="5.33067">
        <ele>468</ele>
        <time>2024-05-17T07:01:07.847Z</time>
      </trkpt>
      <trkpt lat="47.81025" lon="5.33071">
        <ele>467</ele>
        <time>2024-05-17T07:01:12.205Z</time>
      </trkpt>
      <trkpt lat="47.81026" lon="5.33076">
        <ele>467</ele>
        <time>2024-05-17T07:01:17.041Z</time>
      </trkpt>
      <trkpt lat="47.81028" lon="5.33082">
        <ele>467</ele>
        <time>2024-05-17T07:01:21.204Z</time>
      </trkpt>
      <trkpt lat="47.8103" lon="5.33087">
        <ele>467</ele>
        <time>2024-05-17T07:01:25.468Z</time>
      </trkpt>
      <trkpt lat="47.81031" lon="5.33093">
        <ele>467</ele>
        <time>2024-05-17T07:01:30.205Z</time>
      </trkpt>
      <trkpt lat="47.81033" lon="5.33098">
        <ele>466</ele>
        <time>2024-05-17T07:01:34.585Z</time>
      </trkpt>
      <trkpt lat="47.81036" lon="5.33106">
        <ele>466</ele>
        <time>2024-05-17T07:01:39.204Z</time>
      </trkpt>
      <trkpt lat="47.81037" lon="5.33113">
        <ele>466</ele>
        <time>2024-05-17T07:01:43.647Z</time>
      </trkpt>
      <trkpt lat="47.81042" lon="5.33129">
        <ele>467</ele>
        <time>2024-05-17T07:02:56.721Z</time>
      </trkpt>
      <trkpt lat="47.81044" lon="5.33134">
        <ele>467</ele>
        <time>2024-05-17T07:03:01.123Z</time>
      </trkpt>
      <trkpt lat="47.81047" lon="5.33145">
        <ele>467</ele>
        <time>2024-05-17T07:03:05.569Z</time>
      </trkpt>
      <trkpt lat="47.8105" lon="5.33155">
        <ele>467</ele>
        <time>2024-05-17T07:03:10.165Z</time>
      </trkpt>
      <trkpt lat="47.81052" lon="5.33163">
        <ele>467</ele>
        <time>2024-05-17T07:03:14.204Z</time>
      </trkpt>
      <trkpt lat="47.81053" lon="5.3317">
        <ele>467</ele>
        <time>2024-05-17T07:03:18.204Z</time>
      </trkpt>
      <trkpt lat="47.81054" lon="5.33175">
        <ele>467</ele>
        <time>2024-05-17T07:03:22.447Z</time>
      </trkpt>
      <trkpt lat="47.81055" lon="5.33183">
        <ele>468</ele>
        <time>2024-05-17T07:03:27.105Z</time>
      </trkpt>
      <trkpt lat="47.81056" lon="5.33191">
        <ele>468</ele>
        <time>2024-05-17T07:03:31.204Z</time>
      </trkpt>
      <trkpt lat="47.81056" lon="5.33198">
        <ele>468</ele>
        <time>2024-05-17T07:03:35.826Z</time>
      </trkpt>
      <trkpt lat="47.81058" lon="5.33206">
        <ele>468</ele>
        <time>2024-05-17T07:03:39.988Z</time>
      </trkpt>
      <trkpt lat="47.81059" lon="5.33212">
        <ele>469</ele>
        <time>2024-05-17T07:03:44.526Z</time>
      </trkpt>
      <trkpt lat="47.81061" lon="5.3322">
        <ele>469</ele>
        <time>2024-05-17T07:03:49.105Z</time>
      </trkpt>
      <trkpt lat="47.81063" lon="5.33228">
        <ele>469</ele>
        <time>2024-05-17T07:03:53.602Z</time>
      </trkpt>
      <trkpt lat="47.81064" lon="5.33234">
        <ele>469</ele>
        <time>2024-05-17T07:03:57.627Z</time>
      </trkpt>
      <trkpt lat="47.81065" lon="5.33242">
        <ele>469</ele>
        <time>2024-05-17T07:04:02.205Z</time>
      </trkpt>
      <trkpt lat="47.81067" lon="5.33251">
        <ele>469</ele>
        <time>2024-05-17T07:04:06.585Z</time>
      </trkpt>
      <trkpt lat="47.81069" lon="5.33259">
        <ele>469</ele>
        <time>2024-05-17T07:04:11.027Z</time>
      </trkpt>
      <trkpt lat="47.81066" lon="5.33267">
        <ele>469</ele>
        <time>2024-05-17T07:04:15.205Z</time>
      </trkpt>
      <trkpt lat="47.81066" lon="5.33275">
        <ele>469</ele>
        <time>2024-05-17T07:04:19.762Z</time>
      </trkpt>
      <trkpt lat="47.81063" lon="5.3328">
        <ele>469</ele>
        <time>2024-05-17T07:04:24.205Z</time>
      </trkpt>
      <trkpt lat="47.81056" lon="5.3328">
        <ele>469</ele>
        <time>2024-05-17T07:04:28.205Z</time>
      </trkpt>
      <trkpt lat="47.81048" lon="5.33279">
        <ele>469</ele>
        <time>2024-05-17T07:04:32.505Z</time>
      </trkpt>
      <trkpt lat="47.81041" lon="5.33281">
        <ele>470</ele>
        <time>2024-05-17T07:04:37.085Z</time>
      </trkpt>
      <trkpt lat="47.81036" lon="5.33283">
        <ele>470</ele>
        <time>2024-05-17T07:04:41.436Z</time>
      </trkpt>
      <trkpt lat="47.81031" lon="5.33285">
        <ele>470</ele>
        <time>2024-05-17T07:04:45.625Z</time>
      </trkpt>
      <trkpt lat="47.81026" lon="5.33288">
        <ele>470</ele>
        <time>2024-05-17T07:04:49.828Z</time>
      </trkpt>
      <trkpt lat="47.81021" lon="5.33291">
        <ele>470</ele>
        <time>2024-05-17T07:04:54.487Z</time>
      </trkpt>
      <trkpt lat="47.81015" lon="5.33293">
        <ele>470</ele>
        <time>2024-05-17T07:04:59.007Z</time>
      </trkpt>
      <trkpt lat="47.81009" lon="5.33296">
        <ele>469</ele>
        <time>2024-05-17T07:05:03.545Z</time>
      </trkpt>
      <trkpt lat="47.81003" lon="5.333">
        <ele>469</ele>
        <time>2024-05-17T07:05:08.125Z</time>
      </trkpt>
      <trkpt lat="47.80997" lon="5.33302">
        <ele>469</ele>
        <time>2024-05-17T07:05:12.664Z</time>
      </trkpt>
      <trkpt lat="47.80991" lon="5.33304">
        <ele>469</ele>
        <time>2024-05-17T07:05:17.204Z</time>
      </trkpt>
      <trkpt lat="47.80986" lon="5.33306">
        <ele>469</ele>
        <time>2024-05-17T07:05:21.662Z</time>
      </trkpt>
      <trkpt lat="47.8098" lon="5.3331">
        <ele>468</ele>
        <time>2024-05-17T07:05:26.204Z</time>
      </trkpt>
      <trkpt lat="47.80975" lon="5.33312">
        <ele>468</ele>
        <time>2024-05-17T07:05:30.347Z</time>
      </trkpt>
      <trkpt lat="47.8097" lon="5.33315">
        <ele>468</ele>
        <time>2024-05-17T07:05:34.661Z</time>
      </trkpt>
      <trkpt lat="47.80964" lon="5.33322">
        <ele>468</ele>
        <time>2024-05-17T07:08:35.205Z</time>
      </trkpt>
      <trkpt lat="47.80961" lon="5.33323">
        <ele>468</ele>
        <time>2024-05-17T07:08:39.868Z</time>
      </trkpt>
      <trkpt lat="47.80955" lon="5.33326">
        <ele>468</ele>
        <time>2024-05-17T07:08:44.205Z</time>
      </trkpt>
      <trkpt lat="47.80949" lon="5.33327">
        <ele>468</ele>
        <time>2024-05-17T07:08:48.237Z</time>
      </trkpt>
      <trkpt lat="47.80942" lon="5.3333">
        <ele>468</ele>
        <time>2024-05-17T07:08:53.204Z</time>
      </trkpt>
      <trkpt lat="47.80936" lon="5.33332">
        <ele>468</ele>
        <time>2024-05-17T07:08:57.825Z</time>
      </trkpt>
      <trkpt lat="47.8093" lon="5.33334">
        <ele>466</ele>
        <time>2024-05-17T07:09:02.048Z</time>
      </trkpt>
      <trkpt lat="47.80924" lon="5.33337">
        <ele>466</ele>
        <time>2024-05-17T07:09:06.585Z</time>
      </trkpt>
      <trkpt lat="47.80918" lon="5.3334">
        <ele>466</ele>
        <time>2024-05-17T07:09:11.167Z</time>
      </trkpt>
      <trkpt lat="47.80913" lon="5.33341">
        <ele>466</ele>
        <time>2024-05-17T07:09:15.508Z</time>
      </trkpt>
      <trkpt lat="47.80908" lon="5.33346">
        <ele>466</ele>
        <time>2024-05-17T07:09:19.723Z</time>
      </trkpt>
      <trkpt lat="47.80903" lon="5.3335">
        <ele>465</ele>
        <time>2024-05-17T07:09:24.007Z</time>
      </trkpt>
      <trkpt lat="47.80899" lon="5.33355">
        <ele>465</ele>
        <time>2024-05-17T07:09:28.204Z</time>
      </trkpt>
      <trkpt lat="47.80894" lon="5.33358">
        <ele>465</ele>
        <time>2024-05-17T07:09:32.586Z</time>
      </trkpt>
      <trkpt lat="47.80888" lon="5.33359">
        <ele>465</ele>
        <time>2024-05-17T07:09:36.944Z</time>
      </trkpt>
      <trkpt lat="47.80882" lon="5.33363">
        <ele>465</ele>
        <time>2024-05-17T07:09:41.205Z</time>
      </trkpt>
      <trkpt lat="47.80876" lon="5.33366">
        <ele>465</ele>
        <time>2024-05-17T07:09:45.813Z</time>
      </trkpt>
      <trkpt lat="47.80871" lon="5.33368">
        <ele>464</ele>
        <time>2024-05-17T07:09:50.501Z</time>
      </trkpt>
      <trkpt lat="47.80865" lon="5.33369">
        <ele>464</ele>
        <time>2024-05-17T07:09:55.205Z</time>
      </trkpt>
      <trkpt lat="47.80859" lon="5.3337">
        <ele>464</ele>
        <time>2024-05-17T07:09:59.705Z</time>
      </trkpt>
      <trkpt lat="47.80854" lon="5.33373">
        <ele>464</ele>
        <time>2024-05-17T07:10:04.167Z</time>
      </trkpt>
      <trkpt lat="47.80848" lon="5.33377">
        <ele>465</ele>
        <time>2024-05-17T07:10:08.603Z</time>
      </trkpt>
      <trkpt lat="47.80843" lon="5.33381">
        <ele>465</ele>
        <time>2024-05-17T07:10:13.205Z</time>
      </trkpt>
      <trkpt lat="47.80838" lon="5.33382">
        <ele>465</ele>
        <time>2024-05-17T07:10:17.548Z</time>
      </trkpt>
      <trkpt lat="47.80833" lon="5.33386">
        <ele>465</ele>
        <time>2024-05-17T07:10:22.020Z</time>
      </trkpt>
      <trkpt lat="47.80828" lon="5.33389">
        <ele>465</ele>
        <time>2024-05-17T07:10:26.080Z</time>
      </trkpt>
      <trkpt lat="47.80823" lon="5.33392">
        <ele>465</ele>
        <time>2024-05-17T07:10:30.204Z</time>
      </trkpt>
      <trkpt lat="47.80817" lon="5.33395">
        <ele>465</ele>
        <time>2024-05-17T07:10:34.782Z</time>
      </trkpt>
      <trkpt lat="47.80811" lon="5.33396">
        <ele>465</ele>
        <time>2024-05-17T07:10:39.107Z</time>
      </trkpt>
      <trkpt lat="47.80806" lon="5.33398">
        <ele>465</ele>
        <time>2024-05-17T07:10:43.509Z</time>
      </trkpt>
      <trkpt lat="47.808" lon="5.334">
        <ele>465</ele>
        <time>2024-05-17T07:10:47.722Z</time>
      </trkpt>
      <trkpt lat="47.80794" lon="5.33403">
        <ele>465</ele>
        <time>2024-05-17T07:10:52.201Z</time>
      </trkpt>
      <trkpt lat="47.80789" lon="5.33407">
        <ele>467</ele>
        <time>2024-05-17T07:10:56.425Z</time>
      </trkpt>
      <trkpt lat="47.80785" lon="5.33413">
        <ele>467</ele>
        <time>2024-05-17T07:11:01.205Z</time>
      </trkpt>
      <trkpt lat="47.80779" lon="5.33414">
        <ele>467</ele>
        <time>2024-05-17T07:11:05.483Z</time>
      </trkpt>
      <trkpt lat="47.80773" lon="5.33417">
        <ele>467</ele>
        <time>2024-05-17T07:11:09.903Z</time>
      </trkpt>
      <trkpt lat="47.80767" lon="5.3342">
        <ele>467</ele>
        <time>2024-05-17T07:11:14.601Z</time>
      </trkpt>
      <trkpt lat="47.80757" lon="5.33418">
        <ele>467</ele>
        <time>2024-05-17T07:11:18.841Z</time>
      </trkpt>
      <trkpt lat="47.8075" lon="5.3342">
        <ele>467</ele>
        <time>2024-05-17T07:11:23.125Z</time>
      </trkpt>
      <trkpt lat="47.80744" lon="5.33421">
        <ele>467</ele>
        <time>2024-05-17T07:11:28.204Z</time>
      </trkpt>
      <trkpt lat="47.80738" lon="5.33425">
        <ele>467</ele>
        <time>2024-05-17T07:11:32.627Z</time>
      </trkpt>
      <trkpt lat="47.80732" lon="5.33428">
        <ele>467</ele>
        <time>2024-05-17T07:11:36.825Z</time>
      </trkpt>
      <trkpt lat="47.80726" lon="5.3343">
        <ele>467</ele>
        <time>2024-05-17T07:11:42.188Z</time>
      </trkpt>
      <trkpt lat="47.8072" lon="5.33434">
        <ele>468</ele>
        <time>2024-05-17T07:11:46.248Z</time>
      </trkpt>
      <trkpt lat="47.80714" lon="5.33438">
        <ele>468</ele>
        <time>2024-05-17T07:11:50.608Z</time>
      </trkpt>
      <trkpt lat="47.80708" lon="5.3344">
        <ele>468</ele>
        <time>2024-05-17T07:11:54.761Z</time>
      </trkpt>
      <trkpt lat="47.80703" lon="5.33444">
        <ele>468</ele>
        <time>2024-05-17T07:11:58.865Z</time>
      </trkpt>
      <trkpt lat="47.80699" lon="5.33448">
        <ele>468</ele>
        <time>2024-05-17T07:12:03.205Z</time>
      </trkpt>
      <trkpt lat="47.80693" lon="5.3345">
        <ele>468</ele>
        <time>2024-05-17T07:12:07.642Z</time>
      </trkpt>
      <trkpt lat="47.80688" lon="5.33452">
        <ele>468</ele>
        <time>2024-05-17T07:12:11.702Z</time>
      </trkpt>
      <trkpt lat="47.80682" lon="5.33456">
        <ele>468</ele>
        <time>2024-05-17T07:12:15.967Z</time>
      </trkpt>
      <trkpt lat="47.80677" lon="5.3346">
        <ele>469</ele>
        <time>2024-05-17T07:12:20.787Z</time>
      </trkpt>
      <trkpt lat="47.80672" lon="5.33463">
        <ele>469</ele>
        <time>2024-05-17T07:12:25.026Z</time>
      </trkpt>
      <trkpt lat="47.80666" lon="5.33466">
        <ele>469</ele>
        <time>2024-05-17T07:12:29.205Z</time>
      </trkpt>
      <trkpt lat="47.80661" lon="5.3347">
        <ele>469</ele>
        <time>2024-05-17T07:12:33.386Z</time>
      </trkpt>
      <trkpt lat="47.80656" lon="5.33473">
        <ele>469</ele>
        <time>2024-05-17T07:12:37.609Z</time>
      </trkpt>
      <trkpt lat="47.8065" lon="5.33477">
        <ele>468</ele>
        <time>2024-05-17T07:12:41.762Z</time>
      </trkpt>
      <trkpt lat="47.80645" lon="5.33478">
        <ele>468</ele>
        <time>2024-05-17T07:12:46.062Z</time>
      </trkpt>
      <trkpt lat="47.80639" lon="5.33482">
        <ele>468</ele>
        <time>2024-05-17T07:12:50.406Z</time>
      </trkpt>
      <trkpt lat="47.80634" lon="5.33485">
        <ele>468</ele>
        <time>2024-05-17T07:12:54.788Z</time>
      </trkpt>
      <trkpt lat="47.80629" lon="5.33487">
        <ele>468</ele>
        <time>2024-05-17T07:12:58.926Z</time>
      </trkpt>
      <trkpt lat="47.80622" lon="5.3349">
        <ele>468</ele>
        <time>2024-05-17T07:13:03.146Z</time>
      </trkpt>
      <trkpt lat="47.80619" lon="5.33492">
        <ele>468</ele>
        <time>2024-05-17T07:13:07.363Z</time>
      </trkpt>
      <trkpt lat="47.80614" lon="5.33495">
        <ele>468</ele>
        <time>2024-05-17T07:13:11.745Z</time>
      </trkpt>
      <trkpt lat="47.80609" lon="5.33499">
        <ele>468</ele>
        <time>2024-05-17T07:13:16.204Z</time>
      </trkpt>
      <trkpt lat="47.80603" lon="5.33503">
        <ele>468</ele>
        <time>2024-05-17T07:13:21.188Z</time>
      </trkpt>
      <trkpt lat="47.80597" lon="5.33503">
        <ele>468</ele>
        <time>2024-05-17T07:13:25.709Z</time>
      </trkpt>
      <trkpt lat="47.80592" lon="5.33505">
        <ele>468</ele>
        <time>2024-05-17T07:13:29.771Z</time>
      </trkpt>
      <trkpt lat="47.80587" lon="5.33508">
        <ele>468</ele>
        <time>2024-05-17T07:13:34.068Z</time>
      </trkpt>
      <trkpt lat="47.80582" lon="5.3351">
        <ele>468</ele>
        <time>2024-05-17T07:13:38.188Z</time>
      </trkpt>
      <trkpt lat="47.80577" lon="5.33511">
        <ele>468</ele>
        <time>2024-05-17T07:13:42.205Z</time>
      </trkpt>
      <trkpt lat="47.8057" lon="5.33514">
        <ele>467</ele>
        <time>2024-05-17T07:13:46.967Z</time>
      </trkpt>
      <trkpt lat="47.80565" lon="5.33518">
        <ele>467</ele>
        <time>2024-05-17T07:13:51.187Z</time>
      </trkpt>
      <trkpt lat="47.80559" lon="5.3352">
        <ele>467</ele>
        <time>2024-05-17T07:13:55.486Z</time>
      </trkpt>
      <trkpt lat="47.80553" lon="5.33524">
        <ele>467</ele>
        <time>2024-05-17T07:14:00.205Z</time>
      </trkpt>
      <trkpt lat="47.80548" lon="5.33527">
        <ele>467</ele>
        <time>2024-05-17T07:14:04.101Z</time>
      </trkpt>
      <trkpt lat="47.80537" lon="5.33531">
        <ele>467</ele>
        <time>2024-05-17T07:14:13.284Z</time>
      </trkpt>
      <trkpt lat="47.80532" lon="5.33531">
        <ele>467</ele>
        <time>2024-05-17T07:14:17.669Z</time>
      </trkpt>
      <trkpt lat="47.80527" lon="5.33533">
        <ele>467</ele>
        <time>2024-05-17T07:14:22.071Z</time>
      </trkpt>
      <trkpt lat="47.80522" lon="5.33538">
        <ele>467</ele>
        <time>2024-05-17T07:14:26.387Z</time>
      </trkpt>
      <trkpt lat="47.80516" lon="5.33543">
        <ele>466</ele>
        <time>2024-05-17T07:14:30.586Z</time>
      </trkpt>
      <trkpt lat="47.80511" lon="5.33548">
        <ele>466</ele>
        <time>2024-05-17T07:14:35.050Z</time>
      </trkpt>
      <trkpt lat="47.80506" lon="5.33552">
        <ele>466</ele>
        <time>2024-05-17T07:14:39.351Z</time>
      </trkpt>
      <trkpt lat="47.80499" lon="5.33552">
        <ele>466</ele>
        <time>2024-05-17T07:14:44.010Z</time>
      </trkpt>
      <trkpt lat="47.80494" lon="5.33555">
        <ele>466</ele>
        <time>2024-05-17T07:14:48.529Z</time>
      </trkpt>
      <trkpt lat="47.80489" lon="5.33558">
        <ele>466</ele>
        <time>2024-05-17T07:14:52.666Z</time>
      </trkpt>
      <trkpt lat="47.80483" lon="5.33561">
        <ele>466</ele>
        <time>2024-05-17T07:14:57.008Z</time>
      </trkpt>
      <trkpt lat="47.80478" lon="5.33564">
        <ele>466</ele>
        <time>2024-05-17T07:15:01.172Z</time>
      </trkpt>
      <trkpt lat="47.80472" lon="5.33564">
        <ele>466</ele>
        <time>2024-05-17T07:15:05.626Z</time>
      </trkpt>
      <trkpt lat="47.80466" lon="5.33566">
        <ele>466</ele>
        <time>2024-05-17T07:15:10.205Z</time>
      </trkpt>
      <trkpt lat="47.80461" lon="5.33569">
        <ele>466</ele>
        <time>2024-05-17T07:15:14.565Z</time>
      </trkpt>
      <trkpt lat="47.80455" lon="5.33573">
        <ele>465</ele>
        <time>2024-05-17T07:15:18.948Z</time>
      </trkpt>
      <trkpt lat="47.8045" lon="5.33578">
        <ele>465</ele>
        <time>2024-05-17T07:15:23.112Z</time>
      </trkpt>
      <trkpt lat="47.80445" lon="5.3358">
        <ele>465</ele>
        <time>2024-05-17T07:15:27.350Z</time>
      </trkpt>
      <trkpt lat="47.8044" lon="5.3358">
        <ele>465</ele>
        <time>2024-05-17T07:15:31.746Z</time>
      </trkpt>
      <trkpt lat="47.80434" lon="5.33584">
        <ele>465</ele>
        <time>2024-05-17T07:15:36.188Z</time>
      </trkpt>
      <trkpt lat="47.80428" lon="5.33588">
        <ele>463</ele>
        <time>2024-05-17T07:15:41.011Z</time>
      </trkpt>
      <trkpt lat="47.80423" lon="5.3359">
        <ele>463</ele>
        <time>2024-05-17T07:15:45.205Z</time>
      </trkpt>
      <trkpt lat="47.80417" lon="5.33593">
        <ele>463</ele>
        <time>2024-05-17T07:15:50.109Z</time>
      </trkpt>
      <trkpt lat="47.8041" lon="5.33596">
        <ele>463</ele>
        <time>2024-05-17T07:15:54.590Z</time>
      </trkpt>
      <trkpt lat="47.80404" lon="5.33599">
        <ele>463</ele>
        <time>2024-05-17T07:15:58.871Z</time>
      </trkpt>
      <trkpt lat="47.80399" lon="5.336">
        <ele>462</ele>
        <time>2024-05-17T07:16:03.245Z</time>
      </trkpt>
      <trkpt lat="47.80393" lon="5.33602">
        <ele>462</ele>
        <time>2024-05-17T07:16:07.930Z</time>
      </trkpt>
      <trkpt lat="47.80391" lon="5.33595">
        <ele>462</ele>
        <time>2024-05-17T07:16:12.127Z</time>
      </trkpt>
      <trkpt lat="47.80385" lon="5.33599">
        <ele>462</ele>
        <time>2024-05-17T07:16:16.204Z</time>
      </trkpt>
      <trkpt lat="47.8038" lon="5.33603">
        <ele>462</ele>
        <time>2024-05-17T07:16:20.530Z</time>
      </trkpt>
      <trkpt lat="47.80374" lon="5.33608">
        <ele>462</ele>
        <time>2024-05-17T07:16:24.871Z</time>
      </trkpt>
      <trkpt lat="47.80369" lon="5.33611">
        <ele>462</ele>
        <time>2024-05-17T07:16:29.148Z</time>
      </trkpt>
      <trkpt lat="47.80363" lon="5.33614">
        <ele>462</ele>
        <time>2024-05-17T07:16:33.495Z</time>
      </trkpt>
      <trkpt lat="47.80357" lon="5.33618">
        <ele>462</ele>
        <time>2024-05-17T07:16:37.760Z</time>
      </trkpt>
      <trkpt lat="47.80352" lon="5.33621">
        <ele>462</ele>
        <time>2024-05-17T07:16:42.059Z</time>
      </trkpt>
      <trkpt lat="47.80347" lon="5.33624">
        <ele>462</ele>
        <time>2024-05-17T07:16:46.376Z</time>
      </trkpt>
      <trkpt lat="47.8034" lon="5.33628">
        <ele>461</ele>
        <time>2024-05-17T07:16:51.205Z</time>
      </trkpt>
      <trkpt lat="47.80336" lon="5.33633">
        <ele>461</ele>
        <time>2024-05-17T07:16:55.657Z</time>
      </trkpt>
      <trkpt lat="47.80331" lon="5.33636">
        <ele>461</ele>
        <time>2024-05-17T07:16:59.939Z</time>
      </trkpt>
      <trkpt lat="47.80327" lon="5.33638">
        <ele>461</ele>
        <time>2024-05-17T07:17:04.204Z</time>
      </trkpt>
      <trkpt lat="47.80323" lon="5.33642">
        <ele>461</ele>
        <time>2024-05-17T07:17:08.895Z</time>
      </trkpt>
      <trkpt lat="47.80318" lon="5.33645">
        <ele>460</ele>
        <time>2024-05-17T07:17:13.041Z</time>
      </trkpt>
      <trkpt lat="47.80312" lon="5.33647">
        <ele>460</ele>
        <time>2024-05-17T07:17:17.205Z</time>
      </trkpt>
      <trkpt lat="47.80306" lon="5.33653">
        <ele>459</ele>
        <time>2024-05-17T07:17:21.775Z</time>
      </trkpt>
      <trkpt lat="47.80297" lon="5.33654">
        <ele>459</ele>
        <time>2024-05-17T07:17:25.853Z</time>
      </trkpt>
      <trkpt lat="47.8029" lon="5.33658">
        <ele>460</ele>
        <time>2024-05-17T07:17:30.461Z</time>
      </trkpt>
      <trkpt lat="47.80283" lon="5.33663">
        <ele>460</ele>
        <time>2024-05-17T07:17:34.895Z</time>
      </trkpt>
      <trkpt lat="47.80277" lon="5.33665">
        <ele>460</ele>
        <time>2024-05-17T07:17:39.205Z</time>
      </trkpt>
      <trkpt lat="47.80271" lon="5.33669">
        <ele>460</ele>
        <time>2024-05-17T07:17:43.621Z</time>
      </trkpt>
      <trkpt lat="47.80266" lon="5.33672">
        <ele>460</ele>
        <time>2024-05-17T07:17:48.075Z</time>
      </trkpt>
      <trkpt lat="47.80261" lon="5.33672">
        <ele>461</ele>
        <time>2024-05-17T07:17:52.205Z</time>
      </trkpt>
      <trkpt lat="47.80255" lon="5.33675">
        <ele>461</ele>
        <time>2024-05-17T07:17:57.177Z</time>
      </trkpt>
      <trkpt lat="47.80248" lon="5.33677">
        <ele>461</ele>
        <time>2024-05-17T07:18:01.687Z</time>
      </trkpt>
      <trkpt lat="47.80243" lon="5.33681">
        <ele>460</ele>
        <time>2024-05-17T07:18:05.748Z</time>
      </trkpt>
      <trkpt lat="47.80238" lon="5.33684">
        <ele>460</ele>
        <time>2024-05-17T07:18:10.149Z</time>
      </trkpt>
      <trkpt lat="47.80233" lon="5.33686">
        <ele>461</ele>
        <time>2024-05-17T07:18:14.205Z</time>
      </trkpt>
      <trkpt lat="47.80227" lon="5.33689">
        <ele>461</ele>
        <time>2024-05-17T07:18:18.573Z</time>
      </trkpt>
      <trkpt lat="47.80222" lon="5.33692">
        <ele>461</ele>
        <time>2024-05-17T07:18:22.917Z</time>
      </trkpt>
      <trkpt lat="47.80219" lon="5.33697">
        <ele>461</ele>
        <time>2024-05-17T07:18:26.975Z</time>
      </trkpt>
      <trkpt lat="47.80212" lon="5.33697">
        <ele>461</ele>
        <time>2024-05-17T07:18:31.205Z</time>
      </trkpt>
      <trkpt lat="47.80206" lon="5.33698">
        <ele>461</ele>
        <time>2024-05-17T07:18:35.737Z</time>
      </trkpt>
      <trkpt lat="47.80201" lon="5.337">
        <ele>461</ele>
        <time>2024-05-17T07:18:39.973Z</time>
      </trkpt>
      <trkpt lat="47.80199" lon="5.33709">
        <ele>461</ele>
        <time>2024-05-17T07:18:44.205Z</time>
      </trkpt>
      <trkpt lat="47.80201" lon="5.33721">
        <ele>461</ele>
        <time>2024-05-17T07:18:48.573Z</time>
      </trkpt>
      <trkpt lat="47.80204" lon="5.33731">
        <ele>461</ele>
        <time>2024-05-17T07:18:53.016Z</time>
      </trkpt>
      <trkpt lat="47.80207" lon="5.33739">
        <ele>461</ele>
        <time>2024-05-17T07:18:57.411Z</time>
      </trkpt>
      <trkpt lat="47.80208" lon="5.33748">
        <ele>461</ele>
        <time>2024-05-17T07:19:01.673Z</time>
      </trkpt>
      <trkpt lat="47.8021" lon="5.33757">
        <ele>460</ele>
        <time>2024-05-17T07:19:06.032Z</time>
      </trkpt>
      <trkpt lat="47.80213" lon="5.33766">
        <ele>460</ele>
        <time>2024-05-17T07:19:10.451Z</time>
      </trkpt>
      <trkpt lat="47.80215" lon="5.33773">
        <ele>460</ele>
        <time>2024-05-17T07:19:14.852Z</time>
      </trkpt>
      <trkpt lat="47.80219" lon="5.33779">
        <ele>460</ele>
        <time>2024-05-17T07:19:19.193Z</time>
      </trkpt>
      <trkpt lat="47.80221" lon="5.33786">
        <ele>460</ele>
        <time>2024-05-17T07:19:23.449Z</time>
      </trkpt>
      <trkpt lat="47.80222" lon="5.33795">
        <ele>459</ele>
        <time>2024-05-17T07:19:27.613Z</time>
      </trkpt>
      <trkpt lat="47.80224" lon="5.33804">
        <ele>459</ele>
        <time>2024-05-17T07:19:31.971Z</time>
      </trkpt>
      <trkpt lat="47.80226" lon="5.33812">
        <ele>459</ele>
        <time>2024-05-17T07:19:36.205Z</time>
      </trkpt>
      <trkpt lat="47.80228" lon="5.3382">
        <ele>458</ele>
        <time>2024-05-17T07:19:40.790Z</time>
      </trkpt>
      <trkpt lat="47.80229" lon="5.33828">
        <ele>458</ele>
        <time>2024-05-17T07:19:45.174Z</time>
      </trkpt>
      <trkpt lat="47.80232" lon="5.33836">
        <ele>458</ele>
        <time>2024-05-17T07:19:49.430Z</time>
      </trkpt>
      <trkpt lat="47.80232" lon="5.33844">
        <ele>458</ele>
        <time>2024-05-17T07:19:53.695Z</time>
      </trkpt>
      <trkpt lat="47.80234" lon="5.33854">
        <ele>457</ele>
        <time>2024-05-17T07:19:57.952Z</time>
      </trkpt>
      <trkpt lat="47.80236" lon="5.33862">
        <ele>457</ele>
        <time>2024-05-17T07:20:02.190Z</time>
      </trkpt>
      <trkpt lat="47.80239" lon="5.33869">
        <ele>454</ele>
        <time>2024-05-17T07:20:06.669Z</time>
      </trkpt>
      <trkpt lat="47.8024" lon="5.33877">
        <ele>455</ele>
        <time>2024-05-17T07:20:10.968Z</time>
      </trkpt>
      <trkpt lat="47.80242" lon="5.33883">
        <ele>455</ele>
        <time>2024-05-17T07:20:15.190Z</time>
      </trkpt>
      <trkpt lat="47.80244" lon="5.33893">
        <ele>455</ele>
        <time>2024-05-17T07:20:19.634Z</time>
      </trkpt>
      <trkpt lat="47.80245" lon="5.33901">
        <ele>455</ele>
        <time>2024-05-17T07:20:24.009Z</time>
      </trkpt>
      <trkpt lat="47.80248" lon="5.33909">
        <ele>455</ele>
        <time>2024-05-17T07:20:28.513Z</time>
      </trkpt>
      <trkpt lat="47.8025" lon="5.33916">
        <ele>455</ele>
        <time>2024-05-17T07:20:32.889Z</time>
      </trkpt>
      <trkpt lat="47.80252" lon="5.33924">
        <ele>455</ele>
        <time>2024-05-17T07:20:37.204Z</time>
      </trkpt>
      <trkpt lat="47.80256" lon="5.33931">
        <ele>454</ele>
        <time>2024-05-17T07:20:41.814Z</time>
      </trkpt>
      <trkpt lat="47.80257" lon="5.3394">
        <ele>454</ele>
        <time>2024-05-17T07:20:46.093Z</time>
      </trkpt>
      <trkpt lat="47.80256" lon="5.33949">
        <ele>454</ele>
        <time>2024-05-17T07:20:50.554Z</time>
      </trkpt>
      <trkpt lat="47.80253" lon="5.33956">
        <ele>454</ele>
        <time>2024-05-17T07:20:54.865Z</time>
      </trkpt>
      <trkpt lat="47.8025" lon="5.33962">
        <ele>454</ele>
        <time>2024-05-17T07:20:59.146Z</time>
      </trkpt>
      <trkpt lat="47.80256" lon="5.3397">
        <ele>454</ele>
        <time>2024-05-17T07:21:03.488Z</time>
      </trkpt>
      <trkpt lat="47.80261" lon="5.33977">
        <ele>454</ele>
        <time>2024-05-17T07:21:07.788Z</time>
      </trkpt>
      <trkpt lat="47.80265" lon="5.33984">
        <ele>454</ele>
        <time>2024-05-17T07:21:12.130Z</time>
      </trkpt>
      <trkpt lat="47.80266" lon="5.33992">
        <ele>454</ele>
        <time>2024-05-17T07:21:16.205Z</time>
      </trkpt>
      <trkpt lat="47.80266" lon="5.34001">
        <ele>454</ele>
        <time>2024-05-17T07:21:20.855Z</time>
      </trkpt>
      <trkpt lat="47.80269" lon="5.34008">
        <ele>454</ele>
        <time>2024-05-17T07:21:25.197Z</time>
      </trkpt>
      <trkpt lat="47.80271" lon="5.34016">
        <ele>454</ele>
        <time>2024-05-17T07:21:29.496Z</time>
      </trkpt>
      <trkpt lat="47.80274" lon="5.34023">
        <ele>454</ele>
        <time>2024-05-17T07:21:33.922Z</time>
      </trkpt>
      <trkpt lat="47.80275" lon="5.34032">
        <ele>454</ele>
        <time>2024-05-17T07:21:38.401Z</time>
      </trkpt>
      <trkpt lat="47.80278" lon="5.34039">
        <ele>454</ele>
        <time>2024-05-17T07:21:42.580Z</time>
      </trkpt>
      <trkpt lat="47.8028" lon="5.34047">
        <ele>455</ele>
        <time>2024-05-17T07:21:47.058Z</time>
      </trkpt>
      <trkpt lat="47.80281" lon="5.34054">
        <ele>455</ele>
        <time>2024-05-17T07:21:51.638Z</time>
      </trkpt>
      <trkpt lat="47.80282" lon="5.34062">
        <ele>455</ele>
        <time>2024-05-17T07:21:56.205Z</time>
      </trkpt>
      <trkpt lat="47.80282" lon="5.3407">
        <ele>455</ele>
        <time>2024-05-17T07:22:00.278Z</time>
      </trkpt>
      <trkpt lat="47.80284" lon="5.34079">
        <ele>455</ele>
        <time>2024-05-17T07:22:05.157Z</time>
      </trkpt>
      <trkpt lat="47.80285" lon="5.34087">
        <ele>455</ele>
        <time>2024-05-17T07:22:09.205Z</time>
      </trkpt>
      <trkpt lat="47.80287" lon="5.34094">
        <ele>455</ele>
        <time>2024-05-17T07:22:13.205Z</time>
      </trkpt>
      <trkpt lat="47.8029" lon="5.34103">
        <ele>454</ele>
        <time>2024-05-17T07:22:18.204Z</time>
      </trkpt>
      <trkpt lat="47.80291" lon="5.34111">
        <ele>454</ele>
        <time>2024-05-17T07:22:22.737Z</time>
      </trkpt>
      <trkpt lat="47.80293" lon="5.3412">
        <ele>455</ele>
        <time>2024-05-17T07:22:27.138Z</time>
      </trkpt>
      <trkpt lat="47.80296" lon="5.34129">
        <ele>456</ele>
        <time>2024-05-17T07:22:32.162Z</time>
      </trkpt>
      <trkpt lat="47.80297" lon="5.34137">
        <ele>456</ele>
        <time>2024-05-17T07:22:36.205Z</time>
      </trkpt>
      <trkpt lat="47.80298" lon="5.34148">
        <ele>456</ele>
        <time>2024-05-17T07:22:41.135Z</time>
      </trkpt>
      <trkpt lat="47.803" lon="5.34155">
        <ele>456</ele>
        <time>2024-05-17T07:22:45.205Z</time>
      </trkpt>
      <trkpt lat="47.80304" lon="5.34163">
        <ele>456</ele>
        <time>2024-05-17T07:22:50.204Z</time>
      </trkpt>
      <trkpt lat="47.80306" lon="5.34171">
        <ele>456</ele>
        <time>2024-05-17T07:22:54.460Z</time>
      </trkpt>
      <trkpt lat="47.80307" lon="5.34179">
        <ele>456</ele>
        <time>2024-05-17T07:22:58.800Z</time>
      </trkpt>
      <trkpt lat="47.80309" lon="5.34187">
        <ele>456</ele>
        <time>2024-05-17T07:23:03.056Z</time>
      </trkpt>
      <trkpt lat="47.8031" lon="5.34195">
        <ele>456</ele>
        <time>2024-05-17T07:23:07.205Z</time>
      </trkpt>
      <trkpt lat="47.80311" lon="5.34204">
        <ele>456</ele>
        <time>2024-05-17T07:23:12.056Z</time>
      </trkpt>
      <trkpt lat="47.80313" lon="5.34213">
        <ele>455</ele>
        <time>2024-05-17T07:23:16.141Z</time>
      </trkpt>
      <trkpt lat="47.80315" lon="5.34219">
        <ele>455</ele>
        <time>2024-05-17T07:23:20.176Z</time>
      </trkpt>
      <trkpt lat="47.80318" lon="5.34227">
        <ele>455</ele>
        <time>2024-05-17T07:23:24.338Z</time>
      </trkpt>
      <trkpt lat="47.8032" lon="5.34235">
        <ele>456</ele>
        <time>2024-05-17T07:23:28.696Z</time>
      </trkpt>
      <trkpt lat="47.80325" lon="5.34241">
        <ele>456</ele>
        <time>2024-05-17T07:23:33.060Z</time>
      </trkpt>
      <trkpt lat="47.80323" lon="5.34249">
        <ele>456</ele>
        <time>2024-05-17T07:23:37.205Z</time>
      </trkpt>
      <trkpt lat="47.80324" lon="5.34257">
        <ele>456</ele>
        <time>2024-05-17T07:23:41.319Z</time>
      </trkpt>
      <trkpt lat="47.80326" lon="5.34266">
        <ele>454</ele>
        <time>2024-05-17T07:23:45.815Z</time>
      </trkpt>
      <trkpt lat="47.80326" lon="5.34274">
        <ele>454</ele>
        <time>2024-05-17T07:23:49.977Z</time>
      </trkpt>
      <trkpt lat="47.80329" lon="5.34283">
        <ele>454</ele>
        <time>2024-05-17T07:23:54.205Z</time>
      </trkpt>
      <trkpt lat="47.80333" lon="5.34291">
        <ele>454</ele>
        <time>2024-05-17T07:23:58.941Z</time>
      </trkpt>
      <trkpt lat="47.80334" lon="5.34299">
        <ele>453</ele>
        <time>2024-05-17T07:24:03.257Z</time>
      </trkpt>
      <trkpt lat="47.80335" lon="5.34307">
        <ele>453</ele>
        <time>2024-05-17T07:24:07.480Z</time>
      </trkpt>
      <trkpt lat="47.80336" lon="5.34317">
        <ele>453</ele>
        <time>2024-05-17T07:24:12.120Z</time>
      </trkpt>
      <trkpt lat="47.80338" lon="5.34324">
        <ele>451</ele>
        <time>2024-05-17T07:24:16.224Z</time>
      </trkpt>
      <trkpt lat="47.80341" lon="5.34334">
        <ele>451</ele>
        <time>2024-05-17T07:24:20.581Z</time>
      </trkpt>
      <trkpt lat="47.80344" lon="5.34342">
        <ele>451</ele>
        <time>2024-05-17T07:24:24.939Z</time>
      </trkpt>
      <trkpt lat="47.80343" lon="5.34351">
        <ele>450</ele>
        <time>2024-05-17T07:24:29.221Z</time>
      </trkpt>
      <trkpt lat="47.80342" lon="5.34357">
        <ele>450</ele>
        <time>2024-05-17T07:24:33.938Z</time>
      </trkpt>
      <trkpt lat="47.8034" lon="5.34363">
        <ele>450</ele>
        <time>2024-05-17T07:24:38.205Z</time>
      </trkpt>
      <trkpt lat="47.80332" lon="5.34367">
        <ele>450</ele>
        <time>2024-05-17T07:24:43.204Z</time>
      </trkpt>
      <trkpt lat="47.80327" lon="5.34372">
        <ele>450</ele>
        <time>2024-05-17T07:24:47.896Z</time>
      </trkpt>
      <trkpt lat="47.80323" lon="5.34378">
        <ele>448</ele>
        <time>2024-05-17T07:24:52.205Z</time>
      </trkpt>
      <trkpt lat="47.80319" lon="5.34382">
        <ele>449</ele>
        <time>2024-05-17T07:24:56.669Z</time>
      </trkpt>
      <trkpt lat="47.80312" lon="5.34383">
        <ele>449</ele>
        <time>2024-05-17T07:25:01.139Z</time>
      </trkpt>
      <trkpt lat="47.80305" lon="5.34386">
        <ele>449</ele>
        <time>2024-05-17T07:25:06.002Z</time>
      </trkpt>
      <trkpt lat="47.80299" lon="5.34389">
        <ele>449</ele>
        <time>2024-05-17T07:25:10.204Z</time>
      </trkpt>
      <trkpt lat="47.80294" lon="5.34392">
        <ele>449</ele>
        <time>2024-05-17T07:25:14.658Z</time>
      </trkpt>
      <trkpt lat="47.80289" lon="5.34396">
        <ele>449</ele>
        <time>2024-05-17T07:25:19.140Z</time>
      </trkpt>
      <trkpt lat="47.80281" lon="5.34395">
        <ele>449</ele>
        <time>2024-05-17T07:25:24.035Z</time>
      </trkpt>
      <trkpt lat="47.80272" lon="5.34396">
        <ele>449</ele>
        <time>2024-05-17T07:25:29.101Z</time>
      </trkpt>
      <trkpt lat="47.80266" lon="5.34397">
        <ele>449</ele>
        <time>2024-05-17T07:25:33.640Z</time>
      </trkpt>
      <trkpt lat="47.80263" lon="5.34402">
        <ele>448</ele>
        <time>2024-05-17T07:25:37.776Z</time>
      </trkpt>
      <trkpt lat="47.8026" lon="5.34406">
        <ele>447</ele>
        <time>2024-05-17T07:25:42.102Z</time>
      </trkpt>
      <trkpt lat="47.80255" lon="5.34407">
        <ele>447</ele>
        <time>2024-05-17T07:25:46.204Z</time>
      </trkpt>
      <trkpt lat="47.80252" lon="5.34409">
        <ele>447</ele>
        <time>2024-05-17T07:25:50.378Z</time>
      </trkpt>
      <trkpt lat="47.80247" lon="5.34413">
        <ele>447</ele>
        <time>2024-05-17T07:25:55.036Z</time>
      </trkpt>
      <trkpt lat="47.80243" lon="5.34416">
        <ele>447</ele>
        <time>2024-05-17T07:25:59.582Z</time>
      </trkpt>
      <trkpt lat="47.80238" lon="5.34415">
        <ele>447</ele>
        <time>2024-05-17T07:26:03.897Z</time>
      </trkpt>
      <trkpt lat="47.80233" lon="5.34418">
        <ele>447</ele>
        <time>2024-05-17T07:26:08.205Z</time>
      </trkpt>
      <trkpt lat="47.80227" lon="5.34421">
        <ele>447</ele>
        <time>2024-05-17T07:26:12.802Z</time>
      </trkpt>
      <trkpt lat="47.80221" lon="5.3442">
        <ele>447</ele>
        <time>2024-05-17T07:26:17.204Z</time>
      </trkpt>
      <trkpt lat="47.80218" lon="5.3442">
        <ele>447</ele>
        <time>2024-05-17T07:26:21.681Z</time>
      </trkpt>
      <trkpt lat="47.80211" lon="5.34422">
        <ele>447</ele>
        <time>2024-05-17T07:26:26.219Z</time>
      </trkpt>
      <trkpt lat="47.80205" lon="5.3442">
        <ele>449</ele>
        <time>2024-05-17T07:26:30.875Z</time>
      </trkpt>
      <trkpt lat="47.80199" lon="5.3442">
        <ele>449</ele>
        <time>2024-05-17T07:26:35.114Z</time>
      </trkpt>
      <trkpt lat="47.80194" lon="5.3442">
        <ele>449</ele>
        <time>2024-05-17T07:26:39.205Z</time>
      </trkpt>
      <trkpt lat="47.8019" lon="5.34418">
        <ele>449</ele>
        <time>2024-05-17T07:26:43.721Z</time>
      </trkpt>
      <trkpt lat="47.80183" lon="5.34421">
        <ele>449</ele>
        <time>2024-05-17T07:26:48.222Z</time>
      </trkpt>
      <trkpt lat="47.80177" lon="5.34422">
        <ele>447</ele>
        <time>2024-05-17T07:26:52.514Z</time>
      </trkpt>
      <trkpt lat="47.80171" lon="5.34421">
        <ele>447</ele>
        <time>2024-05-17T07:26:56.720Z</time>
      </trkpt>
      <trkpt lat="47.80165" lon="5.34421">
        <ele>447</ele>
        <time>2024-05-17T07:27:00.814Z</time>
      </trkpt>
      <trkpt lat="47.80158" lon="5.3442">
        <ele>447</ele>
        <time>2024-05-17T07:27:05.138Z</time>
      </trkpt>
      <trkpt lat="47.80152" lon="5.34421">
        <ele>444</ele>
        <time>2024-05-17T07:27:09.204Z</time>
      </trkpt>
      <trkpt lat="47.80145" lon="5.3442">
        <ele>444</ele>
        <time>2024-05-17T07:27:13.762Z</time>
      </trkpt>
      <trkpt lat="47.80139" lon="5.34421">
        <ele>444</ele>
        <time>2024-05-17T07:27:17.959Z</time>
      </trkpt>
      <trkpt lat="47.80133" lon="5.34419">
        <ele>444</ele>
        <time>2024-05-17T07:27:22.205Z</time>
      </trkpt>
      <trkpt lat="47.80127" lon="5.34419">
        <ele>444</ele>
        <time>2024-05-17T07:27:26.582Z</time>
      </trkpt>
      <trkpt lat="47.8012" lon="5.34418">
        <ele>442</ele>
        <time>2024-05-17T07:27:30.898Z</time>
      </trkpt>
      <trkpt lat="47.80115" lon="5.34416">
        <ele>442</ele>
        <time>2024-05-17T07:27:35.139Z</time>
      </trkpt>
      <trkpt lat="47.8011" lon="5.34414">
        <ele>442</ele>
        <time>2024-05-17T07:27:39.205Z</time>
      </trkpt>
      <trkpt lat="47.80103" lon="5.34411">
        <ele>442</ele>
        <time>2024-05-17T07:27:44.204Z</time>
      </trkpt>
      <trkpt lat="47.80097" lon="5.3441">
        <ele>441</ele>
        <time>2024-05-17T07:27:48.758Z</time>
      </trkpt>
      <trkpt lat="47.80092" lon="5.34409">
        <ele>441</ele>
        <time>2024-05-17T07:27:53.205Z</time>
      </trkpt>
      <trkpt lat="47.80086" lon="5.34407">
        <ele>441</ele>
        <time>2024-05-17T07:27:57.658Z</time>
      </trkpt>
      <trkpt lat="47.8008" lon="5.34406">
        <ele>441</ele>
        <time>2024-05-17T07:28:01.937Z</time>
      </trkpt>
      <trkpt lat="47.80075" lon="5.34402">
        <ele>442</ele>
        <time>2024-05-17T07:28:06.205Z</time>
      </trkpt>
      <trkpt lat="47.8007" lon="5.34396">
        <ele>442</ele>
        <time>2024-05-17T07:28:10.799Z</time>
      </trkpt>
      <trkpt lat="47.80068" lon="5.34389">
        <ele>438</ele>
        <time>2024-05-17T07:28:15.218Z</time>
      </trkpt>
      <trkpt lat="47.80065" lon="5.34382">
        <ele>438</ele>
        <time>2024-05-17T07:28:19.664Z</time>
      </trkpt>
      <trkpt lat="47.80062" lon="5.34374">
        <ele>439</ele>
        <time>2024-05-17T07:28:24.182Z</time>
      </trkpt>
      <trkpt lat="47.80062" lon="5.34364">
        <ele>439</ele>
        <time>2024-05-17T07:28:29.061Z</time>
      </trkpt>
      <trkpt lat="47.80059" lon="5.34358">
        <ele>439</ele>
        <time>2024-05-17T07:28:33.361Z</time>
      </trkpt>
      <trkpt lat="47.80054" lon="5.3435">
        <ele>439</ele>
        <time>2024-05-17T07:28:37.779Z</time>
      </trkpt>
      <trkpt lat="47.80051" lon="5.34343">
        <ele>440</ele>
        <time>2024-05-17T07:28:42.153Z</time>
      </trkpt>
      <trkpt lat="47.80045" lon="5.3434">
        <ele>440</ele>
        <time>2024-05-17T07:28:46.471Z</time>
      </trkpt>
      <trkpt lat="47.8004" lon="5.34333">
        <ele>437</ele>
        <time>2024-05-17T07:28:50.914Z</time>
      </trkpt>
      <trkpt lat="47.80034" lon="5.3433">
        <ele>437</ele>
        <time>2024-05-17T07:28:55.217Z</time>
      </trkpt>
      <trkpt lat="47.80028" lon="5.34328">
        <ele>437</ele>
        <time>2024-05-17T07:28:59.615Z</time>
      </trkpt>
      <trkpt lat="47.80022" lon="5.34326">
        <ele>437</ele>
        <time>2024-05-17T07:29:04.093Z</time>
      </trkpt>
      <trkpt lat="47.80016" lon="5.34324">
        <ele>437</ele>
        <time>2024-05-17T07:29:08.528Z</time>
      </trkpt>
      <trkpt lat="47.8001" lon="5.34323">
        <ele>437</ele>
        <time>2024-05-17T07:29:12.853Z</time>
      </trkpt>
      <trkpt lat="47.80004" lon="5.34323">
        <ele>437</ele>
        <time>2024-05-17T07:29:17.348Z</time>
      </trkpt>
      <trkpt lat="47.79998" lon="5.34322">
        <ele>437</ele>
        <time>2024-05-17T07:29:21.732Z</time>
      </trkpt>
      <trkpt lat="47.79991" lon="5.34322">
        <ele>437</ele>
        <time>2024-05-17T07:29:26.205Z</time>
      </trkpt>
      <trkpt lat="47.79985" lon="5.3432">
        <ele>442</ele>
        <time>2024-05-17T07:29:30.672Z</time>
      </trkpt>
      <trkpt lat="47.7998" lon="5.34319">
        <ele>441</ele>
        <time>2024-05-17T07:29:35.081Z</time>
      </trkpt>
      <trkpt lat="47.79973" lon="5.34319">
        <ele>442</ele>
        <time>2024-05-17T07:29:39.559Z</time>
      </trkpt>
      <trkpt lat="47.79967" lon="5.34319">
        <ele>441</ele>
        <time>2024-05-17T07:29:43.919Z</time>
      </trkpt>
      <trkpt lat="47.79961" lon="5.34317">
        <ele>441</ele>
        <time>2024-05-17T07:29:48.205Z</time>
      </trkpt>
      <trkpt lat="47.79955" lon="5.34317">
        <ele>443</ele>
        <time>2024-05-17T07:29:52.678Z</time>
      </trkpt>
      <trkpt lat="47.79949" lon="5.34317">
        <ele>443</ele>
        <time>2024-05-17T07:29:57.156Z</time>
      </trkpt>
      <trkpt lat="47.79943" lon="5.34318">
        <ele>443</ele>
        <time>2024-05-17T07:30:01.780Z</time>
      </trkpt>
      <trkpt lat="47.79937" lon="5.34318">
        <ele>443</ele>
        <time>2024-05-17T07:30:06.204Z</time>
      </trkpt>
      <trkpt lat="47.79931" lon="5.34319">
        <ele>443</ele>
        <time>2024-05-17T07:30:11.204Z</time>
      </trkpt>
      <trkpt lat="47.79925" lon="5.34317">
        <ele>442</ele>
        <time>2024-05-17T07:30:15.998Z</time>
      </trkpt>
      <trkpt lat="47.79919" lon="5.34317">
        <ele>442</ele>
        <time>2024-05-17T07:30:20.460Z</time>
      </trkpt>
      <trkpt lat="47.79913" lon="5.34316">
        <ele>442</ele>
        <time>2024-05-17T07:30:24.921Z</time>
      </trkpt>
      <trkpt lat="47.79908" lon="5.34315">
        <ele>442</ele>
        <time>2024-05-17T07:30:29.177Z</time>
      </trkpt>
      <trkpt lat="47.79902" lon="5.34315">
        <ele>442</ele>
        <time>2024-05-17T07:30:33.205Z</time>
      </trkpt>
      <trkpt lat="47.79895" lon="5.34313">
        <ele>442</ele>
        <time>2024-05-17T07:30:38.205Z</time>
      </trkpt>
      <trkpt lat="47.79889" lon="5.3431">
        <ele>442</ele>
        <time>2024-05-17T07:30:42.638Z</time>
      </trkpt>
      <trkpt lat="47.79883" lon="5.34308">
        <ele>442</ele>
        <time>2024-05-17T07:30:47.081Z</time>
      </trkpt>
      <trkpt lat="47.79877" lon="5.34306">
        <ele>442</ele>
        <time>2024-05-17T07:30:51.500Z</time>
      </trkpt>
      <trkpt lat="47.79871" lon="5.34304">
        <ele>439</ele>
        <time>2024-05-17T07:30:55.878Z</time>
      </trkpt>
      <trkpt lat="47.79865" lon="5.34303">
        <ele>439</ele>
        <time>2024-05-17T07:31:00.321Z</time>
      </trkpt>
      <trkpt lat="47.79859" lon="5.343">
        <ele>439</ele>
        <time>2024-05-17T07:31:04.755Z</time>
      </trkpt>
      <trkpt lat="47.79854" lon="5.34299">
        <ele>439</ele>
        <time>2024-05-17T07:31:09.199Z</time>
      </trkpt>
      <trkpt lat="47.79847" lon="5.34296">
        <ele>439</ele>
        <time>2024-05-17T07:31:13.558Z</time>
      </trkpt>
      <trkpt lat="47.79841" lon="5.34294">
        <ele>437</ele>
        <time>2024-05-17T07:31:18.002Z</time>
      </trkpt>
      <trkpt lat="47.79835" lon="5.34293">
        <ele>437</ele>
        <time>2024-05-17T07:31:22.379Z</time>
      </trkpt>
      <trkpt lat="47.79829" lon="5.3429">
        <ele>438</ele>
        <time>2024-05-17T07:31:26.599Z</time>
      </trkpt>
      <trkpt lat="47.79824" lon="5.34289">
        <ele>438</ele>
        <time>2024-05-17T07:31:31.036Z</time>
      </trkpt>
      <trkpt lat="47.79818" lon="5.34287">
        <ele>438</ele>
        <time>2024-05-17T07:31:35.377Z</time>
      </trkpt>
      <trkpt lat="47.79812" lon="5.34285">
        <ele>438</ele>
        <time>2024-05-17T07:31:39.778Z</time>
      </trkpt>
      <trkpt lat="47.79806" lon="5.34284">
        <ele>438</ele>
        <time>2024-05-17T07:31:44.196Z</time>
      </trkpt>
      <trkpt lat="47.798" lon="5.34283">
        <ele>438</ele>
        <time>2024-05-17T07:31:48.677Z</time>
      </trkpt>
      <trkpt lat="47.79794" lon="5.34282">
        <ele>438</ele>
        <time>2024-05-17T07:31:53.103Z</time>
      </trkpt>
      <trkpt lat="47.79788" lon="5.34282">
        <ele>441</ele>
        <time>2024-05-17T07:31:57.596Z</time>
      </trkpt>
      <trkpt lat="47.79782" lon="5.34283">
        <ele>441</ele>
        <time>2024-05-17T07:32:01.998Z</time>
      </trkpt>
      <trkpt lat="47.79776" lon="5.34284">
        <ele>441</ele>
        <time>2024-05-17T07:32:06.520Z</time>
      </trkpt>
      <trkpt lat="47.79771" lon="5.34285">
        <ele>441</ele>
        <time>2024-05-17T07:32:10.536Z</time>
      </trkpt>
      <trkpt lat="47.79766" lon="5.34285">
        <ele>441</ele>
        <time>2024-05-17T07:32:14.562Z</time>
      </trkpt>
      <trkpt lat="47.7976" lon="5.34287">
        <ele>442</ele>
        <time>2024-05-17T07:32:18.955Z</time>
      </trkpt>
      <trkpt lat="47.79754" lon="5.34286">
        <ele>442</ele>
        <time>2024-05-17T07:32:23.561Z</time>
      </trkpt>
      <trkpt lat="47.79748" lon="5.34286">
        <ele>442</ele>
        <time>2024-05-17T07:32:27.878Z</time>
      </trkpt>
      <trkpt lat="47.79742" lon="5.34287">
        <ele>442</ele>
        <time>2024-05-17T07:32:32.205Z</time>
      </trkpt>
      <trkpt lat="47.79736" lon="5.34288">
        <ele>442</ele>
        <time>2024-05-17T07:32:36.799Z</time>
      </trkpt>
      <trkpt lat="47.7973" lon="5.34289">
        <ele>443</ele>
        <time>2024-05-17T07:32:40.936Z</time>
      </trkpt>
      <trkpt lat="47.79724" lon="5.34288">
        <ele>443</ele>
        <time>2024-05-17T07:32:45.798Z</time>
      </trkpt>
      <trkpt lat="47.79718" lon="5.34289">
        <ele>443</ele>
        <time>2024-05-17T07:32:50.205Z</time>
      </trkpt>
      <trkpt lat="47.79712" lon="5.3429">
        <ele>443</ele>
        <time>2024-05-17T07:32:54.634Z</time>
      </trkpt>
      <trkpt lat="47.79707" lon="5.3429">
        <ele>443</ele>
        <time>2024-05-17T07:32:58.661Z</time>
      </trkpt>
      <trkpt lat="47.79702" lon="5.34292">
        <ele>444</ele>
        <time>2024-05-17T07:33:03.157Z</time>
      </trkpt>
      <trkpt lat="47.79696" lon="5.34293">
        <ele>444</ele>
        <time>2024-05-17T07:33:07.575Z</time>
      </trkpt>
      <trkpt lat="47.79689" lon="5.34293">
        <ele>444</ele>
        <time>2024-05-17T07:33:11.960Z</time>
      </trkpt>
      <trkpt lat="47.79683" lon="5.34293">
        <ele>444</ele>
        <time>2024-05-17T07:33:16.420Z</time>
      </trkpt>
      <trkpt lat="47.79677" lon="5.34295">
        <ele>444</ele>
        <time>2024-05-17T07:33:20.839Z</time>
      </trkpt>
      <trkpt lat="47.7967" lon="5.34296">
        <ele>444</ele>
        <time>2024-05-17T07:33:25.181Z</time>
      </trkpt>
      <trkpt lat="47.79665" lon="5.34297">
        <ele>444</ele>
        <time>2024-05-17T07:33:29.555Z</time>
      </trkpt>
      <trkpt lat="47.79658" lon="5.34299">
        <ele>444</ele>
        <time>2024-05-17T07:33:33.957Z</time>
      </trkpt>
      <trkpt lat="47.79653" lon="5.34295">
        <ele>444</ele>
        <time>2024-05-17T07:33:38.102Z</time>
      </trkpt>
      <trkpt lat="47.79647" lon="5.343">
        <ele>443</ele>
        <time>2024-05-17T07:33:42.461Z</time>
      </trkpt>
      <trkpt lat="47.79642" lon="5.343">
        <ele>443</ele>
        <time>2024-05-17T07:33:46.675Z</time>
      </trkpt>
      <trkpt lat="47.79636" lon="5.34301">
        <ele>443</ele>
        <time>2024-05-17T07:33:51.205Z</time>
      </trkpt>
      <trkpt lat="47.7963" lon="5.34301">
        <ele>443</ele>
        <time>2024-05-17T07:33:55.602Z</time>
      </trkpt>
      <trkpt lat="47.79625" lon="5.34302">
        <ele>440</ele>
        <time>2024-05-17T07:33:59.862Z</time>
      </trkpt>
      <trkpt lat="47.79618" lon="5.34301">
        <ele>440</ele>
        <time>2024-05-17T07:34:04.197Z</time>
      </trkpt>
      <trkpt lat="47.79613" lon="5.34301">
        <ele>440</ele>
        <time>2024-05-17T07:34:08.477Z</time>
      </trkpt>
      <trkpt lat="47.79606" lon="5.34302">
        <ele>440</ele>
        <time>2024-05-17T07:34:12.835Z</time>
      </trkpt>
      <trkpt lat="47.79601" lon="5.34304">
        <ele>440</ele>
        <time>2024-05-17T07:34:17.205Z</time>
      </trkpt>
      <trkpt lat="47.79594" lon="5.34303">
        <ele>439</ele>
        <time>2024-05-17T07:34:21.876Z</time>
      </trkpt>
      <trkpt lat="47.79588" lon="5.34305">
        <ele>439</ele>
        <time>2024-05-17T07:34:26.205Z</time>
      </trkpt>
      <trkpt lat="47.79582" lon="5.34308">
        <ele>439</ele>
        <time>2024-05-17T07:34:30.577Z</time>
      </trkpt>
      <trkpt lat="47.79577" lon="5.34311">
        <ele>439</ele>
        <time>2024-05-17T07:34:34.905Z</time>
      </trkpt>
      <trkpt lat="47.79571" lon="5.34314">
        <ele>439</ele>
        <time>2024-05-17T07:34:39.204Z</time>
      </trkpt>
      <trkpt lat="47.79564" lon="5.34315">
        <ele>438</ele>
        <time>2024-05-17T07:34:43.979Z</time>
      </trkpt>
      <trkpt lat="47.79559" lon="5.34318">
        <ele>438</ele>
        <time>2024-05-17T07:34:48.204Z</time>
      </trkpt>
      <trkpt lat="47.79553" lon="5.34321">
        <ele>439</ele>
        <time>2024-05-17T07:34:52.883Z</time>
      </trkpt>
      <trkpt lat="47.79547" lon="5.34324">
        <ele>439</ele>
        <time>2024-05-17T07:34:57.205Z</time>
      </trkpt>
      <trkpt lat="47.7954" lon="5.34325">
        <ele>438</ele>
        <time>2024-05-17T07:35:01.675Z</time>
      </trkpt>
      <trkpt lat="47.79534" lon="5.34327">
        <ele>438</ele>
        <time>2024-05-17T07:35:05.916Z</time>
      </trkpt>
      <trkpt lat="47.79528" lon="5.34328">
        <ele>438</ele>
        <time>2024-05-17T07:35:10.205Z</time>
      </trkpt>
      <trkpt lat="47.79523" lon="5.3433">
        <ele>438</ele>
        <time>2024-05-17T07:35:14.618Z</time>
      </trkpt>
      <trkpt lat="47.79516" lon="5.34333">
        <ele>438</ele>
        <time>2024-05-17T07:35:18.939Z</time>
      </trkpt>
      <trkpt lat="47.7951" lon="5.34334">
        <ele>438</ele>
        <time>2024-05-17T07:35:23.222Z</time>
      </trkpt>
      <trkpt lat="47.79505" lon="5.34337">
        <ele>438</ele>
        <time>2024-05-17T07:35:27.622Z</time>
      </trkpt>
      <trkpt lat="47.79498" lon="5.34339">
        <ele>438</ele>
        <time>2024-05-17T07:35:32.205Z</time>
      </trkpt>
      <trkpt lat="47.79492" lon="5.34341">
        <ele>438</ele>
        <time>2024-05-17T07:35:36.698Z</time>
      </trkpt>
      <trkpt lat="47.79486" lon="5.34343">
        <ele>438</ele>
        <time>2024-05-17T07:35:41.205Z</time>
      </trkpt>
      <trkpt lat="47.79479" lon="5.34346">
        <ele>438</ele>
        <time>2024-05-17T07:35:45.841Z</time>
      </trkpt>
      <trkpt lat="47.79473" lon="5.34348">
        <ele>438</ele>
        <time>2024-05-17T07:35:50.205Z</time>
      </trkpt>
      <trkpt lat="47.79467" lon="5.34349">
        <ele>438</ele>
        <time>2024-05-17T07:35:54.558Z</time>
      </trkpt>
      <trkpt lat="47.79462" lon="5.34352">
        <ele>438</ele>
        <time>2024-05-17T07:35:58.662Z</time>
      </trkpt>
      <trkpt lat="47.79456" lon="5.34355">
        <ele>436</ele>
        <time>2024-05-17T07:36:02.836Z</time>
      </trkpt>
      <trkpt lat="47.79451" lon="5.34357">
        <ele>436</ele>
        <time>2024-05-17T07:36:07.059Z</time>
      </trkpt>
      <trkpt lat="47.79444" lon="5.34359">
        <ele>436</ele>
        <time>2024-05-17T07:36:11.205Z</time>
      </trkpt>
      <trkpt lat="47.79438" lon="5.34361">
        <ele>436</ele>
        <time>2024-05-17T07:36:15.350Z</time>
      </trkpt>
      <trkpt lat="47.79433" lon="5.34363">
        <ele>436</ele>
        <time>2024-05-17T07:36:19.742Z</time>
      </trkpt>
      <trkpt lat="47.79427" lon="5.34366">
        <ele>435</ele>
        <time>2024-05-17T07:36:24.041Z</time>
      </trkpt>
      <trkpt lat="47.7942" lon="5.34368">
        <ele>435</ele>
        <time>2024-05-17T07:36:28.383Z</time>
      </trkpt>
      <trkpt lat="47.79414" lon="5.34371">
        <ele>435</ele>
        <time>2024-05-17T07:36:33.205Z</time>
      </trkpt>
      <trkpt lat="47.79407" lon="5.34373">
        <ele>435</ele>
        <time>2024-05-17T07:36:38.056Z</time>
      </trkpt>
      <trkpt lat="47.79401" lon="5.34376">
        <ele>436</ele>
        <time>2024-05-17T07:36:42.401Z</time>
      </trkpt>
      <trkpt lat="47.79395" lon="5.34375">
        <ele>436</ele>
        <time>2024-05-17T07:36:46.815Z</time>
      </trkpt>
      <trkpt lat="47.7939" lon="5.34377">
        <ele>436</ele>
        <time>2024-05-17T07:36:51.080Z</time>
      </trkpt>
      <trkpt lat="47.79383" lon="5.34382">
        <ele>436</ele>
        <time>2024-05-17T07:36:55.379Z</time>
      </trkpt>
      <trkpt lat="47.79378" lon="5.34384">
        <ele>436</ele>
        <time>2024-05-17T07:36:59.677Z</time>
      </trkpt>
      <trkpt lat="47.79372" lon="5.34386">
        <ele>435</ele>
        <time>2024-05-17T07:37:04.062Z</time>
      </trkpt>
      <trkpt lat="47.79366" lon="5.34388">
        <ele>435</ele>
        <time>2024-05-17T07:37:08.378Z</time>
      </trkpt>
      <trkpt lat="47.7936" lon="5.3439">
        <ele>435</ele>
        <time>2024-05-17T07:37:12.762Z</time>
      </trkpt>
      <trkpt lat="47.79354" lon="5.34392">
        <ele>435</ele>
        <time>2024-05-17T07:37:17.204Z</time>
      </trkpt>
      <trkpt lat="47.79347" lon="5.34395">
        <ele>434</ele>
        <time>2024-05-17T07:37:22.017Z</time>
      </trkpt>
      <trkpt lat="47.79342" lon="5.34396">
        <ele>434</ele>
        <time>2024-05-17T07:37:26.205Z</time>
      </trkpt>
      <trkpt lat="47.79336" lon="5.34398">
        <ele>434</ele>
        <time>2024-05-17T07:37:30.282Z</time>
      </trkpt>
      <trkpt lat="47.7933" lon="5.34402">
        <ele>434</ele>
        <time>2024-05-17T07:37:35.042Z</time>
      </trkpt>
      <trkpt lat="47.79323" lon="5.34405">
        <ele>435</ele>
        <time>2024-05-17T07:37:39.835Z</time>
      </trkpt>
      <trkpt lat="47.79317" lon="5.34408">
        <ele>434</ele>
        <time>2024-05-17T07:37:44.135Z</time>
      </trkpt>
      <trkpt lat="47.79311" lon="5.34411">
        <ele>434</ele>
        <time>2024-05-17T07:37:48.195Z</time>
      </trkpt>
      <trkpt lat="47.79305" lon="5.34414">
        <ele>434</ele>
        <time>2024-05-17T07:37:53.204Z</time>
      </trkpt>
      <trkpt lat="47.79298" lon="5.34418">
        <ele>434</ele>
        <time>2024-05-17T07:37:58.221Z</time>
      </trkpt>
      <trkpt lat="47.79293" lon="5.34421">
        <ele>434</ele>
        <time>2024-05-17T07:38:02.456Z</time>
      </trkpt>
      <trkpt lat="47.79286" lon="5.34423">
        <ele>433</ele>
        <time>2024-05-17T07:38:06.840Z</time>
      </trkpt>
      <trkpt lat="47.7928" lon="5.34425">
        <ele>433</ele>
        <time>2024-05-17T07:38:11.205Z</time>
      </trkpt>
      <trkpt lat="47.79274" lon="5.34427">
        <ele>433</ele>
        <time>2024-05-17T07:38:15.515Z</time>
      </trkpt>
      <trkpt lat="47.79268" lon="5.34429">
        <ele>433</ele>
        <time>2024-05-17T07:38:19.798Z</time>
      </trkpt>
      <trkpt lat="47.79261" lon="5.34431">
        <ele>433</ele>
        <time>2024-05-17T07:38:24.097Z</time>
      </trkpt>
      <trkpt lat="47.79257" lon="5.34433">
        <ele>433</ele>
        <time>2024-05-17T07:38:28.205Z</time>
      </trkpt>
      <trkpt lat="47.79249" lon="5.34435">
        <ele>433</ele>
        <time>2024-05-17T07:38:33.205Z</time>
      </trkpt>
      <trkpt lat="47.79243" lon="5.34437">
        <ele>433</ele>
        <time>2024-05-17T07:38:37.404Z</time>
      </trkpt>
      <trkpt lat="47.79237" lon="5.34437">
        <ele>433</ele>
        <time>2024-05-17T07:38:41.642Z</time>
      </trkpt>
      <trkpt lat="47.7923" lon="5.34438">
        <ele>433</ele>
        <time>2024-05-17T07:38:46.205Z</time>
      </trkpt>
      <trkpt lat="47.79224" lon="5.3444">
        <ele>433</ele>
        <time>2024-05-17T07:38:50.820Z</time>
      </trkpt>
      <trkpt lat="47.79218" lon="5.34441">
        <ele>433</ele>
        <time>2024-05-17T07:38:55.244Z</time>
      </trkpt>
      <trkpt lat="47.79211" lon="5.34444">
        <ele>433</ele>
        <time>2024-05-17T07:39:00.015Z</time>
      </trkpt>
      <trkpt lat="47.79205" lon="5.34446">
        <ele>431</ele>
        <time>2024-05-17T07:39:04.536Z</time>
      </trkpt>
      <trkpt lat="47.792" lon="5.34447">
        <ele>431</ele>
        <time>2024-05-17T07:39:08.845Z</time>
      </trkpt>
      <trkpt lat="47.79192" lon="5.34448">
        <ele>431</ele>
        <time>2024-05-17T07:39:13.203Z</time>
      </trkpt>
      <trkpt lat="47.79185" lon="5.34452">
        <ele>431</ele>
        <time>2024-05-17T07:39:18.116Z</time>
      </trkpt>
      <trkpt lat="47.79179" lon="5.34452">
        <ele>430</ele>
        <time>2024-05-17T07:39:22.205Z</time>
      </trkpt>
      <trkpt lat="47.79173" lon="5.34456">
        <ele>430</ele>
        <time>2024-05-17T07:39:27.205Z</time>
      </trkpt>
      <trkpt lat="47.79166" lon="5.34456">
        <ele>430</ele>
        <time>2024-05-17T07:39:32.122Z</time>
      </trkpt>
      <trkpt lat="47.79161" lon="5.34453">
        <ele>430</ele>
        <time>2024-05-17T07:39:36.205Z</time>
      </trkpt>
      <trkpt lat="47.79156" lon="5.34444">
        <ele>430</ele>
        <time>2024-05-17T07:39:41.205Z</time>
      </trkpt>
      <trkpt lat="47.79153" lon="5.34438">
        <ele>429</ele>
        <time>2024-05-17T07:39:45.763Z</time>
      </trkpt>
      <trkpt lat="47.79154" lon="5.34431">
        <ele>430</ele>
        <time>2024-05-17T07:39:50.204Z</time>
      </trkpt>
      <trkpt lat="47.79155" lon="5.34427">
        <ele>430</ele>
        <time>2024-05-17T07:39:54.803Z</time>
      </trkpt>
      <trkpt lat="47.79153" lon="5.34419">
        <ele>430</ele>
        <time>2024-05-17T07:39:59.204Z</time>
      </trkpt>
      <trkpt lat="47.79151" lon="5.34414">
        <ele>430</ele>
        <time>2024-05-17T07:40:03.561Z</time>
      </trkpt>
      <trkpt lat="47.79153" lon="5.34403">
        <ele>430</ele>
        <time>2024-05-17T07:41:09.205Z</time>
      </trkpt>
      <trkpt lat="47.79152" lon="5.34401">
        <ele>430</ele>
        <time>2024-05-17T07:41:14.205Z</time>
      </trkpt>
      <trkpt lat="47.79151" lon="5.34398">
        <ele>430</ele>
        <time>2024-05-17T07:41:19.205Z</time>
      </trkpt>
      <trkpt lat="47.79151" lon="5.34396">
        <ele>430</ele>
        <time>2024-05-17T07:41:23.298Z</time>
      </trkpt>
      <trkpt lat="47.79149" lon="5.34384">
        <ele>430</ele>
        <time>2024-05-17T07:41:27.460Z</time>
      </trkpt>
      <trkpt lat="47.79146" lon="5.34375">
        <ele>430</ele>
        <time>2024-05-17T07:41:31.598Z</time>
      </trkpt>
      <trkpt lat="47.79141" lon="5.34368">
        <ele>429</ele>
        <time>2024-05-17T07:41:35.735Z</time>
      </trkpt>
      <trkpt lat="47.79137" lon="5.34361">
        <ele>429</ele>
        <time>2024-05-17T07:41:39.957Z</time>
      </trkpt>
      <trkpt lat="47.79132" lon="5.34356">
        <ele>429</ele>
        <time>2024-05-17T07:41:44.103Z</time>
      </trkpt>
      <trkpt lat="47.79127" lon="5.34352">
        <ele>429</ele>
        <time>2024-05-17T07:41:48.204Z</time>
      </trkpt>
      <trkpt lat="47.79123" lon="5.34349">
        <ele>428</ele>
        <time>2024-05-17T07:41:52.206Z</time>
      </trkpt>
      <trkpt lat="47.79118" lon="5.34344">
        <ele>428</ele>
        <time>2024-05-17T07:41:56.582Z</time>
      </trkpt>
      <trkpt lat="47.79113" lon="5.34339">
        <ele>428</ele>
        <time>2024-05-17T07:42:00.956Z</time>
      </trkpt>
      <trkpt lat="47.79109" lon="5.34333">
        <ele>428</ele>
        <time>2024-05-17T07:42:05.120Z</time>
      </trkpt>
      <trkpt lat="47.79106" lon="5.34327">
        <ele>428</ele>
        <time>2024-05-17T07:42:09.197Z</time>
      </trkpt>
      <trkpt lat="47.79105" lon="5.34317">
        <ele>428</ele>
        <time>2024-05-17T07:42:13.555Z</time>
      </trkpt>
      <trkpt lat="47.79103" lon="5.3431">
        <ele>428</ele>
        <time>2024-05-17T07:42:18.205Z</time>
      </trkpt>
      <trkpt lat="47.79101" lon="5.34303">
        <ele>428</ele>
        <time>2024-05-17T07:42:22.246Z</time>
      </trkpt>
      <trkpt lat="47.79101" lon="5.34294">
        <ele>428</ele>
        <time>2024-05-17T07:42:26.617Z</time>
      </trkpt>
      <trkpt lat="47.791" lon="5.34286">
        <ele>429</ele>
        <time>2024-05-17T07:42:31.120Z</time>
      </trkpt>
      <trkpt lat="47.79099" lon="5.34276">
        <ele>429</ele>
        <time>2024-05-17T07:42:35.597Z</time>
      </trkpt>
      <trkpt lat="47.79099" lon="5.34267">
        <ele>429</ele>
        <time>2024-05-17T07:42:39.981Z</time>
      </trkpt>
      <trkpt lat="47.79098" lon="5.34258">
        <ele>431</ele>
        <time>2024-05-17T07:42:44.160Z</time>
      </trkpt>
      <trkpt lat="47.79097" lon="5.34248">
        <ele>432</ele>
        <time>2024-05-17T07:42:48.624Z</time>
      </trkpt>
      <trkpt lat="47.79095" lon="5.34241">
        <ele>432</ele>
        <time>2024-05-17T07:42:52.718Z</time>
      </trkpt>
      <trkpt lat="47.79097" lon="5.34233">
        <ele>436</ele>
        <time>2024-05-17T07:42:57.134Z</time>
      </trkpt>
      <trkpt lat="47.79096" lon="5.34222">
        <ele>436</ele>
        <time>2024-05-17T07:43:01.160Z</time>
      </trkpt>
      <trkpt lat="47.79096" lon="5.34216">
        <ele>436</ele>
        <time>2024-05-17T07:43:05.195Z</time>
      </trkpt>
      <trkpt lat="47.79095" lon="5.34206">
        <ele>439</ele>
        <time>2024-05-17T07:43:09.715Z</time>
      </trkpt>
      <trkpt lat="47.79095" lon="5.34199">
        <ele>439</ele>
        <time>2024-05-17T07:43:13.776Z</time>
      </trkpt>
      <trkpt lat="47.79095" lon="5.34191">
        <ele>439</ele>
        <time>2024-05-17T07:43:17.802Z</time>
      </trkpt>
      <trkpt lat="47.79094" lon="5.34183">
        <ele>439</ele>
        <time>2024-05-17T07:43:22.205Z</time>
      </trkpt>
      <trkpt lat="47.79093" lon="5.34173">
        <ele>440</ele>
        <time>2024-05-17T07:43:26.860Z</time>
      </trkpt>
      <trkpt lat="47.79093" lon="5.34165">
        <ele>440</ele>
        <time>2024-05-17T07:43:31.204Z</time>
      </trkpt>
      <trkpt lat="47.79093" lon="5.34156">
        <ele>440</ele>
        <time>2024-05-17T07:43:35.842Z</time>
      </trkpt>
      <trkpt lat="47.79094" lon="5.34148">
        <ele>440</ele>
        <time>2024-05-17T07:43:40.205Z</time>
      </trkpt>
      <trkpt lat="47.79093" lon="5.34139">
        <ele>440</ele>
        <time>2024-05-17T07:43:44.876Z</time>
      </trkpt>
      <trkpt lat="47.79091" lon="5.3413">
        <ele>440</ele>
        <time>2024-05-17T07:43:49.157Z</time>
      </trkpt>
      <trkpt lat="47.79091" lon="5.34119">
        <ele>439</ele>
        <time>2024-05-17T07:43:53.205Z</time>
      </trkpt>
      <trkpt lat="47.79088" lon="5.3411">
        <ele>439</ele>
        <time>2024-05-17T07:43:57.662Z</time>
      </trkpt>
      <trkpt lat="47.79089" lon="5.34101">
        <ele>439</ele>
        <time>2024-05-17T07:44:02.204Z</time>
      </trkpt>
      <trkpt lat="47.79089" lon="5.34092">
        <ele>437</ele>
        <time>2024-05-17T07:44:06.840Z</time>
      </trkpt>
      <trkpt lat="47.79088" lon="5.3408">
        <ele>437</ele>
        <time>2024-05-17T07:44:11.944Z</time>
      </trkpt>
      <trkpt lat="47.79088" lon="5.34072">
        <ele>437</ele>
        <time>2024-05-17T07:44:16.205Z</time>
      </trkpt>
      <trkpt lat="47.79087" lon="5.34063">
        <ele>435</ele>
        <time>2024-05-17T07:44:20.581Z</time>
      </trkpt>
      <trkpt lat="47.79088" lon="5.34054">
        <ele>435</ele>
        <time>2024-05-17T07:44:24.925Z</time>
      </trkpt>
      <trkpt lat="47.7909" lon="5.34045">
        <ele>435</ele>
        <time>2024-05-17T07:44:29.204Z</time>
      </trkpt>
      <trkpt lat="47.7909" lon="5.34035">
        <ele>433</ele>
        <time>2024-05-17T07:44:34.205Z</time>
      </trkpt>
      <trkpt lat="47.79091" lon="5.34025">
        <ele>433</ele>
        <time>2024-05-17T07:44:39.023Z</time>
      </trkpt>
      <trkpt lat="47.79092" lon="5.34016">
        <ele>433</ele>
        <time>2024-05-17T07:44:43.204Z</time>
      </trkpt>
      <trkpt lat="47.79093" lon="5.34007">
        <ele>432</ele>
        <time>2024-05-17T07:44:47.755Z</time>
      </trkpt>
      <trkpt lat="47.79095" lon="5.33997">
        <ele>432</ele>
        <time>2024-05-17T07:44:52.098Z</time>
      </trkpt>
      <trkpt lat="47.79096" lon="5.3399">
        <ele>432</ele>
        <time>2024-05-17T07:44:56.204Z</time>
      </trkpt>
      <trkpt lat="47.79098" lon="5.3398">
        <ele>434</ele>
        <time>2024-05-17T07:45:01.131Z</time>
      </trkpt>
      <trkpt lat="47.791" lon="5.33971">
        <ele>434</ele>
        <time>2024-05-17T07:45:05.205Z</time>
      </trkpt>
      <trkpt lat="47.79102" lon="5.33963">
        <ele>434</ele>
        <time>2024-05-17T07:45:09.711Z</time>
      </trkpt>
      <trkpt lat="47.79107" lon="5.33955">
        <ele>435</ele>
        <time>2024-05-17T07:45:14.204Z</time>
      </trkpt>
      <trkpt lat="47.7911" lon="5.33948">
        <ele>435</ele>
        <time>2024-05-17T07:45:18.916Z</time>
      </trkpt>
      <trkpt lat="47.79115" lon="5.33942">
        <ele>435</ele>
        <time>2024-05-17T07:45:23.097Z</time>
      </trkpt>
      <trkpt lat="47.7912" lon="5.33935">
        <ele>435</ele>
        <time>2024-05-17T07:45:27.976Z</time>
      </trkpt>
      <trkpt lat="47.79124" lon="5.33929">
        <ele>435</ele>
        <time>2024-05-17T07:45:32.138Z</time>
      </trkpt>
      <trkpt lat="47.79128" lon="5.33925">
        <ele>435</ele>
        <time>2024-05-17T07:45:36.205Z</time>
      </trkpt>
      <trkpt lat="47.79133" lon="5.33918">
        <ele>435</ele>
        <time>2024-05-17T07:45:40.898Z</time>
      </trkpt>
      <trkpt lat="47.79135" lon="5.33912">
        <ele>435</ele>
        <time>2024-05-17T07:45:44.958Z</time>
      </trkpt>
      <trkpt lat="47.7914" lon="5.33904">
        <ele>435</ele>
        <time>2024-05-17T07:45:49.205Z</time>
      </trkpt>
      <trkpt lat="47.79142" lon="5.33898">
        <ele>435</ele>
        <time>2024-05-17T07:45:53.454Z</time>
      </trkpt>
      <trkpt lat="47.79146" lon="5.33889">
        <ele>435</ele>
        <time>2024-05-17T07:45:57.932Z</time>
      </trkpt>
      <trkpt lat="47.79148" lon="5.33883">
        <ele>435</ele>
        <time>2024-05-17T07:46:02.368Z</time>
      </trkpt>
      <trkpt lat="47.79151" lon="5.33874">
        <ele>435</ele>
        <time>2024-05-17T07:46:06.847Z</time>
      </trkpt>
      <trkpt lat="47.79154" lon="5.33867">
        <ele>436</ele>
        <time>2024-05-17T07:46:11.205Z</time>
      </trkpt>
      <trkpt lat="47.79156" lon="5.33858">
        <ele>436</ele>
        <time>2024-05-17T07:46:15.745Z</time>
      </trkpt>
      <trkpt lat="47.7916" lon="5.33849">
        <ele>436</ele>
        <time>2024-05-17T07:46:20.188Z</time>
      </trkpt>
      <trkpt lat="47.7916" lon="5.33841">
        <ele>437</ele>
        <time>2024-05-17T07:46:24.581Z</time>
      </trkpt>
      <trkpt lat="47.79165" lon="5.33833">
        <ele>437</ele>
        <time>2024-05-17T07:46:28.846Z</time>
      </trkpt>
      <trkpt lat="47.79167" lon="5.33826">
        <ele>437</ele>
        <time>2024-05-17T07:46:33.042Z</time>
      </trkpt>
      <trkpt lat="47.7917" lon="5.33818">
        <ele>437</ele>
        <time>2024-05-17T07:46:37.387Z</time>
      </trkpt>
      <trkpt lat="47.79171" lon="5.3381">
        <ele>437</ele>
        <time>2024-05-17T07:46:41.726Z</time>
      </trkpt>
      <trkpt lat="47.79174" lon="5.33802">
        <ele>437</ele>
        <time>2024-05-17T07:46:46.102Z</time>
      </trkpt>
      <trkpt lat="47.79177" lon="5.33794">
        <ele>437</ele>
        <time>2024-05-17T07:46:50.803Z</time>
      </trkpt>
      <trkpt lat="47.79179" lon="5.33785">
        <ele>438</ele>
        <time>2024-05-17T07:46:55.161Z</time>
      </trkpt>
      <trkpt lat="47.79179" lon="5.33778">
        <ele>438</ele>
        <time>2024-05-17T07:46:59.708Z</time>
      </trkpt>
      <trkpt lat="47.79182" lon="5.33768">
        <ele>438</ele>
        <time>2024-05-17T07:47:04.161Z</time>
      </trkpt>
      <trkpt lat="47.79183" lon="5.33762">
        <ele>439</ele>
        <time>2024-05-17T07:47:08.205Z</time>
      </trkpt>
      <trkpt lat="47.79185" lon="5.33754">
        <ele>439</ele>
        <time>2024-05-17T07:47:12.647Z</time>
      </trkpt>
      <trkpt lat="47.79187" lon="5.33743">
        <ele>439</ele>
        <time>2024-05-17T07:47:17.066Z</time>
      </trkpt>
      <trkpt lat="47.79188" lon="5.33736">
        <ele>440</ele>
        <time>2024-05-17T07:47:21.205Z</time>
      </trkpt>
      <trkpt lat="47.7919" lon="5.33727">
        <ele>440</ele>
        <time>2024-05-17T07:47:25.426Z</time>
      </trkpt>
      <trkpt lat="47.79189" lon="5.3372">
        <ele>440</ele>
        <time>2024-05-17T07:47:29.888Z</time>
      </trkpt>
      <trkpt lat="47.79192" lon="5.33711">
        <ele>440</ele>
        <time>2024-05-17T07:47:34.845Z</time>
      </trkpt>
      <trkpt lat="47.79193" lon="5.33703">
        <ele>442</ele>
        <time>2024-05-17T07:47:39.204Z</time>
      </trkpt>
      <trkpt lat="47.79195" lon="5.33694">
        <ele>442</ele>
        <time>2024-05-17T07:47:44.107Z</time>
      </trkpt>
      <trkpt lat="47.79198" lon="5.33685">
        <ele>442</ele>
        <time>2024-05-17T07:47:48.212Z</time>
      </trkpt>
      <trkpt lat="47.79199" lon="5.33679">
        <ele>444</ele>
        <time>2024-05-17T07:47:52.427Z</time>
      </trkpt>
      <trkpt lat="47.79202" lon="5.33669">
        <ele>444</ele>
        <time>2024-05-17T07:47:57.204Z</time>
      </trkpt>
      <trkpt lat="47.79205" lon="5.33662">
        <ele>444</ele>
        <time>2024-05-17T07:48:01.743Z</time>
      </trkpt>
      <trkpt lat="47.79208" lon="5.33655">
        <ele>444</ele>
        <time>2024-05-17T07:48:05.945Z</time>
      </trkpt>
      <trkpt lat="47.7921" lon="5.33646">
        <ele>444</ele>
        <time>2024-05-17T07:48:10.185Z</time>
      </trkpt>
      <trkpt lat="47.79214" lon="5.33637">
        <ele>444</ele>
        <time>2024-05-17T07:48:14.945Z</time>
      </trkpt>
      <trkpt lat="47.79217" lon="5.33629">
        <ele>444</ele>
        <time>2024-05-17T07:48:19.185Z</time>
      </trkpt>
      <trkpt lat="47.7922" lon="5.33623">
        <ele>445</ele>
        <time>2024-05-17T07:48:23.205Z</time>
      </trkpt>
      <trkpt lat="47.79224" lon="5.33615">
        <ele>445</ele>
        <time>2024-05-17T07:48:28.141Z</time>
      </trkpt>
      <trkpt lat="47.79226" lon="5.33607">
        <ele>445</ele>
        <time>2024-05-17T07:48:32.205Z</time>
      </trkpt>
      <trkpt lat="47.79229" lon="5.33599">
        <ele>445</ele>
        <time>2024-05-17T07:48:36.442Z</time>
      </trkpt>
      <trkpt lat="47.79231" lon="5.33591">
        <ele>445</ele>
        <time>2024-05-17T07:48:40.641Z</time>
      </trkpt>
      <trkpt lat="47.79233" lon="5.33582">
        <ele>445</ele>
        <time>2024-05-17T07:48:44.801Z</time>
      </trkpt>
      <trkpt lat="47.79236" lon="5.33575">
        <ele>445</ele>
        <time>2024-05-17T07:48:49.085Z</time>
      </trkpt>
      <trkpt lat="47.79236" lon="5.33565">
        <ele>444</ele>
        <time>2024-05-17T07:48:53.205Z</time>
      </trkpt>
      <trkpt lat="47.79237" lon="5.33558">
        <ele>445</ele>
        <time>2024-05-17T07:48:57.205Z</time>
      </trkpt>
      <trkpt lat="47.79239" lon="5.33549">
        <ele>445</ele>
        <time>2024-05-17T07:49:01.802Z</time>
      </trkpt>
      <trkpt lat="47.7924" lon="5.3354">
        <ele>445</ele>
        <time>2024-05-17T07:49:05.821Z</time>
      </trkpt>
      <trkpt lat="47.79241" lon="5.33531">
        <ele>445</ele>
        <time>2024-05-17T07:49:10.196Z</time>
      </trkpt>
      <trkpt lat="47.79243" lon="5.33523">
        <ele>445</ele>
        <time>2024-05-17T07:49:14.505Z</time>
      </trkpt>
      <trkpt lat="47.79245" lon="5.33515">
        <ele>445</ele>
        <time>2024-05-17T07:49:18.658Z</time>
      </trkpt>
      <trkpt lat="47.79246" lon="5.33506">
        <ele>444</ele>
        <time>2024-05-17T07:49:22.820Z</time>
      </trkpt>
      <trkpt lat="47.79242" lon="5.33498">
        <ele>444</ele>
        <time>2024-05-17T07:49:27.205Z</time>
      </trkpt>
      <trkpt lat="47.79237" lon="5.33496">
        <ele>444</ele>
        <time>2024-05-17T07:49:31.486Z</time>
      </trkpt>
      <trkpt lat="47.79231" lon="5.33498">
        <ele>444</ele>
        <time>2024-05-17T07:49:35.686Z</time>
      </trkpt>
      <trkpt lat="47.79226" lon="5.335">
        <ele>444</ele>
        <time>2024-05-17T07:49:39.821Z</time>
      </trkpt>
      <trkpt lat="47.79224" lon="5.33501">
        <ele>444</ele>
        <time>2024-05-17T07:49:40.849Z</time>
      </trkpt>
      <trkpt lat="47.79215" lon="5.33508">
        <ele>444</ele>
        <time>2024-05-17T07:49:49.745Z</time>
      </trkpt>
      <trkpt lat="47.79208" lon="5.33511">
        <ele>444</ele>
        <time>2024-05-17T07:49:53.948Z</time>
      </trkpt>
      <trkpt lat="47.79202" lon="5.33514">
        <ele>443</ele>
        <time>2024-05-17T07:49:58.205Z</time>
      </trkpt>
      <trkpt lat="47.79195" lon="5.33516">
        <ele>443</ele>
        <time>2024-05-17T07:50:03.029Z</time>
      </trkpt>
      <trkpt lat="47.7919" lon="5.33519">
        <ele>443</ele>
        <time>2024-05-17T07:50:07.085Z</time>
      </trkpt>
      <trkpt lat="47.79184" lon="5.33521">
        <ele>443</ele>
        <time>2024-05-17T07:50:11.163Z</time>
      </trkpt>
      <trkpt lat="47.79179" lon="5.33524">
        <ele>443</ele>
        <time>2024-05-17T07:50:15.204Z</time>
      </trkpt>
      <trkpt lat="47.79173" lon="5.33527">
        <ele>443</ele>
        <time>2024-05-17T07:50:20.121Z</time>
      </trkpt>
      <trkpt lat="47.79167" lon="5.33529">
        <ele>443</ele>
        <time>2024-05-17T07:50:24.325Z</time>
      </trkpt>
      <trkpt lat="47.79161" lon="5.33531">
        <ele>443</ele>
        <time>2024-05-17T07:50:28.522Z</time>
      </trkpt>
      <trkpt lat="47.79155" lon="5.33532">
        <ele>443</ele>
        <time>2024-05-17T07:50:32.925Z</time>
      </trkpt>
      <trkpt lat="47.79149" lon="5.33535">
        <ele>441</ele>
        <time>2024-05-17T07:50:37.183Z</time>
      </trkpt>
      <trkpt lat="47.79144" lon="5.33536">
        <ele>441</ele>
        <time>2024-05-17T07:50:41.686Z</time>
      </trkpt>
      <trkpt lat="47.79138" lon="5.33538">
        <ele>441</ele>
        <time>2024-05-17T07:50:45.866Z</time>
      </trkpt>
      <trkpt lat="47.79133" lon="5.33542">
        <ele>441</ele>
        <time>2024-05-17T07:50:50.062Z</time>
      </trkpt>
      <trkpt lat="47.79128" lon="5.33546">
        <ele>442</ele>
        <time>2024-05-17T07:50:54.285Z</time>
      </trkpt>
      <trkpt lat="47.79123" lon="5.3355">
        <ele>440</ele>
        <time>2024-05-17T07:50:58.408Z</time>
      </trkpt>
      <trkpt lat="47.79119" lon="5.33555">
        <ele>440</ele>
        <time>2024-05-17T07:51:02.986Z</time>
      </trkpt>
      <trkpt lat="47.79114" lon="5.33558">
        <ele>440</ele>
        <time>2024-05-17T07:51:07.205Z</time>
      </trkpt>
      <trkpt lat="47.79108" lon="5.33561">
        <ele>440</ele>
        <time>2024-05-17T07:51:11.841Z</time>
      </trkpt>
      <trkpt lat="47.79103" lon="5.33565">
        <ele>440</ele>
        <time>2024-05-17T07:51:16.345Z</time>
      </trkpt>
      <trkpt lat="47.79097" lon="5.33568">
        <ele>440</ele>
        <time>2024-05-17T07:51:20.885Z</time>
      </trkpt>
      <trkpt lat="47.79092" lon="5.33571">
        <ele>440</ele>
        <time>2024-05-17T07:51:25.285Z</time>
      </trkpt>
      <trkpt lat="47.79087" lon="5.33574">
        <ele>440</ele>
        <time>2024-05-17T07:51:29.886Z</time>
      </trkpt>
      <trkpt lat="47.79084" lon="5.33575">
        <ele>440</ele>
        <time>2024-05-17T07:51:33.304Z</time>
      </trkpt>
      <trkpt lat="47.79073" lon="5.33582">
        <ele>440</ele>
        <time>2024-05-17T07:51:42.418Z</time>
      </trkpt>
      <trkpt lat="47.79067" lon="5.33586">
        <ele>440</ele>
        <time>2024-05-17T07:51:47.204Z</time>
      </trkpt>
      <trkpt lat="47.79062" lon="5.33587">
        <ele>440</ele>
        <time>2024-05-17T07:51:51.424Z</time>
      </trkpt>
      <trkpt lat="47.79056" lon="5.33591">
        <ele>440</ele>
        <time>2024-05-17T07:51:56.204Z</time>
      </trkpt>
      <trkpt lat="47.79051" lon="5.33593">
        <ele>440</ele>
        <time>2024-05-17T07:52:00.373Z</time>
      </trkpt>
      <trkpt lat="47.79045" lon="5.33596">
        <ele>440</ele>
        <time>2024-05-17T07:52:05.106Z</time>
      </trkpt>
      <trkpt lat="47.7904" lon="5.33597">
        <ele>443</ele>
        <time>2024-05-17T07:52:09.602Z</time>
      </trkpt>
      <trkpt lat="47.79035" lon="5.33599">
        <ele>443</ele>
        <time>2024-05-17T07:52:14.121Z</time>
      </trkpt>
      <trkpt lat="47.79029" lon="5.33601">
        <ele>443</ele>
        <time>2024-05-17T07:52:18.587Z</time>
      </trkpt>
      <trkpt lat="47.79024" lon="5.33604">
        <ele>443</ele>
        <time>2024-05-17T07:52:23.205Z</time>
      </trkpt>
      <trkpt lat="47.79018" lon="5.33606">
        <ele>443</ele>
        <time>2024-05-17T07:52:27.745Z</time>
      </trkpt>
      <trkpt lat="47.79013" lon="5.33609">
        <ele>444</ele>
        <time>2024-05-17T07:52:32.204Z</time>
      </trkpt>
      <trkpt lat="47.79008" lon="5.3361">
        <ele>444</ele>
        <time>2024-05-17T07:52:36.942Z</time>
      </trkpt>
      <trkpt lat="47.79004" lon="5.3361">
        <ele>444</ele>
        <time>2024-05-17T07:52:41.510Z</time>
      </trkpt>
      <trkpt lat="47.78999" lon="5.33616">
        <ele>444</ele>
        <time>2024-05-17T07:52:46.104Z</time>
      </trkpt>
      <trkpt lat="47.78995" lon="5.33621">
        <ele>444</ele>
        <time>2024-05-17T07:52:51.205Z</time>
      </trkpt>
      <trkpt lat="47.78994" lon="5.33622">
        <ele>444</ele>
        <time>2024-05-17T07:52:56.205Z</time>
      </trkpt>
      <trkpt lat="47.78995" lon="5.33621">
        <ele>444</ele>
        <time>2024-05-17T07:53:57.204Z</time>
      </trkpt>
      <trkpt lat="47.78993" lon="5.33621">
        <ele>444</ele>
        <time>2024-05-17T07:54:02.182Z</time>
      </trkpt>
      <trkpt lat="47.78987" lon="5.33612">
        <ele>444</ele>
        <time>2024-05-17T07:54:06.205Z</time>
      </trkpt>
      <trkpt lat="47.7898" lon="5.33609">
        <ele>443</ele>
        <time>2024-05-17T07:54:11.210Z</time>
      </trkpt>
      <trkpt lat="47.78973" lon="5.3361">
        <ele>443</ele>
        <time>2024-05-17T07:54:15.599Z</time>
      </trkpt>
      <trkpt lat="47.78967" lon="5.3361">
        <ele>443</ele>
        <time>2024-05-17T07:54:19.709Z</time>
      </trkpt>
      <trkpt lat="47.78961" lon="5.33611">
        <ele>443</ele>
        <time>2024-05-17T07:54:24.205Z</time>
      </trkpt>
      <trkpt lat="47.78955" lon="5.33612">
        <ele>441</ele>
        <time>2024-05-17T07:54:28.662Z</time>
      </trkpt>
      <trkpt lat="47.7895" lon="5.33613">
        <ele>441</ele>
        <time>2024-05-17T07:54:32.740Z</time>
      </trkpt>
      <trkpt lat="47.78945" lon="5.33614">
        <ele>441</ele>
        <time>2024-05-17T07:54:36.886Z</time>
      </trkpt>
      <trkpt lat="47.78939" lon="5.33614">
        <ele>441</ele>
        <time>2024-05-17T07:54:41.024Z</time>
      </trkpt>
      <trkpt lat="47.78933" lon="5.33613">
        <ele>441</ele>
        <time>2024-05-17T07:54:45.186Z</time>
      </trkpt>
      <trkpt lat="47.78927" lon="5.33613">
        <ele>439</ele>
        <time>2024-05-17T07:54:49.205Z</time>
      </trkpt>
      <trkpt lat="47.78922" lon="5.33614">
        <ele>439</ele>
        <time>2024-05-17T07:54:53.414Z</time>
      </trkpt>
      <trkpt lat="47.78916" lon="5.33614">
        <ele>439</ele>
        <time>2024-05-17T07:54:57.660Z</time>
      </trkpt>
      <trkpt lat="47.7891" lon="5.33613">
        <ele>439</ele>
        <time>2024-05-17T07:55:02.047Z</time>
      </trkpt>
      <trkpt lat="47.78904" lon="5.33613">
        <ele>439</ele>
        <time>2024-05-17T07:55:06.525Z</time>
      </trkpt>
      <trkpt lat="47.78898" lon="5.33615">
        <ele>438</ele>
        <time>2024-05-17T07:55:11.020Z</time>
      </trkpt>
      <trkpt lat="47.78894" lon="5.33615">
        <ele>438</ele>
        <time>2024-05-17T07:55:15.066Z</time>
      </trkpt>
      <trkpt lat="47.78888" lon="5.33614">
        <ele>438</ele>
        <time>2024-05-17T07:55:19.585Z</time>
      </trkpt>
      <trkpt lat="47.78882" lon="5.33616">
        <ele>438</ele>
        <time>2024-05-17T07:55:24.081Z</time>
      </trkpt>
      <trkpt lat="47.78876" lon="5.33616">
        <ele>438</ele>
        <time>2024-05-17T07:55:28.585Z</time>
      </trkpt>
      <trkpt lat="47.78869" lon="5.33616">
        <ele>438</ele>
        <time>2024-05-17T07:55:33.204Z</time>
      </trkpt>
      <trkpt lat="47.78864" lon="5.33616">
        <ele>438</ele>
        <time>2024-05-17T07:55:37.467Z</time>
      </trkpt>
      <trkpt lat="47.78858" lon="5.33618">
        <ele>438</ele>
        <time>2024-05-17T07:55:42.083Z</time>
      </trkpt>
      <trkpt lat="47.78852" lon="5.33618">
        <ele>438</ele>
        <time>2024-05-17T07:55:46.545Z</time>
      </trkpt>
      <trkpt lat="47.78846" lon="5.33618">
        <ele>437</ele>
        <time>2024-05-17T07:55:51.127Z</time>
      </trkpt>
      <trkpt lat="47.78841" lon="5.33617">
        <ele>437</ele>
        <time>2024-05-17T07:55:55.562Z</time>
      </trkpt>
      <trkpt lat="47.78835" lon="5.33617">
        <ele>437</ele>
        <time>2024-05-17T07:56:00.025Z</time>
      </trkpt>
      <trkpt lat="47.78829" lon="5.33617">
        <ele>437</ele>
        <time>2024-05-17T07:56:04.606Z</time>
      </trkpt>
      <trkpt lat="47.78823" lon="5.33616">
        <ele>437</ele>
        <time>2024-05-17T07:56:09.147Z</time>
      </trkpt>
      <trkpt lat="47.78817" lon="5.33614">
        <ele>438</ele>
        <time>2024-05-17T07:56:13.547Z</time>
      </trkpt>
      <trkpt lat="47.78812" lon="5.33612">
        <ele>438</ele>
        <time>2024-05-17T07:56:18.144Z</time>
      </trkpt>
      <trkpt lat="47.78806" lon="5.33609">
        <ele>438</ele>
        <time>2024-05-17T07:56:22.622Z</time>
      </trkpt>
      <trkpt lat="47.788" lon="5.33605">
        <ele>438</ele>
        <time>2024-05-17T07:56:27.067Z</time>
      </trkpt>
      <trkpt lat="47.78795" lon="5.33601">
        <ele>438</ele>
        <time>2024-05-17T07:56:31.102Z</time>
      </trkpt>
      <trkpt lat="47.7879" lon="5.33597">
        <ele>437</ele>
        <time>2024-05-17T07:56:35.300Z</time>
      </trkpt>
      <trkpt lat="47.78785" lon="5.33593">
        <ele>437</ele>
        <time>2024-05-17T07:56:39.522Z</time>
      </trkpt>
      <trkpt lat="47.78779" lon="5.33589">
        <ele>437</ele>
        <time>2024-05-17T07:56:43.779Z</time>
      </trkpt>
      <trkpt lat="47.78774" lon="5.33584">
        <ele>437</ele>
        <time>2024-05-17T07:56:48.205Z</time>
      </trkpt>
      <trkpt lat="47.78769" lon="5.3358">
        <ele>437</ele>
        <time>2024-05-17T07:56:52.702Z</time>
      </trkpt>
      <trkpt lat="47.78764" lon="5.33576">
        <ele>437</ele>
        <time>2024-05-17T07:56:57.002Z</time>
      </trkpt>
      <trkpt lat="47.78759" lon="5.33573">
        <ele>437</ele>
        <time>2024-05-17T07:57:01.139Z</time>
      </trkpt>
      <trkpt lat="47.78753" lon="5.33568">
        <ele>435</ele>
        <time>2024-05-17T07:57:05.428Z</time>
      </trkpt>
      <trkpt lat="47.78748" lon="5.33564">
        <ele>435</ele>
        <time>2024-05-17T07:57:09.679Z</time>
      </trkpt>
      <trkpt lat="47.78743" lon="5.33561">
        <ele>435</ele>
        <time>2024-05-17T07:57:14.124Z</time>
      </trkpt>
      <trkpt lat="47.78736" lon="5.33559">
        <ele>435</ele>
        <time>2024-05-17T07:57:18.645Z</time>
      </trkpt>
      <trkpt lat="47.7873" lon="5.33558">
        <ele>437</ele>
        <time>2024-05-17T07:57:22.945Z</time>
      </trkpt>
      <trkpt lat="47.78724" lon="5.33559">
        <ele>437</ele>
        <time>2024-05-17T07:57:27.440Z</time>
      </trkpt>
      <trkpt lat="47.78699" lon="5.33545">
        <ele>437</ele>
        <time>2024-05-17T07:58:03.205Z</time>
      </trkpt>
      <trkpt lat="47.78698" lon="5.33543">
        <ele>437</ele>
        <time>2024-05-17T07:58:07.205Z</time>
      </trkpt>
      <trkpt lat="47.78695" lon="5.33538">
        <ele>439</ele>
        <time>2024-05-17T07:58:11.205Z</time>
      </trkpt>
      <trkpt lat="47.78692" lon="5.33532">
        <ele>439</ele>
        <time>2024-05-17T07:58:15.982Z</time>
      </trkpt>
      <trkpt lat="47.78689" lon="5.33529">
        <ele>439</ele>
        <time>2024-05-17T07:58:20.205Z</time>
      </trkpt>
      <trkpt lat="47.78681" lon="5.33515">
        <ele>439</ele>
        <time>2024-05-17T07:58:43.205Z</time>
      </trkpt>
      <trkpt lat="47.7868" lon="5.33511">
        <ele>438</ele>
        <time>2024-05-17T07:58:47.486Z</time>
      </trkpt>
      <trkpt lat="47.78673" lon="5.33503">
        <ele>438</ele>
        <time>2024-05-17T07:58:51.651Z</time>
      </trkpt>
      <trkpt lat="47.78671" lon="5.33498">
        <ele>438</ele>
        <time>2024-05-17T07:58:56.204Z</time>
      </trkpt>
      <trkpt lat="47.78672" lon="5.33497">
        <ele>438</ele>
        <time>2024-05-17T07:59:00.629Z</time>
      </trkpt>
      <trkpt lat="47.78671" lon="5.33481">
        <ele>436</ele>
        <time>2024-05-17T08:01:59.138Z</time>
      </trkpt>
      <trkpt lat="47.78669" lon="5.33476">
        <ele>436</ele>
        <time>2024-05-17T08:02:03.744Z</time>
      </trkpt>
      <trkpt lat="47.78661" lon="5.33476">
        <ele>436</ele>
        <time>2024-05-17T08:02:07.745Z</time>
      </trkpt>
      <trkpt lat="47.78656" lon="5.33471">
        <ele>436</ele>
        <time>2024-05-17T08:02:11.862Z</time>
      </trkpt>
      <trkpt lat="47.78653" lon="5.33465">
        <ele>433</ele>
        <time>2024-05-17T08:02:15.861Z</time>
      </trkpt>
      <trkpt lat="47.7865" lon="5.33458">
        <ele>433</ele>
        <time>2024-05-17T08:02:20.046Z</time>
      </trkpt>
      <trkpt lat="47.78649" lon="5.33451">
        <ele>433</ele>
        <time>2024-05-17T08:02:24.225Z</time>
      </trkpt>
      <trkpt lat="47.78647" lon="5.33444">
        <ele>433</ele>
        <time>2024-05-17T08:02:28.205Z</time>
      </trkpt>
      <trkpt lat="47.78647" lon="5.33439">
        <ele>433</ele>
        <time>2024-05-17T08:02:33.204Z</time>
      </trkpt>
      <trkpt lat="47.78646" lon="5.3344">
        <ele>433</ele>
        <time>2024-05-17T08:02:37.203Z</time>
      </trkpt>
      <trkpt lat="47.78641" lon="5.33435">
        <ele>433</ele>
        <time>2024-05-17T08:02:41.573Z</time>
      </trkpt>
      <trkpt lat="47.78636" lon="5.33428">
        <ele>433</ele>
        <time>2024-05-17T08:02:45.784Z</time>
      </trkpt>
      <trkpt lat="47.78633" lon="5.33423">
        <ele>433</ele>
        <time>2024-05-17T08:02:50.490Z</time>
      </trkpt>
      <trkpt lat="47.78629" lon="5.33418">
        <ele>433</ele>
        <time>2024-05-17T08:02:55.204Z</time>
      </trkpt>
      <trkpt lat="47.78626" lon="5.33418">
        <ele>433</ele>
        <time>2024-05-17T08:02:59.426Z</time>
      </trkpt>
      <trkpt lat="47.78623" lon="5.33412">
        <ele>431</ele>
        <time>2024-05-17T08:03:03.749Z</time>
      </trkpt>
      <trkpt lat="47.78621" lon="5.33407">
        <ele>431</ele>
        <time>2024-05-17T08:03:08.203Z</time>
      </trkpt>
      <trkpt lat="47.78619" lon="5.33407">
        <ele>431</ele>
        <time>2024-05-17T08:03:51.592Z</time>
      </trkpt>
      <trkpt lat="47.7862" lon="5.33401">
        <ele>432</ele>
        <time>2024-05-17T08:03:55.706Z</time>
      </trkpt>
      <trkpt lat="47.78619" lon="5.33397">
        <ele>432</ele>
        <time>2024-05-17T08:03:59.749Z</time>
      </trkpt>
      <trkpt lat="47.78616" lon="5.33389">
        <ele>432</ele>
        <time>2024-05-17T08:04:04.069Z</time>
      </trkpt>
      <trkpt lat="47.78614" lon="5.33381">
        <ele>432</ele>
        <time>2024-05-17T08:04:08.508Z</time>
      </trkpt>
      <trkpt lat="47.78609" lon="5.33376">
        <ele>432</ele>
        <time>2024-05-17T08:05:31.203Z</time>
      </trkpt>
      <trkpt lat="47.78615" lon="5.33394">
        <ele>432</ele>
        <time>2024-05-17T08:05:40.383Z</time>
      </trkpt>
      <trkpt lat="47.78616" lon="5.33399">
        <ele>432</ele>
        <time>2024-05-17T08:05:45.204Z</time>
      </trkpt>
      <trkpt lat="47.78616" lon="5.33402">
        <ele>432</ele>
        <time>2024-05-17T08:05:49.508Z</time>
      </trkpt>
      <trkpt lat="47.78617" lon="5.33408">
        <ele>431</ele>
        <time>2024-05-17T08:05:53.733Z</time>
      </trkpt>
      <trkpt lat="47.78622" lon="5.33414">
        <ele>431</ele>
        <time>2024-05-17T08:05:57.902Z</time>
      </trkpt>
      <trkpt lat="47.78627" lon="5.33418">
        <ele>433</ele>
        <time>2024-05-17T08:06:02.204Z</time>
      </trkpt>
      <trkpt lat="47.78632" lon="5.33421">
        <ele>433</ele>
        <time>2024-05-17T08:06:06.370Z</time>
      </trkpt>
      <trkpt lat="47.78634" lon="5.33427">
        <ele>433</ele>
        <time>2024-05-17T08:06:10.945Z</time>
      </trkpt>
      <trkpt lat="47.78637" lon="5.33433">
        <ele>433</ele>
        <time>2024-05-17T08:06:16.009Z</time>
      </trkpt>
      <trkpt lat="47.78639" lon="5.33441">
        <ele>433</ele>
        <time>2024-05-17T08:06:20.547Z</time>
      </trkpt>
      <trkpt lat="47.78642" lon="5.33447">
        <ele>433</ele>
        <time>2024-05-17T08:06:24.944Z</time>
      </trkpt>
      <trkpt lat="47.78646" lon="5.33455">
        <ele>433</ele>
        <time>2024-05-17T08:06:29.346Z</time>
      </trkpt>
      <trkpt lat="47.78649" lon="5.33462">
        <ele>433</ele>
        <time>2024-05-17T08:06:33.828Z</time>
      </trkpt>
      <trkpt lat="47.78651" lon="5.33469">
        <ele>433</ele>
        <time>2024-05-17T08:06:38.204Z</time>
      </trkpt>
      <trkpt lat="47.78652" lon="5.33478">
        <ele>433</ele>
        <time>2024-05-17T08:06:42.901Z</time>
      </trkpt>
      <trkpt lat="47.78653" lon="5.33484">
        <ele>433</ele>
        <time>2024-05-17T08:06:47.204Z</time>
      </trkpt>
      <trkpt lat="47.78652" lon="5.3348">
        <ele>433</ele>
        <time>2024-05-17T08:07:06.204Z</time>
      </trkpt>
      <trkpt lat="47.78652" lon="5.33479">
        <ele>433</ele>
        <time>2024-05-17T08:07:11.204Z</time>
      </trkpt>
      <trkpt lat="47.78654" lon="5.33478">
        <ele>436</ele>
        <time>2024-05-17T08:07:16.203Z</time>
      </trkpt>
      <trkpt lat="47.7866" lon="5.33485">
        <ele>436</ele>
        <time>2024-05-17T08:07:20.849Z</time>
      </trkpt>
      <trkpt lat="47.78666" lon="5.33485">
        <ele>436</ele>
        <time>2024-05-17T08:07:25.203Z</time>
      </trkpt>
      <trkpt lat="47.78668" lon="5.33489">
        <ele>438</ele>
        <time>2024-05-17T08:07:29.787Z</time>
      </trkpt>
      <trkpt lat="47.78667" lon="5.33498">
        <ele>438</ele>
        <time>2024-05-17T08:07:34.224Z</time>
      </trkpt>
      <trkpt lat="47.78669" lon="5.33507">
        <ele>438</ele>
        <time>2024-05-17T08:07:39.204Z</time>
      </trkpt>
      <trkpt lat="47.78677" lon="5.33516">
        <ele>437</ele>
        <time>2024-05-17T08:07:44.059Z</time>
      </trkpt>
      <trkpt lat="47.7868" lon="5.33523">
        <ele>437</ele>
        <time>2024-05-17T08:07:48.204Z</time>
      </trkpt>
      <trkpt lat="47.78681" lon="5.33532">
        <ele>439</ele>
        <time>2024-05-17T08:07:52.946Z</time>
      </trkpt>
      <trkpt lat="47.78684" lon="5.33538">
        <ele>439</ele>
        <time>2024-05-17T08:07:57.742Z</time>
      </trkpt>
      <trkpt lat="47.78686" lon="5.33546">
        <ele>437</ele>
        <time>2024-05-17T08:08:01.806Z</time>
      </trkpt>
      <trkpt lat="47.78688" lon="5.33553">
        <ele>437</ele>
        <time>2024-05-17T08:08:05.884Z</time>
      </trkpt>
      <trkpt lat="47.7869" lon="5.33559">
        <ele>437</ele>
        <time>2024-05-17T08:08:10.422Z</time>
      </trkpt>
      <trkpt lat="47.78692" lon="5.33567">
        <ele>437</ele>
        <time>2024-05-17T08:08:14.944Z</time>
      </trkpt>
      <trkpt lat="47.7869" lon="5.33571">
        <ele>435</ele>
        <time>2024-05-17T08:08:19.204Z</time>
      </trkpt>
      <trkpt lat="47.78684" lon="5.33574">
        <ele>435</ele>
        <time>2024-05-17T08:08:24.041Z</time>
      </trkpt>
      <trkpt lat="47.78678" lon="5.33577">
        <ele>429</ele>
        <time>2024-05-17T08:08:28.453Z</time>
      </trkpt>
      <trkpt lat="47.78672" lon="5.33582">
        <ele>429</ele>
        <time>2024-05-17T08:08:33.205Z</time>
      </trkpt>
      <trkpt lat="47.78668" lon="5.3358">
        <ele>429</ele>
        <time>2024-05-17T08:08:37.204Z</time>
      </trkpt>
      <trkpt lat="47.78672" lon="5.33581">
        <ele>429</ele>
        <time>2024-05-17T08:09:17.204Z</time>
      </trkpt>
      <trkpt lat="47.78671" lon="5.33587">
        <ele>429</ele>
        <time>2024-05-17T08:09:21.446Z</time>
      </trkpt>
      <trkpt lat="47.78671" lon="5.33597">
        <ele>426</ele>
        <time>2024-05-17T08:09:25.808Z</time>
      </trkpt>
      <trkpt lat="47.78669" lon="5.33605">
        <ele>426</ele>
        <time>2024-05-17T08:09:30.226Z</time>
      </trkpt>
      <trkpt lat="47.78669" lon="5.33612">
        <ele>426</ele>
        <time>2024-05-17T08:09:34.365Z</time>
      </trkpt>
      <trkpt lat="47.78672" lon="5.33617">
        <ele>426</ele>
        <time>2024-05-17T08:09:38.708Z</time>
      </trkpt>
      <trkpt lat="47.78675" lon="5.33623">
        <ele>426</ele>
        <time>2024-05-17T08:09:43.101Z</time>
      </trkpt>
      <trkpt lat="47.78677" lon="5.33628">
        <ele>423</ele>
        <time>2024-05-17T08:09:47.461Z</time>
      </trkpt>
      <trkpt lat="47.78677" lon="5.33637">
        <ele>423</ele>
        <time>2024-05-17T08:09:51.700Z</time>
      </trkpt>
      <trkpt lat="47.78678" lon="5.33644">
        <ele>423</ele>
        <time>2024-05-17T08:09:55.779Z</time>
      </trkpt>
      <trkpt lat="47.78678" lon="5.33652">
        <ele>423</ele>
        <time>2024-05-17T08:10:00.140Z</time>
      </trkpt>
      <trkpt lat="47.78678" lon="5.33659">
        <ele>421</ele>
        <time>2024-05-17T08:10:04.645Z</time>
      </trkpt>
      <trkpt lat="47.78677" lon="5.33667">
        <ele>421</ele>
        <time>2024-05-17T08:10:08.986Z</time>
      </trkpt>
      <trkpt lat="47.78677" lon="5.33677">
        <ele>421</ele>
        <time>2024-05-17T08:10:13.346Z</time>
      </trkpt>
      <trkpt lat="47.78677" lon="5.33686">
        <ele>418</ele>
        <time>2024-05-17T08:10:17.528Z</time>
      </trkpt>
      <trkpt lat="47.78676" lon="5.33695">
        <ele>418</ele>
        <time>2024-05-17T08:10:21.850Z</time>
      </trkpt>
      <trkpt lat="47.78678" lon="5.33704">
        <ele>418</ele>
        <time>2024-05-17T08:10:26.203Z</time>
      </trkpt>
      <trkpt lat="47.7868" lon="5.33711">
        <ele>416</ele>
        <time>2024-05-17T08:10:30.666Z</time>
      </trkpt>
      <trkpt lat="47.78681" lon="5.33719">
        <ele>424</ele>
        <time>2024-05-17T08:10:35.122Z</time>
      </trkpt>
      <trkpt lat="47.78684" lon="5.33725">
        <ele>424</ele>
        <time>2024-05-17T08:10:39.359Z</time>
      </trkpt>
      <trkpt lat="47.78687" lon="5.33733">
        <ele>424</ele>
        <time>2024-05-17T08:10:43.540Z</time>
      </trkpt>
      <trkpt lat="47.78688" lon="5.33742">
        <ele>421</ele>
        <time>2024-05-17T08:10:47.840Z</time>
      </trkpt>
      <trkpt lat="47.78688" lon="5.33751">
        <ele>421</ele>
        <time>2024-05-17T08:10:52.203Z</time>
      </trkpt>
      <trkpt lat="47.78688" lon="5.3376">
        <ele>421</ele>
        <time>2024-05-17T08:10:56.765Z</time>
      </trkpt>
      <trkpt lat="47.78689" lon="5.33768">
        <ele>419</ele>
        <time>2024-05-17T08:11:01.203Z</time>
      </trkpt>
      <trkpt lat="47.78689" lon="5.33778">
        <ele>419</ele>
        <time>2024-05-17T08:11:06.046Z</time>
      </trkpt>
      <trkpt lat="47.7869" lon="5.33785">
        <ele>419</ele>
        <time>2024-05-17T08:11:10.345Z</time>
      </trkpt>
      <trkpt lat="47.78691" lon="5.33792">
        <ele>418</ele>
        <time>2024-05-17T08:11:14.741Z</time>
      </trkpt>
      <trkpt lat="47.78692" lon="5.33801">
        <ele>418</ele>
        <time>2024-05-17T08:11:19.202Z</time>
      </trkpt>
      <trkpt lat="47.78691" lon="5.3381">
        <ele>418</ele>
        <time>2024-05-17T08:11:23.444Z</time>
      </trkpt>
      <trkpt lat="47.78692" lon="5.33818">
        <ele>418</ele>
        <time>2024-05-17T08:11:27.742Z</time>
      </trkpt>
      <trkpt lat="47.7869" lon="5.33827">
        <ele>416</ele>
        <time>2024-05-17T08:11:32.203Z</time>
      </trkpt>
      <trkpt lat="47.78689" lon="5.33836">
        <ele>416</ele>
        <time>2024-05-17T08:11:36.427Z</time>
      </trkpt>
      <trkpt lat="47.78689" lon="5.33845">
        <ele>416</ele>
        <time>2024-05-17T08:11:40.820Z</time>
      </trkpt>
      <trkpt lat="47.78688" lon="5.33854">
        <ele>413</ele>
        <time>2024-05-17T08:11:45.147Z</time>
      </trkpt>
      <trkpt lat="47.7869" lon="5.33862">
        <ele>413</ele>
        <time>2024-05-17T08:11:49.203Z</time>
      </trkpt>
      <trkpt lat="47.7869" lon="5.3387">
        <ele>413</ele>
        <time>2024-05-17T08:11:53.660Z</time>
      </trkpt>
      <trkpt lat="47.78692" lon="5.3388">
        <ele>410</ele>
        <time>2024-05-17T08:11:58.002Z</time>
      </trkpt>
      <trkpt lat="47.7869" lon="5.33889">
        <ele>410</ele>
        <time>2024-05-17T08:12:02.203Z</time>
      </trkpt>
      <trkpt lat="47.7869" lon="5.33899">
        <ele>410</ele>
        <time>2024-05-17T08:12:07.203Z</time>
      </trkpt>
      <trkpt lat="47.78692" lon="5.33907">
        <ele>408</ele>
        <time>2024-05-17T08:12:11.747Z</time>
      </trkpt>
      <trkpt lat="47.78693" lon="5.33916">
        <ele>408</ele>
        <time>2024-05-17T08:12:16.203Z</time>
      </trkpt>
      <trkpt lat="47.78692" lon="5.33924">
        <ele>408</ele>
        <time>2024-05-17T08:12:20.245Z</time>
      </trkpt>
      <trkpt lat="47.7869" lon="5.33931">
        <ele>406</ele>
        <time>2024-05-17T08:12:24.606Z</time>
      </trkpt>
      <trkpt lat="47.78693" lon="5.3394">
        <ele>406</ele>
        <time>2024-05-17T08:12:28.768Z</time>
      </trkpt>
      <trkpt lat="47.78695" lon="5.33948">
        <ele>406</ele>
        <time>2024-05-17T08:12:32.938Z</time>
      </trkpt>
      <trkpt lat="47.78696" lon="5.33956">
        <ele>406</ele>
        <time>2024-05-17T08:12:37.178Z</time>
      </trkpt>
      <trkpt lat="47.78699" lon="5.33963">
        <ele>403</ele>
        <time>2024-05-17T08:12:41.565Z</time>
      </trkpt>
      <trkpt lat="47.787" lon="5.3397">
        <ele>403</ele>
        <time>2024-05-17T08:12:45.531Z</time>
      </trkpt>
      <trkpt lat="47.78702" lon="5.33978">
        <ele>403</ele>
        <time>2024-05-17T08:12:50.001Z</time>
      </trkpt>
      <trkpt lat="47.78705" lon="5.33985">
        <ele>403</ele>
        <time>2024-05-17T08:12:54.464Z</time>
      </trkpt>
      <trkpt lat="47.78709" lon="5.33992">
        <ele>403</ele>
        <time>2024-05-17T08:12:58.882Z</time>
      </trkpt>
      <trkpt lat="47.78711" lon="5.33999">
        <ele>403</ele>
        <time>2024-05-17T08:13:03.348Z</time>
      </trkpt>
      <trkpt lat="47.78714" lon="5.34007">
        <ele>403</ele>
        <time>2024-05-17T08:13:07.868Z</time>
      </trkpt>
      <trkpt lat="47.78717" lon="5.34013">
        <ele>403</ele>
        <time>2024-05-17T08:13:12.202Z</time>
      </trkpt>
      <trkpt lat="47.78721" lon="5.34021">
        <ele>398</ele>
        <time>2024-05-17T08:13:16.765Z</time>
      </trkpt>
      <trkpt lat="47.78722" lon="5.34029">
        <ele>398</ele>
        <time>2024-05-17T08:13:21.203Z</time>
      </trkpt>
      <trkpt lat="47.78725" lon="5.34037">
        <ele>398</ele>
        <time>2024-05-17T08:13:25.765Z</time>
      </trkpt>
      <trkpt lat="47.78729" lon="5.34043">
        <ele>394</ele>
        <time>2024-05-17T08:13:30.140Z</time>
      </trkpt>
      <trkpt lat="47.78732" lon="5.34051">
        <ele>394</ele>
        <time>2024-05-17T08:13:34.705Z</time>
      </trkpt>
      <trkpt lat="47.78735" lon="5.34057">
        <ele>394</ele>
        <time>2024-05-17T08:13:39.126Z</time>
      </trkpt>
      <trkpt lat="47.78738" lon="5.34067">
        <ele>398</ele>
        <time>2024-05-17T08:13:44.125Z</time>
      </trkpt>
      <trkpt lat="47.78742" lon="5.34074">
        <ele>394</ele>
        <time>2024-05-17T08:13:48.499Z</time>
      </trkpt>
      <trkpt lat="47.78743" lon="5.34083">
        <ele>394</ele>
        <time>2024-05-17T08:13:52.842Z</time>
      </trkpt>
      <trkpt lat="47.78746" lon="5.34089">
        <ele>394</ele>
        <time>2024-05-17T08:13:57.202Z</time>
      </trkpt>
      <trkpt lat="47.78751" lon="5.34089">
        <ele>394</ele>
        <time>2024-05-17T08:14:14.202Z</time>
      </trkpt>
      <trkpt lat="47.78752" lon="5.34089">
        <ele>394</ele>
        <time>2024-05-17T08:14:23.203Z</time>
      </trkpt>
      <trkpt lat="47.78752" lon="5.34087">
        <ele>394</ele>
        <time>2024-05-17T08:14:27.202Z</time>
      </trkpt>
      <trkpt lat="47.78754" lon="5.34089">
        <ele>394</ele>
        <time>2024-05-17T08:14:32.181Z</time>
      </trkpt>
      <trkpt lat="47.78759" lon="5.34098">
        <ele>392</ele>
        <time>2024-05-17T08:14:36.649Z</time>
      </trkpt>
      <trkpt lat="47.78763" lon="5.34101">
        <ele>392</ele>
        <time>2024-05-17T08:14:41.174Z</time>
      </trkpt>
      <trkpt lat="47.78769" lon="5.34102">
        <ele>397</ele>
        <time>2024-05-17T08:14:45.203Z</time>
      </trkpt>
      <trkpt lat="47.78775" lon="5.34102">
        <ele>397</ele>
        <time>2024-05-17T08:14:49.646Z</time>
      </trkpt>
      <trkpt lat="47.7878" lon="5.34103">
        <ele>397</ele>
        <time>2024-05-17T08:14:53.668Z</time>
      </trkpt>
      <trkpt lat="47.78786" lon="5.34103">
        <ele>397</ele>
        <time>2024-05-17T08:14:57.925Z</time>
      </trkpt>
      <trkpt lat="47.78791" lon="5.34101">
        <ele>397</ele>
        <time>2024-05-17T08:15:02.202Z</time>
      </trkpt>
      <trkpt lat="47.78798" lon="5.34101">
        <ele>401</ele>
        <time>2024-05-17T08:15:07.202Z</time>
      </trkpt>
      <trkpt lat="47.78804" lon="5.34106">
        <ele>401</ele>
        <time>2024-05-17T08:15:12.203Z</time>
      </trkpt>
      <trkpt lat="47.78809" lon="5.3411">
        <ele>401</ele>
        <time>2024-05-17T08:15:16.926Z</time>
      </trkpt>
      <trkpt lat="47.78815" lon="5.34113">
        <ele>401</ele>
        <time>2024-05-17T08:15:21.147Z</time>
      </trkpt>
      <trkpt lat="47.7882" lon="5.34116">
        <ele>404</ele>
        <time>2024-05-17T08:15:25.203Z</time>
      </trkpt>
      <trkpt lat="47.78825" lon="5.34117">
        <ele>404</ele>
        <time>2024-05-17T08:15:29.803Z</time>
      </trkpt>
      <trkpt lat="47.7883" lon="5.34122">
        <ele>404</ele>
        <time>2024-05-17T08:15:34.203Z</time>
      </trkpt>
      <trkpt lat="47.78834" lon="5.34128">
        <ele>399</ele>
        <time>2024-05-17T08:15:38.764Z</time>
      </trkpt>
      <trkpt lat="47.78835" lon="5.34135">
        <ele>399</ele>
        <time>2024-05-17T08:15:43.202Z</time>
      </trkpt>
      <trkpt lat="47.78839" lon="5.34137">
        <ele>399</ele>
        <time>2024-05-17T08:15:47.691Z</time>
      </trkpt>
      <trkpt lat="47.78842" lon="5.34139">
        <ele>399</ele>
        <time>2024-05-17T08:15:51.806Z</time>
      </trkpt>
      <trkpt lat="47.78847" lon="5.34141">
        <ele>399</ele>
        <time>2024-05-17T08:15:56.202Z</time>
      </trkpt>
      <trkpt lat="47.78851" lon="5.34147">
        <ele>400</ele>
        <time>2024-05-17T08:16:00.548Z</time>
      </trkpt>
      <trkpt lat="47.78854" lon="5.34154">
        <ele>397</ele>
        <time>2024-05-17T08:16:05.110Z</time>
      </trkpt>
      <trkpt lat="47.78857" lon="5.3416">
        <ele>397</ele>
        <time>2024-05-17T08:16:09.602Z</time>
      </trkpt>
      <trkpt lat="47.78862" lon="5.34166">
        <ele>397</ele>
        <time>2024-05-17T08:16:14.202Z</time>
      </trkpt>
      <trkpt lat="47.78866" lon="5.34171">
        <ele>397</ele>
        <time>2024-05-17T08:16:19.132Z</time>
      </trkpt>
      <trkpt lat="47.78869" lon="5.34171">
        <ele>397</ele>
        <time>2024-05-17T08:16:23.203Z</time>
      </trkpt>
      <trkpt lat="47.78877" lon="5.34173">
        <ele>398</ele>
        <time>2024-05-17T08:17:09.203Z</time>
      </trkpt>
      <trkpt lat="47.7888" lon="5.34177">
        <ele>398</ele>
        <time>2024-05-17T08:17:13.606Z</time>
      </trkpt>
      <trkpt lat="47.78883" lon="5.34175">
        <ele>398</ele>
        <time>2024-05-17T08:17:18.203Z</time>
      </trkpt>
      <trkpt lat="47.78884" lon="5.34175">
        <ele>398</ele>
        <time>2024-05-17T08:17:22.203Z</time>
      </trkpt>
      <trkpt lat="47.78884" lon="5.34174">
        <ele>398</ele>
        <time>2024-05-17T08:17:27.050Z</time>
      </trkpt>
      <trkpt lat="47.78883" lon="5.34175">
        <ele>398</ele>
        <time>2024-05-17T08:17:31.203Z</time>
      </trkpt>
      <trkpt lat="47.78881" lon="5.34177">
        <ele>398</ele>
        <time>2024-05-17T08:17:35.203Z</time>
      </trkpt>
      <trkpt lat="47.78876" lon="5.34171">
        <ele>398</ele>
        <time>2024-05-17T08:17:40.203Z</time>
      </trkpt>
      <trkpt lat="47.78875" lon="5.34172">
        <ele>398</ele>
        <time>2024-05-17T08:17:44.804Z</time>
      </trkpt>
      <trkpt lat="47.78872" lon="5.34172">
        <ele>397</ele>
        <time>2024-05-17T08:17:49.203Z</time>
      </trkpt>
      <trkpt lat="47.78872" lon="5.34171">
        <ele>397</ele>
        <time>2024-05-17T08:17:53.765Z</time>
      </trkpt>
      <trkpt lat="47.78864" lon="5.34176">
        <ele>397</ele>
        <time>2024-05-17T08:17:58.126Z</time>
      </trkpt>
      <trkpt lat="47.78862" lon="5.34184">
        <ele>395</ele>
        <time>2024-05-17T08:18:02.203Z</time>
      </trkpt>
      <trkpt lat="47.78859" lon="5.34192">
        <ele>395</ele>
        <time>2024-05-17T08:18:06.517Z</time>
      </trkpt>
      <trkpt lat="47.78856" lon="5.34199">
        <ele>395</ele>
        <time>2024-05-17T08:18:10.726Z</time>
      </trkpt>
      <trkpt lat="47.78852" lon="5.34206">
        <ele>395</ele>
        <time>2024-05-17T08:18:14.910Z</time>
      </trkpt>
      <trkpt lat="47.78846" lon="5.3421">
        <ele>394</ele>
        <time>2024-05-17T08:18:19.202Z</time>
      </trkpt>
      <trkpt lat="47.78839" lon="5.3421">
        <ele>394</ele>
        <time>2024-05-17T08:18:23.984Z</time>
      </trkpt>
      <trkpt lat="47.7883" lon="5.34218">
        <ele>394</ele>
        <time>2024-05-17T08:19:01.122Z</time>
      </trkpt>
      <trkpt lat="47.78829" lon="5.34225">
        <ele>394</ele>
        <time>2024-05-17T08:19:06.203Z</time>
      </trkpt>
      <trkpt lat="47.78836" lon="5.34231">
        <ele>394</ele>
        <time>2024-05-17T08:19:10.203Z</time>
      </trkpt>
      <trkpt lat="47.78842" lon="5.34234">
        <ele>394</ele>
        <time>2024-05-17T08:19:14.787Z</time>
      </trkpt>
      <trkpt lat="47.78846" lon="5.3424">
        <ele>393</ele>
        <time>2024-05-17T08:19:19.202Z</time>
      </trkpt>
      <trkpt lat="47.7885" lon="5.34242">
        <ele>394</ele>
        <time>2024-05-17T08:19:32.511Z</time>
      </trkpt>
      <trkpt lat="47.78847" lon="5.34247">
        <ele>393</ele>
        <time>2024-05-17T08:19:36.850Z</time>
      </trkpt>
      <trkpt lat="47.78847" lon="5.3425">
        <ele>393</ele>
        <time>2024-05-17T08:19:41.202Z</time>
      </trkpt>
      <trkpt lat="47.78846" lon="5.34252">
        <ele>393</ele>
        <time>2024-05-17T08:19:45.203Z</time>
      </trkpt>
      <trkpt lat="47.78845" lon="5.34253">
        <ele>393</ele>
        <time>2024-05-17T08:19:50.202Z</time>
      </trkpt>
      <trkpt lat="47.78845" lon="5.34252">
        <ele>393</ele>
        <time>2024-05-17T08:19:59.203Z</time>
      </trkpt>
      <trkpt lat="47.78848" lon="5.34247">
        <ele>394</ele>
        <time>2024-05-17T08:20:04.202Z</time>
      </trkpt>
      <trkpt lat="47.78849" lon="5.34247">
        <ele>394</ele>
        <time>2024-05-17T08:20:09.002Z</time>
      </trkpt>
      <trkpt lat="47.78849" lon="5.34242">
        <ele>394</ele>
        <time>2024-05-17T08:20:13.201Z</time>
      </trkpt>
      <trkpt lat="47.7885" lon="5.34241">
        <ele>394</ele>
        <time>2024-05-17T08:20:17.201Z</time>
      </trkpt>
      <trkpt lat="47.78851" lon="5.34246">
        <ele>394</ele>
        <time>2024-05-17T08:20:31.202Z</time>
      </trkpt>
      <trkpt lat="47.78845" lon="5.34244">
        <ele>393</ele>
        <time>2024-05-17T08:20:36.201Z</time>
      </trkpt>
      <trkpt lat="47.78844" lon="5.34241">
        <ele>393</ele>
        <time>2024-05-17T08:20:40.177Z</time>
      </trkpt>
      <trkpt lat="47.78842" lon="5.34238">
        <ele>393</ele>
        <time>2024-05-17T08:20:45.126Z</time>
      </trkpt>
      <trkpt lat="47.78839" lon="5.34235">
        <ele>394</ele>
        <time>2024-05-17T08:20:49.202Z</time>
      </trkpt>
      <trkpt lat="47.78836" lon="5.34228">
        <ele>394</ele>
        <time>2024-05-17T08:20:54.201Z</time>
      </trkpt>
      <trkpt lat="47.78835" lon="5.34226">
        <ele>394</ele>
        <time>2024-05-17T08:20:58.628Z</time>
      </trkpt>
      <trkpt lat="47.78829" lon="5.34217">
        <ele>394</ele>
        <time>2024-05-17T08:21:03.065Z</time>
      </trkpt>
      <trkpt lat="47.78824" lon="5.34227">
        <ele>394</ele>
        <time>2024-05-17T08:21:08.201Z</time>
      </trkpt>
      <trkpt lat="47.78823" lon="5.34235">
        <ele>394</ele>
        <time>2024-05-17T08:21:12.681Z</time>
      </trkpt>
      <trkpt lat="47.78821" lon="5.34241">
        <ele>393</ele>
        <time>2024-05-17T08:21:16.759Z</time>
      </trkpt>
      <trkpt lat="47.78819" lon="5.34246">
        <ele>391</ele>
        <time>2024-05-17T08:21:21.202Z</time>
      </trkpt>
      <trkpt lat="47.78815" lon="5.34251">
        <ele>391</ele>
        <time>2024-05-17T08:21:25.821Z</time>
      </trkpt>
      <trkpt lat="47.78812" lon="5.34256">
        <ele>391</ele>
        <time>2024-05-17T08:21:30.202Z</time>
      </trkpt>
      <trkpt lat="47.78811" lon="5.34266">
        <ele>390</ele>
        <time>2024-05-17T08:21:34.960Z</time>
      </trkpt>
      <trkpt lat="47.78816" lon="5.34273">
        <ele>390</ele>
        <time>2024-05-17T08:21:39.202Z</time>
      </trkpt>
      <trkpt lat="47.78819" lon="5.3428">
        <ele>390</ele>
        <time>2024-05-17T08:21:43.500Z</time>
      </trkpt>
      <trkpt lat="47.78823" lon="5.34287">
        <ele>393</ele>
        <time>2024-05-17T08:21:48.202Z</time>
      </trkpt>
      <trkpt lat="47.78827" lon="5.34292">
        <ele>391</ele>
        <time>2024-05-17T08:21:52.503Z</time>
      </trkpt>
      <trkpt lat="47.78831" lon="5.34298">
        <ele>391</ele>
        <time>2024-05-17T08:21:57.101Z</time>
      </trkpt>
      <trkpt lat="47.78834" lon="5.34303">
        <ele>391</ele>
        <time>2024-05-17T08:22:01.202Z</time>
      </trkpt>
      <trkpt lat="47.78835" lon="5.34312">
        <ele>391</ele>
        <time>2024-05-17T08:22:05.906Z</time>
      </trkpt>
      <trkpt lat="47.78835" lon="5.34319">
        <ele>391</ele>
        <time>2024-05-17T08:22:10.202Z</time>
      </trkpt>
      <trkpt lat="47.78837" lon="5.34325">
        <ele>387</ele>
        <time>2024-05-17T08:22:14.526Z</time>
      </trkpt>
      <trkpt lat="47.78841" lon="5.34331">
        <ele>387</ele>
        <time>2024-05-17T08:22:19.065Z</time>
      </trkpt>
      <trkpt lat="47.7884" lon="5.34342">
        <ele>387</ele>
        <time>2024-05-17T08:22:55.785Z</time>
      </trkpt>
      <trkpt lat="47.78842" lon="5.3435">
        <ele>381</ele>
        <time>2024-05-17T08:23:00.202Z</time>
      </trkpt>
      <trkpt lat="47.78847" lon="5.34353">
        <ele>381</ele>
        <time>2024-05-17T08:23:04.566Z</time>
      </trkpt>
      <trkpt lat="47.78848" lon="5.34356">
        <ele>386</ele>
        <time>2024-05-17T08:23:09.201Z</time>
      </trkpt>
      <trkpt lat="47.78849" lon="5.34357">
        <ele>386</ele>
        <time>2024-05-17T08:23:13.202Z</time>
      </trkpt>
      <trkpt lat="47.78849" lon="5.34362">
        <ele>386</ele>
        <time>2024-05-17T08:23:17.688Z</time>
      </trkpt>
      <trkpt lat="47.78847" lon="5.34362">
        <ele>381</ele>
        <time>2024-05-17T08:23:22.202Z</time>
      </trkpt>
      <trkpt lat="47.78838" lon="5.34364">
        <ele>381</ele>
        <time>2024-05-17T08:23:30.885Z</time>
      </trkpt>
      <trkpt lat="47.78833" lon="5.34366">
        <ele>381</ele>
        <time>2024-05-17T08:23:35.472Z</time>
      </trkpt>
      <trkpt lat="47.78828" lon="5.3437">
        <ele>381</ele>
        <time>2024-05-17T08:23:39.870Z</time>
      </trkpt>
      <trkpt lat="47.78824" lon="5.34374">
        <ele>381</ele>
        <time>2024-05-17T08:23:44.410Z</time>
      </trkpt>
      <trkpt lat="47.78823" lon="5.3438">
        <ele>378</ele>
        <time>2024-05-17T08:23:48.704Z</time>
      </trkpt>
      <trkpt lat="47.78825" lon="5.34383">
        <ele>378</ele>
        <time>2024-05-17T08:23:53.202Z</time>
      </trkpt>
      <trkpt lat="47.78826" lon="5.34387">
        <ele>378</ele>
        <time>2024-05-17T08:24:54.797Z</time>
      </trkpt>
      <trkpt lat="47.78825" lon="5.34381">
        <ele>378</ele>
        <time>2024-05-17T08:24:58.986Z</time>
      </trkpt>
      <trkpt lat="47.78823" lon="5.34376">
        <ele>378</ele>
        <time>2024-05-17T08:25:03.202Z</time>
      </trkpt>
      <trkpt lat="47.78819" lon="5.34375">
        <ele>376</ele>
        <time>2024-05-17T08:25:07.202Z</time>
      </trkpt>
      <trkpt lat="47.78815" lon="5.34377">
        <ele>376</ele>
        <time>2024-05-17T08:25:11.785Z</time>
      </trkpt>
      <trkpt lat="47.78812" lon="5.34381">
        <ele>376</ele>
        <time>2024-05-17T08:25:16.008Z</time>
      </trkpt>
      <trkpt lat="47.78811" lon="5.34386">
        <ele>376</ele>
        <time>2024-05-17T08:25:20.105Z</time>
      </trkpt>
      <trkpt lat="47.78808" lon="5.34392">
        <ele>376</ele>
        <time>2024-05-17T08:25:24.727Z</time>
      </trkpt>
      <trkpt lat="47.78804" lon="5.34396">
        <ele>376</ele>
        <time>2024-05-17T08:25:29.225Z</time>
      </trkpt>
      <trkpt lat="47.788" lon="5.34399">
        <ele>376</ele>
        <time>2024-05-17T08:25:33.720Z</time>
      </trkpt>
      <trkpt lat="47.788" lon="5.34405">
        <ele>373</ele>
        <time>2024-05-17T08:25:38.201Z</time>
      </trkpt>
      <trkpt lat="47.78799" lon="5.34408">
        <ele>373</ele>
        <time>2024-05-17T08:25:42.746Z</time>
      </trkpt>
      <trkpt lat="47.78795" lon="5.34412">
        <ele>373</ele>
        <time>2024-05-17T08:25:47.201Z</time>
      </trkpt>
      <trkpt lat="47.78794" lon="5.34419">
        <ele>373</ele>
        <time>2024-05-17T08:25:51.705Z</time>
      </trkpt>
      <trkpt lat="47.78791" lon="5.34426">
        <ele>373</ele>
        <time>2024-05-17T08:25:56.201Z</time>
      </trkpt>
      <trkpt lat="47.78787" lon="5.34431">
        <ele>370</ele>
        <time>2024-05-17T08:26:00.826Z</time>
      </trkpt>
      <trkpt lat="47.78783" lon="5.34436">
        <ele>370</ele>
        <time>2024-05-17T08:26:05.202Z</time>
      </trkpt>
      <trkpt lat="47.78779" lon="5.34442">
        <ele>370</ele>
        <time>2024-05-17T08:26:09.726Z</time>
      </trkpt>
      <trkpt lat="47.78775" lon="5.34449">
        <ele>370</ele>
        <time>2024-05-17T08:26:14.204Z</time>
      </trkpt>
      <trkpt lat="47.78771" lon="5.34454">
        <ele>370</ele>
        <time>2024-05-17T08:26:18.202Z</time>
      </trkpt>
      <trkpt lat="47.78766" lon="5.34461">
        <ele>369</ele>
        <time>2024-05-17T08:26:22.427Z</time>
      </trkpt>
      <trkpt lat="47.78763" lon="5.34465">
        <ele>368</ele>
        <time>2024-05-17T08:26:26.865Z</time>
      </trkpt>
      <trkpt lat="47.7876" lon="5.34473">
        <ele>368</ele>
        <time>2024-05-17T08:26:31.166Z</time>
      </trkpt>
      <trkpt lat="47.78756" lon="5.34479">
        <ele>368</ele>
        <time>2024-05-17T08:26:35.541Z</time>
      </trkpt>
      <trkpt lat="47.78752" lon="5.34484">
        <ele>368</ele>
        <time>2024-05-17T08:26:40.201Z</time>
      </trkpt>
      <trkpt lat="47.78747" lon="5.34492">
        <ele>366</ele>
        <time>2024-05-17T08:26:44.900Z</time>
      </trkpt>
      <trkpt lat="47.78744" lon="5.34497">
        <ele>366</ele>
        <time>2024-05-17T08:26:49.048Z</time>
      </trkpt>
      <trkpt lat="47.78741" lon="5.34501">
        <ele>366</ele>
        <time>2024-05-17T08:26:53.099Z</time>
      </trkpt>
      <trkpt lat="47.78738" lon="5.34506">
        <ele>366</ele>
        <time>2024-05-17T08:26:57.160Z</time>
      </trkpt>
      <trkpt lat="47.78734" lon="5.34512">
        <ele>365</ele>
        <time>2024-05-17T08:27:01.726Z</time>
      </trkpt>
      <trkpt lat="47.7873" lon="5.34518">
        <ele>362</ele>
        <time>2024-05-17T08:27:06.201Z</time>
      </trkpt>
      <trkpt lat="47.78725" lon="5.34524">
        <ele>362</ele>
        <time>2024-05-17T08:27:10.739Z</time>
      </trkpt>
      <trkpt lat="47.78722" lon="5.3453">
        <ele>362</ele>
        <time>2024-05-17T08:27:15.201Z</time>
      </trkpt>
      <trkpt lat="47.78718" lon="5.34536">
        <ele>362</ele>
        <time>2024-05-17T08:27:19.501Z</time>
      </trkpt>
      <trkpt lat="47.78714" lon="5.34541">
        <ele>362</ele>
        <time>2024-05-17T08:27:23.826Z</time>
      </trkpt>
      <trkpt lat="47.78711" lon="5.34548">
        <ele>361</ele>
        <time>2024-05-17T08:27:28.201Z</time>
      </trkpt>
      <trkpt lat="47.78708" lon="5.34557">
        <ele>360</ele>
        <time>2024-05-17T08:27:32.759Z</time>
      </trkpt>
      <trkpt lat="47.78704" lon="5.34564">
        <ele>360</ele>
        <time>2024-05-17T08:27:37.085Z</time>
      </trkpt>
      <trkpt lat="47.78701" lon="5.3457">
        <ele>359</ele>
        <time>2024-05-17T08:27:41.445Z</time>
      </trkpt>
      <trkpt lat="47.78697" lon="5.34577">
        <ele>359</ele>
        <time>2024-05-17T08:27:45.746Z</time>
      </trkpt>
      <trkpt lat="47.78692" lon="5.34582">
        <ele>359</ele>
        <time>2024-05-17T08:27:50.205Z</time>
      </trkpt>
      <trkpt lat="47.7869" lon="5.34588">
        <ele>359</ele>
        <time>2024-05-17T08:27:54.378Z</time>
      </trkpt>
      <trkpt lat="47.78686" lon="5.34596">
        <ele>359</ele>
        <time>2024-05-17T08:27:59.045Z</time>
      </trkpt>
      <trkpt lat="47.78683" lon="5.34602">
        <ele>359</ele>
        <time>2024-05-17T08:28:03.686Z</time>
      </trkpt>
      <trkpt lat="47.7868" lon="5.34606">
        <ele>358</ele>
        <time>2024-05-17T08:28:07.781Z</time>
      </trkpt>
      <trkpt lat="47.78679" lon="5.34609">
        <ele>358</ele>
        <time>2024-05-17T08:37:20.201Z</time>
      </trkpt>
      <trkpt lat="47.78682" lon="5.34606">
        <ele>359</ele>
        <time>2024-05-17T08:37:25.200Z</time>
      </trkpt>
      <trkpt lat="47.78682" lon="5.34607">
        <ele>359</ele>
        <time>2024-05-17T08:37:29.201Z</time>
      </trkpt>
      <trkpt lat="47.78684" lon="5.34609">
        <ele>359</ele>
        <time>2024-05-17T08:37:33.201Z</time>
      </trkpt>
      <trkpt lat="47.78683" lon="5.34615">
        <ele>359</ele>
        <time>2024-05-17T08:37:37.995Z</time>
      </trkpt>
      <trkpt lat="47.78688" lon="5.34621">
        <ele>359</ele>
        <time>2024-05-17T08:37:42.201Z</time>
      </trkpt>
      <trkpt lat="47.78692" lon="5.34625">
        <ele>359</ele>
        <time>2024-05-17T08:37:47.122Z</time>
      </trkpt>
      <trkpt lat="47.78695" lon="5.34629">
        <ele>359</ele>
        <time>2024-05-17T08:37:51.201Z</time>
      </trkpt>
      <trkpt lat="47.78699" lon="5.34634">
        <ele>359</ele>
        <time>2024-05-17T08:37:56.200Z</time>
      </trkpt>
      <trkpt lat="47.78703" lon="5.34639">
        <ele>359</ele>
        <time>2024-05-17T08:38:01.201Z</time>
      </trkpt>
      <trkpt lat="47.78706" lon="5.34644">
        <ele>359</ele>
        <time>2024-05-17T08:38:05.824Z</time>
      </trkpt>
      <trkpt lat="47.7871" lon="5.34649">
        <ele>362</ele>
        <time>2024-05-17T08:38:09.961Z</time>
      </trkpt>
      <trkpt lat="47.78713" lon="5.34655">
        <ele>362</ele>
        <time>2024-05-17T08:38:14.201Z</time>
      </trkpt>
      <trkpt lat="47.78715" lon="5.34661">
        <ele>362</ele>
        <time>2024-05-17T08:38:18.412Z</time>
      </trkpt>
      <trkpt lat="47.78718" lon="5.34667">
        <ele>362</ele>
        <time>2024-05-17T08:38:23.144Z</time>
      </trkpt>
      <trkpt lat="47.7872" lon="5.34669">
        <ele>362</ele>
        <time>2024-05-17T08:38:27.205Z</time>
      </trkpt>
      <trkpt lat="47.78725" lon="5.34673">
        <ele>362</ele>
        <time>2024-05-17T08:38:31.200Z</time>
      </trkpt>
      <trkpt lat="47.78729" lon="5.34676">
        <ele>362</ele>
        <time>2024-05-17T08:38:35.861Z</time>
      </trkpt>
      <trkpt lat="47.78732" lon="5.34679">
        <ele>362</ele>
        <time>2024-05-17T08:38:39.924Z</time>
      </trkpt>
      <trkpt lat="47.78737" lon="5.34681">
        <ele>363</ele>
        <time>2024-05-17T08:38:44.086Z</time>
      </trkpt>
      <trkpt lat="47.78742" lon="5.34681">
        <ele>363</ele>
        <time>2024-05-17T08:38:48.600Z</time>
      </trkpt>
      <trkpt lat="47.78748" lon="5.3468">
        <ele>363</ele>
        <time>2024-05-17T08:38:53.105Z</time>
      </trkpt>
      <trkpt lat="47.78753" lon="5.34681">
        <ele>363</ele>
        <time>2024-05-17T08:38:57.201Z</time>
      </trkpt>
      <trkpt lat="47.78758" lon="5.34682">
        <ele>363</ele>
        <time>2024-05-17T08:39:01.525Z</time>
      </trkpt>
      <trkpt lat="47.78763" lon="5.34683">
        <ele>363</ele>
        <time>2024-05-17T08:39:05.885Z</time>
      </trkpt>
      <trkpt lat="47.78768" lon="5.34684">
        <ele>363</ele>
        <time>2024-05-17T08:39:10.185Z</time>
      </trkpt>
      <trkpt lat="47.78772" lon="5.34686">
        <ele>363</ele>
        <time>2024-05-17T08:39:14.201Z</time>
      </trkpt>
      <trkpt lat="47.78777" lon="5.34688">
        <ele>363</ele>
        <time>2024-05-17T08:39:18.621Z</time>
      </trkpt>
      <trkpt lat="47.7878" lon="5.3469">
        <ele>363</ele>
        <time>2024-05-17T08:39:23.201Z</time>
      </trkpt>
      <trkpt lat="47.7878" lon="5.3469">
        <ele>363</ele>
        <time>2024-05-17T08:40:25.201Z</time>
      </trkpt>
      <trkpt lat="47.78782" lon="5.34693">
        <ele>363</ele>
        <time>2024-05-17T08:40:30.200Z</time>
      </trkpt>
      <trkpt lat="47.78785" lon="5.34695">
        <ele>363</ele>
        <time>2024-05-17T08:40:35.062Z</time>
      </trkpt>
      <trkpt lat="47.78792" lon="5.34701">
        <ele>363</ele>
        <time>2024-05-17T08:40:39.201Z</time>
      </trkpt>
      <trkpt lat="47.78798" lon="5.34706">
        <ele>365</ele>
        <time>2024-05-17T08:40:44.201Z</time>
      </trkpt>
      <trkpt lat="47.78803" lon="5.3471">
        <ele>364</ele>
        <time>2024-05-17T08:40:48.925Z</time>
      </trkpt>
      <trkpt lat="47.78807" lon="5.34714">
        <ele>364</ele>
        <time>2024-05-17T08:40:53.200Z</time>
      </trkpt>
      <trkpt lat="47.78812" lon="5.34718">
        <ele>364</ele>
        <time>2024-05-17T08:40:58.003Z</time>
      </trkpt>
      <trkpt lat="47.78817" lon="5.3472">
        <ele>364</ele>
        <time>2024-05-17T08:41:02.047Z</time>
      </trkpt>
      <trkpt lat="47.78822" lon="5.34723">
        <ele>368</ele>
        <time>2024-05-17T08:41:07.004Z</time>
      </trkpt>
      <trkpt lat="47.78827" lon="5.34727">
        <ele>368</ele>
        <time>2024-05-17T08:41:11.439Z</time>
      </trkpt>
      <trkpt lat="47.78832" lon="5.34728">
        <ele>368</ele>
        <time>2024-05-17T08:41:15.766Z</time>
      </trkpt>
      <trkpt lat="47.78838" lon="5.34732">
        <ele>368</ele>
        <time>2024-05-17T08:41:20.200Z</time>
      </trkpt>
      <trkpt lat="47.78842" lon="5.34736">
        <ele>368</ele>
        <time>2024-05-17T08:41:24.740Z</time>
      </trkpt>
      <trkpt lat="47.78848" lon="5.34739">
        <ele>372</ele>
        <time>2024-05-17T08:41:28.844Z</time>
      </trkpt>
      <trkpt lat="47.78851" lon="5.34743">
        <ele>372</ele>
        <time>2024-05-17T08:41:33.201Z</time>
      </trkpt>
      <trkpt lat="47.78855" lon="5.34748">
        <ele>372</ele>
        <time>2024-05-17T08:41:37.785Z</time>
      </trkpt>
      <trkpt lat="47.78859" lon="5.34753">
        <ele>372</ele>
        <time>2024-05-17T08:41:42.201Z</time>
      </trkpt>
      <trkpt lat="47.78862" lon="5.34759">
        <ele>372</ele>
        <time>2024-05-17T08:41:46.665Z</time>
      </trkpt>
      <trkpt lat="47.78866" lon="5.34765">
        <ele>372</ele>
        <time>2024-05-17T08:41:51.221Z</time>
      </trkpt>
      <trkpt lat="47.7887" lon="5.34769">
        <ele>372</ele>
        <time>2024-05-17T08:41:55.726Z</time>
      </trkpt>
      <trkpt lat="47.78873" lon="5.34776">
        <ele>372</ele>
        <time>2024-05-17T08:42:00.200Z</time>
      </trkpt>
      <trkpt lat="47.78877" lon="5.34782">
        <ele>373</ele>
        <time>2024-05-17T08:42:05.201Z</time>
      </trkpt>
      <trkpt lat="47.78882" lon="5.34788">
        <ele>373</ele>
        <time>2024-05-17T08:42:10.200Z</time>
      </trkpt>
      <trkpt lat="47.78886" lon="5.34794">
        <ele>373</ele>
        <time>2024-05-17T08:42:15.081Z</time>
      </trkpt>
      <trkpt lat="47.78891" lon="5.348">
        <ele>373</ele>
        <time>2024-05-17T08:42:19.201Z</time>
      </trkpt>
      <trkpt lat="47.78896" lon="5.34805">
        <ele>373</ele>
        <time>2024-05-17T08:42:23.901Z</time>
      </trkpt>
      <trkpt lat="47.78899" lon="5.34813">
        <ele>373</ele>
        <time>2024-05-17T08:42:28.082Z</time>
      </trkpt>
      <trkpt lat="47.789" lon="5.34818">
        <ele>373</ele>
        <time>2024-05-17T08:42:32.200Z</time>
      </trkpt>
      <trkpt lat="47.78902" lon="5.34825">
        <ele>374</ele>
        <time>2024-05-17T08:42:36.845Z</time>
      </trkpt>
      <trkpt lat="47.78905" lon="5.34832">
        <ele>376</ele>
        <time>2024-05-17T08:42:41.200Z</time>
      </trkpt>
      <trkpt lat="47.78907" lon="5.34839">
        <ele>376</ele>
        <time>2024-05-17T08:42:45.201Z</time>
      </trkpt>
      <trkpt lat="47.78914" lon="5.34851">
        <ele>376</ele>
        <time>2024-05-17T08:42:54.201Z</time>
      </trkpt>
      <trkpt lat="47.78918" lon="5.34855">
        <ele>376</ele>
        <time>2024-05-17T08:42:59.044Z</time>
      </trkpt>
      <trkpt lat="47.78922" lon="5.34861">
        <ele>376</ele>
        <time>2024-05-17T08:43:03.201Z</time>
      </trkpt>
      <trkpt lat="47.78926" lon="5.34866">
        <ele>376</ele>
        <time>2024-05-17T08:43:07.645Z</time>
      </trkpt>
      <trkpt lat="47.78929" lon="5.34872">
        <ele>376</ele>
        <time>2024-05-17T08:43:12.141Z</time>
      </trkpt>
      <trkpt lat="47.78931" lon="5.34882">
        <ele>380</ele>
        <time>2024-05-17T08:43:17.200Z</time>
      </trkpt>
      <trkpt lat="47.78934" lon="5.34889">
        <ele>380</ele>
        <time>2024-05-17T08:43:22.068Z</time>
      </trkpt>
      <trkpt lat="47.78938" lon="5.34893">
        <ele>380</ele>
        <time>2024-05-17T08:43:26.201Z</time>
      </trkpt>
      <trkpt lat="47.78941" lon="5.34895">
        <ele>380</ele>
        <time>2024-05-17T08:43:31.114Z</time>
      </trkpt>
      <trkpt lat="47.78947" lon="5.349">
        <ele>380</ele>
        <time>2024-05-17T08:43:35.200Z</time>
      </trkpt>
      <trkpt lat="47.78952" lon="5.34901">
        <ele>380</ele>
        <time>2024-05-17T08:43:39.581Z</time>
      </trkpt>
      <trkpt lat="47.78957" lon="5.34898">
        <ele>380</ele>
        <time>2024-05-17T08:43:44.201Z</time>
      </trkpt>
      <trkpt lat="47.78961" lon="5.34892">
        <ele>383</ele>
        <time>2024-05-17T08:43:48.686Z</time>
      </trkpt>
      <trkpt lat="47.78961" lon="5.34884">
        <ele>383</ele>
        <time>2024-05-17T08:43:52.681Z</time>
      </trkpt>
      <trkpt lat="47.78963" lon="5.34877">
        <ele>383</ele>
        <time>2024-05-17T08:43:57.201Z</time>
      </trkpt>
      <trkpt lat="47.78965" lon="5.34869">
        <ele>381</ele>
        <time>2024-05-17T08:44:01.907Z</time>
      </trkpt>
      <trkpt lat="47.78967" lon="5.34862">
        <ele>381</ele>
        <time>2024-05-17T08:44:06.200Z</time>
      </trkpt>
      <trkpt lat="47.7897" lon="5.34857">
        <ele>381</ele>
        <time>2024-05-17T08:44:10.440Z</time>
      </trkpt>
      <trkpt lat="47.78971" lon="5.34849">
        <ele>381</ele>
        <time>2024-05-17T08:44:15.200Z</time>
      </trkpt>
      <trkpt lat="47.7897" lon="5.34842">
        <ele>380</ele>
        <time>2024-05-17T08:44:19.282Z</time>
      </trkpt>
      <trkpt lat="47.78969" lon="5.34834">
        <ele>380</ele>
        <time>2024-05-17T08:44:24.201Z</time>
      </trkpt>
      <trkpt lat="47.7897" lon="5.34834">
        <ele>380</ele>
        <time>2024-05-17T08:45:26.525Z</time>
      </trkpt>
      <trkpt lat="47.78967" lon="5.34839">
        <ele>380</ele>
        <time>2024-05-17T08:45:31.200Z</time>
      </trkpt>
      <trkpt lat="47.78968" lon="5.3484">
        <ele>380</ele>
        <time>2024-05-17T08:45:35.787Z</time>
      </trkpt>
      <trkpt lat="47.78968" lon="5.34842">
        <ele>380</ele>
        <time>2024-05-17T08:45:39.885Z</time>
      </trkpt>
      <trkpt lat="47.78971" lon="5.34849">
        <ele>381</ele>
        <time>2024-05-17T08:45:44.201Z</time>
      </trkpt>
      <trkpt lat="47.78972" lon="5.34852">
        <ele>381</ele>
        <time>2024-05-17T08:46:11.200Z</time>
      </trkpt>
      <trkpt lat="47.78972" lon="5.34854">
        <ele>381</ele>
        <time>2024-05-17T08:46:21.200Z</time>
      </trkpt>
      <trkpt lat="47.7897" lon="5.34864">
        <ele>381</ele>
        <time>2024-05-17T08:46:26.199Z</time>
      </trkpt>
      <trkpt lat="47.78968" lon="5.34869">
        <ele>381</ele>
        <time>2024-05-17T08:46:30.857Z</time>
      </trkpt>
      <trkpt lat="47.78965" lon="5.3488">
        <ele>383</ele>
        <time>2024-05-17T08:46:35.967Z</time>
      </trkpt>
      <trkpt lat="47.78962" lon="5.34887">
        <ele>383</ele>
        <time>2024-05-17T08:46:40.184Z</time>
      </trkpt>
      <trkpt lat="47.78961" lon="5.34895">
        <ele>383</ele>
        <time>2024-05-17T08:46:44.199Z</time>
      </trkpt>
      <trkpt lat="47.78966" lon="5.34904">
        <ele>385</ele>
        <time>2024-05-17T08:46:48.880Z</time>
      </trkpt>
      <trkpt lat="47.78971" lon="5.3491">
        <ele>385</ele>
        <time>2024-05-17T08:46:53.326Z</time>
      </trkpt>
      <trkpt lat="47.78975" lon="5.34915">
        <ele>385</ele>
        <time>2024-05-17T08:46:57.626Z</time>
      </trkpt>
      <trkpt lat="47.78979" lon="5.34918">
        <ele>385</ele>
        <time>2024-05-17T08:47:01.885Z</time>
      </trkpt>
      <trkpt lat="47.78985" lon="5.34922">
        <ele>385</ele>
        <time>2024-05-17T08:47:06.040Z</time>
      </trkpt>
      <trkpt lat="47.7899" lon="5.34927">
        <ele>387</ele>
        <time>2024-05-17T08:47:11.200Z</time>
      </trkpt>
      <trkpt lat="47.78994" lon="5.3493">
        <ele>387</ele>
        <time>2024-05-17T08:47:15.445Z</time>
      </trkpt>
      <trkpt lat="47.79" lon="5.34933">
        <ele>392</ele>
        <time>2024-05-17T08:47:19.821Z</time>
      </trkpt>
      <trkpt lat="47.79005" lon="5.34937">
        <ele>392</ele>
        <time>2024-05-17T08:47:24.326Z</time>
      </trkpt>
      <trkpt lat="47.7901" lon="5.3494">
        <ele>392</ele>
        <time>2024-05-17T08:47:28.943Z</time>
      </trkpt>
      <trkpt lat="47.79016" lon="5.34943">
        <ele>396</ele>
        <time>2024-05-17T08:47:33.960Z</time>
      </trkpt>
      <trkpt lat="47.7902" lon="5.34946">
        <ele>396</ele>
        <time>2024-05-17T08:47:38.199Z</time>
      </trkpt>
      <trkpt lat="47.79025" lon="5.34949">
        <ele>396</ele>
        <time>2024-05-17T08:47:42.412Z</time>
      </trkpt>
      <trkpt lat="47.7903" lon="5.3495">
        <ele>396</ele>
        <time>2024-05-17T08:47:46.519Z</time>
      </trkpt>
      <trkpt lat="47.79034" lon="5.34951">
        <ele>396</ele>
        <time>2024-05-17T08:47:50.580Z</time>
      </trkpt>
      <trkpt lat="47.7904" lon="5.34956">
        <ele>396</ele>
        <time>2024-05-17T08:47:55.200Z</time>
      </trkpt>
      <trkpt lat="47.79044" lon="5.34959">
        <ele>403</ele>
        <time>2024-05-17T08:47:59.847Z</time>
      </trkpt>
      <trkpt lat="47.79049" lon="5.3496">
        <ele>403</ele>
        <time>2024-05-17T08:48:04.121Z</time>
      </trkpt>
      <trkpt lat="47.79053" lon="5.34962">
        <ele>403</ele>
        <time>2024-05-17T08:48:08.184Z</time>
      </trkpt>
      <trkpt lat="47.79057" lon="5.34965">
        <ele>403</ele>
        <time>2024-05-17T08:48:12.526Z</time>
      </trkpt>
      <trkpt lat="47.79062" lon="5.34967">
        <ele>403</ele>
        <time>2024-05-17T08:48:16.885Z</time>
      </trkpt>
      <trkpt lat="47.79065" lon="5.3497">
        <ele>403</ele>
        <time>2024-05-17T08:48:21.085Z</time>
      </trkpt>
      <trkpt lat="47.79069" lon="5.34973">
        <ele>403</ele>
        <time>2024-05-17T08:48:25.367Z</time>
      </trkpt>
      <trkpt lat="47.79074" lon="5.34976">
        <ele>404</ele>
        <time>2024-05-17T08:48:30.199Z</time>
      </trkpt>
      <trkpt lat="47.79078" lon="5.34982">
        <ele>404</ele>
        <time>2024-05-17T08:48:34.847Z</time>
      </trkpt>
      <trkpt lat="47.79083" lon="5.34983">
        <ele>404</ele>
        <time>2024-05-17T08:48:39.200Z</time>
      </trkpt>
      <trkpt lat="47.79087" lon="5.34986">
        <ele>407</ele>
        <time>2024-05-17T08:48:43.540Z</time>
      </trkpt>
      <trkpt lat="47.79092" lon="5.3499">
        <ele>407</ele>
        <time>2024-05-17T08:48:48.105Z</time>
      </trkpt>
      <trkpt lat="47.79095" lon="5.34994">
        <ele>407</ele>
        <time>2024-05-17T08:48:52.199Z</time>
      </trkpt>
      <trkpt lat="47.79101" lon="5.34998">
        <ele>405</ele>
        <time>2024-05-17T08:48:56.886Z</time>
      </trkpt>
      <trkpt lat="47.79106" lon="5.35002">
        <ele>405</ele>
        <time>2024-05-17T08:49:01.199Z</time>
      </trkpt>
      <trkpt lat="47.7911" lon="5.35005">
        <ele>405</ele>
        <time>2024-05-17T08:49:05.649Z</time>
      </trkpt>
      <trkpt lat="47.79115" lon="5.35008">
        <ele>405</ele>
        <time>2024-05-17T08:49:10.200Z</time>
      </trkpt>
      <trkpt lat="47.7912" lon="5.35014">
        <ele>405</ele>
        <time>2024-05-17T08:49:15.160Z</time>
      </trkpt>
      <trkpt lat="47.79124" lon="5.35017">
        <ele>407</ele>
        <time>2024-05-17T08:49:19.199Z</time>
      </trkpt>
      <trkpt lat="47.7913" lon="5.35022">
        <ele>407</ele>
        <time>2024-05-17T08:49:24.185Z</time>
      </trkpt>
      <trkpt lat="47.79134" lon="5.35027">
        <ele>407</ele>
        <time>2024-05-17T08:49:28.200Z</time>
      </trkpt>
      <trkpt lat="47.79139" lon="5.35032">
        <ele>407</ele>
        <time>2024-05-17T08:49:33.223Z</time>
      </trkpt>
      <trkpt lat="47.79144" lon="5.35038">
        <ele>407</ele>
        <time>2024-05-17T08:49:37.684Z</time>
      </trkpt>
      <trkpt lat="47.79148" lon="5.35043">
        <ele>408</ele>
        <time>2024-05-17T08:49:42.181Z</time>
      </trkpt>
      <trkpt lat="47.79152" lon="5.35047">
        <ele>408</ele>
        <time>2024-05-17T08:49:47.200Z</time>
      </trkpt>
      <trkpt lat="47.79157" lon="5.35052">
        <ele>410</ele>
        <time>2024-05-17T08:49:52.161Z</time>
      </trkpt>
      <trkpt lat="47.79161" lon="5.35057">
        <ele>410</ele>
        <time>2024-05-17T08:49:56.520Z</time>
      </trkpt>
      <trkpt lat="47.79165" lon="5.35062">
        <ele>410</ele>
        <time>2024-05-17T08:50:00.965Z</time>
      </trkpt>
      <trkpt lat="47.79168" lon="5.35067">
        <ele>410</ele>
        <time>2024-05-17T08:50:05.002Z</time>
      </trkpt>
      <trkpt lat="47.79172" lon="5.35071">
        <ele>410</ele>
        <time>2024-05-17T08:50:09.207Z</time>
      </trkpt>
      <trkpt lat="47.79175" lon="5.35077">
        <ele>410</ele>
        <time>2024-05-17T08:50:13.447Z</time>
      </trkpt>
      <trkpt lat="47.79179" lon="5.35082">
        <ele>410</ele>
        <time>2024-05-17T08:50:17.705Z</time>
      </trkpt>
      <trkpt lat="47.79183" lon="5.35087">
        <ele>411</ele>
        <time>2024-05-17T08:50:21.748Z</time>
      </trkpt>
      <trkpt lat="47.79186" lon="5.35091">
        <ele>411</ele>
        <time>2024-05-17T08:50:25.843Z</time>
      </trkpt>
      <trkpt lat="47.7919" lon="5.35096">
        <ele>411</ele>
        <time>2024-05-17T08:50:29.946Z</time>
      </trkpt>
      <trkpt lat="47.79194" lon="5.351">
        <ele>412</ele>
        <time>2024-05-17T08:50:34.024Z</time>
      </trkpt>
      <trkpt lat="47.79198" lon="5.35106">
        <ele>412</ele>
        <time>2024-05-17T08:50:38.200Z</time>
      </trkpt>
      <trkpt lat="47.792" lon="5.35113">
        <ele>412</ele>
        <time>2024-05-17T08:50:43.025Z</time>
      </trkpt>
      <trkpt lat="47.792" lon="5.35119">
        <ele>412</ele>
        <time>2024-05-17T08:50:47.200Z</time>
      </trkpt>
      <trkpt lat="47.79198" lon="5.35126">
        <ele>414</ele>
        <time>2024-05-17T08:50:51.820Z</time>
      </trkpt>
      <trkpt lat="47.79198" lon="5.35134">
        <ele>414</ele>
        <time>2024-05-17T08:50:56.085Z</time>
      </trkpt>
      <trkpt lat="47.792" lon="5.35139">
        <ele>414</ele>
        <time>2024-05-17T08:51:00.200Z</time>
      </trkpt>
      <trkpt lat="47.79202" lon="5.35145">
        <ele>414</ele>
        <time>2024-05-17T08:51:04.399Z</time>
      </trkpt>
      <trkpt lat="47.79205" lon="5.35151">
        <ele>414</ele>
        <time>2024-05-17T08:51:08.661Z</time>
      </trkpt>
      <trkpt lat="47.79207" lon="5.35156">
        <ele>418</ele>
        <time>2024-05-17T08:51:12.960Z</time>
      </trkpt>
      <trkpt lat="47.79211" lon="5.3516">
        <ele>417</ele>
        <time>2024-05-17T08:51:17.005Z</time>
      </trkpt>
      <trkpt lat="47.79214" lon="5.35167">
        <ele>417</ele>
        <time>2024-05-17T08:51:22.200Z</time>
      </trkpt>
      <trkpt lat="47.79217" lon="5.35172">
        <ele>417</ele>
        <time>2024-05-17T08:51:26.422Z</time>
      </trkpt>
      <trkpt lat="47.7922" lon="5.35177">
        <ele>417</ele>
        <time>2024-05-17T08:51:30.509Z</time>
      </trkpt>
      <trkpt lat="47.79224" lon="5.35183">
        <ele>419</ele>
        <time>2024-05-17T08:51:35.081Z</time>
      </trkpt>
      <trkpt lat="47.79227" lon="5.35187">
        <ele>419</ele>
        <time>2024-05-17T08:51:39.200Z</time>
      </trkpt>
      <trkpt lat="47.79231" lon="5.35192">
        <ele>419</ele>
        <time>2024-05-17T08:51:43.288Z</time>
      </trkpt>
      <trkpt lat="47.79235" lon="5.35196">
        <ele>419</ele>
        <time>2024-05-17T08:51:47.485Z</time>
      </trkpt>
      <trkpt lat="47.79238" lon="5.35202">
        <ele>420</ele>
        <time>2024-05-17T08:51:52.194Z</time>
      </trkpt>
      <trkpt lat="47.79243" lon="5.35207">
        <ele>420</ele>
        <time>2024-05-17T08:51:56.587Z</time>
      </trkpt>
      <trkpt lat="47.79247" lon="5.35211">
        <ele>422</ele>
        <time>2024-05-17T08:52:00.981Z</time>
      </trkpt>
      <trkpt lat="47.79253" lon="5.35215">
        <ele>422</ele>
        <time>2024-05-17T08:52:05.725Z</time>
      </trkpt>
      <trkpt lat="47.79257" lon="5.35219">
        <ele>422</ele>
        <time>2024-05-17T08:52:09.786Z</time>
      </trkpt>
      <trkpt lat="47.79262" lon="5.35223">
        <ele>422</ele>
        <time>2024-05-17T08:52:14.206Z</time>
      </trkpt>
      <trkpt lat="47.79266" lon="5.35227">
        <ele>422</ele>
        <time>2024-05-17T08:52:18.199Z</time>
      </trkpt>
      <trkpt lat="47.79269" lon="5.35235">
        <ele>422</ele>
        <time>2024-05-17T08:52:22.427Z</time>
      </trkpt>
      <trkpt lat="47.79272" lon="5.35243">
        <ele>424</ele>
        <time>2024-05-17T08:52:26.880Z</time>
      </trkpt>
      <trkpt lat="47.79274" lon="5.35251">
        <ele>424</ele>
        <time>2024-05-17T08:52:31.428Z</time>
      </trkpt>
      <trkpt lat="47.79276" lon="5.35259">
        <ele>424</ele>
        <time>2024-05-17T08:52:35.745Z</time>
      </trkpt>
      <trkpt lat="47.79278" lon="5.35266">
        <ele>429</ele>
        <time>2024-05-17T08:52:40.069Z</time>
      </trkpt>
      <trkpt lat="47.7928" lon="5.35274">
        <ele>429</ele>
        <time>2024-05-17T08:52:44.581Z</time>
      </trkpt>
      <trkpt lat="47.79281" lon="5.35281">
        <ele>429</ele>
        <time>2024-05-17T08:52:48.642Z</time>
      </trkpt>
      <trkpt lat="47.79282" lon="5.35288">
        <ele>429</ele>
        <time>2024-05-17T08:52:52.668Z</time>
      </trkpt>
      <trkpt lat="47.79282" lon="5.35295">
        <ele>434</ele>
        <time>2024-05-17T08:52:57.121Z</time>
      </trkpt>
      <trkpt lat="47.79279" lon="5.35302">
        <ele>434</ele>
        <time>2024-05-17T08:53:02.200Z</time>
      </trkpt>
      <trkpt lat="47.79275" lon="5.35306">
        <ele>434</ele>
        <time>2024-05-17T08:53:06.384Z</time>
      </trkpt>
      <trkpt lat="47.79273" lon="5.3531">
        <ele>434</ele>
        <time>2024-05-17T08:53:10.480Z</time>
      </trkpt>
      <trkpt lat="47.79268" lon="5.35312">
        <ele>434</ele>
        <time>2024-05-17T08:53:15.200Z</time>
      </trkpt>
      <trkpt lat="47.79264" lon="5.35317">
        <ele>434</ele>
        <time>2024-05-17T08:53:20.085Z</time>
      </trkpt>
      <trkpt lat="47.79261" lon="5.35321">
        <ele>439</ele>
        <time>2024-05-17T08:53:24.105Z</time>
      </trkpt>
      <trkpt lat="47.79257" lon="5.35326">
        <ele>439</ele>
        <time>2024-05-17T08:53:28.608Z</time>
      </trkpt>
      <trkpt lat="47.79255" lon="5.35332">
        <ele>439</ele>
        <time>2024-05-17T08:53:32.687Z</time>
      </trkpt>
      <trkpt lat="47.79252" lon="5.35337">
        <ele>439</ele>
        <time>2024-05-17T08:53:37.200Z</time>
      </trkpt>
      <trkpt lat="47.79249" lon="5.35343">
        <ele>439</ele>
        <time>2024-05-17T08:53:41.728Z</time>
      </trkpt>
      <trkpt lat="47.79245" lon="5.3535">
        <ele>441</ele>
        <time>2024-05-17T08:53:46.200Z</time>
      </trkpt>
      <trkpt lat="47.79242" lon="5.35355">
        <ele>441</ele>
        <time>2024-05-17T08:53:50.667Z</time>
      </trkpt>
      <trkpt lat="47.79238" lon="5.35362">
        <ele>441</ele>
        <time>2024-05-17T08:53:54.685Z</time>
      </trkpt>
      <trkpt lat="47.79234" lon="5.35367">
        <ele>441</ele>
        <time>2024-05-17T08:53:59.165Z</time>
      </trkpt>
      <trkpt lat="47.79231" lon="5.35373">
        <ele>441</ele>
        <time>2024-05-17T08:54:03.668Z</time>
      </trkpt>
      <trkpt lat="47.79229" lon="5.35381">
        <ele>443</ele>
        <time>2024-05-17T08:54:08.200Z</time>
      </trkpt>
      <trkpt lat="47.79227" lon="5.3539">
        <ele>443</ele>
        <time>2024-05-17T08:54:13.025Z</time>
      </trkpt>
      <trkpt lat="47.79225" lon="5.35399">
        <ele>443</ele>
        <time>2024-05-17T08:54:17.199Z</time>
      </trkpt>
      <trkpt lat="47.79223" lon="5.35404">
        <ele>444</ele>
        <time>2024-05-17T08:54:21.200Z</time>
      </trkpt>
      <trkpt lat="47.7922" lon="5.35413">
        <ele>444</ele>
        <time>2024-05-17T08:54:25.361Z</time>
      </trkpt>
      <trkpt lat="47.79218" lon="5.35422">
        <ele>444</ele>
        <time>2024-05-17T08:54:29.821Z</time>
      </trkpt>
      <trkpt lat="47.79217" lon="5.35428">
        <ele>444</ele>
        <time>2024-05-17T08:54:33.882Z</time>
      </trkpt>
      <trkpt lat="47.79216" lon="5.35436">
        <ele>444</ele>
        <time>2024-05-17T08:54:38.267Z</time>
      </trkpt>
      <trkpt lat="47.79215" lon="5.35445">
        <ele>444</ele>
        <time>2024-05-17T08:54:43.120Z</time>
      </trkpt>
      <trkpt lat="47.79213" lon="5.35452">
        <ele>444</ele>
        <time>2024-05-17T08:54:47.199Z</time>
      </trkpt>
      <trkpt lat="47.7921" lon="5.35461">
        <ele>445</ele>
        <time>2024-05-17T08:54:51.906Z</time>
      </trkpt>
      <trkpt lat="47.7921" lon="5.3547">
        <ele>445</ele>
        <time>2024-05-17T08:54:56.199Z</time>
      </trkpt>
      <trkpt lat="47.7921" lon="5.3548">
        <ele>445</ele>
        <time>2024-05-17T08:55:01.199Z</time>
      </trkpt>
      <trkpt lat="47.79207" lon="5.35487">
        <ele>446</ele>
        <time>2024-05-17T08:55:05.921Z</time>
      </trkpt>
      <trkpt lat="47.79208" lon="5.35496">
        <ele>446</ele>
        <time>2024-05-17T08:55:10.165Z</time>
      </trkpt>
      <trkpt lat="47.79205" lon="5.35504">
        <ele>446</ele>
        <time>2024-05-17T08:55:14.199Z</time>
      </trkpt>
      <trkpt lat="47.79202" lon="5.35511">
        <ele>446</ele>
        <time>2024-05-17T08:55:18.661Z</time>
      </trkpt>
      <trkpt lat="47.792" lon="5.35519">
        <ele>448</ele>
        <time>2024-05-17T08:55:23.004Z</time>
      </trkpt>
      <trkpt lat="47.79199" lon="5.35527">
        <ele>448</ele>
        <time>2024-05-17T08:55:27.199Z</time>
      </trkpt>
      <trkpt lat="47.79196" lon="5.35536">
        <ele>448</ele>
        <time>2024-05-17T08:55:31.807Z</time>
      </trkpt>
      <trkpt lat="47.79195" lon="5.35545">
        <ele>449</ele>
        <time>2024-05-17T08:55:36.199Z</time>
      </trkpt>
      <trkpt lat="47.79194" lon="5.35553">
        <ele>449</ele>
        <time>2024-05-17T08:55:40.200Z</time>
      </trkpt>
      <trkpt lat="47.79192" lon="5.35563">
        <ele>449</ele>
        <time>2024-05-17T08:55:45.149Z</time>
      </trkpt>
      <trkpt lat="47.79192" lon="5.35572">
        <ele>449</ele>
        <time>2024-05-17T08:55:49.200Z</time>
      </trkpt>
      <trkpt lat="47.79192" lon="5.35582">
        <ele>449</ele>
        <time>2024-05-17T08:55:54.200Z</time>
      </trkpt>
      <trkpt lat="47.79194" lon="5.35591">
        <ele>449</ele>
        <time>2024-05-17T08:55:59.199Z</time>
      </trkpt>
      <trkpt lat="47.79195" lon="5.356">
        <ele>449</ele>
        <time>2024-05-17T08:56:03.565Z</time>
      </trkpt>
      <trkpt lat="47.79196" lon="5.35609">
        <ele>449</ele>
        <time>2024-05-17T08:56:08.199Z</time>
      </trkpt>
      <trkpt lat="47.79196" lon="5.35618">
        <ele>449</ele>
        <time>2024-05-17T08:56:12.521Z</time>
      </trkpt>
      <trkpt lat="47.79196" lon="5.35628">
        <ele>450</ele>
        <time>2024-05-17T08:56:17.025Z</time>
      </trkpt>
      <trkpt lat="47.79195" lon="5.35636">
        <ele>450</ele>
        <time>2024-05-17T08:56:21.200Z</time>
      </trkpt>
      <trkpt lat="47.79196" lon="5.35646">
        <ele>450</ele>
        <time>2024-05-17T08:56:26.127Z</time>
      </trkpt>
      <trkpt lat="47.79196" lon="5.35653">
        <ele>451</ele>
        <time>2024-05-17T08:56:30.200Z</time>
      </trkpt>
      <trkpt lat="47.79196" lon="5.35661">
        <ele>451</ele>
        <time>2024-05-17T08:56:34.725Z</time>
      </trkpt>
      <trkpt lat="47.79198" lon="5.3567">
        <ele>451</ele>
        <time>2024-05-17T08:56:39.200Z</time>
      </trkpt>
      <trkpt lat="47.792" lon="5.3568">
        <ele>451</ele>
        <time>2024-05-17T08:56:44.200Z</time>
      </trkpt>
      <trkpt lat="47.79201" lon="5.35688">
        <ele>452</ele>
        <time>2024-05-17T08:56:48.418Z</time>
      </trkpt>
      <trkpt lat="47.79202" lon="5.35697">
        <ele>452</ele>
        <time>2024-05-17T08:56:53.169Z</time>
      </trkpt>
      <trkpt lat="47.79203" lon="5.35704">
        <ele>452</ele>
        <time>2024-05-17T08:56:57.200Z</time>
      </trkpt>
      <trkpt lat="47.79204" lon="5.35713">
        <ele>453</ele>
        <time>2024-05-17T08:57:02.184Z</time>
      </trkpt>
      <trkpt lat="47.79205" lon="5.35721">
        <ele>453</ele>
        <time>2024-05-17T08:57:07.062Z</time>
      </trkpt>
      <trkpt lat="47.79206" lon="5.35728">
        <ele>453</ele>
        <time>2024-05-17T08:57:11.165Z</time>
      </trkpt>
      <trkpt lat="47.79205" lon="5.35736">
        <ele>454</ele>
        <time>2024-05-17T08:57:16.060Z</time>
      </trkpt>
      <trkpt lat="47.79204" lon="5.35744">
        <ele>454</ele>
        <time>2024-05-17T08:57:20.199Z</time>
      </trkpt>
      <trkpt lat="47.79202" lon="5.35752">
        <ele>454</ele>
        <time>2024-05-17T08:57:24.881Z</time>
      </trkpt>
      <trkpt lat="47.792" lon="5.35761">
        <ele>454</ele>
        <time>2024-05-17T08:57:29.200Z</time>
      </trkpt>
      <trkpt lat="47.79199" lon="5.3577">
        <ele>455</ele>
        <time>2024-05-17T08:57:34.187Z</time>
      </trkpt>
      <trkpt lat="47.79197" lon="5.35776">
        <ele>455</ele>
        <time>2024-05-17T08:57:38.200Z</time>
      </trkpt>
      <trkpt lat="47.79195" lon="5.35785">
        <ele>455</ele>
        <time>2024-05-17T08:57:42.727Z</time>
      </trkpt>
      <trkpt lat="47.79193" lon="5.35793">
        <ele>456</ele>
        <time>2024-05-17T08:57:47.199Z</time>
      </trkpt>
      <trkpt lat="47.79192" lon="5.35801">
        <ele>456</ele>
        <time>2024-05-17T08:57:51.741Z</time>
      </trkpt>
      <trkpt lat="47.7919" lon="5.3581">
        <ele>456</ele>
        <time>2024-05-17T08:57:56.199Z</time>
      </trkpt>
      <trkpt lat="47.79188" lon="5.35816">
        <ele>456</ele>
        <time>2024-05-17T08:58:00.200Z</time>
      </trkpt>
      <trkpt lat="47.79186" lon="5.35825">
        <ele>457</ele>
        <time>2024-05-17T08:58:05.200Z</time>
      </trkpt>
      <trkpt lat="47.79183" lon="5.35835">
        <ele>457</ele>
        <time>2024-05-17T08:58:09.787Z</time>
      </trkpt>
      <trkpt lat="47.79181" lon="5.35844">
        <ele>457</ele>
        <time>2024-05-17T08:58:14.200Z</time>
      </trkpt>
      <trkpt lat="47.7918" lon="5.35851">
        <ele>452</ele>
        <time>2024-05-17T08:58:18.880Z</time>
      </trkpt>
      <trkpt lat="47.79177" lon="5.35858">
        <ele>452</ele>
        <time>2024-05-17T08:58:23.199Z</time>
      </trkpt>
      <trkpt lat="47.79174" lon="5.35865">
        <ele>452</ele>
        <time>2024-05-17T08:58:27.945Z</time>
      </trkpt>
      <trkpt lat="47.79172" lon="5.35873">
        <ele>452</ele>
        <time>2024-05-17T08:58:32.200Z</time>
      </trkpt>
      <trkpt lat="47.79171" lon="5.3588">
        <ele>451</ele>
        <time>2024-05-17T08:58:36.970Z</time>
      </trkpt>
      <trkpt lat="47.79168" lon="5.35891">
        <ele>451</ele>
        <time>2024-05-17T08:58:41.480Z</time>
      </trkpt>
      <trkpt lat="47.79166" lon="5.35899">
        <ele>451</ele>
        <time>2024-05-17T08:58:45.744Z</time>
      </trkpt>
      <trkpt lat="47.79165" lon="5.35907">
        <ele>451</ele>
        <time>2024-05-17T08:58:50.200Z</time>
      </trkpt>
      <trkpt lat="47.79163" lon="5.35917">
        <ele>451</ele>
        <time>2024-05-17T08:58:54.763Z</time>
      </trkpt>
      <trkpt lat="47.79162" lon="5.35925">
        <ele>451</ele>
        <time>2024-05-17T08:58:59.163Z</time>
      </trkpt>
      <trkpt lat="47.79162" lon="5.35933">
        <ele>450</ele>
        <time>2024-05-17T08:59:03.200Z</time>
      </trkpt>
      <trkpt lat="47.79165" lon="5.35939">
        <ele>450</ele>
        <time>2024-05-17T08:59:07.880Z</time>
      </trkpt>
      <trkpt lat="47.79167" lon="5.35945">
        <ele>450</ele>
        <time>2024-05-17T08:59:12.328Z</time>
      </trkpt>
      <trkpt lat="47.79171" lon="5.35949">
        <ele>450</ele>
        <time>2024-05-17T08:59:16.871Z</time>
      </trkpt>
      <trkpt lat="47.79176" lon="5.35953">
        <ele>450</ele>
        <time>2024-05-17T08:59:21.200Z</time>
      </trkpt>
      <trkpt lat="47.79181" lon="5.35955">
        <ele>454</ele>
        <time>2024-05-17T08:59:25.623Z</time>
      </trkpt>
      <trkpt lat="47.79187" lon="5.3596">
        <ele>454</ele>
        <time>2024-05-17T08:59:30.066Z</time>
      </trkpt>
      <trkpt lat="47.79192" lon="5.35964">
        <ele>454</ele>
        <time>2024-05-17T08:59:34.200Z</time>
      </trkpt>
      <trkpt lat="47.79193" lon="5.35964">
        <ele>454</ele>
        <time>2024-05-17T08:59:53.702Z</time>
      </trkpt>
      <trkpt lat="47.7919" lon="5.35964">
        <ele>454</ele>
        <time>2024-05-17T08:59:57.763Z</time>
      </trkpt>
      <trkpt lat="47.79184" lon="5.35956">
        <ele>454</ele>
        <time>2024-05-17T09:00:02.199Z</time>
      </trkpt>
      <trkpt lat="47.79179" lon="5.35951">
        <ele>450</ele>
        <time>2024-05-17T09:00:06.199Z</time>
      </trkpt>
      <trkpt lat="47.79173" lon="5.35949">
        <ele>450</ele>
        <time>2024-05-17T09:00:10.907Z</time>
      </trkpt>
      <trkpt lat="47.79169" lon="5.35946">
        <ele>450</ele>
        <time>2024-05-17T09:00:15.200Z</time>
      </trkpt>
      <trkpt lat="47.79164" lon="5.35942">
        <ele>450</ele>
        <time>2024-05-17T09:00:19.389Z</time>
      </trkpt>
      <trkpt lat="47.79161" lon="5.35937">
        <ele>450</ele>
        <time>2024-05-17T09:00:23.805Z</time>
      </trkpt>
      <trkpt lat="47.79157" lon="5.3594">
        <ele>450</ele>
        <time>2024-05-17T09:00:28.199Z</time>
      </trkpt>
      <trkpt lat="47.79157" lon="5.35941">
        <ele>450</ele>
        <time>2024-05-17T09:00:33.200Z</time>
      </trkpt>
      <trkpt lat="47.79154" lon="5.35946">
        <ele>450</ele>
        <time>2024-05-17T09:00:38.199Z</time>
      </trkpt>
      <trkpt lat="47.79153" lon="5.35958">
        <ele>450</ele>
        <time>2024-05-17T09:00:42.826Z</time>
      </trkpt>
      <trkpt lat="47.79156" lon="5.35967">
        <ele>449</ele>
        <time>2024-05-17T09:00:47.199Z</time>
      </trkpt>
      <trkpt lat="47.79155" lon="5.35975">
        <ele>449</ele>
        <time>2024-05-17T09:00:51.200Z</time>
      </trkpt>
      <trkpt lat="47.79156" lon="5.35982">
        <ele>449</ele>
        <time>2024-05-17T09:00:55.963Z</time>
      </trkpt>
      <trkpt lat="47.79157" lon="5.3599">
        <ele>448</ele>
        <time>2024-05-17T09:01:00.048Z</time>
      </trkpt>
      <trkpt lat="47.79159" lon="5.35996">
        <ele>448</ele>
        <time>2024-05-17T09:01:04.199Z</time>
      </trkpt>
      <trkpt lat="47.7916" lon="5.36001">
        <ele>448</ele>
        <time>2024-05-17T09:01:08.801Z</time>
      </trkpt>
      <trkpt lat="47.7916" lon="5.36005">
        <ele>448</ele>
        <time>2024-05-17T09:01:12.826Z</time>
      </trkpt>
      <trkpt lat="47.79159" lon="5.36009">
        <ele>448</ele>
        <time>2024-05-17T09:01:17.426Z</time>
      </trkpt>
      <trkpt lat="47.79159" lon="5.36017">
        <ele>447</ele>
        <time>2024-05-17T09:01:21.758Z</time>
      </trkpt>
      <trkpt lat="47.7916" lon="5.36024">
        <ele>447</ele>
        <time>2024-05-17T09:01:26.200Z</time>
      </trkpt>
      <trkpt lat="47.79162" lon="5.36031">
        <ele>447</ele>
        <time>2024-05-17T09:01:31.126Z</time>
      </trkpt>
      <trkpt lat="47.79163" lon="5.36039">
        <ele>447</ele>
        <time>2024-05-17T09:01:35.199Z</time>
      </trkpt>
      <trkpt lat="47.79164" lon="5.36047">
        <ele>445</ele>
        <time>2024-05-17T09:01:39.985Z</time>
      </trkpt>
      <trkpt lat="47.79165" lon="5.36051">
        <ele>445</ele>
        <time>2024-05-17T09:01:44.200Z</time>
      </trkpt>
      <trkpt lat="47.79166" lon="5.36062">
        <ele>445</ele>
        <time>2024-05-17T09:01:48.779Z</time>
      </trkpt>
      <trkpt lat="47.79168" lon="5.36068">
        <ele>445</ele>
        <time>2024-05-17T09:01:53.200Z</time>
      </trkpt>
      <trkpt lat="47.7917" lon="5.36077">
        <ele>444</ele>
        <time>2024-05-17T09:01:58.200Z</time>
      </trkpt>
      <trkpt lat="47.79173" lon="5.36084">
        <ele>444</ele>
        <time>2024-05-17T09:02:02.626Z</time>
      </trkpt>
      <trkpt lat="47.79177" lon="5.36091">
        <ele>444</ele>
        <time>2024-05-17T09:02:06.848Z</time>
      </trkpt>
      <trkpt lat="47.79181" lon="5.36098">
        <ele>451</ele>
        <time>2024-05-17T09:02:11.200Z</time>
      </trkpt>
      <trkpt lat="47.79184" lon="5.36104">
        <ele>451</ele>
        <time>2024-05-17T09:02:15.727Z</time>
      </trkpt>
      <trkpt lat="47.79186" lon="5.36113">
        <ele>451</ele>
        <time>2024-05-17T09:02:20.145Z</time>
      </trkpt>
      <trkpt lat="47.79188" lon="5.36121">
        <ele>451</ele>
        <time>2024-05-17T09:02:24.581Z</time>
      </trkpt>
      <trkpt lat="47.79192" lon="5.36129">
        <ele>449</ele>
        <time>2024-05-17T09:02:29.009Z</time>
      </trkpt>
      <trkpt lat="47.79189" lon="5.36136">
        <ele>449</ele>
        <time>2024-05-17T09:02:33.199Z</time>
      </trkpt>
      <trkpt lat="47.79186" lon="5.36142">
        <ele>449</ele>
        <time>2024-05-17T09:02:37.504Z</time>
      </trkpt>
      <trkpt lat="47.79188" lon="5.36153">
        <ele>446</ele>
        <time>2024-05-17T09:02:42.145Z</time>
      </trkpt>
      <trkpt lat="47.79184" lon="5.36157">
        <ele>446</ele>
        <time>2024-05-17T09:02:46.199Z</time>
      </trkpt>
      <trkpt lat="47.7918" lon="5.36164">
        <ele>437</ele>
        <time>2024-05-17T09:02:50.845Z</time>
      </trkpt>
      <trkpt lat="47.79181" lon="5.3617">
        <ele>446</ele>
        <time>2024-05-17T09:02:55.101Z</time>
      </trkpt>
      <trkpt lat="47.79182" lon="5.36175">
        <ele>446</ele>
        <time>2024-05-17T09:02:59.199Z</time>
      </trkpt>
      <trkpt lat="47.79184" lon="5.36182">
        <ele>442</ele>
        <time>2024-05-17T09:03:04.199Z</time>
      </trkpt>
      <trkpt lat="47.79185" lon="5.3619">
        <ele>442</ele>
        <time>2024-05-17T09:03:08.928Z</time>
      </trkpt>
      <trkpt lat="47.79185" lon="5.36201">
        <ele>442</ele>
        <time>2024-05-17T09:04:01.200Z</time>
      </trkpt>
      <trkpt lat="47.79185" lon="5.36201">
        <ele>442</ele>
        <time>2024-05-17T09:04:05.802Z</time>
      </trkpt>
      <trkpt lat="47.79189" lon="5.36206">
        <ele>442</ele>
        <time>2024-05-17T09:04:10.104Z</time>
      </trkpt>
      <trkpt lat="47.79191" lon="5.36211">
        <ele>440</ele>
        <time>2024-05-17T09:04:14.199Z</time>
      </trkpt>
      <trkpt lat="47.79195" lon="5.36217">
        <ele>440</ele>
        <time>2024-05-17T09:04:18.827Z</time>
      </trkpt>
      <trkpt lat="47.79199" lon="5.36221">
        <ele>440</ele>
        <time>2024-05-17T09:04:23.008Z</time>
      </trkpt>
      <trkpt lat="47.79199" lon="5.36231">
        <ele>440</ele>
        <time>2024-05-17T09:04:27.649Z</time>
      </trkpt>
      <trkpt lat="47.79201" lon="5.3624">
        <ele>438</ele>
        <time>2024-05-17T09:04:32.199Z</time>
      </trkpt>
      <trkpt lat="47.79204" lon="5.36248">
        <ele>438</ele>
        <time>2024-05-17T09:04:36.971Z</time>
      </trkpt>
      <trkpt lat="47.79208" lon="5.36254">
        <ele>438</ele>
        <time>2024-05-17T09:04:41.200Z</time>
      </trkpt>
      <trkpt lat="47.79213" lon="5.3626">
        <ele>444</ele>
        <time>2024-05-17T09:04:45.885Z</time>
      </trkpt>
      <trkpt lat="47.79215" lon="5.36268">
        <ele>443</ele>
        <time>2024-05-17T09:04:50.885Z</time>
      </trkpt>
      <trkpt lat="47.79219" lon="5.36276">
        <ele>443</ele>
        <time>2024-05-17T09:04:55.199Z</time>
      </trkpt>
      <trkpt lat="47.79219" lon="5.36285">
        <ele>443</ele>
        <time>2024-05-17T09:04:59.866Z</time>
      </trkpt>
      <trkpt lat="47.79223" lon="5.36292">
        <ele>441</ele>
        <time>2024-05-17T09:05:03.985Z</time>
      </trkpt>
      <trkpt lat="47.79225" lon="5.36297">
        <ele>441</ele>
        <time>2024-05-17T09:05:08.020Z</time>
      </trkpt>
      <trkpt lat="47.79229" lon="5.36303">
        <ele>441</ele>
        <time>2024-05-17T09:05:12.585Z</time>
      </trkpt>
      <trkpt lat="47.79232" lon="5.3631">
        <ele>441</ele>
        <time>2024-05-17T09:05:16.884Z</time>
      </trkpt>
      <trkpt lat="47.79235" lon="5.36318">
        <ele>441</ele>
        <time>2024-05-17T09:05:21.200Z</time>
      </trkpt>
      <trkpt lat="47.79238" lon="5.36325">
        <ele>445</ele>
        <time>2024-05-17T09:05:25.401Z</time>
      </trkpt>
      <trkpt lat="47.79242" lon="5.3633">
        <ele>445</ele>
        <time>2024-05-17T09:05:29.686Z</time>
      </trkpt>
      <trkpt lat="47.79246" lon="5.36336">
        <ele>445</ele>
        <time>2024-05-17T09:05:33.825Z</time>
      </trkpt>
      <trkpt lat="47.79249" lon="5.36343">
        <ele>445</ele>
        <time>2024-05-17T09:05:38.329Z</time>
      </trkpt>
      <trkpt lat="47.79252" lon="5.3635">
        <ele>441</ele>
        <time>2024-05-17T09:05:42.482Z</time>
      </trkpt>
      <trkpt lat="47.79254" lon="5.36356">
        <ele>441</ele>
        <time>2024-05-17T09:05:47.062Z</time>
      </trkpt>
      <trkpt lat="47.79254" lon="5.36369">
        <ele>441</ele>
        <time>2024-05-17T09:06:01.200Z</time>
      </trkpt>
      <trkpt lat="47.79255" lon="5.36373">
        <ele>441</ele>
        <time>2024-05-17T09:06:05.686Z</time>
      </trkpt>
      <trkpt lat="47.79256" lon="5.36379">
        <ele>438</ele>
        <time>2024-05-17T09:06:09.865Z</time>
      </trkpt>
      <trkpt lat="47.7926" lon="5.36385">
        <ele>438</ele>
        <time>2024-05-17T09:06:14.001Z</time>
      </trkpt>
      <trkpt lat="47.79263" lon="5.36391">
        <ele>438</ele>
        <time>2024-05-17T09:06:18.206Z</time>
      </trkpt>
      <trkpt lat="47.79266" lon="5.36399">
        <ele>444</ele>
        <time>2024-05-17T09:06:22.625Z</time>
      </trkpt>
      <trkpt lat="47.79269" lon="5.36404">
        <ele>443</ele>
        <time>2024-05-17T09:06:26.805Z</time>
      </trkpt>
      <trkpt lat="47.7927" lon="5.36413">
        <ele>443</ele>
        <time>2024-05-17T09:06:31.200Z</time>
      </trkpt>
      <trkpt lat="47.79268" lon="5.3642">
        <ele>443</ele>
        <time>2024-05-17T09:06:35.488Z</time>
      </trkpt>
      <trkpt lat="47.79268" lon="5.36429">
        <ele>443</ele>
        <time>2024-05-17T09:06:39.806Z</time>
      </trkpt>
      <trkpt lat="47.79269" lon="5.36439">
        <ele>442</ele>
        <time>2024-05-17T09:06:44.165Z</time>
      </trkpt>
      <trkpt lat="47.79272" lon="5.36445">
        <ele>442</ele>
        <time>2024-05-17T09:06:48.462Z</time>
      </trkpt>
      <trkpt lat="47.79277" lon="5.36449">
        <ele>442</ele>
        <time>2024-05-17T09:06:52.865Z</time>
      </trkpt>
      <trkpt lat="47.79282" lon="5.36447">
        <ele>442</ele>
        <time>2024-05-17T09:06:57.200Z</time>
      </trkpt>
      <trkpt lat="47.79286" lon="5.36444">
        <ele>442</ele>
        <time>2024-05-17T09:07:01.404Z</time>
      </trkpt>
      <trkpt lat="47.7929" lon="5.36453">
        <ele>442</ele>
        <time>2024-05-17T09:07:05.524Z</time>
      </trkpt>
      <trkpt lat="47.79292" lon="5.3646">
        <ele>444</ele>
        <time>2024-05-17T09:07:09.566Z</time>
      </trkpt>
      <trkpt lat="47.79295" lon="5.36469">
        <ele>444</ele>
        <time>2024-05-17T09:07:13.882Z</time>
      </trkpt>
      <trkpt lat="47.79296" lon="5.36477">
        <ele>444</ele>
        <time>2024-05-17T09:07:18.148Z</time>
      </trkpt>
      <trkpt lat="47.79299" lon="5.36484">
        <ele>444</ele>
        <time>2024-05-17T09:07:22.703Z</time>
      </trkpt>
      <trkpt lat="47.79302" lon="5.3649">
        <ele>444</ele>
        <time>2024-05-17T09:07:27.206Z</time>
      </trkpt>
      <trkpt lat="47.79304" lon="5.36499">
        <ele>444</ele>
        <time>2024-05-17T09:07:31.788Z</time>
      </trkpt>
      <trkpt lat="47.79306" lon="5.36506">
        <ele>444</ele>
        <time>2024-05-17T09:07:35.967Z</time>
      </trkpt>
      <trkpt lat="47.79307" lon="5.36515">
        <ele>444</ele>
        <time>2024-05-17T09:07:40.548Z</time>
      </trkpt>
      <trkpt lat="47.79309" lon="5.36523">
        <ele>444</ele>
        <time>2024-05-17T09:07:45.085Z</time>
      </trkpt>
      <trkpt lat="47.79312" lon="5.36531">
        <ele>444</ele>
        <time>2024-05-17T09:07:49.200Z</time>
      </trkpt>
      <trkpt lat="47.79315" lon="5.36537">
        <ele>444</ele>
        <time>2024-05-17T09:07:53.671Z</time>
      </trkpt>
      <trkpt lat="47.79318" lon="5.36542">
        <ele>443</ele>
        <time>2024-05-17T09:07:57.847Z</time>
      </trkpt>
      <trkpt lat="47.7932" lon="5.36549">
        <ele>449</ele>
        <time>2024-05-17T09:08:02.200Z</time>
      </trkpt>
      <trkpt lat="47.79321" lon="5.36556">
        <ele>449</ele>
        <time>2024-05-17T09:08:06.404Z</time>
      </trkpt>
      <trkpt lat="47.79322" lon="5.36565">
        <ele>449</ele>
        <time>2024-05-17T09:08:10.882Z</time>
      </trkpt>
      <trkpt lat="47.79323" lon="5.36572">
        <ele>448</ele>
        <time>2024-05-17T09:08:15.105Z</time>
      </trkpt>
      <trkpt lat="47.79325" lon="5.3658">
        <ele>448</ele>
        <time>2024-05-17T09:08:19.121Z</time>
      </trkpt>
      <trkpt lat="47.79327" lon="5.36586">
        <ele>448</ele>
        <time>2024-05-17T09:08:23.626Z</time>
      </trkpt>
      <trkpt lat="47.7933" lon="5.36593">
        <ele>448</ele>
        <time>2024-05-17T09:08:27.765Z</time>
      </trkpt>
      <trkpt lat="47.79333" lon="5.366">
        <ele>447</ele>
        <time>2024-05-17T09:08:31.969Z</time>
      </trkpt>
      <trkpt lat="47.79335" lon="5.36608">
        <ele>447</ele>
        <time>2024-05-17T09:08:36.525Z</time>
      </trkpt>
      <trkpt lat="47.79335" lon="5.36617">
        <ele>447</ele>
        <time>2024-05-17T09:08:41.147Z</time>
      </trkpt>
      <trkpt lat="47.79337" lon="5.36625">
        <ele>447</ele>
        <time>2024-05-17T09:08:45.327Z</time>
      </trkpt>
      <trkpt lat="47.79338" lon="5.36634">
        <ele>447</ele>
        <time>2024-05-17T09:08:50.200Z</time>
      </trkpt>
      <trkpt lat="47.79341" lon="5.3664">
        <ele>447</ele>
        <time>2024-05-17T09:08:54.821Z</time>
      </trkpt>
      <trkpt lat="47.79343" lon="5.36647">
        <ele>447</ele>
        <time>2024-05-17T09:08:59.200Z</time>
      </trkpt>
      <trkpt lat="47.79346" lon="5.36653">
        <ele>446</ele>
        <time>2024-05-17T09:09:03.761Z</time>
      </trkpt>
      <trkpt lat="47.79349" lon="5.36656">
        <ele>450</ele>
        <time>2024-05-17T09:09:07.865Z</time>
      </trkpt>
      <trkpt lat="47.79353" lon="5.36658">
        <ele>450</ele>
        <time>2024-05-17T09:09:12.086Z</time>
      </trkpt>
      <trkpt lat="47.79356" lon="5.36663">
        <ele>450</ele>
        <time>2024-05-17T09:09:16.685Z</time>
      </trkpt>
      <trkpt lat="47.7936" lon="5.36668">
        <ele>450</ele>
        <time>2024-05-17T09:09:20.865Z</time>
      </trkpt>
      <trkpt lat="47.79364" lon="5.36672">
        <ele>450</ele>
        <time>2024-05-17T09:09:25.200Z</time>
      </trkpt>
      <trkpt lat="47.79366" lon="5.36679">
        <ele>450</ele>
        <time>2024-05-17T09:09:29.848Z</time>
      </trkpt>
      <trkpt lat="47.79367" lon="5.36686">
        <ele>449</ele>
        <time>2024-05-17T09:09:34.200Z</time>
      </trkpt>
      <trkpt lat="47.79368" lon="5.36694">
        <ele>449</ele>
        <time>2024-05-17T09:09:39.222Z</time>
      </trkpt>
      <trkpt lat="47.79369" lon="5.36699">
        <ele>449</ele>
        <time>2024-05-17T09:09:43.980Z</time>
      </trkpt>
      <trkpt lat="47.79374" lon="5.36704">
        <ele>449</ele>
        <time>2024-05-17T09:09:48.905Z</time>
      </trkpt>
      <trkpt lat="47.7938" lon="5.36706">
        <ele>451</ele>
        <time>2024-05-17T09:09:53.625Z</time>
      </trkpt>
      <trkpt lat="47.79386" lon="5.36708">
        <ele>451</ele>
        <time>2024-05-17T09:09:58.200Z</time>
      </trkpt>
      <trkpt lat="47.7939" lon="5.36712">
        <ele>450</ele>
        <time>2024-05-17T09:10:02.746Z</time>
      </trkpt>
      <trkpt lat="47.79396" lon="5.36716">
        <ele>450</ele>
        <time>2024-05-17T09:10:07.200Z</time>
      </trkpt>
      <trkpt lat="47.79402" lon="5.36715">
        <ele>450</ele>
        <time>2024-05-17T09:10:11.641Z</time>
      </trkpt>
      <trkpt lat="47.79408" lon="5.36713">
        <ele>451</ele>
        <time>2024-05-17T09:10:15.807Z</time>
      </trkpt>
      <trkpt lat="47.79413" lon="5.36711">
        <ele>451</ele>
        <time>2024-05-17T09:10:20.146Z</time>
      </trkpt>
      <trkpt lat="47.79418" lon="5.3671">
        <ele>451</ele>
        <time>2024-05-17T09:10:24.446Z</time>
      </trkpt>
      <trkpt lat="47.79424" lon="5.36713">
        <ele>451</ele>
        <time>2024-05-17T09:10:29.199Z</time>
      </trkpt>
      <trkpt lat="47.79429" lon="5.36716">
        <ele>451</ele>
        <time>2024-05-17T09:10:34.200Z</time>
      </trkpt>
      <trkpt lat="47.79432" lon="5.36718">
        <ele>451</ele>
        <time>2024-05-17T09:10:39.200Z</time>
      </trkpt>
      <trkpt lat="47.79434" lon="5.36718">
        <ele>451</ele>
        <time>2024-05-17T09:10:44.200Z</time>
      </trkpt>
      <trkpt lat="47.79442" lon="5.36716">
        <ele>451</ele>
        <time>2024-05-17T09:12:27.200Z</time>
      </trkpt>
      <trkpt lat="47.79445" lon="5.36716">
        <ele>451</ele>
        <time>2024-05-17T09:12:31.200Z</time>
      </trkpt>
      <trkpt lat="47.7945" lon="5.36715">
        <ele>451</ele>
        <time>2024-05-17T09:12:36.200Z</time>
      </trkpt>
      <trkpt lat="47.79456" lon="5.36711">
        <ele>451</ele>
        <time>2024-05-17T09:12:40.484Z</time>
      </trkpt>
      <trkpt lat="47.7946" lon="5.36713">
        <ele>452</ele>
        <time>2024-05-17T09:12:44.965Z</time>
      </trkpt>
      <trkpt lat="47.79466" lon="5.36714">
        <ele>452</ele>
        <time>2024-05-17T09:12:49.127Z</time>
      </trkpt>
      <trkpt lat="47.79472" lon="5.36714">
        <ele>452</ele>
        <time>2024-05-17T09:12:54.200Z</time>
      </trkpt>
      <trkpt lat="47.79477" lon="5.36717">
        <ele>452</ele>
        <time>2024-05-17T09:12:59.200Z</time>
      </trkpt>
      <trkpt lat="47.79479" lon="5.36721">
        <ele>452</ele>
        <time>2024-05-17T09:13:03.199Z</time>
      </trkpt>
      <trkpt lat="47.79484" lon="5.36723">
        <ele>452</ele>
        <time>2024-05-17T09:13:08.200Z</time>
      </trkpt>
      <trkpt lat="47.79487" lon="5.36726">
        <ele>454</ele>
        <time>2024-05-17T09:13:13.199Z</time>
      </trkpt>
      <trkpt lat="47.79489" lon="5.36734">
        <ele>454</ele>
        <time>2024-05-17T09:13:18.200Z</time>
      </trkpt>
      <trkpt lat="47.79487" lon="5.36743">
        <ele>454</ele>
        <time>2024-05-17T09:13:23.200Z</time>
      </trkpt>
      <trkpt lat="47.79487" lon="5.36748">
        <ele>454</ele>
        <time>2024-05-17T09:13:28.208Z</time>
      </trkpt>
      <trkpt lat="47.79489" lon="5.36756">
        <ele>454</ele>
        <time>2024-05-17T09:13:33.200Z</time>
      </trkpt>
      <trkpt lat="47.79488" lon="5.36762">
        <ele>454</ele>
        <time>2024-05-17T09:13:37.969Z</time>
      </trkpt>
      <trkpt lat="47.79488" lon="5.36773">
        <ele>453</ele>
        <time>2024-05-17T09:13:42.106Z</time>
      </trkpt>
      <trkpt lat="47.79488" lon="5.36781">
        <ele>453</ele>
        <time>2024-05-17T09:13:46.199Z</time>
      </trkpt>
      <trkpt lat="47.79491" lon="5.36781">
        <ele>453</ele>
        <time>2024-05-17T09:13:51.200Z</time>
      </trkpt>
      <trkpt lat="47.79494" lon="5.36786">
        <ele>453</ele>
        <time>2024-05-17T09:13:55.569Z</time>
      </trkpt>
      <trkpt lat="47.79497" lon="5.36794">
        <ele>453</ele>
        <time>2024-05-17T09:13:59.784Z</time>
      </trkpt>
      <trkpt lat="47.79498" lon="5.36801">
        <ele>453</ele>
        <time>2024-05-17T09:14:04.199Z</time>
      </trkpt>
      <trkpt lat="47.79502" lon="5.36804">
        <ele>453</ele>
        <time>2024-05-17T09:14:09.200Z</time>
      </trkpt>
      <trkpt lat="47.79506" lon="5.36808">
        <ele>453</ele>
        <time>2024-05-17T09:14:13.647Z</time>
      </trkpt>
      <trkpt lat="47.79511" lon="5.36809">
        <ele>453</ele>
        <time>2024-05-17T09:14:17.827Z</time>
      </trkpt>
      <trkpt lat="47.79521" lon="5.36808">
        <ele>453</ele>
        <time>2024-05-17T09:14:31.199Z</time>
      </trkpt>
      <trkpt lat="47.79521" lon="5.36809">
        <ele>453</ele>
        <time>2024-05-17T09:14:35.845Z</time>
      </trkpt>
      <trkpt lat="47.79529" lon="5.3681">
        <ele>453</ele>
        <time>2024-05-17T09:14:40.200Z</time>
      </trkpt>
      <trkpt lat="47.79535" lon="5.36808">
        <ele>453</ele>
        <time>2024-05-17T09:14:44.446Z</time>
      </trkpt>
      <trkpt lat="47.7954" lon="5.3681">
        <ele>453</ele>
        <time>2024-05-17T09:14:48.746Z</time>
      </trkpt>
      <trkpt lat="47.79547" lon="5.3681">
        <ele>453</ele>
        <time>2024-05-17T09:14:53.200Z</time>
      </trkpt>
      <trkpt lat="47.79554" lon="5.36809">
        <ele>453</ele>
        <time>2024-05-17T09:14:57.745Z</time>
      </trkpt>
      <trkpt lat="47.79559" lon="5.36807">
        <ele>453</ele>
        <time>2024-05-17T09:15:02.200Z</time>
      </trkpt>
      <trkpt lat="47.79567" lon="5.36807">
        <ele>453</ele>
        <time>2024-05-17T09:15:07.003Z</time>
      </trkpt>
      <trkpt lat="47.79574" lon="5.36807">
        <ele>455</ele>
        <time>2024-05-17T09:15:11.421Z</time>
      </trkpt>
      <trkpt lat="47.79578" lon="5.36809">
        <ele>455</ele>
        <time>2024-05-17T09:15:15.688Z</time>
      </trkpt>
      <trkpt lat="47.79582" lon="5.36814">
        <ele>455</ele>
        <time>2024-05-17T09:15:20.008Z</time>
      </trkpt>
      <trkpt lat="47.79583" lon="5.36824">
        <ele>457</ele>
        <time>2024-05-17T09:15:24.987Z</time>
      </trkpt>
      <trkpt lat="47.7958" lon="5.36829">
        <ele>457</ele>
        <time>2024-05-17T09:15:29.427Z</time>
      </trkpt>
      <trkpt lat="47.79577" lon="5.36836">
        <ele>457</ele>
        <time>2024-05-17T09:15:34.141Z</time>
      </trkpt>
      <trkpt lat="47.79575" lon="5.36846">
        <ele>457</ele>
        <time>2024-05-17T09:15:39.081Z</time>
      </trkpt>
      <trkpt lat="47.79572" lon="5.36852">
        <ele>459</ele>
        <time>2024-05-17T09:15:43.200Z</time>
      </trkpt>
      <trkpt lat="47.79569" lon="5.3686">
        <ele>456</ele>
        <time>2024-05-17T09:15:48.043Z</time>
      </trkpt>
      <trkpt lat="47.79566" lon="5.36867">
        <ele>456</ele>
        <time>2024-05-17T09:15:52.086Z</time>
      </trkpt>
      <trkpt lat="47.79564" lon="5.36874">
        <ele>456</ele>
        <time>2024-05-17T09:15:56.199Z</time>
      </trkpt>
      <trkpt lat="47.79561" lon="5.36882">
        <ele>458</ele>
        <time>2024-05-17T09:16:01.065Z</time>
      </trkpt>
      <trkpt lat="47.79558" lon="5.36887">
        <ele>458</ele>
        <time>2024-05-17T09:16:05.198Z</time>
      </trkpt>
      <trkpt lat="47.79554" lon="5.36895">
        <ele>458</ele>
        <time>2024-05-17T09:16:10.198Z</time>
      </trkpt>
      <trkpt lat="47.7955" lon="5.36901">
        <ele>458</ele>
        <time>2024-05-17T09:16:14.199Z</time>
      </trkpt>
      <trkpt lat="47.79546" lon="5.36906">
        <ele>460</ele>
        <time>2024-05-17T09:16:18.526Z</time>
      </trkpt>
      <trkpt lat="47.79542" lon="5.36914">
        <ele>460</ele>
        <time>2024-05-17T09:16:22.945Z</time>
      </trkpt>
      <trkpt lat="47.79539" lon="5.36919">
        <ele>456</ele>
        <time>2024-05-17T09:16:27.160Z</time>
      </trkpt>
      <trkpt lat="47.79534" lon="5.36925">
        <ele>456</ele>
        <time>2024-05-17T09:16:31.946Z</time>
      </trkpt>
      <trkpt lat="47.79531" lon="5.3693">
        <ele>456</ele>
        <time>2024-05-17T09:16:36.144Z</time>
      </trkpt>
      <trkpt lat="47.79525" lon="5.36936">
        <ele>457</ele>
        <time>2024-05-17T09:16:44.199Z</time>
      </trkpt>
      <trkpt lat="47.79526" lon="5.36937">
        <ele>457</ele>
        <time>2024-05-17T09:16:49.198Z</time>
      </trkpt>
      <trkpt lat="47.79526" lon="5.36937">
        <ele>457</ele>
        <time>2024-05-17T09:16:53.905Z</time>
      </trkpt>
      <trkpt lat="47.79518" lon="5.36939">
        <ele>457</ele>
        <time>2024-05-17T09:16:58.199Z</time>
      </trkpt>
      <trkpt lat="47.79512" lon="5.36945">
        <ele>455</ele>
        <time>2024-05-17T09:17:03.060Z</time>
      </trkpt>
      <trkpt lat="47.79506" lon="5.36951">
        <ele>455</ele>
        <time>2024-05-17T09:17:08.085Z</time>
      </trkpt>
      <trkpt lat="47.795" lon="5.36957">
        <ele>455</ele>
        <time>2024-05-17T09:17:13.128Z</time>
      </trkpt>
      <trkpt lat="47.79495" lon="5.36962">
        <ele>454</ele>
        <time>2024-05-17T09:17:17.180Z</time>
      </trkpt>
      <trkpt lat="47.79489" lon="5.36969">
        <ele>454</ele>
        <time>2024-05-17T09:17:22.025Z</time>
      </trkpt>
      <trkpt lat="47.79485" lon="5.36974">
        <ele>452</ele>
        <time>2024-05-17T09:17:26.165Z</time>
      </trkpt>
      <trkpt lat="47.79481" lon="5.36978">
        <ele>452</ele>
        <time>2024-05-17T09:17:30.198Z</time>
      </trkpt>
      <trkpt lat="47.79478" lon="5.36983">
        <ele>452</ele>
        <time>2024-05-17T09:17:34.405Z</time>
      </trkpt>
      <trkpt lat="47.79474" lon="5.36991">
        <ele>451</ele>
        <time>2024-05-17T09:17:38.928Z</time>
      </trkpt>
      <trkpt lat="47.79472" lon="5.36999">
        <ele>451</ele>
        <time>2024-05-17T09:17:43.198Z</time>
      </trkpt>
      <trkpt lat="47.79468" lon="5.37007">
        <ele>451</ele>
        <time>2024-05-17T09:17:47.347Z</time>
      </trkpt>
      <trkpt lat="47.79466" lon="5.3701">
        <ele>451</ele>
        <time>2024-05-17T09:17:52.199Z</time>
      </trkpt>
      <trkpt lat="47.79465" lon="5.3702">
        <ele>451</ele>
        <time>2024-05-17T09:17:56.985Z</time>
      </trkpt>
      <trkpt lat="47.79467" lon="5.3703">
        <ele>451</ele>
        <time>2024-05-17T09:18:01.390Z</time>
      </trkpt>
      <trkpt lat="47.79467" lon="5.37037">
        <ele>451</ele>
        <time>2024-05-17T09:18:05.626Z</time>
      </trkpt>
      <trkpt lat="47.79468" lon="5.37045">
        <ele>450</ele>
        <time>2024-05-17T09:18:09.982Z</time>
      </trkpt>
      <trkpt lat="47.79468" lon="5.37055">
        <ele>450</ele>
        <time>2024-05-17T09:18:14.416Z</time>
      </trkpt>
      <trkpt lat="47.7947" lon="5.37063">
        <ele>450</ele>
        <time>2024-05-17T09:18:18.642Z</time>
      </trkpt>
      <trkpt lat="47.79472" lon="5.37072">
        <ele>449</ele>
        <time>2024-05-17T09:18:23.198Z</time>
      </trkpt>
      <trkpt lat="47.79475" lon="5.3708">
        <ele>449</ele>
        <time>2024-05-17T09:18:28.199Z</time>
      </trkpt>
      <trkpt lat="47.79476" lon="5.37087">
        <ele>449</ele>
        <time>2024-05-17T09:18:32.505Z</time>
      </trkpt>
      <trkpt lat="47.79479" lon="5.37096">
        <ele>449</ele>
        <time>2024-05-17T09:18:37.061Z</time>
      </trkpt>
      <trkpt lat="47.7948" lon="5.37103">
        <ele>448</ele>
        <time>2024-05-17T09:18:41.446Z</time>
      </trkpt>
      <trkpt lat="47.79482" lon="5.37113">
        <ele>448</ele>
        <time>2024-05-17T09:18:45.865Z</time>
      </trkpt>
      <trkpt lat="47.79484" lon="5.37121">
        <ele>448</ele>
        <time>2024-05-17T09:18:50.080Z</time>
      </trkpt>
      <trkpt lat="47.79484" lon="5.37129">
        <ele>446</ele>
        <time>2024-05-17T09:18:54.449Z</time>
      </trkpt>
      <trkpt lat="47.79486" lon="5.37138">
        <ele>449</ele>
        <time>2024-05-17T09:18:58.767Z</time>
      </trkpt>
      <trkpt lat="47.79488" lon="5.37147">
        <ele>449</ele>
        <time>2024-05-17T09:19:03.107Z</time>
      </trkpt>
      <trkpt lat="47.7949" lon="5.37154">
        <ele>448</ele>
        <time>2024-05-17T09:19:07.485Z</time>
      </trkpt>
      <trkpt lat="47.79491" lon="5.37163">
        <ele>448</ele>
        <time>2024-05-17T09:19:11.686Z</time>
      </trkpt>
      <trkpt lat="47.79491" lon="5.37172">
        <ele>448</ele>
        <time>2024-05-17T09:19:16.105Z</time>
      </trkpt>
      <trkpt lat="47.79493" lon="5.37181">
        <ele>448</ele>
        <time>2024-05-17T09:19:20.465Z</time>
      </trkpt>
      <trkpt lat="47.79495" lon="5.37192">
        <ele>448</ele>
        <time>2024-05-17T09:19:25.198Z</time>
      </trkpt>
      <trkpt lat="47.79495" lon="5.37201">
        <ele>448</ele>
        <time>2024-05-17T09:19:29.604Z</time>
      </trkpt>
      <trkpt lat="47.79497" lon="5.37209">
        <ele>448</ele>
        <time>2024-05-17T09:19:34.006Z</time>
      </trkpt>
      <trkpt lat="47.79498" lon="5.37218">
        <ele>448</ele>
        <time>2024-05-17T09:19:38.304Z</time>
      </trkpt>
      <trkpt lat="47.79499" lon="5.37228">
        <ele>448</ele>
        <time>2024-05-17T09:19:43.199Z</time>
      </trkpt>
      <trkpt lat="47.795" lon="5.37238">
        <ele>447</ele>
        <time>2024-05-17T09:19:48.199Z</time>
      </trkpt>
      <trkpt lat="47.79501" lon="5.37248">
        <ele>447</ele>
        <time>2024-05-17T09:19:52.199Z</time>
      </trkpt>
      <trkpt lat="47.79504" lon="5.37255">
        <ele>447</ele>
        <time>2024-05-17T09:19:57.166Z</time>
      </trkpt>
      <trkpt lat="47.79504" lon="5.37266">
        <ele>446</ele>
        <time>2024-05-17T09:20:01.608Z</time>
      </trkpt>
      <trkpt lat="47.79505" lon="5.37274">
        <ele>446</ele>
        <time>2024-05-17T09:20:05.925Z</time>
      </trkpt>
      <trkpt lat="47.79507" lon="5.37281">
        <ele>446</ele>
        <time>2024-05-17T09:20:10.183Z</time>
      </trkpt>
      <trkpt lat="47.79508" lon="5.3729">
        <ele>446</ele>
        <time>2024-05-17T09:20:14.465Z</time>
      </trkpt>
      <trkpt lat="47.7951" lon="5.373">
        <ele>444</ele>
        <time>2024-05-17T09:20:18.765Z</time>
      </trkpt>
      <trkpt lat="47.79512" lon="5.3731">
        <ele>444</ele>
        <time>2024-05-17T09:20:23.167Z</time>
      </trkpt>
      <trkpt lat="47.79513" lon="5.37317">
        <ele>444</ele>
        <time>2024-05-17T09:20:27.467Z</time>
      </trkpt>
      <trkpt lat="47.79515" lon="5.37326">
        <ele>451</ele>
        <time>2024-05-17T09:20:31.861Z</time>
      </trkpt>
      <trkpt lat="47.79517" lon="5.37334">
        <ele>451</ele>
        <time>2024-05-17T09:20:36.207Z</time>
      </trkpt>
      <trkpt lat="47.79515" lon="5.37342">
        <ele>451</ele>
        <time>2024-05-17T09:20:40.981Z</time>
      </trkpt>
      <trkpt lat="47.79513" lon="5.37352">
        <ele>438</ele>
        <time>2024-05-17T09:20:45.325Z</time>
      </trkpt>
      <trkpt lat="47.79513" lon="5.3736">
        <ele>438</ele>
        <time>2024-05-17T09:20:49.785Z</time>
      </trkpt>
      <trkpt lat="47.79515" lon="5.37367">
        <ele>450</ele>
        <time>2024-05-17T09:20:54.199Z</time>
      </trkpt>
      <trkpt lat="47.79515" lon="5.37378">
        <ele>447</ele>
        <time>2024-05-17T09:20:59.198Z</time>
      </trkpt>
      <trkpt lat="47.79515" lon="5.37387">
        <ele>447</ele>
        <time>2024-05-17T09:21:04.101Z</time>
      </trkpt>
      <trkpt lat="47.79516" lon="5.37396">
        <ele>447</ele>
        <time>2024-05-17T09:21:08.588Z</time>
      </trkpt>
      <trkpt lat="47.79516" lon="5.37405">
        <ele>446</ele>
        <time>2024-05-17T09:21:13.010Z</time>
      </trkpt>
      <trkpt lat="47.79518" lon="5.37416">
        <ele>446</ele>
        <time>2024-05-17T09:21:18.128Z</time>
      </trkpt>
      <trkpt lat="47.79519" lon="5.3742">
        <ele>446</ele>
        <time>2024-05-17T09:21:21.199Z</time>
      </trkpt>
      <trkpt lat="47.7952" lon="5.37422">
        <ele>446</ele>
        <time>2024-05-17T09:21:30.199Z</time>
      </trkpt>
      <trkpt lat="47.79522" lon="5.37429">
        <ele>446</ele>
        <time>2024-05-17T09:21:34.788Z</time>
      </trkpt>
      <trkpt lat="47.79522" lon="5.3744">
        <ele>445</ele>
        <time>2024-05-17T09:21:39.199Z</time>
      </trkpt>
      <trkpt lat="47.79524" lon="5.3745">
        <ele>445</ele>
        <time>2024-05-17T09:21:44.199Z</time>
      </trkpt>
      <trkpt lat="47.79525" lon="5.37459">
        <ele>445</ele>
        <time>2024-05-17T09:21:48.634Z</time>
      </trkpt>
      <trkpt lat="47.79527" lon="5.37469">
        <ele>445</ele>
        <time>2024-05-17T09:21:53.213Z</time>
      </trkpt>
      <trkpt lat="47.79528" lon="5.37478">
        <ele>445</ele>
        <time>2024-05-17T09:21:58.199Z</time>
      </trkpt>
      <trkpt lat="47.79528" lon="5.37487">
        <ele>443</ele>
        <time>2024-05-17T09:22:03.199Z</time>
      </trkpt>
      <trkpt lat="47.79528" lon="5.37488">
        <ele>443</ele>
        <time>2024-05-17T09:22:08.199Z</time>
      </trkpt>
      <trkpt lat="47.79529" lon="5.37497">
        <ele>443</ele>
        <time>2024-05-17T09:22:13.198Z</time>
      </trkpt>
      <trkpt lat="47.79524" lon="5.37504">
        <ele>443</ele>
        <time>2024-05-17T09:22:17.565Z</time>
      </trkpt>
      <trkpt lat="47.79524" lon="5.37517">
        <ele>442</ele>
        <time>2024-05-17T09:22:22.199Z</time>
      </trkpt>
      <trkpt lat="47.79526" lon="5.37527">
        <ele>442</ele>
        <time>2024-05-17T09:22:26.912Z</time>
      </trkpt>
      <trkpt lat="47.79525" lon="5.37533">
        <ele>442</ele>
        <time>2024-05-17T09:22:30.931Z</time>
      </trkpt>
      <trkpt lat="47.79525" lon="5.37534">
        <ele>442</ele>
        <time>2024-05-17T09:22:35.092Z</time>
      </trkpt>
      <trkpt lat="47.79528" lon="5.37542">
        <ele>440</ele>
        <time>2024-05-17T09:22:39.199Z</time>
      </trkpt>
      <trkpt lat="47.79529" lon="5.37549">
        <ele>440</ele>
        <time>2024-05-17T09:22:44.028Z</time>
      </trkpt>
      <trkpt lat="47.79537" lon="5.37555">
        <ele>440</ele>
        <time>2024-05-17T09:22:48.199Z</time>
      </trkpt>
      <trkpt lat="47.79542" lon="5.37562">
        <ele>447</ele>
        <time>2024-05-17T09:22:53.198Z</time>
      </trkpt>
      <trkpt lat="47.79547" lon="5.37566">
        <ele>447</ele>
        <time>2024-05-17T09:22:57.882Z</time>
      </trkpt>
      <trkpt lat="47.7955" lon="5.37573">
        <ele>445</ele>
        <time>2024-05-17T09:23:02.199Z</time>
      </trkpt>
      <trkpt lat="47.79555" lon="5.37581">
        <ele>445</ele>
        <time>2024-05-17T09:23:06.901Z</time>
      </trkpt>
      <trkpt lat="47.79556" lon="5.3759">
        <ele>445</ele>
        <time>2024-05-17T09:23:11.426Z</time>
      </trkpt>
      <trkpt lat="47.7956" lon="5.37597">
        <ele>445</ele>
        <time>2024-05-17T09:23:15.515Z</time>
      </trkpt>
      <trkpt lat="47.79562" lon="5.37605">
        <ele>445</ele>
        <time>2024-05-17T09:23:19.972Z</time>
      </trkpt>
      <trkpt lat="47.79565" lon="5.3761">
        <ele>445</ele>
        <time>2024-05-17T09:23:24.199Z</time>
      </trkpt>
      <trkpt lat="47.79567" lon="5.37618">
        <ele>445</ele>
        <time>2024-05-17T09:23:28.981Z</time>
      </trkpt>
      <trkpt lat="47.7957" lon="5.37625">
        <ele>451</ele>
        <time>2024-05-17T09:23:33.028Z</time>
      </trkpt>
      <trkpt lat="47.79571" lon="5.37633">
        <ele>450</ele>
        <time>2024-05-17T09:23:37.604Z</time>
      </trkpt>
      <trkpt lat="47.79575" lon="5.37641">
        <ele>450</ele>
        <time>2024-05-17T09:23:42.149Z</time>
      </trkpt>
      <trkpt lat="47.79576" lon="5.37649">
        <ele>450</ele>
        <time>2024-05-17T09:23:46.544Z</time>
      </trkpt>
      <trkpt lat="47.79579" lon="5.37658">
        <ele>450</ele>
        <time>2024-05-17T09:23:51.145Z</time>
      </trkpt>
      <trkpt lat="47.7958" lon="5.37668">
        <ele>450</ele>
        <time>2024-05-17T09:23:55.199Z</time>
      </trkpt>
      <trkpt lat="47.79581" lon="5.37677">
        <ele>450</ele>
        <time>2024-05-17T09:23:59.741Z</time>
      </trkpt>
      <trkpt lat="47.79585" lon="5.37684">
        <ele>451</ele>
        <time>2024-05-17T09:24:04.199Z</time>
      </trkpt>
      <trkpt lat="47.79589" lon="5.3769">
        <ele>451</ele>
        <time>2024-05-17T09:24:08.501Z</time>
      </trkpt>
      <trkpt lat="47.79591" lon="5.37698">
        <ele>451</ele>
        <time>2024-05-17T09:24:12.625Z</time>
      </trkpt>
      <trkpt lat="47.79595" lon="5.37706">
        <ele>451</ele>
        <time>2024-05-17T09:24:17.025Z</time>
      </trkpt>
      <trkpt lat="47.79597" lon="5.37713">
        <ele>452</ele>
        <time>2024-05-17T09:24:21.405Z</time>
      </trkpt>
      <trkpt lat="47.796" lon="5.37721">
        <ele>454</ele>
        <time>2024-05-17T09:24:25.926Z</time>
      </trkpt>
      <trkpt lat="47.79603" lon="5.3773">
        <ele>454</ele>
        <time>2024-05-17T09:24:30.198Z</time>
      </trkpt>
      <trkpt lat="47.79606" lon="5.37739">
        <ele>454</ele>
        <time>2024-05-17T09:24:35.025Z</time>
      </trkpt>
      <trkpt lat="47.79611" lon="5.37748">
        <ele>454</ele>
        <time>2024-05-17T09:24:40.162Z</time>
      </trkpt>
      <trkpt lat="47.79613" lon="5.37755">
        <ele>454</ele>
        <time>2024-05-17T09:24:44.199Z</time>
      </trkpt>
      <trkpt lat="47.79617" lon="5.37763">
        <ele>454</ele>
        <time>2024-05-17T09:24:49.105Z</time>
      </trkpt>
      <trkpt lat="47.79619" lon="5.37771">
        <ele>454</ele>
        <time>2024-05-17T09:24:53.198Z</time>
      </trkpt>
      <trkpt lat="47.79622" lon="5.37779">
        <ele>454</ele>
        <time>2024-05-17T09:24:58.046Z</time>
      </trkpt>
      <trkpt lat="47.79626" lon="5.37789">
        <ele>456</ele>
        <time>2024-05-17T09:25:02.199Z</time>
      </trkpt>
      <trkpt lat="47.79627" lon="5.37799">
        <ele>455</ele>
        <time>2024-05-17T09:25:06.586Z</time>
      </trkpt>
      <trkpt lat="47.7963" lon="5.37806">
        <ele>455</ele>
        <time>2024-05-17T09:25:11.199Z</time>
      </trkpt>
      <trkpt lat="47.79633" lon="5.37813">
        <ele>455</ele>
        <time>2024-05-17T09:25:15.726Z</time>
      </trkpt>
      <trkpt lat="47.79636" lon="5.3782">
        <ele>454</ele>
        <time>2024-05-17T09:25:20.198Z</time>
      </trkpt>
      <trkpt lat="47.79639" lon="5.37827">
        <ele>454</ele>
        <time>2024-05-17T09:25:24.728Z</time>
      </trkpt>
      <trkpt lat="47.79642" lon="5.37835">
        <ele>454</ele>
        <time>2024-05-17T09:25:29.199Z</time>
      </trkpt>
      <trkpt lat="47.79646" lon="5.37843">
        <ele>454</ele>
        <time>2024-05-17T09:25:34.164Z</time>
      </trkpt>
      <trkpt lat="47.79651" lon="5.37849">
        <ele>451</ele>
        <time>2024-05-17T09:25:39.199Z</time>
      </trkpt>
      <trkpt lat="47.79658" lon="5.37853">
        <ele>454</ele>
        <time>2024-05-17T09:25:44.198Z</time>
      </trkpt>
      <trkpt lat="47.79662" lon="5.3786">
        <ele>454</ele>
        <time>2024-05-17T09:25:48.928Z</time>
      </trkpt>
      <trkpt lat="47.79667" lon="5.37866">
        <ele>454</ele>
        <time>2024-05-17T09:25:53.199Z</time>
      </trkpt>
      <trkpt lat="47.79671" lon="5.3787">
        <ele>454</ele>
        <time>2024-05-17T09:25:57.705Z</time>
      </trkpt>
      <trkpt lat="47.79677" lon="5.37873">
        <ele>454</ele>
        <time>2024-05-17T09:26:02.025Z</time>
      </trkpt>
      <trkpt lat="47.79681" lon="5.37877">
        <ele>456</ele>
        <time>2024-05-17T09:26:06.085Z</time>
      </trkpt>
      <trkpt lat="47.79687" lon="5.37886">
        <ele>456</ele>
        <time>2024-05-17T09:26:29.198Z</time>
      </trkpt>
      <trkpt lat="47.79691" lon="5.37893">
        <ele>456</ele>
        <time>2024-05-17T09:26:34.089Z</time>
      </trkpt>
      <trkpt lat="47.79697" lon="5.37899">
        <ele>456</ele>
        <time>2024-05-17T09:26:38.126Z</time>
      </trkpt>
      <trkpt lat="47.79704" lon="5.37907">
        <ele>456</ele>
        <time>2024-05-17T09:26:43.198Z</time>
      </trkpt>
      <trkpt lat="47.79709" lon="5.37909">
        <ele>456</ele>
        <time>2024-05-17T09:26:48.005Z</time>
      </trkpt>
      <trkpt lat="47.79713" lon="5.37915">
        <ele>456</ele>
        <time>2024-05-17T09:26:52.168Z</time>
      </trkpt>
      <trkpt lat="47.79716" lon="5.37918">
        <ele>456</ele>
        <time>2024-05-17T09:26:56.545Z</time>
      </trkpt>
      <trkpt lat="47.79721" lon="5.37922">
        <ele>456</ele>
        <time>2024-05-17T09:27:01.197Z</time>
      </trkpt>
      <trkpt lat="47.79723" lon="5.37925">
        <ele>456</ele>
        <time>2024-05-17T09:27:06.197Z</time>
      </trkpt>
      <trkpt lat="47.79721" lon="5.37921">
        <ele>456</ele>
        <time>2024-05-17T09:27:11.197Z</time>
      </trkpt>
      <trkpt lat="47.7972" lon="5.37923">
        <ele>456</ele>
        <time>2024-05-17T09:27:16.229Z</time>
      </trkpt>
      <trkpt lat="47.79715" lon="5.37927">
        <ele>456</ele>
        <time>2024-05-17T09:27:21.144Z</time>
      </trkpt>
      <trkpt lat="47.79714" lon="5.37939">
        <ele>456</ele>
        <time>2024-05-17T09:27:25.198Z</time>
      </trkpt>
      <trkpt lat="47.79713" lon="5.37948">
        <ele>456</ele>
        <time>2024-05-17T09:27:38.268Z</time>
      </trkpt>
      <trkpt lat="47.79708" lon="5.37944">
        <ele>456</ele>
        <time>2024-05-17T09:27:42.602Z</time>
      </trkpt>
      <trkpt lat="47.79712" lon="5.37932">
        <ele>456</ele>
        <time>2024-05-17T09:27:46.929Z</time>
      </trkpt>
      <trkpt lat="47.79717" lon="5.37927">
        <ele>456</ele>
        <time>2024-05-17T09:27:51.197Z</time>
      </trkpt>
      <trkpt lat="47.79724" lon="5.37923">
        <ele>456</ele>
        <time>2024-05-17T09:27:55.485Z</time>
      </trkpt>
      <trkpt lat="47.7973" lon="5.3792">
        <ele>456</ele>
        <time>2024-05-17T09:28:00.161Z</time>
      </trkpt>
      <trkpt lat="47.79735" lon="5.37913">
        <ele>456</ele>
        <time>2024-05-17T09:28:05.101Z</time>
      </trkpt>
      <trkpt lat="47.79738" lon="5.37905">
        <ele>458</ele>
        <time>2024-05-17T09:28:09.198Z</time>
      </trkpt>
      <trkpt lat="47.79741" lon="5.37896">
        <ele>458</ele>
        <time>2024-05-17T09:28:13.988Z</time>
      </trkpt>
      <trkpt lat="47.79748" lon="5.37898">
        <ele>458</ele>
        <time>2024-05-17T09:28:18.360Z</time>
      </trkpt>
      <trkpt lat="47.79754" lon="5.37899">
        <ele>458</ele>
        <time>2024-05-17T09:28:23.197Z</time>
      </trkpt>
      <trkpt lat="47.7976" lon="5.37901">
        <ele>458</ele>
        <time>2024-05-17T09:28:27.198Z</time>
      </trkpt>
      <trkpt lat="47.79766" lon="5.37902">
        <ele>459</ele>
        <time>2024-05-17T09:28:31.885Z</time>
      </trkpt>
      <trkpt lat="47.79771" lon="5.37906">
        <ele>459</ele>
        <time>2024-05-17T09:28:36.198Z</time>
      </trkpt>
      <trkpt lat="47.79778" lon="5.37906">
        <ele>459</ele>
        <time>2024-05-17T09:28:40.962Z</time>
      </trkpt>
      <trkpt lat="47.79782" lon="5.37906">
        <ele>459</ele>
        <time>2024-05-17T09:28:45.142Z</time>
      </trkpt>
      <trkpt lat="47.79787" lon="5.37905">
        <ele>459</ele>
        <time>2024-05-17T09:28:49.197Z</time>
      </trkpt>
      <trkpt lat="47.79793" lon="5.37909">
        <ele>459</ele>
        <time>2024-05-17T09:28:53.665Z</time>
      </trkpt>
      <trkpt lat="47.79799" lon="5.37916">
        <ele>459</ele>
        <time>2024-05-17T09:28:58.146Z</time>
      </trkpt>
      <trkpt lat="47.79804" lon="5.37919">
        <ele>459</ele>
        <time>2024-05-17T09:29:02.198Z</time>
      </trkpt>
      <trkpt lat="47.7981" lon="5.37921">
        <ele>459</ele>
        <time>2024-05-17T09:29:06.242Z</time>
      </trkpt>
      <trkpt lat="47.79816" lon="5.37926">
        <ele>459</ele>
        <time>2024-05-17T09:29:11.198Z</time>
      </trkpt>
      <trkpt lat="47.79823" lon="5.37928">
        <ele>457</ele>
        <time>2024-05-17T09:29:15.646Z</time>
      </trkpt>
      <trkpt lat="47.79828" lon="5.37929">
        <ele>457</ele>
        <time>2024-05-17T09:29:19.961Z</time>
      </trkpt>
      <trkpt lat="47.79834" lon="5.37932">
        <ele>457</ele>
        <time>2024-05-17T09:29:24.082Z</time>
      </trkpt>
      <trkpt lat="47.7984" lon="5.37935">
        <ele>457</ele>
        <time>2024-05-17T09:29:28.197Z</time>
      </trkpt>
      <trkpt lat="47.79847" lon="5.3794">
        <ele>457</ele>
        <time>2024-05-17T09:29:33.008Z</time>
      </trkpt>
      <trkpt lat="47.79852" lon="5.37942">
        <ele>457</ele>
        <time>2024-05-17T09:29:37.198Z</time>
      </trkpt>
      <trkpt lat="47.79858" lon="5.37944">
        <ele>457</ele>
        <time>2024-05-17T09:29:41.761Z</time>
      </trkpt>
      <trkpt lat="47.79864" lon="5.37946">
        <ele>457</ele>
        <time>2024-05-17T09:29:46.198Z</time>
      </trkpt>
      <trkpt lat="47.79871" lon="5.3795">
        <ele>457</ele>
        <time>2024-05-17T09:29:50.910Z</time>
      </trkpt>
      <trkpt lat="47.79877" lon="5.37955">
        <ele>458</ele>
        <time>2024-05-17T09:29:55.345Z</time>
      </trkpt>
      <trkpt lat="47.79883" lon="5.37958">
        <ele>458</ele>
        <time>2024-05-17T09:29:59.626Z</time>
      </trkpt>
      <trkpt lat="47.79888" lon="5.37959">
        <ele>458</ele>
        <time>2024-05-17T09:30:03.986Z</time>
      </trkpt>
      <trkpt lat="47.79894" lon="5.37965">
        <ele>458</ele>
        <time>2024-05-17T09:30:08.840Z</time>
      </trkpt>
      <trkpt lat="47.79898" lon="5.37967">
        <ele>458</ele>
        <time>2024-05-17T09:30:12.902Z</time>
      </trkpt>
      <trkpt lat="47.79904" lon="5.3797">
        <ele>458</ele>
        <time>2024-05-17T09:30:17.585Z</time>
      </trkpt>
      <trkpt lat="47.79914" lon="5.37977">
        <ele>458</ele>
        <time>2024-05-17T09:30:54.198Z</time>
      </trkpt>
      <trkpt lat="47.79917" lon="5.37978">
        <ele>458</ele>
        <time>2024-05-17T09:30:58.198Z</time>
      </trkpt>
      <trkpt lat="47.79923" lon="5.37982">
        <ele>458</ele>
        <time>2024-05-17T09:31:03.197Z</time>
      </trkpt>
      <trkpt lat="47.7993" lon="5.37987">
        <ele>457</ele>
        <time>2024-05-17T09:31:08.162Z</time>
      </trkpt>
      <trkpt lat="47.79937" lon="5.37989">
        <ele>456</ele>
        <time>2024-05-17T09:31:12.441Z</time>
      </trkpt>
      <trkpt lat="47.79943" lon="5.37992">
        <ele>456</ele>
        <time>2024-05-17T09:31:16.741Z</time>
      </trkpt>
      <trkpt lat="47.79947" lon="5.37992">
        <ele>456</ele>
        <time>2024-05-17T09:31:21.197Z</time>
      </trkpt>
      <trkpt lat="47.79953" lon="5.37994">
        <ele>456</ele>
        <time>2024-05-17T09:31:26.198Z</time>
      </trkpt>
      <trkpt lat="47.79958" lon="5.37997">
        <ele>456</ele>
        <time>2024-05-17T09:31:30.282Z</time>
      </trkpt>
      <trkpt lat="47.79973" lon="5.37999">
        <ele>455</ele>
        <time>2024-05-17T09:31:49.198Z</time>
      </trkpt>
      <trkpt lat="47.79978" lon="5.38">
        <ele>455</ele>
        <time>2024-05-17T09:31:54.198Z</time>
      </trkpt>
      <trkpt lat="47.79984" lon="5.38003">
        <ele>455</ele>
        <time>2024-05-17T09:31:58.625Z</time>
      </trkpt>
      <trkpt lat="47.79991" lon="5.38004">
        <ele>455</ele>
        <time>2024-05-17T09:32:02.882Z</time>
      </trkpt>
      <trkpt lat="47.79997" lon="5.38005">
        <ele>455</ele>
        <time>2024-05-17T09:32:07.140Z</time>
      </trkpt>
      <trkpt lat="47.80003" lon="5.38008">
        <ele>455</ele>
        <time>2024-05-17T09:32:11.901Z</time>
      </trkpt>
      <trkpt lat="47.80009" lon="5.3801">
        <ele>455</ele>
        <time>2024-05-17T09:32:16.005Z</time>
      </trkpt>
      <trkpt lat="47.80016" lon="5.38013">
        <ele>455</ele>
        <time>2024-05-17T09:32:20.160Z</time>
      </trkpt>
      <trkpt lat="47.80022" lon="5.38013">
        <ele>455</ele>
        <time>2024-05-17T09:32:24.198Z</time>
      </trkpt>
      <trkpt lat="47.80029" lon="5.38014">
        <ele>455</ele>
        <time>2024-05-17T09:32:29.198Z</time>
      </trkpt>
      <trkpt lat="47.80034" lon="5.38015">
        <ele>455</ele>
        <time>2024-05-17T09:32:33.282Z</time>
      </trkpt>
      <trkpt lat="47.80041" lon="5.38017">
        <ele>455</ele>
        <time>2024-05-17T09:32:38.198Z</time>
      </trkpt>
      <trkpt lat="47.80048" lon="5.38018">
        <ele>455</ele>
        <time>2024-05-17T09:32:42.906Z</time>
      </trkpt>
      <trkpt lat="47.80054" lon="5.3802">
        <ele>455</ele>
        <time>2024-05-17T09:32:46.968Z</time>
      </trkpt>
      <trkpt lat="47.80059" lon="5.38022">
        <ele>455</ele>
        <time>2024-05-17T09:32:51.200Z</time>
      </trkpt>
      <trkpt lat="47.80066" lon="5.38023">
        <ele>455</ele>
        <time>2024-05-17T09:32:56.198Z</time>
      </trkpt>
      <trkpt lat="47.80071" lon="5.38024">
        <ele>454</ele>
        <time>2024-05-17T09:33:00.466Z</time>
      </trkpt>
      <trkpt lat="47.80077" lon="5.38026">
        <ele>454</ele>
        <time>2024-05-17T09:33:04.705Z</time>
      </trkpt>
      <trkpt lat="47.80083" lon="5.38026">
        <ele>454</ele>
        <time>2024-05-17T09:33:08.742Z</time>
      </trkpt>
      <trkpt lat="47.80089" lon="5.38027">
        <ele>454</ele>
        <time>2024-05-17T09:33:13.197Z</time>
      </trkpt>
      <trkpt lat="47.80094" lon="5.38027">
        <ele>454</ele>
        <time>2024-05-17T09:33:17.625Z</time>
      </trkpt>
      <trkpt lat="47.80099" lon="5.38026">
        <ele>454</ele>
        <time>2024-05-17T09:33:22.027Z</time>
      </trkpt>
      <trkpt lat="47.80107" lon="5.38027">
        <ele>454</ele>
        <time>2024-05-17T09:33:26.063Z</time>
      </trkpt>
      <trkpt lat="47.80112" lon="5.38028">
        <ele>454</ele>
        <time>2024-05-17T09:33:30.080Z</time>
      </trkpt>
      <trkpt lat="47.80117" lon="5.38027">
        <ele>454</ele>
        <time>2024-05-17T09:33:34.527Z</time>
      </trkpt>
      <trkpt lat="47.80123" lon="5.38029">
        <ele>454</ele>
        <time>2024-05-17T09:33:39.197Z</time>
      </trkpt>
      <trkpt lat="47.8013" lon="5.38028">
        <ele>455</ele>
        <time>2024-05-17T09:33:43.707Z</time>
      </trkpt>
      <trkpt lat="47.80135" lon="5.38027">
        <ele>455</ele>
        <time>2024-05-17T09:33:48.008Z</time>
      </trkpt>
      <trkpt lat="47.80144" lon="5.38029">
        <ele>455</ele>
        <time>2024-05-17T09:33:52.828Z</time>
      </trkpt>
      <trkpt lat="47.8015" lon="5.3803">
        <ele>455</ele>
        <time>2024-05-17T09:33:57.025Z</time>
      </trkpt>
      <trkpt lat="47.80153" lon="5.38029">
        <ele>454</ele>
        <time>2024-05-17T09:34:01.198Z</time>
      </trkpt>
      <trkpt lat="47.80157" lon="5.38028">
        <ele>454</ele>
        <time>2024-05-17T09:34:05.198Z</time>
      </trkpt>
      <trkpt lat="47.80159" lon="5.38026">
        <ele>454</ele>
        <time>2024-05-17T09:34:09.198Z</time>
      </trkpt>
      <trkpt lat="47.80163" lon="5.38015">
        <ele>454</ele>
        <time>2024-05-17T09:34:18.198Z</time>
      </trkpt>
      <trkpt lat="47.80168" lon="5.38013">
        <ele>453</ele>
        <time>2024-05-17T09:34:22.685Z</time>
      </trkpt>
      <trkpt lat="47.80173" lon="5.38016">
        <ele>454</ele>
        <time>2024-05-17T09:34:26.984Z</time>
      </trkpt>
      <trkpt lat="47.80179" lon="5.38018">
        <ele>454</ele>
        <time>2024-05-17T09:34:31.050Z</time>
      </trkpt>
      <trkpt lat="47.80186" lon="5.38024">
        <ele>453</ele>
        <time>2024-05-17T09:34:35.531Z</time>
      </trkpt>
      <trkpt lat="47.8019" lon="5.38027">
        <ele>453</ele>
        <time>2024-05-17T09:34:39.684Z</time>
      </trkpt>
      <trkpt lat="47.80195" lon="5.38031">
        <ele>453</ele>
        <time>2024-05-17T09:34:44.198Z</time>
      </trkpt>
      <trkpt lat="47.80201" lon="5.38032">
        <ele>453</ele>
        <time>2024-05-17T09:34:48.272Z</time>
      </trkpt>
      <trkpt lat="47.80208" lon="5.38034">
        <ele>453</ele>
        <time>2024-05-17T09:34:53.197Z</time>
      </trkpt>
      <trkpt lat="47.80213" lon="5.38033">
        <ele>452</ele>
        <time>2024-05-17T09:34:57.197Z</time>
      </trkpt>
      <trkpt lat="47.80219" lon="5.38032">
        <ele>452</ele>
        <time>2024-05-17T09:35:01.649Z</time>
      </trkpt>
      <trkpt lat="47.80226" lon="5.38031">
        <ele>452</ele>
        <time>2024-05-17T09:35:05.905Z</time>
      </trkpt>
      <trkpt lat="47.80232" lon="5.3803">
        <ele>452</ele>
        <time>2024-05-17T09:35:10.866Z</time>
      </trkpt>
      <trkpt lat="47.80233" lon="5.38031">
        <ele>452</ele>
        <time>2024-05-17T09:35:15.198Z</time>
      </trkpt>
      <trkpt lat="47.80234" lon="5.3803">
        <ele>452</ele>
        <time>2024-05-17T09:35:20.198Z</time>
      </trkpt>
      <trkpt lat="47.80235" lon="5.38032">
        <ele>452</ele>
        <time>2024-05-17T09:35:24.790Z</time>
      </trkpt>
      <trkpt lat="47.80242" lon="5.38038">
        <ele>451</ele>
        <time>2024-05-17T09:35:29.197Z</time>
      </trkpt>
      <trkpt lat="47.80243" lon="5.38038">
        <ele>451</ele>
        <time>2024-05-17T09:35:33.669Z</time>
      </trkpt>
      <trkpt lat="47.80249" lon="5.3804">
        <ele>451</ele>
        <time>2024-05-17T09:35:37.809Z</time>
      </trkpt>
      <trkpt lat="47.80252" lon="5.38039">
        <ele>451</ele>
        <time>2024-05-17T09:35:42.197Z</time>
      </trkpt>
      <trkpt lat="47.80256" lon="5.38041">
        <ele>451</ele>
        <time>2024-05-17T09:35:46.389Z</time>
      </trkpt>
      <trkpt lat="47.80262" lon="5.38044">
        <ele>450</ele>
        <time>2024-05-17T09:35:50.805Z</time>
      </trkpt>
      <trkpt lat="47.8027" lon="5.38046">
        <ele>448</ele>
        <time>2024-05-17T09:35:54.910Z</time>
      </trkpt>
      <trkpt lat="47.80277" lon="5.38047">
        <ele>448</ele>
        <time>2024-05-17T09:35:59.084Z</time>
      </trkpt>
      <trkpt lat="47.80283" lon="5.3805">
        <ele>448</ele>
        <time>2024-05-17T09:36:03.350Z</time>
      </trkpt>
      <trkpt lat="47.8029" lon="5.38051">
        <ele>448</ele>
        <time>2024-05-17T09:36:08.127Z</time>
      </trkpt>
      <trkpt lat="47.80296" lon="5.38051">
        <ele>447</ele>
        <time>2024-05-17T09:36:12.196Z</time>
      </trkpt>
      <trkpt lat="47.80303" lon="5.38053">
        <ele>447</ele>
        <time>2024-05-17T09:36:17.148Z</time>
      </trkpt>
      <trkpt lat="47.80309" lon="5.38054">
        <ele>447</ele>
        <time>2024-05-17T09:36:21.201Z</time>
      </trkpt>
      <trkpt lat="47.80316" lon="5.38057">
        <ele>447</ele>
        <time>2024-05-17T09:36:26.197Z</time>
      </trkpt>
      <trkpt lat="47.80322" lon="5.38059">
        <ele>446</ele>
        <time>2024-05-17T09:36:30.528Z</time>
      </trkpt>
      <trkpt lat="47.80327" lon="5.3806">
        <ele>446</ele>
        <time>2024-05-17T09:36:34.924Z</time>
      </trkpt>
      <trkpt lat="47.80334" lon="5.38064">
        <ele>446</ele>
        <time>2024-05-17T09:36:39.361Z</time>
      </trkpt>
      <trkpt lat="47.80339" lon="5.38065">
        <ele>446</ele>
        <time>2024-05-17T09:36:43.825Z</time>
      </trkpt>
      <trkpt lat="47.80344" lon="5.38066">
        <ele>446</ele>
        <time>2024-05-17T09:36:47.844Z</time>
      </trkpt>
      <trkpt lat="47.80345" lon="5.38067">
        <ele>446</ele>
        <time>2024-05-17T09:36:49.196Z</time>
      </trkpt>
      <trkpt lat="47.80355" lon="5.38068">
        <ele>444</ele>
        <time>2024-05-17T09:36:58.207Z</time>
      </trkpt>
      <trkpt lat="47.8036" lon="5.38066">
        <ele>444</ele>
        <time>2024-05-17T09:37:02.197Z</time>
      </trkpt>
      <trkpt lat="47.80364" lon="5.38064">
        <ele>444</ele>
        <time>2024-05-17T09:37:06.491Z</time>
      </trkpt>
      <trkpt lat="47.8037" lon="5.38062">
        <ele>444</ele>
        <time>2024-05-17T09:37:11.034Z</time>
      </trkpt>
      <trkpt lat="47.80375" lon="5.3806">
        <ele>444</ele>
        <time>2024-05-17T09:37:15.570Z</time>
      </trkpt>
      <trkpt lat="47.80381" lon="5.38059">
        <ele>441</ele>
        <time>2024-05-17T09:37:20.086Z</time>
      </trkpt>
      <trkpt lat="47.80386" lon="5.38056">
        <ele>441</ele>
        <time>2024-05-17T09:37:24.126Z</time>
      </trkpt>
      <trkpt lat="47.8039" lon="5.38053">
        <ele>441</ele>
        <time>2024-05-17T09:37:28.243Z</time>
      </trkpt>
      <trkpt lat="47.80394" lon="5.38048">
        <ele>441</ele>
        <time>2024-05-17T09:37:33.197Z</time>
      </trkpt>
      <trkpt lat="47.80394" lon="5.38051">
        <ele>441</ele>
        <time>2024-05-17T09:38:24.445Z</time>
      </trkpt>
      <trkpt lat="47.80398" lon="5.38054">
        <ele>441</ele>
        <time>2024-05-17T09:38:28.830Z</time>
      </trkpt>
      <trkpt lat="47.80404" lon="5.38055">
        <ele>433</ele>
        <time>2024-05-17T09:38:33.165Z</time>
      </trkpt>
      <trkpt lat="47.80411" lon="5.38053">
        <ele>433</ele>
        <time>2024-05-17T09:38:37.950Z</time>
      </trkpt>
      <trkpt lat="47.80417" lon="5.38053">
        <ele>433</ele>
        <time>2024-05-17T09:38:42.192Z</time>
      </trkpt>
      <trkpt lat="47.8042" lon="5.38052">
        <ele>433</ele>
        <time>2024-05-17T09:38:46.544Z</time>
      </trkpt>
      <trkpt lat="47.80422" lon="5.38052">
        <ele>433</ele>
        <time>2024-05-17T09:38:46.994Z</time>
      </trkpt>
      <trkpt lat="47.80426" lon="5.38051">
        <ele>433</ele>
        <time>2024-05-17T09:38:52.197Z</time>
      </trkpt>
      <trkpt lat="47.80434" lon="5.38052">
        <ele>428</ele>
        <time>2024-05-17T09:39:01.196Z</time>
      </trkpt>
      <trkpt lat="47.8044" lon="5.3805">
        <ele>428</ele>
        <time>2024-05-17T09:39:05.929Z</time>
      </trkpt>
      <trkpt lat="47.80446" lon="5.38052">
        <ele>428</ele>
        <time>2024-05-17T09:39:11.197Z</time>
      </trkpt>
      <trkpt lat="47.80451" lon="5.38052">
        <ele>428</ele>
        <time>2024-05-17T09:39:15.197Z</time>
      </trkpt>
      <trkpt lat="47.80454" lon="5.38057">
        <ele>428</ele>
        <time>2024-05-17T09:39:19.542Z</time>
      </trkpt>
      <trkpt lat="47.80462" lon="5.38057">
        <ele>426</ele>
        <time>2024-05-17T09:39:23.941Z</time>
      </trkpt>
      <trkpt lat="47.80467" lon="5.38056">
        <ele>426</ele>
        <time>2024-05-17T09:39:28.172Z</time>
      </trkpt>
      <trkpt lat="47.80472" lon="5.38057">
        <ele>426</ele>
        <time>2024-05-17T09:39:32.645Z</time>
      </trkpt>
      <trkpt lat="47.80478" lon="5.38059">
        <ele>426</ele>
        <time>2024-05-17T09:39:37.080Z</time>
      </trkpt>
      <trkpt lat="47.80483" lon="5.38061">
        <ele>426</ele>
        <time>2024-05-17T09:39:41.452Z</time>
      </trkpt>
      <trkpt lat="47.80489" lon="5.38061">
        <ele>424</ele>
        <time>2024-05-17T09:39:45.805Z</time>
      </trkpt>
      <trkpt lat="47.80494" lon="5.38063">
        <ele>424</ele>
        <time>2024-05-17T09:39:50.176Z</time>
      </trkpt>
      <trkpt lat="47.805" lon="5.38066">
        <ele>424</ele>
        <time>2024-05-17T09:39:54.407Z</time>
      </trkpt>
      <trkpt lat="47.80506" lon="5.38068">
        <ele>424</ele>
        <time>2024-05-17T09:39:58.793Z</time>
      </trkpt>
      <trkpt lat="47.80511" lon="5.3807">
        <ele>426</ele>
        <time>2024-05-17T09:40:03.129Z</time>
      </trkpt>
      <trkpt lat="47.80517" lon="5.38071">
        <ele>422</ele>
        <time>2024-05-17T09:40:07.553Z</time>
      </trkpt>
      <trkpt lat="47.80522" lon="5.38073">
        <ele>422</ele>
        <time>2024-05-17T09:40:11.910Z</time>
      </trkpt>
      <trkpt lat="47.80528" lon="5.38075">
        <ele>422</ele>
        <time>2024-05-17T09:40:16.207Z</time>
      </trkpt>
      <trkpt lat="47.80534" lon="5.38077">
        <ele>422</ele>
        <time>2024-05-17T09:40:20.541Z</time>
      </trkpt>
      <trkpt lat="47.8054" lon="5.38078">
        <ele>422</ele>
        <time>2024-05-17T09:40:24.944Z</time>
      </trkpt>
      <trkpt lat="47.80544" lon="5.38082">
        <ele>420</ele>
        <time>2024-05-17T09:40:29.196Z</time>
      </trkpt>
      <trkpt lat="47.8055" lon="5.38082">
        <ele>420</ele>
        <time>2024-05-17T09:40:33.687Z</time>
      </trkpt>
      <trkpt lat="47.80557" lon="5.38086">
        <ele>420</ele>
        <time>2024-05-17T09:40:38.170Z</time>
      </trkpt>
      <trkpt lat="47.80563" lon="5.38088">
        <ele>420</ele>
        <time>2024-05-17T09:40:42.630Z</time>
      </trkpt>
      <trkpt lat="47.80568" lon="5.38089">
        <ele>420</ele>
        <time>2024-05-17T09:40:47.070Z</time>
      </trkpt>
      <trkpt lat="47.80574" lon="5.3809">
        <ele>419</ele>
        <time>2024-05-17T09:40:51.526Z</time>
      </trkpt>
      <trkpt lat="47.8058" lon="5.38091">
        <ele>419</ele>
        <time>2024-05-17T09:40:55.987Z</time>
      </trkpt>
      <trkpt lat="47.80586" lon="5.38092">
        <ele>419</ele>
        <time>2024-05-17T09:41:00.385Z</time>
      </trkpt>
      <trkpt lat="47.80591" lon="5.38092">
        <ele>419</ele>
        <time>2024-05-17T09:41:04.421Z</time>
      </trkpt>
      <trkpt lat="47.80597" lon="5.38092">
        <ele>419</ele>
        <time>2024-05-17T09:41:08.826Z</time>
      </trkpt>
      <trkpt lat="47.80602" lon="5.38092">
        <ele>419</ele>
        <time>2024-05-17T09:41:13.287Z</time>
      </trkpt>
      <trkpt lat="47.80609" lon="5.38092">
        <ele>419</ele>
        <time>2024-05-17T09:41:17.742Z</time>
      </trkpt>
      <trkpt lat="47.80614" lon="5.38091">
        <ele>419</ele>
        <time>2024-05-17T09:41:22.195Z</time>
      </trkpt>
      <trkpt lat="47.80619" lon="5.38091">
        <ele>419</ele>
        <time>2024-05-17T09:41:26.807Z</time>
      </trkpt>
      <trkpt lat="47.80625" lon="5.3809">
        <ele>419</ele>
        <time>2024-05-17T09:41:31.286Z</time>
      </trkpt>
      <trkpt lat="47.80631" lon="5.38087">
        <ele>418</ele>
        <time>2024-05-17T09:41:35.846Z</time>
      </trkpt>
      <trkpt lat="47.80636" lon="5.38085">
        <ele>418</ele>
        <time>2024-05-17T09:41:40.196Z</time>
      </trkpt>
      <trkpt lat="47.80642" lon="5.38082">
        <ele>418</ele>
        <time>2024-05-17T09:41:44.643Z</time>
      </trkpt>
      <trkpt lat="47.80648" lon="5.38079">
        <ele>418</ele>
        <time>2024-05-17T09:41:48.985Z</time>
      </trkpt>
      <trkpt lat="47.80653" lon="5.38075">
        <ele>418</ele>
        <time>2024-05-17T09:41:53.449Z</time>
      </trkpt>
      <trkpt lat="47.80659" lon="5.38072">
        <ele>419</ele>
        <time>2024-05-17T09:41:57.766Z</time>
      </trkpt>
      <trkpt lat="47.80664" lon="5.38069">
        <ele>416</ele>
        <time>2024-05-17T09:42:02.196Z</time>
      </trkpt>
      <trkpt lat="47.80669" lon="5.38064">
        <ele>416</ele>
        <time>2024-05-17T09:42:06.728Z</time>
      </trkpt>
      <trkpt lat="47.80673" lon="5.38059">
        <ele>416</ele>
        <time>2024-05-17T09:42:11.046Z</time>
      </trkpt>
      <trkpt lat="47.80678" lon="5.38053">
        <ele>416</ele>
        <time>2024-05-17T09:42:15.482Z</time>
      </trkpt>
      <trkpt lat="47.80683" lon="5.38047">
        <ele>415</ele>
        <time>2024-05-17T09:42:19.825Z</time>
      </trkpt>
      <trkpt lat="47.80687" lon="5.38043">
        <ele>415</ele>
        <time>2024-05-17T09:42:24.145Z</time>
      </trkpt>
      <trkpt lat="47.80691" lon="5.38038">
        <ele>413</ele>
        <time>2024-05-17T09:42:28.667Z</time>
      </trkpt>
      <trkpt lat="47.80696" lon="5.38032">
        <ele>413</ele>
        <time>2024-05-17T09:42:33.023Z</time>
      </trkpt>
      <trkpt lat="47.80697" lon="5.38032">
        <ele>413</ele>
        <time>2024-05-17T09:42:33.671Z</time>
      </trkpt>
      <trkpt lat="47.80705" lon="5.38023">
        <ele>413</ele>
        <time>2024-05-17T09:42:42.196Z</time>
      </trkpt>
      <trkpt lat="47.80711" lon="5.38018">
        <ele>412</ele>
        <time>2024-05-17T09:42:46.929Z</time>
      </trkpt>
      <trkpt lat="47.80714" lon="5.38015">
        <ele>412</ele>
        <time>2024-05-17T09:42:51.196Z</time>
      </trkpt>
      <trkpt lat="47.80716" lon="5.38011">
        <ele>409</ele>
        <time>2024-05-17T09:42:55.566Z</time>
      </trkpt>
      <trkpt lat="47.80721" lon="5.38006">
        <ele>409</ele>
        <time>2024-05-17T09:43:00.005Z</time>
      </trkpt>
      <trkpt lat="47.80724" lon="5.38003">
        <ele>409</ele>
        <time>2024-05-17T09:43:04.445Z</time>
      </trkpt>
      <trkpt lat="47.80729" lon="5.37999">
        <ele>409</ele>
        <time>2024-05-17T09:43:09.185Z</time>
      </trkpt>
      <trkpt lat="47.80735" lon="5.37994">
        <ele>409</ele>
        <time>2024-05-17T09:43:13.282Z</time>
      </trkpt>
      <trkpt lat="47.8074" lon="5.37989">
        <ele>408</ele>
        <time>2024-05-17T09:43:17.671Z</time>
      </trkpt>
      <trkpt lat="47.80743" lon="5.37989">
        <ele>408</ele>
        <time>2024-05-17T09:43:21.825Z</time>
      </trkpt>
      <trkpt lat="47.80743" lon="5.37988">
        <ele>408</ele>
        <time>2024-05-17T09:43:26.195Z</time>
      </trkpt>
      <trkpt lat="47.80743" lon="5.37986">
        <ele>408</ele>
        <time>2024-05-17T09:43:31.196Z</time>
      </trkpt>
      <trkpt lat="47.80744" lon="5.37984">
        <ele>407</ele>
        <time>2024-05-17T09:43:36.196Z</time>
      </trkpt>
      <trkpt lat="47.80749" lon="5.37975">
        <ele>407</ele>
        <time>2024-05-17T09:43:41.196Z</time>
      </trkpt>
      <trkpt lat="47.80754" lon="5.37968">
        <ele>407</ele>
        <time>2024-05-17T09:43:46.196Z</time>
      </trkpt>
      <trkpt lat="47.80759" lon="5.37965">
        <ele>407</ele>
        <time>2024-05-17T09:43:50.826Z</time>
      </trkpt>
      <trkpt lat="47.80764" lon="5.37961">
        <ele>407</ele>
        <time>2024-05-17T09:43:55.306Z</time>
      </trkpt>
      <trkpt lat="47.80768" lon="5.37956">
        <ele>407</ele>
        <time>2024-05-17T09:43:59.667Z</time>
      </trkpt>
      <trkpt lat="47.80773" lon="5.37953">
        <ele>407</ele>
        <time>2024-05-17T09:44:03.822Z</time>
      </trkpt>
      <trkpt lat="47.80777" lon="5.37946">
        <ele>407</ele>
        <time>2024-05-17T09:44:08.196Z</time>
      </trkpt>
      <trkpt lat="47.80782" lon="5.37942">
        <ele>407</ele>
        <time>2024-05-17T09:44:12.706Z</time>
      </trkpt>
      <trkpt lat="47.80787" lon="5.37937">
        <ele>407</ele>
        <time>2024-05-17T09:44:17.127Z</time>
      </trkpt>
      <trkpt lat="47.80791" lon="5.37932">
        <ele>407</ele>
        <time>2024-05-17T09:44:21.445Z</time>
      </trkpt>
      <trkpt lat="47.80796" lon="5.37928">
        <ele>404</ele>
        <time>2024-05-17T09:44:25.788Z</time>
      </trkpt>
      <trkpt lat="47.80802" lon="5.37924">
        <ele>404</ele>
        <time>2024-05-17T09:44:30.196Z</time>
      </trkpt>
      <trkpt lat="47.80808" lon="5.37919">
        <ele>404</ele>
        <time>2024-05-17T09:44:34.902Z</time>
      </trkpt>
      <trkpt lat="47.80813" lon="5.37915">
        <ele>404</ele>
        <time>2024-05-17T09:44:38.965Z</time>
      </trkpt>
      <trkpt lat="47.80818" lon="5.3791">
        <ele>404</ele>
        <time>2024-05-17T09:44:43.187Z</time>
      </trkpt>
      <trkpt lat="47.80823" lon="5.37908">
        <ele>404</ele>
        <time>2024-05-17T09:44:47.641Z</time>
      </trkpt>
      <trkpt lat="47.80827" lon="5.37905">
        <ele>404</ele>
        <time>2024-05-17T09:44:52.196Z</time>
      </trkpt>
      <trkpt lat="47.80832" lon="5.37899">
        <ele>402</ele>
        <time>2024-05-17T09:44:56.812Z</time>
      </trkpt>
      <trkpt lat="47.80835" lon="5.37896">
        <ele>402</ele>
        <time>2024-05-17T09:45:01.661Z</time>
      </trkpt>
      <trkpt lat="47.80841" lon="5.37892">
        <ele>402</ele>
        <time>2024-05-17T09:45:06.196Z</time>
      </trkpt>
      <trkpt lat="47.80847" lon="5.37888">
        <ele>402</ele>
        <time>2024-05-17T09:45:10.442Z</time>
      </trkpt>
      <trkpt lat="47.80853" lon="5.37884">
        <ele>403</ele>
        <time>2024-05-17T09:45:15.195Z</time>
      </trkpt>
      <trkpt lat="47.80857" lon="5.37879">
        <ele>403</ele>
        <time>2024-05-17T09:45:19.768Z</time>
      </trkpt>
      <trkpt lat="47.80863" lon="5.37874">
        <ele>401</ele>
        <time>2024-05-17T09:45:24.196Z</time>
      </trkpt>
      <trkpt lat="47.80864" lon="5.37873">
        <ele>401</ele>
        <time>2024-05-17T09:45:25.149Z</time>
      </trkpt>
      <trkpt lat="47.80873" lon="5.37865">
        <ele>401</ele>
        <time>2024-05-17T09:45:34.196Z</time>
      </trkpt>
      <trkpt lat="47.80878" lon="5.37862">
        <ele>400</ele>
        <time>2024-05-17T09:45:38.467Z</time>
      </trkpt>
      <trkpt lat="47.80884" lon="5.37856">
        <ele>400</ele>
        <time>2024-05-17T09:45:43.195Z</time>
      </trkpt>
      <trkpt lat="47.8089" lon="5.37851">
        <ele>400</ele>
        <time>2024-05-17T09:45:48.062Z</time>
      </trkpt>
      <trkpt lat="47.80896" lon="5.37847">
        <ele>398</ele>
        <time>2024-05-17T09:45:52.195Z</time>
      </trkpt>
      <trkpt lat="47.80901" lon="5.37843">
        <ele>398</ele>
        <time>2024-05-17T09:45:56.650Z</time>
      </trkpt>
      <trkpt lat="47.80906" lon="5.37839">
        <ele>397</ele>
        <time>2024-05-17T09:46:01.060Z</time>
      </trkpt>
      <trkpt lat="47.80912" lon="5.37834">
        <ele>397</ele>
        <time>2024-05-17T09:46:05.989Z</time>
      </trkpt>
      <trkpt lat="47.80917" lon="5.37827">
        <ele>397</ele>
        <time>2024-05-17T09:46:10.507Z</time>
      </trkpt>
      <trkpt lat="47.80922" lon="5.37825">
        <ele>397</ele>
        <time>2024-05-17T09:46:14.808Z</time>
      </trkpt>
      <trkpt lat="47.80927" lon="5.37821">
        <ele>397</ele>
        <time>2024-05-17T09:46:19.125Z</time>
      </trkpt>
      <trkpt lat="47.80933" lon="5.37817">
        <ele>395</ele>
        <time>2024-05-17T09:46:23.502Z</time>
      </trkpt>
      <trkpt lat="47.80938" lon="5.37813">
        <ele>395</ele>
        <time>2024-05-17T09:46:27.905Z</time>
      </trkpt>
      <trkpt lat="47.80944" lon="5.37807">
        <ele>395</ele>
        <time>2024-05-17T09:46:32.300Z</time>
      </trkpt>
      <trkpt lat="47.80948" lon="5.37803">
        <ele>395</ele>
        <time>2024-05-17T09:46:36.626Z</time>
      </trkpt>
      <trkpt lat="47.80953" lon="5.37798">
        <ele>395</ele>
        <time>2024-05-17T09:46:40.987Z</time>
      </trkpt>
      <trkpt lat="47.80959" lon="5.37792">
        <ele>394</ele>
        <time>2024-05-17T09:46:45.322Z</time>
      </trkpt>
      <trkpt lat="47.80964" lon="5.37788">
        <ele>393</ele>
        <time>2024-05-17T09:46:49.682Z</time>
      </trkpt>
      <trkpt lat="47.80968" lon="5.37782">
        <ele>393</ele>
        <time>2024-05-17T09:46:54.067Z</time>
      </trkpt>
      <trkpt lat="47.80973" lon="5.37777">
        <ele>393</ele>
        <time>2024-05-17T09:46:58.462Z</time>
      </trkpt>
      <trkpt lat="47.80978" lon="5.37771">
        <ele>393</ele>
        <time>2024-05-17T09:47:02.908Z</time>
      </trkpt>
      <trkpt lat="47.80983" lon="5.37767">
        <ele>393</ele>
        <time>2024-05-17T09:47:07.196Z</time>
      </trkpt>
      <trkpt lat="47.80988" lon="5.37761">
        <ele>389</ele>
        <time>2024-05-17T09:47:12.195Z</time>
      </trkpt>
      <trkpt lat="47.80993" lon="5.37755">
        <ele>389</ele>
        <time>2024-05-17T09:47:17.022Z</time>
      </trkpt>
      <trkpt lat="47.80999" lon="5.37749">
        <ele>389</ele>
        <time>2024-05-17T09:47:22.142Z</time>
      </trkpt>
      <trkpt lat="47.81004" lon="5.37745">
        <ele>389</ele>
        <time>2024-05-17T09:47:26.620Z</time>
      </trkpt>
      <trkpt lat="47.81009" lon="5.37742">
        <ele>389</ele>
        <time>2024-05-17T09:47:31.195Z</time>
      </trkpt>
      <trkpt lat="47.81015" lon="5.3774">
        <ele>387</ele>
        <time>2024-05-17T09:47:35.416Z</time>
      </trkpt>
      <trkpt lat="47.81021" lon="5.37736">
        <ele>387</ele>
        <time>2024-05-17T09:47:39.846Z</time>
      </trkpt>
      <trkpt lat="47.81026" lon="5.37734">
        <ele>384</ele>
        <time>2024-05-17T09:47:44.196Z</time>
      </trkpt>
      <trkpt lat="47.81031" lon="5.3773">
        <ele>384</ele>
        <time>2024-05-17T09:47:48.646Z</time>
      </trkpt>
      <trkpt lat="47.81038" lon="5.37729">
        <ele>384</ele>
        <time>2024-05-17T09:47:53.106Z</time>
      </trkpt>
      <trkpt lat="47.81042" lon="5.37724">
        <ele>385</ele>
        <time>2024-05-17T09:47:57.195Z</time>
      </trkpt>
      <trkpt lat="47.81048" lon="5.37722">
        <ele>385</ele>
        <time>2024-05-17T09:48:01.265Z</time>
      </trkpt>
      <trkpt lat="47.81053" lon="5.37719">
        <ele>385</ele>
        <time>2024-05-17T09:48:05.700Z</time>
      </trkpt>
      <trkpt lat="47.81059" lon="5.37716">
        <ele>385</ele>
        <time>2024-05-17T09:48:10.195Z</time>
      </trkpt>
      <trkpt lat="47.81066" lon="5.37714">
        <ele>385</ele>
        <time>2024-05-17T09:48:15.145Z</time>
      </trkpt>
      <trkpt lat="47.81072" lon="5.37712">
        <ele>386</ele>
        <time>2024-05-17T09:48:19.525Z</time>
      </trkpt>
      <trkpt lat="47.81078" lon="5.37709">
        <ele>386</ele>
        <time>2024-05-17T09:48:23.887Z</time>
      </trkpt>
      <trkpt lat="47.81083" lon="5.37706">
        <ele>384</ele>
        <time>2024-05-17T09:48:28.194Z</time>
      </trkpt>
      <trkpt lat="47.81089" lon="5.37701">
        <ele>384</ele>
        <time>2024-05-17T09:48:33.047Z</time>
      </trkpt>
      <trkpt lat="47.81096" lon="5.37701">
        <ele>384</ele>
        <time>2024-05-17T09:48:37.381Z</time>
      </trkpt>
      <trkpt lat="47.81101" lon="5.37698">
        <ele>383</ele>
        <time>2024-05-17T09:48:41.742Z</time>
      </trkpt>
      <trkpt lat="47.81107" lon="5.37694">
        <ele>383</ele>
        <time>2024-05-17T09:48:46.195Z</time>
      </trkpt>
      <trkpt lat="47.81113" lon="5.37692">
        <ele>383</ele>
        <time>2024-05-17T09:48:50.610Z</time>
      </trkpt>
      <trkpt lat="47.81119" lon="5.37689">
        <ele>383</ele>
        <time>2024-05-17T09:48:55.194Z</time>
      </trkpt>
      <trkpt lat="47.81124" lon="5.37686">
        <ele>383</ele>
        <time>2024-05-17T09:48:59.345Z</time>
      </trkpt>
      <trkpt lat="47.8113" lon="5.37682">
        <ele>382</ele>
        <time>2024-05-17T09:49:03.721Z</time>
      </trkpt>
      <trkpt lat="47.81135" lon="5.3768">
        <ele>381</ele>
        <time>2024-05-17T09:49:08.006Z</time>
      </trkpt>
      <trkpt lat="47.81142" lon="5.37677">
        <ele>381</ele>
        <time>2024-05-17T09:49:12.930Z</time>
      </trkpt>
      <trkpt lat="47.81147" lon="5.37673">
        <ele>381</ele>
        <time>2024-05-17T09:49:17.195Z</time>
      </trkpt>
      <trkpt lat="47.81153" lon="5.37671">
        <ele>381</ele>
        <time>2024-05-17T09:49:21.725Z</time>
      </trkpt>
      <trkpt lat="47.81159" lon="5.37667">
        <ele>381</ele>
        <time>2024-05-17T09:49:26.145Z</time>
      </trkpt>
      <trkpt lat="47.81164" lon="5.37659">
        <ele>381</ele>
        <time>2024-05-17T09:49:41.870Z</time>
      </trkpt>
      <trkpt lat="47.81166" lon="5.37659">
        <ele>381</ele>
        <time>2024-05-17T09:49:46.194Z</time>
      </trkpt>
      <trkpt lat="47.81168" lon="5.37658">
        <ele>381</ele>
        <time>2024-05-17T09:49:50.194Z</time>
      </trkpt>
      <trkpt lat="47.81169" lon="5.37658">
        <ele>381</ele>
        <time>2024-05-17T09:49:54.742Z</time>
      </trkpt>
      <trkpt lat="47.81173" lon="5.37653">
        <ele>381</ele>
        <time>2024-05-17T09:49:59.195Z</time>
      </trkpt>
      <trkpt lat="47.81179" lon="5.37651">
        <ele>380</ele>
        <time>2024-05-17T09:50:03.727Z</time>
      </trkpt>
      <trkpt lat="47.81185" lon="5.37648">
        <ele>380</ele>
        <time>2024-05-17T09:50:08.053Z</time>
      </trkpt>
      <trkpt lat="47.81191" lon="5.37646">
        <ele>380</ele>
        <time>2024-05-17T09:50:12.233Z</time>
      </trkpt>
      <trkpt lat="47.81197" lon="5.37644">
        <ele>380</ele>
        <time>2024-05-17T09:50:16.689Z</time>
      </trkpt>
      <trkpt lat="47.81202" lon="5.37639">
        <ele>380</ele>
        <time>2024-05-17T09:50:21.195Z</time>
      </trkpt>
      <trkpt lat="47.81207" lon="5.37635">
        <ele>380</ele>
        <time>2024-05-17T09:50:25.690Z</time>
      </trkpt>
      <trkpt lat="47.81212" lon="5.37631">
        <ele>381</ele>
        <time>2024-05-17T09:50:30.051Z</time>
      </trkpt>
      <trkpt lat="47.81217" lon="5.37628">
        <ele>381</ele>
        <time>2024-05-17T09:50:33.958Z</time>
      </trkpt>
      <trkpt lat="47.81226" lon="5.37623">
        <ele>379</ele>
        <time>2024-05-17T09:50:41.194Z</time>
      </trkpt>
      <trkpt lat="47.81231" lon="5.37621">
        <ele>379</ele>
        <time>2024-05-17T09:50:45.469Z</time>
      </trkpt>
      <trkpt lat="47.81236" lon="5.37617">
        <ele>379</ele>
        <time>2024-05-17T09:50:49.933Z</time>
      </trkpt>
      <trkpt lat="47.8124" lon="5.37613">
        <ele>378</ele>
        <time>2024-05-17T09:50:54.266Z</time>
      </trkpt>
      <trkpt lat="47.81246" lon="5.37611">
        <ele>378</ele>
        <time>2024-05-17T09:50:58.806Z</time>
      </trkpt>
      <trkpt lat="47.81252" lon="5.37608">
        <ele>378</ele>
        <time>2024-05-17T09:51:03.194Z</time>
      </trkpt>
      <trkpt lat="47.81258" lon="5.37607">
        <ele>378</ele>
        <time>2024-05-17T09:51:07.825Z</time>
      </trkpt>
      <trkpt lat="47.81266" lon="5.37605">
        <ele>378</ele>
        <time>2024-05-17T09:51:13.055Z</time>
      </trkpt>
      <trkpt lat="47.81271" lon="5.37602">
        <ele>378</ele>
        <time>2024-05-17T09:51:17.194Z</time>
      </trkpt>
      <trkpt lat="47.81277" lon="5.37602">
        <ele>378</ele>
        <time>2024-05-17T09:51:21.794Z</time>
      </trkpt>
      <trkpt lat="47.81283" lon="5.37603">
        <ele>378</ele>
        <time>2024-05-17T09:51:25.990Z</time>
      </trkpt>
      <trkpt lat="47.81289" lon="5.37602">
        <ele>378</ele>
        <time>2024-05-17T09:51:30.530Z</time>
      </trkpt>
      <trkpt lat="47.81295" lon="5.37601">
        <ele>376</ele>
        <time>2024-05-17T09:51:34.814Z</time>
      </trkpt>
      <trkpt lat="47.81301" lon="5.37602">
        <ele>376</ele>
        <time>2024-05-17T09:51:39.194Z</time>
      </trkpt>
      <trkpt lat="47.81307" lon="5.37602">
        <ele>376</ele>
        <time>2024-05-17T09:51:43.634Z</time>
      </trkpt>
      <trkpt lat="47.81313" lon="5.37601">
        <ele>376</ele>
        <time>2024-05-17T09:51:48.195Z</time>
      </trkpt>
      <trkpt lat="47.81318" lon="5.37603">
        <ele>376</ele>
        <time>2024-05-17T09:51:52.451Z</time>
      </trkpt>
      <trkpt lat="47.81325" lon="5.37603">
        <ele>374</ele>
        <time>2024-05-17T09:51:57.195Z</time>
      </trkpt>
      <trkpt lat="47.81332" lon="5.37603">
        <ele>374</ele>
        <time>2024-05-17T09:52:02.195Z</time>
      </trkpt>
      <trkpt lat="47.81338" lon="5.37604">
        <ele>374</ele>
        <time>2024-05-17T09:52:06.692Z</time>
      </trkpt>
      <trkpt lat="47.81343" lon="5.37605">
        <ele>374</ele>
        <time>2024-05-17T09:52:10.872Z</time>
      </trkpt>
      <trkpt lat="47.81349" lon="5.37606">
        <ele>374</ele>
        <time>2024-05-17T09:52:15.195Z</time>
      </trkpt>
      <trkpt lat="47.81355" lon="5.37607">
        <ele>374</ele>
        <time>2024-05-17T09:52:19.816Z</time>
      </trkpt>
      <trkpt lat="47.81362" lon="5.37609">
        <ele>374</ele>
        <time>2024-05-17T09:52:24.195Z</time>
      </trkpt>
      <trkpt lat="47.81367" lon="5.3761">
        <ele>374</ele>
        <time>2024-05-17T09:52:29.195Z</time>
      </trkpt>
      <trkpt lat="47.81371" lon="5.3761">
        <ele>374</ele>
        <time>2024-05-17T09:52:34.195Z</time>
      </trkpt>
      <trkpt lat="47.81376" lon="5.37609">
        <ele>374</ele>
        <time>2024-05-17T09:52:38.535Z</time>
      </trkpt>
      <trkpt lat="47.81381" lon="5.37609">
        <ele>374</ele>
        <time>2024-05-17T09:52:43.194Z</time>
      </trkpt>
      <trkpt lat="47.81387" lon="5.37608">
        <ele>374</ele>
        <time>2024-05-17T09:52:47.930Z</time>
      </trkpt>
      <trkpt lat="47.81392" lon="5.37607">
        <ele>374</ele>
        <time>2024-05-17T09:52:52.195Z</time>
      </trkpt>
      <trkpt lat="47.81399" lon="5.37606">
        <ele>374</ele>
        <time>2024-05-17T09:52:56.948Z</time>
      </trkpt>
      <trkpt lat="47.81404" lon="5.37604">
        <ele>373</ele>
        <time>2024-05-17T09:53:01.010Z</time>
      </trkpt>
      <trkpt lat="47.8141" lon="5.37603">
        <ele>373</ele>
        <time>2024-05-17T09:53:05.195Z</time>
      </trkpt>
      <trkpt lat="47.81415" lon="5.37602">
        <ele>373</ele>
        <time>2024-05-17T09:53:09.649Z</time>
      </trkpt>
      <trkpt lat="47.81421" lon="5.37601">
        <ele>373</ele>
        <time>2024-05-17T09:53:13.710Z</time>
      </trkpt>
      <trkpt lat="47.81427" lon="5.37599">
        <ele>373</ele>
        <time>2024-05-17T09:53:18.194Z</time>
      </trkpt>
      <trkpt lat="47.81434" lon="5.37596">
        <ele>371</ele>
        <time>2024-05-17T09:53:22.788Z</time>
      </trkpt>
      <trkpt lat="47.81443" lon="5.37595">
        <ele>371</ele>
        <time>2024-05-17T09:53:26.953Z</time>
      </trkpt>
      <trkpt lat="47.81448" lon="5.37594">
        <ele>371</ele>
        <time>2024-05-17T09:53:31.355Z</time>
      </trkpt>
      <trkpt lat="47.81453" lon="5.37593">
        <ele>371</ele>
        <time>2024-05-17T09:53:35.878Z</time>
      </trkpt>
      <trkpt lat="47.81458" lon="5.37593">
        <ele>371</ele>
        <time>2024-05-17T09:53:40.059Z</time>
      </trkpt>
      <trkpt lat="47.81466" lon="5.37591">
        <ele>371</ele>
        <time>2024-05-17T09:53:45.042Z</time>
      </trkpt>
      <trkpt lat="47.81472" lon="5.37591">
        <ele>371</ele>
        <time>2024-05-17T09:53:49.180Z</time>
      </trkpt>
      <trkpt lat="47.81478" lon="5.37589">
        <ele>371</ele>
        <time>2024-05-17T09:53:53.195Z</time>
      </trkpt>
      <trkpt lat="47.81484" lon="5.37588">
        <ele>371</ele>
        <time>2024-05-17T09:53:57.705Z</time>
      </trkpt>
      <trkpt lat="47.81489" lon="5.37586">
        <ele>372</ele>
        <time>2024-05-17T09:54:01.920Z</time>
      </trkpt>
      <trkpt lat="47.81495" lon="5.37585">
        <ele>372</ele>
        <time>2024-05-17T09:54:05.998Z</time>
      </trkpt>
      <trkpt lat="47.815" lon="5.37585">
        <ele>372</ele>
        <time>2024-05-17T09:54:10.118Z</time>
      </trkpt>
      <trkpt lat="47.81505" lon="5.37583">
        <ele>372</ele>
        <time>2024-05-17T09:54:14.581Z</time>
      </trkpt>
      <trkpt lat="47.81511" lon="5.37583">
        <ele>372</ele>
        <time>2024-05-17T09:54:18.859Z</time>
      </trkpt>
      <trkpt lat="47.81517" lon="5.37581">
        <ele>371</ele>
        <time>2024-05-17T09:54:23.122Z</time>
      </trkpt>
      <trkpt lat="47.81521" lon="5.37577">
        <ele>371</ele>
        <time>2024-05-17T09:54:26.479Z</time>
      </trkpt>
      <trkpt lat="47.81525" lon="5.37573">
        <ele>371</ele>
        <time>2024-05-17T09:54:35.194Z</time>
      </trkpt>
      <trkpt lat="47.81529" lon="5.37572">
        <ele>371</ele>
        <time>2024-05-17T09:54:39.944Z</time>
      </trkpt>
      <trkpt lat="47.81536" lon="5.37571">
        <ele>371</ele>
        <time>2024-05-17T09:54:44.066Z</time>
      </trkpt>
      <trkpt lat="47.81542" lon="5.37567">
        <ele>371</ele>
        <time>2024-05-17T09:54:48.311Z</time>
      </trkpt>
      <trkpt lat="47.81547" lon="5.37561">
        <ele>371</ele>
        <time>2024-05-17T09:54:52.548Z</time>
      </trkpt>
      <trkpt lat="47.81552" lon="5.37558">
        <ele>371</ele>
        <time>2024-05-17T09:54:56.607Z</time>
      </trkpt>
      <trkpt lat="47.81557" lon="5.37554">
        <ele>371</ele>
        <time>2024-05-17T09:55:01.195Z</time>
      </trkpt>
      <trkpt lat="47.81563" lon="5.37552">
        <ele>371</ele>
        <time>2024-05-17T09:55:05.708Z</time>
      </trkpt>
      <trkpt lat="47.81569" lon="5.37548">
        <ele>371</ele>
        <time>2024-05-17T09:55:10.046Z</time>
      </trkpt>
      <trkpt lat="47.81574" lon="5.37544">
        <ele>370</ele>
        <time>2024-05-17T09:55:14.195Z</time>
      </trkpt>
      <trkpt lat="47.8158" lon="5.37544">
        <ele>370</ele>
        <time>2024-05-17T09:55:18.418Z</time>
      </trkpt>
      <trkpt lat="47.81585" lon="5.3754">
        <ele>369</ele>
        <time>2024-05-17T09:55:22.741Z</time>
      </trkpt>
      <trkpt lat="47.81591" lon="5.37537">
        <ele>369</ele>
        <time>2024-05-17T09:55:27.048Z</time>
      </trkpt>
      <trkpt lat="47.81595" lon="5.37534">
        <ele>369</ele>
        <time>2024-05-17T09:55:31.392Z</time>
      </trkpt>
      <trkpt lat="47.81601" lon="5.3753">
        <ele>369</ele>
        <time>2024-05-17T09:55:35.786Z</time>
      </trkpt>
      <trkpt lat="47.81606" lon="5.37526">
        <ele>369</ele>
        <time>2024-05-17T09:55:40.118Z</time>
      </trkpt>
      <trkpt lat="47.81612" lon="5.37522">
        <ele>369</ele>
        <time>2024-05-17T09:55:44.527Z</time>
      </trkpt>
      <trkpt lat="47.81618" lon="5.37517">
        <ele>369</ele>
        <time>2024-05-17T09:55:48.904Z</time>
      </trkpt>
      <trkpt lat="47.81622" lon="5.37513">
        <ele>369</ele>
        <time>2024-05-17T09:55:53.193Z</time>
      </trkpt>
      <trkpt lat="47.81628" lon="5.3751">
        <ele>370</ele>
        <time>2024-05-17T09:55:57.301Z</time>
      </trkpt>
      <trkpt lat="47.81634" lon="5.37506">
        <ele>370</ele>
        <time>2024-05-17T09:56:01.805Z</time>
      </trkpt>
      <trkpt lat="47.81638" lon="5.37502">
        <ele>370</ele>
        <time>2024-05-17T09:56:05.960Z</time>
      </trkpt>
      <trkpt lat="47.81644" lon="5.37498">
        <ele>370</ele>
        <time>2024-05-17T09:56:10.194Z</time>
      </trkpt>
      <trkpt lat="47.81649" lon="5.37494">
        <ele>370</ele>
        <time>2024-05-17T09:56:14.377Z</time>
      </trkpt>
      <trkpt lat="47.81654" lon="5.3749">
        <ele>370</ele>
        <time>2024-05-17T09:56:18.822Z</time>
      </trkpt>
      <trkpt lat="47.81659" lon="5.37486">
        <ele>371</ele>
        <time>2024-05-17T09:56:23.379Z</time>
      </trkpt>
      <trkpt lat="47.81665" lon="5.37481">
        <ele>371</ele>
        <time>2024-05-17T09:56:28.202Z</time>
      </trkpt>
      <trkpt lat="47.8167" lon="5.37478">
        <ele>371</ele>
        <time>2024-05-17T09:56:32.763Z</time>
      </trkpt>
      <trkpt lat="47.81673" lon="5.37475">
        <ele>371</ele>
        <time>2024-05-17T09:56:37.700Z</time>
      </trkpt>
      <trkpt lat="47.81678" lon="5.37472">
        <ele>371</ele>
        <time>2024-05-17T09:56:42.120Z</time>
      </trkpt>
      <trkpt lat="47.81684" lon="5.37469">
        <ele>371</ele>
        <time>2024-05-17T09:56:46.194Z</time>
      </trkpt>
      <trkpt lat="47.81688" lon="5.37466">
        <ele>371</ele>
        <time>2024-05-17T09:56:50.194Z</time>
      </trkpt>
      <trkpt lat="47.81693" lon="5.37461">
        <ele>371</ele>
        <time>2024-05-17T09:56:54.936Z</time>
      </trkpt>
      <trkpt lat="47.817" lon="5.37456">
        <ele>372</ele>
        <time>2024-05-17T09:56:59.965Z</time>
      </trkpt>
      <trkpt lat="47.81705" lon="5.37454">
        <ele>372</ele>
        <time>2024-05-17T09:57:04.194Z</time>
      </trkpt>
      <trkpt lat="47.81711" lon="5.37451">
        <ele>371</ele>
        <time>2024-05-17T09:57:08.701Z</time>
      </trkpt>
      <trkpt lat="47.81715" lon="5.37445">
        <ele>371</ele>
        <time>2024-05-17T09:57:13.194Z</time>
      </trkpt>
      <trkpt lat="47.81719" lon="5.37439">
        <ele>371</ele>
        <time>2024-05-17T09:57:17.379Z</time>
      </trkpt>
      <trkpt lat="47.81724" lon="5.37436">
        <ele>371</ele>
        <time>2024-05-17T09:57:21.665Z</time>
      </trkpt>
      <trkpt lat="47.81729" lon="5.37433">
        <ele>371</ele>
        <time>2024-05-17T09:57:25.965Z</time>
      </trkpt>
      <trkpt lat="47.81734" lon="5.37427">
        <ele>372</ele>
        <time>2024-05-17T09:57:30.358Z</time>
      </trkpt>
      <trkpt lat="47.81739" lon="5.37422">
        <ele>372</ele>
        <time>2024-05-17T09:57:35.194Z</time>
      </trkpt>
      <trkpt lat="47.81744" lon="5.37416">
        <ele>372</ele>
        <time>2024-05-17T09:57:40.194Z</time>
      </trkpt>
      <trkpt lat="47.8175" lon="5.37411">
        <ele>372</ele>
        <time>2024-05-17T09:57:44.839Z</time>
      </trkpt>
      <trkpt lat="47.81753" lon="5.37403">
        <ele>372</ele>
        <time>2024-05-17T09:57:49.193Z</time>
      </trkpt>
      <trkpt lat="47.81759" lon="5.37397">
        <ele>372</ele>
        <time>2024-05-17T09:57:53.500Z</time>
      </trkpt>
      <trkpt lat="47.81764" lon="5.37392">
        <ele>372</ele>
        <time>2024-05-17T09:57:58.194Z</time>
      </trkpt>
      <trkpt lat="47.81768" lon="5.37386">
        <ele>372</ele>
        <time>2024-05-17T09:58:02.937Z</time>
      </trkpt>
      <trkpt lat="47.81772" lon="5.3738">
        <ele>372</ele>
        <time>2024-05-17T09:58:07.148Z</time>
      </trkpt>
      <trkpt lat="47.81776" lon="5.37374">
        <ele>372</ele>
        <time>2024-05-17T09:58:11.193Z</time>
      </trkpt>
      <trkpt lat="47.81781" lon="5.37368">
        <ele>372</ele>
        <time>2024-05-17T09:58:16.194Z</time>
      </trkpt>
      <trkpt lat="47.81786" lon="5.37365">
        <ele>372</ele>
        <time>2024-05-17T09:58:20.480Z</time>
      </trkpt>
      <trkpt lat="47.8179" lon="5.37362">
        <ele>372</ele>
        <time>2024-05-17T09:58:24.825Z</time>
      </trkpt>
      <trkpt lat="47.81795" lon="5.37357">
        <ele>372</ele>
        <time>2024-05-17T09:58:29.025Z</time>
      </trkpt>
      <trkpt lat="47.818" lon="5.37352">
        <ele>372</ele>
        <time>2024-05-17T09:58:33.207Z</time>
      </trkpt>
      <trkpt lat="47.81805" lon="5.37347">
        <ele>372</ele>
        <time>2024-05-17T09:58:37.445Z</time>
      </trkpt>
      <trkpt lat="47.81808" lon="5.3734">
        <ele>372</ele>
        <time>2024-05-17T09:58:41.719Z</time>
      </trkpt>
      <trkpt lat="47.81813" lon="5.37336">
        <ele>372</ele>
        <time>2024-05-17T09:58:46.194Z</time>
      </trkpt>
      <trkpt lat="47.81818" lon="5.37331">
        <ele>372</ele>
        <time>2024-05-17T09:58:50.704Z</time>
      </trkpt>
      <trkpt lat="47.81823" lon="5.37326">
        <ele>373</ele>
        <time>2024-05-17T09:58:55.098Z</time>
      </trkpt>
      <trkpt lat="47.81828" lon="5.3732">
        <ele>373</ele>
        <time>2024-05-17T09:58:59.962Z</time>
      </trkpt>
      <trkpt lat="47.8183" lon="5.37312">
        <ele>373</ele>
        <time>2024-05-17T09:59:04.210Z</time>
      </trkpt>
      <trkpt lat="47.81835" lon="5.37309">
        <ele>373</ele>
        <time>2024-05-17T09:59:08.193Z</time>
      </trkpt>
      <trkpt lat="47.8184" lon="5.37301">
        <ele>373</ele>
        <time>2024-05-17T09:59:13.163Z</time>
      </trkpt>
      <trkpt lat="47.81844" lon="5.37296">
        <ele>373</ele>
        <time>2024-05-17T09:59:17.193Z</time>
      </trkpt>
      <trkpt lat="47.81849" lon="5.37288">
        <ele>373</ele>
        <time>2024-05-17T09:59:22.194Z</time>
      </trkpt>
      <trkpt lat="47.81854" lon="5.37281">
        <ele>373</ele>
        <time>2024-05-17T09:59:27.194Z</time>
      </trkpt>
      <trkpt lat="47.81857" lon="5.37271">
        <ele>373</ele>
        <time>2024-05-17T09:59:32.036Z</time>
      </trkpt>
      <trkpt lat="47.81862" lon="5.37265">
        <ele>373</ele>
        <time>2024-05-17T09:59:36.415Z</time>
      </trkpt>
      <trkpt lat="47.81866" lon="5.37259">
        <ele>371</ele>
        <time>2024-05-17T09:59:40.888Z</time>
      </trkpt>
      <trkpt lat="47.8187" lon="5.37252">
        <ele>371</ele>
        <time>2024-05-17T09:59:45.193Z</time>
      </trkpt>
      <trkpt lat="47.81873" lon="5.37246">
        <ele>371</ele>
        <time>2024-05-17T09:59:49.421Z</time>
      </trkpt>
      <trkpt lat="47.81877" lon="5.3724">
        <ele>368</ele>
        <time>2024-05-17T09:59:54.119Z</time>
      </trkpt>
      <trkpt lat="47.81882" lon="5.37232">
        <ele>365</ele>
        <time>2024-05-17T09:59:58.444Z</time>
      </trkpt>
      <trkpt lat="47.81887" lon="5.37227">
        <ele>365</ele>
        <time>2024-05-17T10:00:02.865Z</time>
      </trkpt>
      <trkpt lat="47.81894" lon="5.37227">
        <ele>365</ele>
        <time>2024-05-17T10:00:07.194Z</time>
      </trkpt>
      <trkpt lat="47.819" lon="5.37225">
        <ele>365</ele>
        <time>2024-05-17T10:00:11.945Z</time>
      </trkpt>
      <trkpt lat="47.81906" lon="5.37224">
        <ele>361</ele>
        <time>2024-05-17T10:00:16.125Z</time>
      </trkpt>
      <trkpt lat="47.81911" lon="5.37221">
        <ele>361</ele>
        <time>2024-05-17T10:00:20.381Z</time>
      </trkpt>
      <trkpt lat="47.81918" lon="5.37221">
        <ele>361</ele>
        <time>2024-05-17T10:00:24.785Z</time>
      </trkpt>
      <trkpt lat="47.81924" lon="5.37223">
        <ele>361</ele>
        <time>2024-05-17T10:00:29.145Z</time>
      </trkpt>
      <trkpt lat="47.81929" lon="5.37223">
        <ele>361</ele>
        <time>2024-05-17T10:00:33.194Z</time>
      </trkpt>
      <trkpt lat="47.81936" lon="5.37224">
        <ele>360</ele>
        <time>2024-05-17T10:00:38.001Z</time>
      </trkpt>
      <trkpt lat="47.81942" lon="5.37225">
        <ele>360</ele>
        <time>2024-05-17T10:00:42.466Z</time>
      </trkpt>
      <trkpt lat="47.81948" lon="5.37224">
        <ele>360</ele>
        <time>2024-05-17T10:00:46.885Z</time>
      </trkpt>
      <trkpt lat="47.81953" lon="5.37226">
        <ele>360</ele>
        <time>2024-05-17T10:00:51.247Z</time>
      </trkpt>
      <trkpt lat="47.81962" lon="5.37234">
        <ele>360</ele>
        <time>2024-05-17T10:01:00.194Z</time>
      </trkpt>
      <trkpt lat="47.81968" lon="5.3724">
        <ele>359</ele>
        <time>2024-05-17T10:01:05.194Z</time>
      </trkpt>
      <trkpt lat="47.81967" lon="5.37249">
        <ele>359</ele>
        <time>2024-05-17T10:01:10.194Z</time>
      </trkpt>
      <trkpt lat="47.81969" lon="5.3724">
        <ele>359</ele>
        <time>2024-05-17T10:01:15.194Z</time>
      </trkpt>
      <trkpt lat="47.81972" lon="5.37234">
        <ele>360</ele>
        <time>2024-05-17T10:01:19.197Z</time>
      </trkpt>
      <trkpt lat="47.81976" lon="5.37225">
        <ele>360</ele>
        <time>2024-05-17T10:01:23.660Z</time>
      </trkpt>
      <trkpt lat="47.81983" lon="5.3722">
        <ele>360</ele>
        <time>2024-05-17T10:01:27.686Z</time>
      </trkpt>
      <trkpt lat="47.81987" lon="5.37215">
        <ele>360</ele>
        <time>2024-05-17T10:01:31.896Z</time>
      </trkpt>
      <trkpt lat="47.81993" lon="5.37217">
        <ele>360</ele>
        <time>2024-05-17T10:01:36.011Z</time>
      </trkpt>
      <trkpt lat="47.81998" lon="5.37218">
        <ele>360</ele>
        <time>2024-05-17T10:01:40.072Z</time>
      </trkpt>
      <trkpt lat="47.82004" lon="5.37222">
        <ele>360</ele>
        <time>2024-05-17T10:01:44.194Z</time>
      </trkpt>
      <trkpt lat="47.82011" lon="5.37225">
        <ele>360</ele>
        <time>2024-05-17T10:01:48.838Z</time>
      </trkpt>
      <trkpt lat="47.82016" lon="5.37222">
        <ele>361</ele>
        <time>2024-05-17T10:01:53.193Z</time>
      </trkpt>
      <trkpt lat="47.82019" lon="5.37218">
        <ele>361</ele>
        <time>2024-05-17T10:01:57.592Z</time>
      </trkpt>
      <trkpt lat="47.8202" lon="5.37212">
        <ele>361</ele>
        <time>2024-05-17T10:02:02.194Z</time>
      </trkpt>
      <trkpt lat="47.82021" lon="5.37207">
        <ele>361</ele>
        <time>2024-05-17T10:02:07.194Z</time>
      </trkpt>
      <trkpt lat="47.82021" lon="5.37206">
        <ele>361</ele>
        <time>2024-05-17T10:02:11.997Z</time>
      </trkpt>
      <trkpt lat="47.82022" lon="5.37199">
        <ele>361</ele>
        <time>2024-05-17T10:02:16.194Z</time>
      </trkpt>
      <trkpt lat="47.82025" lon="5.3719">
        <ele>361</ele>
        <time>2024-05-17T10:02:21.193Z</time>
      </trkpt>
      <trkpt lat="47.82028" lon="5.37183">
        <ele>361</ele>
        <time>2024-05-17T10:02:26.194Z</time>
      </trkpt>
      <trkpt lat="47.82029" lon="5.37176">
        <ele>362</ele>
        <time>2024-05-17T10:02:30.450Z</time>
      </trkpt>
      <trkpt lat="47.8203" lon="5.37167">
        <ele>362</ele>
        <time>2024-05-17T10:02:34.630Z</time>
      </trkpt>
      <trkpt lat="47.82033" lon="5.3716">
        <ele>362</ele>
        <time>2024-05-17T10:02:38.659Z</time>
      </trkpt>
      <trkpt lat="47.82036" lon="5.37153">
        <ele>363</ele>
        <time>2024-05-17T10:02:43.112Z</time>
      </trkpt>
      <trkpt lat="47.82039" lon="5.37146">
        <ele>363</ele>
        <time>2024-05-17T10:02:47.194Z</time>
      </trkpt>
      <trkpt lat="47.82043" lon="5.37139">
        <ele>363</ele>
        <time>2024-05-17T10:02:51.817Z</time>
      </trkpt>
      <trkpt lat="47.82046" lon="5.37132">
        <ele>363</ele>
        <time>2024-05-17T10:02:56.194Z</time>
      </trkpt>
      <trkpt lat="47.82051" lon="5.37126">
        <ele>363</ele>
        <time>2024-05-17T10:03:00.750Z</time>
      </trkpt>
      <trkpt lat="47.82054" lon="5.3712">
        <ele>364</ele>
        <time>2024-05-17T10:03:05.299Z</time>
      </trkpt>
      <trkpt lat="47.82057" lon="5.37114">
        <ele>364</ele>
        <time>2024-05-17T10:03:09.779Z</time>
      </trkpt>
      <trkpt lat="47.82061" lon="5.37107">
        <ele>364</ele>
        <time>2024-05-17T10:03:14.192Z</time>
      </trkpt>
      <trkpt lat="47.82064" lon="5.371">
        <ele>364</ele>
        <time>2024-05-17T10:03:19.191Z</time>
      </trkpt>
      <trkpt lat="47.82066" lon="5.37097">
        <ele>365</ele>
        <time>2024-05-17T10:03:23.193Z</time>
      </trkpt>
      <trkpt lat="47.82069" lon="5.37093">
        <ele>365</ele>
        <time>2024-05-17T10:03:27.792Z</time>
      </trkpt>
      <trkpt lat="47.82074" lon="5.37088">
        <ele>367</ele>
        <time>2024-05-17T10:03:32.192Z</time>
      </trkpt>
      <trkpt lat="47.82078" lon="5.37082">
        <ele>367</ele>
        <time>2024-05-17T10:03:36.453Z</time>
      </trkpt>
      <trkpt lat="47.82082" lon="5.37078">
        <ele>367</ele>
        <time>2024-05-17T10:03:40.711Z</time>
      </trkpt>
      <trkpt lat="47.82086" lon="5.37078">
        <ele>367</ele>
        <time>2024-05-17T10:03:44.756Z</time>
      </trkpt>
      <trkpt lat="47.8209" lon="5.37074">
        <ele>367</ele>
        <time>2024-05-17T10:03:48.876Z</time>
      </trkpt>
      <trkpt lat="47.82094" lon="5.37069">
        <ele>367</ele>
        <time>2024-05-17T10:03:53.032Z</time>
      </trkpt>
      <trkpt lat="47.82097" lon="5.37065">
        <ele>368</ele>
        <time>2024-05-17T10:03:57.193Z</time>
      </trkpt>
      <trkpt lat="47.82102" lon="5.37061">
        <ele>368</ele>
        <time>2024-05-17T10:04:01.500Z</time>
      </trkpt>
      <trkpt lat="47.82106" lon="5.37058">
        <ele>368</ele>
        <time>2024-05-17T10:04:05.618Z</time>
      </trkpt>
      <trkpt lat="47.8211" lon="5.37053">
        <ele>368</ele>
        <time>2024-05-17T10:04:10.055Z</time>
      </trkpt>
      <trkpt lat="47.82114" lon="5.37048">
        <ele>368</ele>
        <time>2024-05-17T10:04:14.700Z</time>
      </trkpt>
      <trkpt lat="47.82118" lon="5.37041">
        <ele>368</ele>
        <time>2024-05-17T10:04:19.194Z</time>
      </trkpt>
      <trkpt lat="47.82123" lon="5.37035">
        <ele>368</ele>
        <time>2024-05-17T10:04:23.835Z</time>
      </trkpt>
      <trkpt lat="47.82127" lon="5.37029">
        <ele>369</ele>
        <time>2024-05-17T10:04:28.059Z</time>
      </trkpt>
      <trkpt lat="47.8213" lon="5.37023">
        <ele>369</ele>
        <time>2024-05-17T10:04:32.478Z</time>
      </trkpt>
      <trkpt lat="47.82132" lon="5.37014">
        <ele>369</ele>
        <time>2024-05-17T10:04:37.096Z</time>
      </trkpt>
      <trkpt lat="47.82134" lon="5.37004">
        <ele>369</ele>
        <time>2024-05-17T10:04:42.078Z</time>
      </trkpt>
      <trkpt lat="47.82135" lon="5.36996">
        <ele>369</ele>
        <time>2024-05-17T10:04:46.156Z</time>
      </trkpt>
      <trkpt lat="47.82135" lon="5.36988">
        <ele>369</ele>
        <time>2024-05-17T10:04:50.193Z</time>
      </trkpt>
      <trkpt lat="47.82136" lon="5.36979">
        <ele>369</ele>
        <time>2024-05-17T10:04:54.518Z</time>
      </trkpt>
      <trkpt lat="47.82136" lon="5.36971">
        <ele>369</ele>
        <time>2024-05-17T10:04:58.837Z</time>
      </trkpt>
      <trkpt lat="47.82138" lon="5.36964">
        <ele>369</ele>
        <time>2024-05-17T10:05:03.193Z</time>
      </trkpt>
      <trkpt lat="47.82137" lon="5.36961">
        <ele>369</ele>
        <time>2024-05-17T10:05:08.193Z</time>
      </trkpt>
      <trkpt lat="47.82137" lon="5.3696">
        <ele>369</ele>
        <time>2024-05-17T10:05:12.193Z</time>
      </trkpt>
      <trkpt lat="47.82137" lon="5.36951">
        <ele>369</ele>
        <time>2024-05-17T10:05:16.533Z</time>
      </trkpt>
      <trkpt lat="47.82138" lon="5.36943">
        <ele>369</ele>
        <time>2024-05-17T10:05:20.735Z</time>
      </trkpt>
      <trkpt lat="47.82139" lon="5.36934">
        <ele>369</ele>
        <time>2024-05-17T10:05:25.193Z</time>
      </trkpt>
      <trkpt lat="47.8214" lon="5.36926">
        <ele>369</ele>
        <time>2024-05-17T10:05:29.797Z</time>
      </trkpt>
      <trkpt lat="47.82141" lon="5.36917">
        <ele>369</ele>
        <time>2024-05-17T10:05:34.114Z</time>
      </trkpt>
      <trkpt lat="47.82142" lon="5.36906">
        <ele>369</ele>
        <time>2024-05-17T10:05:39.192Z</time>
      </trkpt>
      <trkpt lat="47.82142" lon="5.36897">
        <ele>369</ele>
        <time>2024-05-17T10:05:43.773Z</time>
      </trkpt>
      <trkpt lat="47.82145" lon="5.36889">
        <ele>369</ele>
        <time>2024-05-17T10:05:48.133Z</time>
      </trkpt>
      <trkpt lat="47.82149" lon="5.3688">
        <ele>369</ele>
        <time>2024-05-17T10:05:53.193Z</time>
      </trkpt>
      <trkpt lat="47.82151" lon="5.36872">
        <ele>370</ele>
        <time>2024-05-17T10:05:57.853Z</time>
      </trkpt>
      <trkpt lat="47.82154" lon="5.36864">
        <ele>372</ele>
        <time>2024-05-17T10:06:03.176Z</time>
      </trkpt>
      <trkpt lat="47.82156" lon="5.36856">
        <ele>372</ele>
        <time>2024-05-17T10:06:07.192Z</time>
      </trkpt>
      <trkpt lat="47.82161" lon="5.3685">
        <ele>372</ele>
        <time>2024-05-17T10:06:11.837Z</time>
      </trkpt>
      <trkpt lat="47.82166" lon="5.36849">
        <ele>372</ele>
        <time>2024-05-17T10:06:15.993Z</time>
      </trkpt>
      <trkpt lat="47.82171" lon="5.36848">
        <ele>372</ele>
        <time>2024-05-17T10:06:20.158Z</time>
      </trkpt>
      <trkpt lat="47.82176" lon="5.36847">
        <ele>372</ele>
        <time>2024-05-17T10:06:24.193Z</time>
      </trkpt>
      <trkpt lat="47.82182" lon="5.36845">
        <ele>374</ele>
        <time>2024-05-17T10:06:29.193Z</time>
      </trkpt>
      <trkpt lat="47.82188" lon="5.36842">
        <ele>374</ele>
        <time>2024-05-17T10:06:33.759Z</time>
      </trkpt>
      <trkpt lat="47.82193" lon="5.36838">
        <ele>374</ele>
        <time>2024-05-17T10:06:38.193Z</time>
      </trkpt>
      <trkpt lat="47.82197" lon="5.36832">
        <ele>374</ele>
        <time>2024-05-17T10:06:43.031Z</time>
      </trkpt>
      <trkpt lat="47.822" lon="5.36822">
        <ele>374</ele>
        <time>2024-05-17T10:06:47.496Z</time>
      </trkpt>
      <trkpt lat="47.82202" lon="5.36814">
        <ele>375</ele>
        <time>2024-05-17T10:06:51.812Z</time>
      </trkpt>
      <trkpt lat="47.82202" lon="5.36805">
        <ele>375</ele>
        <time>2024-05-17T10:06:56.138Z</time>
      </trkpt>
      <trkpt lat="47.822" lon="5.36797">
        <ele>375</ele>
        <time>2024-05-17T10:07:00.193Z</time>
      </trkpt>
      <trkpt lat="47.822" lon="5.3679">
        <ele>374</ele>
        <time>2024-05-17T10:07:04.834Z</time>
      </trkpt>
      <trkpt lat="47.822" lon="5.36782">
        <ele>374</ele>
        <time>2024-05-17T10:07:08.852Z</time>
      </trkpt>
      <trkpt lat="47.822" lon="5.36773">
        <ele>374</ele>
        <time>2024-05-17T10:07:13.117Z</time>
      </trkpt>
      <trkpt lat="47.82202" lon="5.36767">
        <ele>374</ele>
        <time>2024-05-17T10:07:17.461Z</time>
      </trkpt>
      <trkpt lat="47.82201" lon="5.36757">
        <ele>373</ele>
        <time>2024-05-17T10:07:21.899Z</time>
      </trkpt>
      <trkpt lat="47.82201" lon="5.3675">
        <ele>373</ele>
        <time>2024-05-17T10:07:26.193Z</time>
      </trkpt>
      <trkpt lat="47.82201" lon="5.36741">
        <ele>373</ele>
        <time>2024-05-17T10:07:31.036Z</time>
      </trkpt>
      <trkpt lat="47.822" lon="5.36732">
        <ele>372</ele>
        <time>2024-05-17T10:07:35.116Z</time>
      </trkpt>
      <trkpt lat="47.822" lon="5.36724">
        <ele>372</ele>
        <time>2024-05-17T10:07:39.431Z</time>
      </trkpt>
      <trkpt lat="47.82199" lon="5.36714">
        <ele>372</ele>
        <time>2024-05-17T10:07:44.193Z</time>
      </trkpt>
      <trkpt lat="47.82197" lon="5.36707">
        <ele>371</ele>
        <time>2024-05-17T10:07:48.425Z</time>
      </trkpt>
      <trkpt lat="47.82194" lon="5.367">
        <ele>371</ele>
        <time>2024-05-17T10:07:52.572Z</time>
      </trkpt>
      <trkpt lat="47.82194" lon="5.36691">
        <ele>371</ele>
        <time>2024-05-17T10:07:56.855Z</time>
      </trkpt>
      <trkpt lat="47.82192" lon="5.36684">
        <ele>371</ele>
        <time>2024-05-17T10:08:00.916Z</time>
      </trkpt>
      <trkpt lat="47.82191" lon="5.36678">
        <ele>371</ele>
        <time>2024-05-17T10:08:05.192Z</time>
      </trkpt>
      <trkpt lat="47.82191" lon="5.3667">
        <ele>371</ele>
        <time>2024-05-17T10:08:09.636Z</time>
      </trkpt>
      <trkpt lat="47.82191" lon="5.36663">
        <ele>371</ele>
        <time>2024-05-17T10:08:14.193Z</time>
      </trkpt>
      <trkpt lat="47.82191" lon="5.36656">
        <ele>371</ele>
        <time>2024-05-17T10:08:18.192Z</time>
      </trkpt>
      <trkpt lat="47.8219" lon="5.36647">
        <ele>372</ele>
        <time>2024-05-17T10:08:22.733Z</time>
      </trkpt>
      <trkpt lat="47.82189" lon="5.3664">
        <ele>372</ele>
        <time>2024-05-17T10:08:26.854Z</time>
      </trkpt>
      <trkpt lat="47.82189" lon="5.36633">
        <ele>372</ele>
        <time>2024-05-17T10:08:31.192Z</time>
      </trkpt>
      <trkpt lat="47.82189" lon="5.36623">
        <ele>372</ele>
        <time>2024-05-17T10:08:35.976Z</time>
      </trkpt>
      <trkpt lat="47.82188" lon="5.36613">
        <ele>372</ele>
        <time>2024-05-17T10:08:40.097Z</time>
      </trkpt>
      <trkpt lat="47.82187" lon="5.36606">
        <ele>372</ele>
        <time>2024-05-17T10:08:44.135Z</time>
      </trkpt>
      <trkpt lat="47.82187" lon="5.36596">
        <ele>372</ele>
        <time>2024-05-17T10:08:48.536Z</time>
      </trkpt>
      <trkpt lat="47.82187" lon="5.36587">
        <ele>372</ele>
        <time>2024-05-17T10:08:52.912Z</time>
      </trkpt>
      <trkpt lat="47.82186" lon="5.36577">
        <ele>372</ele>
        <time>2024-05-17T10:08:57.076Z</time>
      </trkpt>
      <trkpt lat="47.82186" lon="5.3657">
        <ele>372</ele>
        <time>2024-05-17T10:09:01.385Z</time>
      </trkpt>
      <trkpt lat="47.82186" lon="5.3656">
        <ele>371</ele>
        <time>2024-05-17T10:09:06.193Z</time>
      </trkpt>
      <trkpt lat="47.82184" lon="5.36552">
        <ele>371</ele>
        <time>2024-05-17T10:09:10.438Z</time>
      </trkpt>
      <trkpt lat="47.82183" lon="5.36544">
        <ele>371</ele>
        <time>2024-05-17T10:09:14.874Z</time>
      </trkpt>
      <trkpt lat="47.82183" lon="5.36534">
        <ele>370</ele>
        <time>2024-05-17T10:09:19.193Z</time>
      </trkpt>
      <trkpt lat="47.82181" lon="5.36526">
        <ele>370</ele>
        <time>2024-05-17T10:09:24.192Z</time>
      </trkpt>
      <trkpt lat="47.82182" lon="5.36515">
        <ele>370</ele>
        <time>2024-05-17T10:09:29.056Z</time>
      </trkpt>
      <trkpt lat="47.82182" lon="5.36505">
        <ele>370</ele>
        <time>2024-05-17T10:09:33.192Z</time>
      </trkpt>
      <trkpt lat="47.82181" lon="5.36495">
        <ele>370</ele>
        <time>2024-05-17T10:09:38.193Z</time>
      </trkpt>
      <trkpt lat="47.82181" lon="5.36486">
        <ele>370</ele>
        <time>2024-05-17T10:09:42.836Z</time>
      </trkpt>
      <trkpt lat="47.82181" lon="5.36477">
        <ele>371</ele>
        <time>2024-05-17T10:09:46.854Z</time>
      </trkpt>
      <trkpt lat="47.8218" lon="5.36469">
        <ele>371</ele>
        <time>2024-05-17T10:09:51.436Z</time>
      </trkpt>
      <trkpt lat="47.8218" lon="5.3646">
        <ele>371</ele>
        <time>2024-05-17T10:09:55.737Z</time>
      </trkpt>
      <trkpt lat="47.8218" lon="5.3645">
        <ele>372</ele>
        <time>2024-05-17T10:10:00.193Z</time>
      </trkpt>
      <trkpt lat="47.82179" lon="5.36443">
        <ele>372</ele>
        <time>2024-05-17T10:10:04.618Z</time>
      </trkpt>
      <trkpt lat="47.82178" lon="5.36435">
        <ele>372</ele>
        <time>2024-05-17T10:10:08.757Z</time>
      </trkpt>
      <trkpt lat="47.82178" lon="5.36429">
        <ele>372</ele>
        <time>2024-05-17T10:10:13.014Z</time>
      </trkpt>
      <trkpt lat="47.82175" lon="5.3642">
        <ele>372</ele>
        <time>2024-05-17T10:10:17.416Z</time>
      </trkpt>
      <trkpt lat="47.82172" lon="5.36414">
        <ele>372</ele>
        <time>2024-05-17T10:10:21.837Z</time>
      </trkpt>
      <trkpt lat="47.82168" lon="5.36407">
        <ele>372</ele>
        <time>2024-05-17T10:10:26.112Z</time>
      </trkpt>
      <trkpt lat="47.82166" lon="5.36401">
        <ele>373</ele>
        <time>2024-05-17T10:10:30.497Z</time>
      </trkpt>
      <trkpt lat="47.82163" lon="5.36394">
        <ele>373</ele>
        <time>2024-05-17T10:10:35.018Z</time>
      </trkpt>
      <trkpt lat="47.8216" lon="5.36388">
        <ele>373</ele>
        <time>2024-05-17T10:10:39.192Z</time>
      </trkpt>
      <trkpt lat="47.82158" lon="5.36378">
        <ele>373</ele>
        <time>2024-05-17T10:10:44.193Z</time>
      </trkpt>
      <trkpt lat="47.82154" lon="5.36371">
        <ele>374</ele>
        <time>2024-05-17T10:10:49.192Z</time>
      </trkpt>
      <trkpt lat="47.82151" lon="5.36362">
        <ele>374</ele>
        <time>2024-05-17T10:10:53.952Z</time>
      </trkpt>
      <trkpt lat="47.8215" lon="5.36353">
        <ele>374</ele>
        <time>2024-05-17T10:10:58.193Z</time>
      </trkpt>
      <trkpt lat="47.82147" lon="5.36345">
        <ele>375</ele>
        <time>2024-05-17T10:11:03.193Z</time>
      </trkpt>
      <trkpt lat="47.82143" lon="5.36339">
        <ele>375</ele>
        <time>2024-05-17T10:11:07.497Z</time>
      </trkpt>
      <trkpt lat="47.82139" lon="5.36331">
        <ele>375</ele>
        <time>2024-05-17T10:11:11.856Z</time>
      </trkpt>
      <trkpt lat="47.82138" lon="5.36323">
        <ele>375</ele>
        <time>2024-05-17T10:11:16.193Z</time>
      </trkpt>
      <trkpt lat="47.82136" lon="5.36316">
        <ele>375</ele>
        <time>2024-05-17T10:11:20.995Z</time>
      </trkpt>
      <trkpt lat="47.82131" lon="5.36307">
        <ele>375</ele>
        <time>2024-05-17T10:11:25.193Z</time>
      </trkpt>
      <trkpt lat="47.82128" lon="5.36302">
        <ele>375</ele>
        <time>2024-05-17T10:11:29.715Z</time>
      </trkpt>
      <trkpt lat="47.82124" lon="5.36295">
        <ele>373</ele>
        <time>2024-05-17T10:11:33.997Z</time>
      </trkpt>
      <trkpt lat="47.82121" lon="5.3629">
        <ele>374</ele>
        <time>2024-05-17T10:11:38.192Z</time>
      </trkpt>
      <trkpt lat="47.82117" lon="5.36284">
        <ele>374</ele>
        <time>2024-05-17T10:11:43.118Z</time>
      </trkpt>
      <trkpt lat="47.82113" lon="5.36275">
        <ele>374</ele>
        <time>2024-05-17T10:11:47.879Z</time>
      </trkpt>
      <trkpt lat="47.82109" lon="5.36268">
        <ele>374</ele>
        <time>2024-05-17T10:11:52.077Z</time>
      </trkpt>
      <trkpt lat="47.82107" lon="5.36262">
        <ele>375</ele>
        <time>2024-05-17T10:11:56.407Z</time>
      </trkpt>
      <trkpt lat="47.82103" lon="5.36254">
        <ele>375</ele>
        <time>2024-05-17T10:12:00.918Z</time>
      </trkpt>
      <trkpt lat="47.821" lon="5.36249">
        <ele>375</ele>
        <time>2024-05-17T10:12:05.191Z</time>
      </trkpt>
      <trkpt lat="47.82097" lon="5.36242">
        <ele>373</ele>
        <time>2024-05-17T10:12:09.491Z</time>
      </trkpt>
      <trkpt lat="47.82093" lon="5.36233">
        <ele>374</ele>
        <time>2024-05-17T10:12:14.013Z</time>
      </trkpt>
      <trkpt lat="47.8209" lon="5.36227">
        <ele>374</ele>
        <time>2024-05-17T10:12:18.458Z</time>
      </trkpt>
      <trkpt lat="47.82086" lon="5.3622">
        <ele>374</ele>
        <time>2024-05-17T10:12:22.971Z</time>
      </trkpt>
      <trkpt lat="47.82083" lon="5.36213">
        <ele>374</ele>
        <time>2024-05-17T10:12:27.715Z</time>
      </trkpt>
      <trkpt lat="47.8208" lon="5.36205">
        <ele>374</ele>
        <time>2024-05-17T10:12:31.854Z</time>
      </trkpt>
      <trkpt lat="47.82075" lon="5.36199">
        <ele>374</ele>
        <time>2024-05-17T10:12:36.334Z</time>
      </trkpt>
      <trkpt lat="47.82072" lon="5.36191">
        <ele>374</ele>
        <time>2024-05-17T10:12:40.794Z</time>
      </trkpt>
      <trkpt lat="47.82068" lon="5.36186">
        <ele>374</ele>
        <time>2024-05-17T10:12:45.191Z</time>
      </trkpt>
      <trkpt lat="47.82063" lon="5.3618">
        <ele>374</ele>
        <time>2024-05-17T10:12:49.698Z</time>
      </trkpt>
      <trkpt lat="47.82059" lon="5.36172">
        <ele>374</ele>
        <time>2024-05-17T10:12:54.191Z</time>
      </trkpt>
      <trkpt lat="47.82054" lon="5.36165">
        <ele>374</ele>
        <time>2024-05-17T10:12:59.058Z</time>
      </trkpt>
      <trkpt lat="47.82053" lon="5.36164">
        <ele>374</ele>
        <time>2024-05-17T10:13:00.192Z</time>
      </trkpt>
      <trkpt lat="47.82044" lon="5.36153">
        <ele>374</ele>
        <time>2024-05-17T10:13:09.195Z</time>
      </trkpt>
      <trkpt lat="47.82039" lon="5.36146">
        <ele>375</ele>
        <time>2024-05-17T10:13:13.645Z</time>
      </trkpt>
      <trkpt lat="47.82034" lon="5.36141">
        <ele>375</ele>
        <time>2024-05-17T10:13:17.813Z</time>
      </trkpt>
      <trkpt lat="47.82028" lon="5.36136">
        <ele>375</ele>
        <time>2024-05-17T10:13:22.191Z</time>
      </trkpt>
      <trkpt lat="47.82024" lon="5.36129">
        <ele>375</ele>
        <time>2024-05-17T10:13:27.195Z</time>
      </trkpt>
      <trkpt lat="47.82018" lon="5.36121">
        <ele>375</ele>
        <time>2024-05-17T10:13:32.133Z</time>
      </trkpt>
      <trkpt lat="47.82014" lon="5.36116">
        <ele>375</ele>
        <time>2024-05-17T10:13:36.197Z</time>
      </trkpt>
      <trkpt lat="47.82011" lon="5.36109">
        <ele>376</ele>
        <time>2024-05-17T10:13:40.521Z</time>
      </trkpt>
      <trkpt lat="47.82007" lon="5.36103">
        <ele>376</ele>
        <time>2024-05-17T10:13:44.693Z</time>
      </trkpt>
      <trkpt lat="47.82004" lon="5.36096">
        <ele>376</ele>
        <time>2024-05-17T10:13:48.994Z</time>
      </trkpt>
      <trkpt lat="47.82003" lon="5.36088">
        <ele>376</ele>
        <time>2024-05-17T10:13:53.515Z</time>
      </trkpt>
      <trkpt lat="47.82" lon="5.36077">
        <ele>376</ele>
        <time>2024-05-17T10:13:58.116Z</time>
      </trkpt>
      <trkpt lat="47.81999" lon="5.36068">
        <ele>376</ele>
        <time>2024-05-17T10:14:02.191Z</time>
      </trkpt>
      <trkpt lat="47.81997" lon="5.36059">
        <ele>376</ele>
        <time>2024-05-17T10:14:06.571Z</time>
      </trkpt>
      <trkpt lat="47.81996" lon="5.36051">
        <ele>376</ele>
        <time>2024-05-17T10:14:10.938Z</time>
      </trkpt>
      <trkpt lat="47.81994" lon="5.36043">
        <ele>376</ele>
        <time>2024-05-17T10:14:15.338Z</time>
      </trkpt>
      <trkpt lat="47.81991" lon="5.36034">
        <ele>377</ele>
        <time>2024-05-17T10:14:20.192Z</time>
      </trkpt>
      <trkpt lat="47.81986" lon="5.36028">
        <ele>377</ele>
        <time>2024-05-17T10:14:25.035Z</time>
      </trkpt>
      <trkpt lat="47.81981" lon="5.36022">
        <ele>377</ele>
        <time>2024-05-17T10:14:29.192Z</time>
      </trkpt>
      <trkpt lat="47.81976" lon="5.3602">
        <ele>377</ele>
        <time>2024-05-17T10:14:33.893Z</time>
      </trkpt>
      <trkpt lat="47.8197" lon="5.36018">
        <ele>377</ele>
        <time>2024-05-17T10:14:38.433Z</time>
      </trkpt>
      <trkpt lat="47.81965" lon="5.3602">
        <ele>377</ele>
        <time>2024-05-17T10:14:43.191Z</time>
      </trkpt>
      <trkpt lat="47.81959" lon="5.3602">
        <ele>377</ele>
        <time>2024-05-17T10:14:47.910Z</time>
      </trkpt>
      <trkpt lat="47.81954" lon="5.36022">
        <ele>377</ele>
        <time>2024-05-17T10:14:52.191Z</time>
      </trkpt>
      <trkpt lat="47.81947" lon="5.36022">
        <ele>377</ele>
        <time>2024-05-17T10:14:57.016Z</time>
      </trkpt>
      <trkpt lat="47.8194" lon="5.3602">
        <ele>377</ele>
        <time>2024-05-17T10:15:02.192Z</time>
      </trkpt>
      <trkpt lat="47.81934" lon="5.3602">
        <ele>377</ele>
        <time>2024-05-17T10:15:06.477Z</time>
      </trkpt>
      <trkpt lat="47.81928" lon="5.36018">
        <ele>378</ele>
        <time>2024-05-17T10:15:11.171Z</time>
      </trkpt>
      <trkpt lat="47.81922" lon="5.36013">
        <ele>379</ele>
        <time>2024-05-17T10:15:15.573Z</time>
      </trkpt>
      <trkpt lat="47.81918" lon="5.36007">
        <ele>379</ele>
        <time>2024-05-17T10:15:19.712Z</time>
      </trkpt>
      <trkpt lat="47.81914" lon="5.36">
        <ele>379</ele>
        <time>2024-05-17T10:15:24.072Z</time>
      </trkpt>
      <trkpt lat="47.81911" lon="5.35993">
        <ele>379</ele>
        <time>2024-05-17T10:15:28.192Z</time>
      </trkpt>
      <trkpt lat="47.8191" lon="5.35984">
        <ele>379</ele>
        <time>2024-05-17T10:15:32.672Z</time>
      </trkpt>
      <trkpt lat="47.81908" lon="5.35976">
        <ele>379</ele>
        <time>2024-05-17T10:15:36.955Z</time>
      </trkpt>
      <trkpt lat="47.81906" lon="5.35968">
        <ele>379</ele>
        <time>2024-05-17T10:15:41.633Z</time>
      </trkpt>
      <trkpt lat="47.81904" lon="5.35961">
        <ele>379</ele>
        <time>2024-05-17T10:15:46.113Z</time>
      </trkpt>
      <trkpt lat="47.81904" lon="5.35954">
        <ele>380</ele>
        <time>2024-05-17T10:15:50.192Z</time>
      </trkpt>
      <trkpt lat="47.81903" lon="5.35944">
        <ele>380</ele>
        <time>2024-05-17T10:15:55.216Z</time>
      </trkpt>
      <trkpt lat="47.81901" lon="5.35935">
        <ele>379</ele>
        <time>2024-05-17T10:16:00.192Z</time>
      </trkpt>
      <trkpt lat="47.81901" lon="5.35926">
        <ele>379</ele>
        <time>2024-05-17T10:16:04.710Z</time>
      </trkpt>
      <trkpt lat="47.819" lon="5.35916">
        <ele>379</ele>
        <time>2024-05-17T10:16:09.113Z</time>
      </trkpt>
      <trkpt lat="47.81895" lon="5.35911">
        <ele>379</ele>
        <time>2024-05-17T10:16:13.431Z</time>
      </trkpt>
      <trkpt lat="47.81889" lon="5.35905">
        <ele>379</ele>
        <time>2024-05-17T10:16:17.910Z</time>
      </trkpt>
      <trkpt lat="47.81887" lon="5.35901">
        <ele>380</ele>
        <time>2024-05-17T10:16:22.192Z</time>
      </trkpt>
      <trkpt lat="47.81886" lon="5.35897">
        <ele>380</ele>
        <time>2024-05-17T10:16:30.835Z</time>
      </trkpt>
      <trkpt lat="47.81884" lon="5.35887">
        <ele>380</ele>
        <time>2024-05-17T10:16:35.192Z</time>
      </trkpt>
      <trkpt lat="47.81885" lon="5.35882">
        <ele>380</ele>
        <time>2024-05-17T10:16:40.191Z</time>
      </trkpt>
      <trkpt lat="47.81887" lon="5.35875">
        <ele>380</ele>
        <time>2024-05-17T10:16:44.195Z</time>
      </trkpt>
      <trkpt lat="47.81888" lon="5.35865">
        <ele>380</ele>
        <time>2024-05-17T10:16:49.191Z</time>
      </trkpt>
      <trkpt lat="47.81892" lon="5.35858">
        <ele>380</ele>
        <time>2024-05-17T10:16:54.192Z</time>
      </trkpt>
      <trkpt lat="47.81895" lon="5.35857">
        <ele>380</ele>
        <time>2024-05-17T10:16:59.191Z</time>
      </trkpt>
      <trkpt lat="47.81894" lon="5.35855">
        <ele>380</ele>
        <time>2024-05-17T10:17:04.191Z</time>
      </trkpt>
      <trkpt lat="47.81892" lon="5.35845">
        <ele>382</ele>
        <time>2024-05-17T10:17:08.897Z</time>
      </trkpt>
      <trkpt lat="47.81888" lon="5.35838">
        <ele>382</ele>
        <time>2024-05-17T10:17:13.192Z</time>
      </trkpt>
      <trkpt lat="47.81888" lon="5.35831">
        <ele>382</ele>
        <time>2024-05-17T10:17:17.472Z</time>
      </trkpt>
      <trkpt lat="47.81889" lon="5.35824">
        <ele>382</ele>
        <time>2024-05-17T10:17:22.192Z</time>
      </trkpt>
      <trkpt lat="47.81888" lon="5.35826">
        <ele>382</ele>
        <time>2024-05-17T10:17:26.191Z</time>
      </trkpt>
      <trkpt lat="47.81888" lon="5.3582">
        <ele>382</ele>
        <time>2024-05-17T10:17:31.192Z</time>
      </trkpt>
      <trkpt lat="47.81892" lon="5.35815">
        <ele>382</ele>
        <time>2024-05-17T10:17:35.378Z</time>
      </trkpt>
      <trkpt lat="47.81895" lon="5.35809">
        <ele>382</ele>
        <time>2024-05-17T10:17:40.192Z</time>
      </trkpt>
      <trkpt lat="47.81902" lon="5.35807">
        <ele>382</ele>
        <time>2024-05-17T10:17:44.919Z</time>
      </trkpt>
      <trkpt lat="47.81907" lon="5.35804">
        <ele>384</ele>
        <time>2024-05-17T10:17:49.192Z</time>
      </trkpt>
      <trkpt lat="47.81911" lon="5.35799">
        <ele>384</ele>
        <time>2024-05-17T10:17:53.459Z</time>
      </trkpt>
      <trkpt lat="47.81915" lon="5.35796">
        <ele>384</ele>
        <time>2024-05-17T10:17:57.502Z</time>
      </trkpt>
      <trkpt lat="47.81921" lon="5.35789">
        <ele>385</ele>
        <time>2024-05-17T10:18:02.191Z</time>
      </trkpt>
      <trkpt lat="47.81925" lon="5.35784">
        <ele>385</ele>
        <time>2024-05-17T10:18:06.316Z</time>
      </trkpt>
      <trkpt lat="47.81929" lon="5.35777">
        <ele>385</ele>
        <time>2024-05-17T10:18:10.754Z</time>
      </trkpt>
      <trkpt lat="47.81936" lon="5.35773">
        <ele>388</ele>
        <time>2024-05-17T10:18:15.192Z</time>
      </trkpt>
      <trkpt lat="47.8194" lon="5.35768">
        <ele>388</ele>
        <time>2024-05-17T10:18:19.417Z</time>
      </trkpt>
      <trkpt lat="47.81945" lon="5.35762">
        <ele>387</ele>
        <time>2024-05-17T10:18:23.837Z</time>
      </trkpt>
      <trkpt lat="47.8195" lon="5.35758">
        <ele>387</ele>
        <time>2024-05-17T10:18:27.973Z</time>
      </trkpt>
      <trkpt lat="47.81954" lon="5.35752">
        <ele>387</ele>
        <time>2024-05-17T10:18:32.420Z</time>
      </trkpt>
      <trkpt lat="47.81959" lon="5.35746">
        <ele>390</ele>
        <time>2024-05-17T10:18:37.078Z</time>
      </trkpt>
      <trkpt lat="47.8196" lon="5.35738">
        <ele>390</ele>
        <time>2024-05-17T10:18:41.533Z</time>
      </trkpt>
      <trkpt lat="47.81959" lon="5.3573">
        <ele>389</ele>
        <time>2024-05-17T10:18:46.012Z</time>
      </trkpt>
      <trkpt lat="47.81958" lon="5.35722">
        <ele>387</ele>
        <time>2024-05-17T10:18:50.594Z</time>
      </trkpt>
      <trkpt lat="47.81955" lon="5.35715">
        <ele>387</ele>
        <time>2024-05-17T10:18:55.134Z</time>
      </trkpt>
      <trkpt lat="47.81952" lon="5.35708">
        <ele>386</ele>
        <time>2024-05-17T10:18:59.192Z</time>
      </trkpt>
      <trkpt lat="47.81949" lon="5.357">
        <ele>386</ele>
        <time>2024-05-17T10:19:04.153Z</time>
      </trkpt>
      <trkpt lat="47.81946" lon="5.35694">
        <ele>386</ele>
        <time>2024-05-17T10:19:08.192Z</time>
      </trkpt>
      <trkpt lat="47.81942" lon="5.35686">
        <ele>386</ele>
        <time>2024-05-17T10:19:13.112Z</time>
      </trkpt>
      <trkpt lat="47.81939" lon="5.35678">
        <ele>387</ele>
        <time>2024-05-17T10:19:17.651Z</time>
      </trkpt>
      <trkpt lat="47.81936" lon="5.35672">
        <ele>387</ele>
        <time>2024-05-17T10:19:21.714Z</time>
      </trkpt>
      <trkpt lat="47.81934" lon="5.35664">
        <ele>387</ele>
        <time>2024-05-17T10:19:26.176Z</time>
      </trkpt>
      <trkpt lat="47.8193" lon="5.35657">
        <ele>384</ele>
        <time>2024-05-17T10:19:30.596Z</time>
      </trkpt>
      <trkpt lat="47.81926" lon="5.35649">
        <ele>386</ele>
        <time>2024-05-17T10:19:35.177Z</time>
      </trkpt>
      <trkpt lat="47.81924" lon="5.35642">
        <ele>386</ele>
        <time>2024-05-17T10:19:39.597Z</time>
      </trkpt>
      <trkpt lat="47.81921" lon="5.35634">
        <ele>386</ele>
        <time>2024-05-17T10:19:44.191Z</time>
      </trkpt>
      <trkpt lat="47.81919" lon="5.35626">
        <ele>386</ele>
        <time>2024-05-17T10:19:48.794Z</time>
      </trkpt>
      <trkpt lat="47.81918" lon="5.35617">
        <ele>388</ele>
        <time>2024-05-17T10:19:53.079Z</time>
      </trkpt>
      <trkpt lat="47.81917" lon="5.35608">
        <ele>388</ele>
        <time>2024-05-17T10:19:57.191Z</time>
      </trkpt>
      <trkpt lat="47.81916" lon="5.356">
        <ele>388</ele>
        <time>2024-05-17T10:20:01.893Z</time>
      </trkpt>
      <trkpt lat="47.81916" lon="5.3559">
        <ele>390</ele>
        <time>2024-05-17T10:20:06.492Z</time>
      </trkpt>
      <trkpt lat="47.81915" lon="5.35583">
        <ele>390</ele>
        <time>2024-05-17T10:20:10.980Z</time>
      </trkpt>
      <trkpt lat="47.81915" lon="5.35575">
        <ele>390</ele>
        <time>2024-05-17T10:20:15.031Z</time>
      </trkpt>
      <trkpt lat="47.81912" lon="5.35567">
        <ele>391</ele>
        <time>2024-05-17T10:20:19.191Z</time>
      </trkpt>
      <trkpt lat="47.8191" lon="5.3556">
        <ele>391</ele>
        <time>2024-05-17T10:20:23.718Z</time>
      </trkpt>
      <trkpt lat="47.81907" lon="5.35552">
        <ele>391</ele>
        <time>2024-05-17T10:20:28.112Z</time>
      </trkpt>
      <trkpt lat="47.81907" lon="5.35545">
        <ele>391</ele>
        <time>2024-05-17T10:20:32.191Z</time>
      </trkpt>
      <trkpt lat="47.81905" lon="5.35535">
        <ele>394</ele>
        <time>2024-05-17T10:20:36.773Z</time>
      </trkpt>
      <trkpt lat="47.81902" lon="5.35527">
        <ele>389</ele>
        <time>2024-05-17T10:20:41.133Z</time>
      </trkpt>
      <trkpt lat="47.81898" lon="5.35521">
        <ele>389</ele>
        <time>2024-05-17T10:20:45.450Z</time>
      </trkpt>
      <trkpt lat="47.81895" lon="5.35512">
        <ele>392</ele>
        <time>2024-05-17T10:20:50.107Z</time>
      </trkpt>
      <trkpt lat="47.81893" lon="5.35505">
        <ele>392</ele>
        <time>2024-05-17T10:20:54.191Z</time>
      </trkpt>
      <trkpt lat="47.8189" lon="5.35498">
        <ele>392</ele>
        <time>2024-05-17T10:20:59.007Z</time>
      </trkpt>
      <trkpt lat="47.81886" lon="5.35488">
        <ele>392</ele>
        <time>2024-05-17T10:21:04.034Z</time>
      </trkpt>
      <trkpt lat="47.81885" lon="5.35481">
        <ele>394</ele>
        <time>2024-05-17T10:21:08.191Z</time>
      </trkpt>
      <trkpt lat="47.81883" lon="5.35473">
        <ele>394</ele>
        <time>2024-05-17T10:21:12.774Z</time>
      </trkpt>
      <trkpt lat="47.8188" lon="5.35466">
        <ele>394</ele>
        <time>2024-05-17T10:21:17.152Z</time>
      </trkpt>
      <trkpt lat="47.81878" lon="5.35457">
        <ele>396</ele>
        <time>2024-05-17T10:21:21.190Z</time>
      </trkpt>
      <trkpt lat="47.81876" lon="5.35449">
        <ele>396</ele>
        <time>2024-05-17T10:21:25.752Z</time>
      </trkpt>
      <trkpt lat="47.81873" lon="5.3544">
        <ele>392</ele>
        <time>2024-05-17T10:21:30.191Z</time>
      </trkpt>
      <trkpt lat="47.8187" lon="5.3543">
        <ele>394</ele>
        <time>2024-05-17T10:21:35.191Z</time>
      </trkpt>
      <trkpt lat="47.81867" lon="5.35422">
        <ele>394</ele>
        <time>2024-05-17T10:21:39.949Z</time>
      </trkpt>
      <trkpt lat="47.81866" lon="5.35411">
        <ele>394</ele>
        <time>2024-05-17T10:21:45.097Z</time>
      </trkpt>
      <trkpt lat="47.81864" lon="5.35405">
        <ele>394</ele>
        <time>2024-05-17T10:21:49.471Z</time>
      </trkpt>
      <trkpt lat="47.81861" lon="5.35395">
        <ele>396</ele>
        <time>2024-05-17T10:21:54.211Z</time>
      </trkpt>
      <trkpt lat="47.81859" lon="5.35386">
        <ele>396</ele>
        <time>2024-05-17T10:21:59.191Z</time>
      </trkpt>
      <trkpt lat="47.81857" lon="5.35376">
        <ele>396</ele>
        <time>2024-05-17T10:22:03.909Z</time>
      </trkpt>
      <trkpt lat="47.81854" lon="5.35367">
        <ele>398</ele>
        <time>2024-05-17T10:22:08.115Z</time>
      </trkpt>
      <trkpt lat="47.81852" lon="5.35359">
        <ele>398</ele>
        <time>2024-05-17T10:22:12.194Z</time>
      </trkpt>
      <trkpt lat="47.8185" lon="5.35352">
        <ele>398</ele>
        <time>2024-05-17T10:22:16.190Z</time>
      </trkpt>
      <trkpt lat="47.81848" lon="5.35344">
        <ele>399</ele>
        <time>2024-05-17T10:22:21.066Z</time>
      </trkpt>
      <trkpt lat="47.81845" lon="5.35337">
        <ele>394</ele>
        <time>2024-05-17T10:22:25.191Z</time>
      </trkpt>
      <trkpt lat="47.81843" lon="5.35329">
        <ele>394</ele>
        <time>2024-05-17T10:22:29.770Z</time>
      </trkpt>
      <trkpt lat="47.81841" lon="5.35322">
        <ele>394</ele>
        <time>2024-05-17T10:22:34.190Z</time>
      </trkpt>
      <trkpt lat="47.81839" lon="5.35316">
        <ele>397</ele>
        <time>2024-05-17T10:22:38.294Z</time>
      </trkpt>
      <trkpt lat="47.81836" lon="5.35308">
        <ele>397</ele>
        <time>2024-05-17T10:22:42.935Z</time>
      </trkpt>
      <trkpt lat="47.81834" lon="5.35299">
        <ele>397</ele>
        <time>2024-05-17T10:22:48.012Z</time>
      </trkpt>
      <trkpt lat="47.81831" lon="5.35291">
        <ele>400</ele>
        <time>2024-05-17T10:22:52.514Z</time>
      </trkpt>
      <trkpt lat="47.81829" lon="5.35284">
        <ele>400</ele>
        <time>2024-05-17T10:22:56.672Z</time>
      </trkpt>
      <trkpt lat="47.81826" lon="5.35277">
        <ele>400</ele>
        <time>2024-05-17T10:23:01.134Z</time>
      </trkpt>
      <trkpt lat="47.81824" lon="5.35269">
        <ele>400</ele>
        <time>2024-05-17T10:23:05.869Z</time>
      </trkpt>
      <trkpt lat="47.81823" lon="5.35261">
        <ele>402</ele>
        <time>2024-05-17T10:23:10.191Z</time>
      </trkpt>
      <trkpt lat="47.81821" lon="5.35252">
        <ele>402</ele>
        <time>2024-05-17T10:23:14.692Z</time>
      </trkpt>
      <trkpt lat="47.8182" lon="5.35245">
        <ele>402</ele>
        <time>2024-05-17T10:23:19.191Z</time>
      </trkpt>
      <trkpt lat="47.81818" lon="5.35235">
        <ele>399</ele>
        <time>2024-05-17T10:23:23.932Z</time>
      </trkpt>
      <trkpt lat="47.81818" lon="5.35227">
        <ele>399</ele>
        <time>2024-05-17T10:23:28.427Z</time>
      </trkpt>
      <trkpt lat="47.81817" lon="5.35218">
        <ele>399</ele>
        <time>2024-05-17T10:23:32.954Z</time>
      </trkpt>
      <trkpt lat="47.81816" lon="5.35211">
        <ele>399</ele>
        <time>2024-05-17T10:23:37.439Z</time>
      </trkpt>
      <trkpt lat="47.81814" lon="5.35201">
        <ele>401</ele>
        <time>2024-05-17T10:23:42.115Z</time>
      </trkpt>
      <trkpt lat="47.81813" lon="5.35194">
        <ele>401</ele>
        <time>2024-05-17T10:23:46.191Z</time>
      </trkpt>
      <trkpt lat="47.81811" lon="5.35184">
        <ele>401</ele>
        <time>2024-05-17T10:23:50.689Z</time>
      </trkpt>
      <trkpt lat="47.81808" lon="5.35178">
        <ele>405</ele>
        <time>2024-05-17T10:23:55.170Z</time>
      </trkpt>
      <trkpt lat="47.81807" lon="5.35167">
        <ele>405</ele>
        <time>2024-05-17T10:23:59.674Z</time>
      </trkpt>
      <trkpt lat="47.81806" lon="5.35158">
        <ele>405</ele>
        <time>2024-05-17T10:24:04.034Z</time>
      </trkpt>
      <trkpt lat="47.81804" lon="5.35151">
        <ele>408</ele>
        <time>2024-05-17T10:24:08.191Z</time>
      </trkpt>
      <trkpt lat="47.81802" lon="5.35144">
        <ele>408</ele>
        <time>2024-05-17T10:24:12.514Z</time>
      </trkpt>
      <trkpt lat="47.81801" lon="5.35136">
        <ele>408</ele>
        <time>2024-05-17T10:24:17.113Z</time>
      </trkpt>
      <trkpt lat="47.818" lon="5.35128">
        <ele>408</ele>
        <time>2024-05-17T10:24:21.190Z</time>
      </trkpt>
      <trkpt lat="47.81797" lon="5.3512">
        <ele>410</ele>
        <time>2024-05-17T10:24:26.191Z</time>
      </trkpt>
      <trkpt lat="47.81795" lon="5.35112">
        <ele>410</ele>
        <time>2024-05-17T10:24:31.191Z</time>
      </trkpt>
      <trkpt lat="47.81791" lon="5.35105">
        <ele>406</ele>
        <time>2024-05-17T10:24:36.089Z</time>
      </trkpt>
      <trkpt lat="47.8179" lon="5.35097">
        <ele>409</ele>
        <time>2024-05-17T10:24:40.191Z</time>
      </trkpt>
      <trkpt lat="47.81786" lon="5.35091">
        <ele>409</ele>
        <time>2024-05-17T10:24:44.628Z</time>
      </trkpt>
      <trkpt lat="47.81784" lon="5.35085">
        <ele>409</ele>
        <time>2024-05-17T10:24:49.193Z</time>
      </trkpt>
      <trkpt lat="47.81782" lon="5.35083">
        <ele>409</ele>
        <time>2024-05-17T10:25:16.151Z</time>
      </trkpt>
      <trkpt lat="47.81788" lon="5.35086">
        <ele>409</ele>
        <time>2024-05-17T10:25:21.072Z</time>
      </trkpt>
      <trkpt lat="47.81794" lon="5.35084">
        <ele>413</ele>
        <time>2024-05-17T10:25:26.190Z</time>
      </trkpt>
      <trkpt lat="47.81797" lon="5.35079">
        <ele>413</ele>
        <time>2024-05-17T10:25:30.669Z</time>
      </trkpt>
      <trkpt lat="47.81801" lon="5.35075">
        <ele>413</ele>
        <time>2024-05-17T10:25:35.191Z</time>
      </trkpt>
      <trkpt lat="47.81805" lon="5.35073">
        <ele>413</ele>
        <time>2024-05-17T10:25:40.190Z</time>
      </trkpt>
      <trkpt lat="47.81806" lon="5.35068">
        <ele>416</ele>
        <time>2024-05-17T10:25:45.191Z</time>
      </trkpt>
      <trkpt lat="47.81809" lon="5.35061">
        <ele>416</ele>
        <time>2024-05-17T10:25:50.030Z</time>
      </trkpt>
      <trkpt lat="47.81812" lon="5.35059">
        <ele>416</ele>
        <time>2024-05-17T10:25:54.313Z</time>
      </trkpt>
      <trkpt lat="47.81813" lon="5.35058">
        <ele>416</ele>
        <time>2024-05-17T10:25:58.191Z</time>
      </trkpt>
      <trkpt lat="47.81818" lon="5.35056">
        <ele>416</ele>
        <time>2024-05-17T10:26:07.190Z</time>
      </trkpt>
      <trkpt lat="47.81822" lon="5.35054">
        <ele>420</ele>
        <time>2024-05-17T10:26:11.783Z</time>
      </trkpt>
      <trkpt lat="47.81823" lon="5.3505">
        <ele>420</ele>
        <time>2024-05-17T10:26:16.198Z</time>
      </trkpt>
      <trkpt lat="47.8183" lon="5.3504">
        <ele>424</ele>
        <time>2024-05-17T10:27:01.190Z</time>
      </trkpt>
      <trkpt lat="47.81831" lon="5.35038">
        <ele>424</ele>
        <time>2024-05-17T10:27:05.815Z</time>
      </trkpt>
      <trkpt lat="47.81831" lon="5.35038">
        <ele>424</ele>
        <time>2024-05-17T10:27:10.191Z</time>
      </trkpt>
      <trkpt lat="47.81831" lon="5.35038">
        <ele>424</ele>
        <time>2024-05-17T10:27:15.148Z</time>
      </trkpt>
      <trkpt lat="47.81833" lon="5.35039">
        <ele>424</ele>
        <time>2024-05-17T10:27:19.594Z</time>
      </trkpt>
      <trkpt lat="47.81837" lon="5.35041">
        <ele>424</ele>
        <time>2024-05-17T10:27:33.191Z</time>
      </trkpt>
      <trkpt lat="47.81838" lon="5.35041">
        <ele>424</ele>
        <time>2024-05-17T10:27:38.191Z</time>
      </trkpt>
      <trkpt lat="47.81839" lon="5.35039">
        <ele>424</ele>
        <time>2024-05-17T10:27:43.191Z</time>
      </trkpt>
      <trkpt lat="47.81841" lon="5.3504">
        <ele>424</ele>
        <time>2024-05-17T10:27:48.191Z</time>
      </trkpt>
      <trkpt lat="47.81843" lon="5.35031">
        <ele>424</ele>
        <time>2024-05-17T10:27:52.673Z</time>
      </trkpt>
      <trkpt lat="47.81846" lon="5.35029">
        <ele>424</ele>
        <time>2024-05-17T10:27:57.191Z</time>
      </trkpt>
      <trkpt lat="47.81848" lon="5.35023">
        <ele>431</ele>
        <time>2024-05-17T10:28:02.191Z</time>
      </trkpt>
      <trkpt lat="47.81848" lon="5.35017">
        <ele>431</ele>
        <time>2024-05-17T10:28:06.710Z</time>
      </trkpt>
      <trkpt lat="47.81845" lon="5.3501">
        <ele>431</ele>
        <time>2024-05-17T10:28:11.191Z</time>
      </trkpt>
      <trkpt lat="47.81845" lon="5.35011">
        <ele>431</ele>
        <time>2024-05-17T10:30:34.190Z</time>
      </trkpt>
      <trkpt lat="47.81846" lon="5.35009">
        <ele>431</ele>
        <time>2024-05-17T10:30:39.190Z</time>
      </trkpt>
      <trkpt lat="47.81846" lon="5.35009">
        <ele>431</ele>
        <time>2024-05-17T10:30:43.974Z</time>
      </trkpt>
      <trkpt lat="47.81847" lon="5.3501">
        <ele>431</ele>
        <time>2024-05-17T10:30:48.190Z</time>
      </trkpt>
      <trkpt lat="47.81848" lon="5.35011">
        <ele>435</ele>
        <time>2024-05-17T10:30:52.190Z</time>
      </trkpt>
      <trkpt lat="47.81851" lon="5.35002">
        <ele>435</ele>
        <time>2024-05-17T10:31:24.189Z</time>
      </trkpt>
      <trkpt lat="47.8185" lon="5.35002">
        <ele>435</ele>
        <time>2024-05-17T10:31:29.189Z</time>
      </trkpt>
      <trkpt lat="47.81849" lon="5.34999">
        <ele>435</ele>
        <time>2024-05-17T10:31:33.875Z</time>
      </trkpt>
      <trkpt lat="47.81847" lon="5.34989">
        <ele>431</ele>
        <time>2024-05-17T10:31:38.189Z</time>
      </trkpt>
      <trkpt lat="47.81844" lon="5.34986">
        <ele>436</ele>
        <time>2024-05-17T10:31:42.190Z</time>
      </trkpt>
      <trkpt lat="47.81844" lon="5.34987">
        <ele>431</ele>
        <time>2024-05-17T10:31:47.032Z</time>
      </trkpt>
      <trkpt lat="47.81844" lon="5.34986">
        <ele>436</ele>
        <time>2024-05-17T10:31:51.189Z</time>
      </trkpt>
      <trkpt lat="47.81842" lon="5.3498">
        <ele>436</ele>
        <time>2024-05-17T10:31:55.335Z</time>
      </trkpt>
      <trkpt lat="47.81841" lon="5.34973">
        <ele>436</ele>
        <time>2024-05-17T10:31:59.430Z</time>
      </trkpt>
      <trkpt lat="47.81839" lon="5.34968">
        <ele>436</ele>
        <time>2024-05-17T10:32:04.096Z</time>
      </trkpt>
      <trkpt lat="47.81838" lon="5.34963">
        <ele>436</ele>
        <time>2024-05-17T10:32:08.288Z</time>
      </trkpt>
      <trkpt lat="47.81838" lon="5.34958">
        <ele>439</ele>
        <time>2024-05-17T10:32:12.647Z</time>
      </trkpt>
      <trkpt lat="47.81839" lon="5.34952">
        <ele>439</ele>
        <time>2024-05-17T10:32:17.190Z</time>
      </trkpt>
      <trkpt lat="47.8184" lon="5.34948">
        <ele>439</ele>
        <time>2024-05-17T10:32:54.190Z</time>
      </trkpt>
      <trkpt lat="47.81838" lon="5.34948">
        <ele>439</ele>
        <time>2024-05-17T10:32:58.709Z</time>
      </trkpt>
      <trkpt lat="47.81832" lon="5.34947">
        <ele>439</ele>
        <time>2024-05-17T10:33:03.196Z</time>
      </trkpt>
      <trkpt lat="47.81827" lon="5.34941">
        <ele>439</ele>
        <time>2024-05-17T10:33:07.418Z</time>
      </trkpt>
      <trkpt lat="47.81824" lon="5.34937">
        <ele>439</ele>
        <time>2024-05-17T10:33:11.915Z</time>
      </trkpt>
      <trkpt lat="47.81825" lon="5.34937">
        <ele>439</ele>
        <time>2024-05-17T10:34:34.190Z</time>
      </trkpt>
      <trkpt lat="47.81826" lon="5.34936">
        <ele>439</ele>
        <time>2024-05-17T10:34:37.190Z</time>
      </trkpt>
      <trkpt lat="47.81827" lon="5.34937">
        <ele>439</ele>
        <time>2024-05-17T10:34:46.190Z</time>
      </trkpt>
      <trkpt lat="47.81831" lon="5.34934">
        <ele>439</ele>
        <time>2024-05-17T10:34:51.040Z</time>
      </trkpt>
      <trkpt lat="47.81832" lon="5.34934">
        <ele>439</ele>
        <time>2024-05-17T10:34:55.189Z</time>
      </trkpt>
      <trkpt lat="47.81826" lon="5.34936">
        <ele>439</ele>
        <time>2024-05-17T10:35:26.190Z</time>
      </trkpt>
      <trkpt lat="47.81825" lon="5.34937">
        <ele>439</ele>
        <time>2024-05-17T10:35:31.190Z</time>
      </trkpt>
      <trkpt lat="47.81824" lon="5.34938">
        <ele>439</ele>
        <time>2024-05-17T10:35:36.189Z</time>
      </trkpt>
      <trkpt lat="47.81824" lon="5.34939">
        <ele>439</ele>
        <time>2024-05-17T10:35:41.188Z</time>
      </trkpt>
      <trkpt lat="47.81823" lon="5.34941">
        <ele>439</ele>
        <time>2024-05-17T10:35:46.188Z</time>
      </trkpt>
      <trkpt lat="47.81824" lon="5.34937">
        <ele>439</ele>
        <time>2024-05-17T10:36:00.189Z</time>
      </trkpt>
      <trkpt lat="47.81825" lon="5.34939">
        <ele>439</ele>
        <time>2024-05-17T10:36:05.189Z</time>
      </trkpt>
      <trkpt lat="47.81828" lon="5.34938">
        <ele>439</ele>
        <time>2024-05-17T10:36:09.959Z</time>
      </trkpt>
      <trkpt lat="47.81831" lon="5.34938">
        <ele>439</ele>
        <time>2024-05-17T10:36:14.189Z</time>
      </trkpt>
      <trkpt lat="47.81837" lon="5.34937">
        <ele>439</ele>
        <time>2024-05-17T10:36:19.048Z</time>
      </trkpt>
      <trkpt lat="47.81841" lon="5.34939">
        <ele>439</ele>
        <time>2024-05-17T10:36:28.189Z</time>
      </trkpt>
      <trkpt lat="47.81843" lon="5.34938">
        <ele>439</ele>
        <time>2024-05-17T10:36:32.640Z</time>
      </trkpt>
      <trkpt lat="47.81845" lon="5.34937">
        <ele>439</ele>
        <time>2024-05-17T10:36:37.058Z</time>
      </trkpt>
      <trkpt lat="47.81846" lon="5.34936">
        <ele>439</ele>
        <time>2024-05-17T10:36:41.189Z</time>
      </trkpt>
      <trkpt lat="47.81851" lon="5.34935">
        <ele>441</ele>
        <time>2024-05-17T10:36:46.212Z</time>
      </trkpt>
      <trkpt lat="47.81852" lon="5.34934">
        <ele>441</ele>
        <time>2024-05-17T10:36:50.830Z</time>
      </trkpt>
      <trkpt lat="47.81854" lon="5.34935">
        <ele>441</ele>
        <time>2024-05-17T10:36:55.188Z</time>
      </trkpt>
      <trkpt lat="47.81856" lon="5.34937">
        <ele>441</ele>
        <time>2024-05-17T10:37:00.188Z</time>
      </trkpt>
      <trkpt lat="47.8186" lon="5.34936">
        <ele>441</ele>
        <time>2024-05-17T10:37:04.813Z</time>
      </trkpt>
      <trkpt lat="47.81864" lon="5.34934">
        <ele>441</ele>
        <time>2024-05-17T10:37:09.189Z</time>
      </trkpt>
      <trkpt lat="47.81872" lon="5.34944">
        <ele>441</ele>
        <time>2024-05-17T10:38:04.189Z</time>
      </trkpt>
      <trkpt lat="47.81874" lon="5.34947">
        <ele>441</ele>
        <time>2024-05-17T10:38:08.827Z</time>
      </trkpt>
      <trkpt lat="47.81879" lon="5.34952">
        <ele>440</ele>
        <time>2024-05-17T10:38:12.914Z</time>
      </trkpt>
      <trkpt lat="47.81883" lon="5.34955">
        <ele>440</ele>
        <time>2024-05-17T10:38:17.054Z</time>
      </trkpt>
      <trkpt lat="47.81887" lon="5.34956">
        <ele>440</ele>
        <time>2024-05-17T10:38:21.189Z</time>
      </trkpt>
      <trkpt lat="47.8189" lon="5.3496">
        <ele>440</ele>
        <time>2024-05-17T10:38:26.030Z</time>
      </trkpt>
      <trkpt lat="47.81895" lon="5.34961">
        <ele>440</ele>
        <time>2024-05-17T10:38:30.097Z</time>
      </trkpt>
      <trkpt lat="47.81899" lon="5.34965">
        <ele>440</ele>
        <time>2024-05-17T10:38:35.033Z</time>
      </trkpt>
      <trkpt lat="47.81903" lon="5.34969">
        <ele>444</ele>
        <time>2024-05-17T10:38:39.189Z</time>
      </trkpt>
      <trkpt lat="47.81906" lon="5.34977">
        <ele>444</ele>
        <time>2024-05-17T10:38:43.772Z</time>
      </trkpt>
      <trkpt lat="47.81908" lon="5.3498">
        <ele>444</ele>
        <time>2024-05-17T10:38:47.833Z</time>
      </trkpt>
      <trkpt lat="47.81912" lon="5.34978">
        <ele>444</ele>
        <time>2024-05-17T10:38:52.134Z</time>
      </trkpt>
      <trkpt lat="47.81914" lon="5.34979">
        <ele>444</ele>
        <time>2024-05-17T10:38:56.189Z</time>
      </trkpt>
      <trkpt lat="47.81917" lon="5.34977">
        <ele>444</ele>
        <time>2024-05-17T10:39:01.189Z</time>
      </trkpt>
      <trkpt lat="47.81918" lon="5.34976">
        <ele>444</ele>
        <time>2024-05-17T10:39:06.189Z</time>
      </trkpt>
      <trkpt lat="47.81921" lon="5.34972">
        <ele>444</ele>
        <time>2024-05-17T10:39:10.607Z</time>
      </trkpt>
      <trkpt lat="47.81924" lon="5.34966">
        <ele>444</ele>
        <time>2024-05-17T10:39:15.189Z</time>
      </trkpt>
      <trkpt lat="47.81926" lon="5.34959">
        <ele>444</ele>
        <time>2024-05-17T10:39:20.189Z</time>
      </trkpt>
      <trkpt lat="47.81933" lon="5.34947">
        <ele>448</ele>
        <time>2024-05-17T10:39:48.127Z</time>
      </trkpt>
      <trkpt lat="47.81936" lon="5.34946">
        <ele>448</ele>
        <time>2024-05-17T10:39:52.188Z</time>
      </trkpt>
      <trkpt lat="47.81937" lon="5.3494">
        <ele>448</ele>
        <time>2024-05-17T10:39:57.094Z</time>
      </trkpt>
      <trkpt lat="47.81934" lon="5.34935">
        <ele>448</ele>
        <time>2024-05-17T10:40:01.189Z</time>
      </trkpt>
      <trkpt lat="47.81933" lon="5.34933">
        <ele>448</ele>
        <time>2024-05-17T10:40:06.189Z</time>
      </trkpt>
      <trkpt lat="47.81933" lon="5.34934">
        <ele>448</ele>
        <time>2024-05-17T10:40:16.189Z</time>
      </trkpt>
      <trkpt lat="47.81933" lon="5.34934">
        <ele>448</ele>
        <time>2024-05-17T10:40:21.189Z</time>
      </trkpt>
      <trkpt lat="47.81929" lon="5.34933">
        <ele>443</ele>
        <time>2024-05-17T10:40:26.189Z</time>
      </trkpt>
      <trkpt lat="47.81925" lon="5.34933">
        <ele>443</ele>
        <time>2024-05-17T10:40:30.671Z</time>
      </trkpt>
      <trkpt lat="47.8192" lon="5.34939">
        <ele>443</ele>
        <time>2024-05-17T10:40:35.134Z</time>
      </trkpt>
      <trkpt lat="47.81915" lon="5.3495">
        <ele>443</ele>
        <time>2024-05-17T10:40:54.189Z</time>
      </trkpt>
      <trkpt lat="47.81915" lon="5.34951">
        <ele>443</ele>
        <time>2024-05-17T10:40:59.188Z</time>
      </trkpt>
      <trkpt lat="47.81912" lon="5.34957">
        <ele>443</ele>
        <time>2024-05-17T10:41:03.829Z</time>
      </trkpt>
      <trkpt lat="47.81908" lon="5.34963">
        <ele>444</ele>
        <time>2024-05-17T10:41:07.934Z</time>
      </trkpt>
      <trkpt lat="47.81903" lon="5.34967">
        <ele>444</ele>
        <time>2024-05-17T10:41:12.447Z</time>
      </trkpt>
      <trkpt lat="47.81897" lon="5.34967">
        <ele>440</ele>
        <time>2024-05-17T10:41:16.850Z</time>
      </trkpt>
      <trkpt lat="47.81892" lon="5.34961">
        <ele>440</ele>
        <time>2024-05-17T10:41:21.014Z</time>
      </trkpt>
      <trkpt lat="47.81888" lon="5.34956">
        <ele>440</ele>
        <time>2024-05-17T10:41:25.189Z</time>
      </trkpt>
      <trkpt lat="47.81882" lon="5.34951">
        <ele>440</ele>
        <time>2024-05-17T10:41:30.189Z</time>
      </trkpt>
      <trkpt lat="47.81877" lon="5.34945">
        <ele>440</ele>
        <time>2024-05-17T10:41:34.828Z</time>
      </trkpt>
      <trkpt lat="47.81871" lon="5.34941">
        <ele>441</ele>
        <time>2024-05-17T10:41:39.189Z</time>
      </trkpt>
      <trkpt lat="47.81867" lon="5.34937">
        <ele>441</ele>
        <time>2024-05-17T10:41:43.498Z</time>
      </trkpt>
      <trkpt lat="47.81862" lon="5.34932">
        <ele>441</ele>
        <time>2024-05-17T10:41:48.189Z</time>
      </trkpt>
      <trkpt lat="47.81858" lon="5.34924">
        <ele>443</ele>
        <time>2024-05-17T10:41:53.189Z</time>
      </trkpt>
      <trkpt lat="47.81853" lon="5.3492">
        <ele>443</ele>
        <time>2024-05-17T10:41:57.448Z</time>
      </trkpt>
      <trkpt lat="47.8185" lon="5.34913">
        <ele>443</ele>
        <time>2024-05-17T10:42:01.748Z</time>
      </trkpt>
      <trkpt lat="47.81848" lon="5.34906">
        <ele>443</ele>
        <time>2024-05-17T10:42:06.152Z</time>
      </trkpt>
      <trkpt lat="47.81842" lon="5.349">
        <ele>444</ele>
        <time>2024-05-17T10:42:11.189Z</time>
      </trkpt>
      <trkpt lat="47.81839" lon="5.34893">
        <ele>444</ele>
        <time>2024-05-17T10:42:15.827Z</time>
      </trkpt>
      <trkpt lat="47.81836" lon="5.34886">
        <ele>444</ele>
        <time>2024-05-17T10:42:20.367Z</time>
      </trkpt>
      <trkpt lat="47.81834" lon="5.34878">
        <ele>444</ele>
        <time>2024-05-17T10:42:24.975Z</time>
      </trkpt>
      <trkpt lat="47.81831" lon="5.34873">
        <ele>447</ele>
        <time>2024-05-17T10:42:29.189Z</time>
      </trkpt>
      <trkpt lat="47.81827" lon="5.34868">
        <ele>447</ele>
        <time>2024-05-17T10:42:33.830Z</time>
      </trkpt>
      <trkpt lat="47.81823" lon="5.34863">
        <ele>447</ele>
        <time>2024-05-17T10:42:38.188Z</time>
      </trkpt>
      <trkpt lat="47.81822" lon="5.34857">
        <ele>447</ele>
        <time>2024-05-17T10:42:43.055Z</time>
      </trkpt>
      <trkpt lat="47.8182" lon="5.34853">
        <ele>447</ele>
        <time>2024-05-17T10:42:56.195Z</time>
      </trkpt>
      <trkpt lat="47.81817" lon="5.34852">
        <ele>446</ele>
        <time>2024-05-17T10:43:00.572Z</time>
      </trkpt>
      <trkpt lat="47.81812" lon="5.34844">
        <ele>447</ele>
        <time>2024-05-17T10:43:05.154Z</time>
      </trkpt>
      <trkpt lat="47.81807" lon="5.34838">
        <ele>447</ele>
        <time>2024-05-17T10:43:10.188Z</time>
      </trkpt>
      <trkpt lat="47.81803" lon="5.34834">
        <ele>447</ele>
        <time>2024-05-17T10:43:14.405Z</time>
      </trkpt>
      <trkpt lat="47.818" lon="5.34828">
        <ele>447</ele>
        <time>2024-05-17T10:43:18.926Z</time>
      </trkpt>
      <trkpt lat="47.81796" lon="5.34822">
        <ele>447</ele>
        <time>2024-05-17T10:43:23.133Z</time>
      </trkpt>
      <trkpt lat="47.81792" lon="5.34817">
        <ele>447</ele>
        <time>2024-05-17T10:43:27.188Z</time>
      </trkpt>
      <trkpt lat="47.81788" lon="5.3481">
        <ele>442</ele>
        <time>2024-05-17T10:43:31.587Z</time>
      </trkpt>
      <trkpt lat="47.81781" lon="5.34809">
        <ele>442</ele>
        <time>2024-05-17T10:43:36.050Z</time>
      </trkpt>
      <trkpt lat="47.81776" lon="5.34815">
        <ele>442</ele>
        <time>2024-05-17T10:43:41.032Z</time>
      </trkpt>
      <trkpt lat="47.81773" lon="5.34821">
        <ele>444</ele>
        <time>2024-05-17T10:43:45.444Z</time>
      </trkpt>
      <trkpt lat="47.81767" lon="5.34824">
        <ele>444</ele>
        <time>2024-05-17T10:43:49.770Z</time>
      </trkpt>
      <trkpt lat="47.81761" lon="5.34825">
        <ele>442</ele>
        <time>2024-05-17T10:43:54.053Z</time>
      </trkpt>
      <trkpt lat="47.81755" lon="5.34825">
        <ele>442</ele>
        <time>2024-05-17T10:43:58.427Z</time>
      </trkpt>
      <trkpt lat="47.8175" lon="5.34824">
        <ele>442</ele>
        <time>2024-05-17T10:44:02.688Z</time>
      </trkpt>
      <trkpt lat="47.81745" lon="5.3482">
        <ele>442</ele>
        <time>2024-05-17T10:44:07.188Z</time>
      </trkpt>
      <trkpt lat="47.8174" lon="5.34817">
        <ele>440</ele>
        <time>2024-05-17T10:44:11.419Z</time>
      </trkpt>
      <trkpt lat="47.81735" lon="5.34814">
        <ele>442</ele>
        <time>2024-05-17T10:44:16.188Z</time>
      </trkpt>
      <trkpt lat="47.81728" lon="5.3481">
        <ele>442</ele>
        <time>2024-05-17T10:44:20.734Z</time>
      </trkpt>
      <trkpt lat="47.81724" lon="5.34813">
        <ele>442</ele>
        <time>2024-05-17T10:44:25.188Z</time>
      </trkpt>
      <trkpt lat="47.81721" lon="5.3481">
        <ele>442</ele>
        <time>2024-05-17T10:44:29.633Z</time>
      </trkpt>
      <trkpt lat="47.81717" lon="5.34807">
        <ele>442</ele>
        <time>2024-05-17T10:44:34.188Z</time>
      </trkpt>
      <trkpt lat="47.81713" lon="5.34804">
        <ele>442</ele>
        <time>2024-05-17T10:44:38.187Z</time>
      </trkpt>
      <trkpt lat="47.81709" lon="5.34799">
        <ele>442</ele>
        <time>2024-05-17T10:44:42.730Z</time>
      </trkpt>
      <trkpt lat="47.81705" lon="5.34798">
        <ele>443</ele>
        <time>2024-05-17T10:44:47.192Z</time>
      </trkpt>
      <trkpt lat="47.81699" lon="5.34795">
        <ele>443</ele>
        <time>2024-05-17T10:44:52.188Z</time>
      </trkpt>
      <trkpt lat="47.81695" lon="5.34791">
        <ele>442</ele>
        <time>2024-05-17T10:44:56.347Z</time>
      </trkpt>
      <trkpt lat="47.81691" lon="5.34787">
        <ele>442</ele>
        <time>2024-05-17T10:45:01.188Z</time>
      </trkpt>
      <trkpt lat="47.8169" lon="5.34786">
        <ele>442</ele>
        <time>2024-05-17T10:45:31.187Z</time>
      </trkpt>
      <trkpt lat="47.8169" lon="5.34787">
        <ele>442</ele>
        <time>2024-05-17T10:45:36.188Z</time>
      </trkpt>
      <trkpt lat="47.81687" lon="5.34785">
        <ele>442</ele>
        <time>2024-05-17T10:45:40.188Z</time>
      </trkpt>
      <trkpt lat="47.81682" lon="5.34782">
        <ele>442</ele>
        <time>2024-05-17T10:45:45.195Z</time>
      </trkpt>
      <trkpt lat="47.8168" lon="5.34775">
        <ele>442</ele>
        <time>2024-05-17T10:45:49.187Z</time>
      </trkpt>
      <trkpt lat="47.81675" lon="5.34774">
        <ele>442</ele>
        <time>2024-05-17T10:45:53.948Z</time>
      </trkpt>
      <trkpt lat="47.8167" lon="5.34773">
        <ele>442</ele>
        <time>2024-05-17T10:45:58.516Z</time>
      </trkpt>
      <trkpt lat="47.81665" lon="5.3477">
        <ele>442</ele>
        <time>2024-05-17T10:46:02.882Z</time>
      </trkpt>
      <trkpt lat="47.8166" lon="5.34765">
        <ele>442</ele>
        <time>2024-05-17T10:46:07.447Z</time>
      </trkpt>
      <trkpt lat="47.81655" lon="5.34761">
        <ele>441</ele>
        <time>2024-05-17T10:46:11.730Z</time>
      </trkpt>
      <trkpt lat="47.81652" lon="5.34755">
        <ele>441</ele>
        <time>2024-05-17T10:46:15.988Z</time>
      </trkpt>
      <trkpt lat="47.81649" lon="5.34749">
        <ele>441</ele>
        <time>2024-05-17T10:46:20.187Z</time>
      </trkpt>
      <trkpt lat="47.81643" lon="5.34745">
        <ele>441</ele>
        <time>2024-05-17T10:46:24.674Z</time>
      </trkpt>
      <trkpt lat="47.81637" lon="5.34743">
        <ele>441</ele>
        <time>2024-05-17T10:46:29.093Z</time>
      </trkpt>
      <trkpt lat="47.81631" lon="5.34742">
        <ele>441</ele>
        <time>2024-05-17T10:46:33.613Z</time>
      </trkpt>
      <trkpt lat="47.81626" lon="5.34742">
        <ele>441</ele>
        <time>2024-05-17T10:46:37.770Z</time>
      </trkpt>
      <trkpt lat="47.81621" lon="5.34738">
        <ele>445</ele>
        <time>2024-05-17T10:46:42.188Z</time>
      </trkpt>
      <trkpt lat="47.81615" lon="5.34735">
        <ele>445</ele>
        <time>2024-05-17T10:46:47.148Z</time>
      </trkpt>
      <trkpt lat="47.81611" lon="5.34728">
        <ele>445</ele>
        <time>2024-05-17T10:46:51.549Z</time>
      </trkpt>
      <trkpt lat="47.81607" lon="5.34723">
        <ele>445</ele>
        <time>2024-05-17T10:46:55.986Z</time>
      </trkpt>
      <trkpt lat="47.81603" lon="5.34719">
        <ele>445</ele>
        <time>2024-05-17T10:47:00.031Z</time>
      </trkpt>
      <trkpt lat="47.81596" lon="5.3472">
        <ele>450</ele>
        <time>2024-05-17T10:47:04.187Z</time>
      </trkpt>
      <trkpt lat="47.8159" lon="5.34718">
        <ele>450</ele>
        <time>2024-05-17T10:47:08.768Z</time>
      </trkpt>
      <trkpt lat="47.81585" lon="5.34715">
        <ele>450</ele>
        <time>2024-05-17T10:47:13.223Z</time>
      </trkpt>
      <trkpt lat="47.8158" lon="5.3471">
        <ele>450</ele>
        <time>2024-05-17T10:47:17.753Z</time>
      </trkpt>
      <trkpt lat="47.81577" lon="5.34706">
        <ele>447</ele>
        <time>2024-05-17T10:47:21.788Z</time>
      </trkpt>
      <trkpt lat="47.81574" lon="5.347">
        <ele>447</ele>
        <time>2024-05-17T10:47:25.867Z</time>
      </trkpt>
      <trkpt lat="47.81573" lon="5.347">
        <ele>447</ele>
        <time>2024-05-17T10:47:30.168Z</time>
      </trkpt>
      <trkpt lat="47.8157" lon="5.34696">
        <ele>447</ele>
        <time>2024-05-17T10:47:34.630Z</time>
      </trkpt>
      <trkpt lat="47.81566" lon="5.34686">
        <ele>450</ele>
        <time>2024-05-17T10:47:39.170Z</time>
      </trkpt>
      <trkpt lat="47.81563" lon="5.34677">
        <ele>448</ele>
        <time>2024-05-17T10:47:43.589Z</time>
      </trkpt>
      <trkpt lat="47.8156" lon="5.34672">
        <ele>448</ele>
        <time>2024-05-17T10:47:48.113Z</time>
      </trkpt>
      <trkpt lat="47.81556" lon="5.34666">
        <ele>448</ele>
        <time>2024-05-17T10:47:52.131Z</time>
      </trkpt>
      <trkpt lat="47.81553" lon="5.34659">
        <ele>448</ele>
        <time>2024-05-17T10:47:56.188Z</time>
      </trkpt>
      <trkpt lat="47.8155" lon="5.34653">
        <ele>448</ele>
        <time>2024-05-17T10:48:00.313Z</time>
      </trkpt>
      <trkpt lat="47.81546" lon="5.34646">
        <ele>446</ele>
        <time>2024-05-17T10:48:04.792Z</time>
      </trkpt>
      <trkpt lat="47.81544" lon="5.3464">
        <ele>446</ele>
        <time>2024-05-17T10:48:08.931Z</time>
      </trkpt>
      <trkpt lat="47.81542" lon="5.34633">
        <ele>446</ele>
        <time>2024-05-17T10:48:13.188Z</time>
      </trkpt>
      <trkpt lat="47.81539" lon="5.34625">
        <ele>450</ele>
        <time>2024-05-17T10:48:17.873Z</time>
      </trkpt>
      <trkpt lat="47.81537" lon="5.34618">
        <ele>450</ele>
        <time>2024-05-17T10:48:21.951Z</time>
      </trkpt>
      <trkpt lat="47.81536" lon="5.34611">
        <ele>450</ele>
        <time>2024-05-17T10:48:26.031Z</time>
      </trkpt>
      <trkpt lat="47.81537" lon="5.34604">
        <ele>450</ele>
        <time>2024-05-17T10:48:30.188Z</time>
      </trkpt>
      <trkpt lat="47.81541" lon="5.34601">
        <ele>450</ele>
        <time>2024-05-17T10:48:34.187Z</time>
      </trkpt>
      <trkpt lat="47.81541" lon="5.346">
        <ele>450</ele>
        <time>2024-05-17T10:48:43.187Z</time>
      </trkpt>
      <trkpt lat="47.81541" lon="5.34594">
        <ele>451</ele>
        <time>2024-05-17T10:48:48.188Z</time>
      </trkpt>
      <trkpt lat="47.81537" lon="5.34585">
        <ele>451</ele>
        <time>2024-05-17T10:48:53.188Z</time>
      </trkpt>
      <trkpt lat="47.81532" lon="5.34581">
        <ele>451</ele>
        <time>2024-05-17T10:48:57.572Z</time>
      </trkpt>
      <trkpt lat="47.8153" lon="5.34577">
        <ele>451</ele>
        <time>2024-05-17T10:49:01.634Z</time>
      </trkpt>
      <trkpt lat="47.8153" lon="5.34571">
        <ele>451</ele>
        <time>2024-05-17T10:49:05.953Z</time>
      </trkpt>
      <trkpt lat="47.81527" lon="5.34562">
        <ele>453</ele>
        <time>2024-05-17T10:49:10.398Z</time>
      </trkpt>
      <trkpt lat="47.81524" lon="5.34555">
        <ele>453</ele>
        <time>2024-05-17T10:49:14.888Z</time>
      </trkpt>
      <trkpt lat="47.81521" lon="5.3455">
        <ele>453</ele>
        <time>2024-05-17T10:49:19.010Z</time>
      </trkpt>
      <trkpt lat="47.8152" lon="5.34546">
        <ele>453</ele>
        <time>2024-05-17T10:49:23.590Z</time>
      </trkpt>
      <trkpt lat="47.81519" lon="5.34541">
        <ele>455</ele>
        <time>2024-05-17T10:49:28.187Z</time>
      </trkpt>
      <trkpt lat="47.81517" lon="5.34534">
        <ele>455</ele>
        <time>2024-05-17T10:49:33.187Z</time>
      </trkpt>
      <trkpt lat="47.81516" lon="5.34527">
        <ele>455</ele>
        <time>2024-05-17T10:49:37.628Z</time>
      </trkpt>
      <trkpt lat="47.81516" lon="5.34519">
        <ele>455</ele>
        <time>2024-05-17T10:49:42.014Z</time>
      </trkpt>
      <trkpt lat="47.81517" lon="5.3451">
        <ele>456</ele>
        <time>2024-05-17T10:49:47.134Z</time>
      </trkpt>
      <trkpt lat="47.81519" lon="5.34503">
        <ele>456</ele>
        <time>2024-05-17T10:49:51.188Z</time>
      </trkpt>
      <trkpt lat="47.81521" lon="5.34497">
        <ele>456</ele>
        <time>2024-05-17T10:49:55.292Z</time>
      </trkpt>
      <trkpt lat="47.81523" lon="5.34491">
        <ele>456</ele>
        <time>2024-05-17T10:49:59.507Z</time>
      </trkpt>
      <trkpt lat="47.81525" lon="5.34485">
        <ele>458</ele>
        <time>2024-05-17T10:50:03.612Z</time>
      </trkpt>
      <trkpt lat="47.81525" lon="5.34478">
        <ele>458</ele>
        <time>2024-05-17T10:50:08.074Z</time>
      </trkpt>
      <trkpt lat="47.81529" lon="5.34473">
        <ele>458</ele>
        <time>2024-05-17T10:50:12.187Z</time>
      </trkpt>
      <trkpt lat="47.81533" lon="5.34468">
        <ele>458</ele>
        <time>2024-05-17T10:50:16.769Z</time>
      </trkpt>
      <trkpt lat="47.81536" lon="5.34463">
        <ele>458</ele>
        <time>2024-05-17T10:50:20.874Z</time>
      </trkpt>
      <trkpt lat="47.8154" lon="5.34459">
        <ele>458</ele>
        <time>2024-05-17T10:50:25.174Z</time>
      </trkpt>
      <trkpt lat="47.81544" lon="5.34453">
        <ele>458</ele>
        <time>2024-05-17T10:50:29.226Z</time>
      </trkpt>
      <trkpt lat="47.81547" lon="5.34448">
        <ele>458</ele>
        <time>2024-05-17T10:50:33.332Z</time>
      </trkpt>
      <trkpt lat="47.81552" lon="5.34445">
        <ele>458</ele>
        <time>2024-05-17T10:50:37.427Z</time>
      </trkpt>
      <trkpt lat="47.81556" lon="5.34442">
        <ele>458</ele>
        <time>2024-05-17T10:50:41.508Z</time>
      </trkpt>
      <trkpt lat="47.81561" lon="5.34438">
        <ele>458</ele>
        <time>2024-05-17T10:50:45.627Z</time>
      </trkpt>
      <trkpt lat="47.81566" lon="5.34435">
        <ele>458</ele>
        <time>2024-05-17T10:50:50.186Z</time>
      </trkpt>
      <trkpt lat="47.81571" lon="5.34432">
        <ele>456</ele>
        <time>2024-05-17T10:50:54.819Z</time>
      </trkpt>
      <trkpt lat="47.81575" lon="5.34429">
        <ele>459</ele>
        <time>2024-05-17T10:50:58.871Z</time>
      </trkpt>
      <trkpt lat="47.8158" lon="5.34426">
        <ele>459</ele>
        <time>2024-05-17T10:51:02.992Z</time>
      </trkpt>
      <trkpt lat="47.81585" lon="5.34424">
        <ele>459</ele>
        <time>2024-05-17T10:51:07.011Z</time>
      </trkpt>
      <trkpt lat="47.8159" lon="5.34422">
        <ele>459</ele>
        <time>2024-05-17T10:51:11.491Z</time>
      </trkpt>
      <trkpt lat="47.81593" lon="5.34416">
        <ele>459</ele>
        <time>2024-05-17T10:51:15.936Z</time>
      </trkpt>
      <trkpt lat="47.81596" lon="5.34412">
        <ele>459</ele>
        <time>2024-05-17T10:51:19.973Z</time>
      </trkpt>
      <trkpt lat="47.816" lon="5.34408">
        <ele>455</ele>
        <time>2024-05-17T10:51:24.369Z</time>
      </trkpt>
      <trkpt lat="47.81604" lon="5.34402">
        <ele>459</ele>
        <time>2024-05-17T10:51:29.017Z</time>
      </trkpt>
      <trkpt lat="47.81608" lon="5.34396">
        <ele>459</ele>
        <time>2024-05-17T10:51:33.233Z</time>
      </trkpt>
      <trkpt lat="47.81611" lon="5.34388">
        <ele>459</ele>
        <time>2024-05-17T10:51:37.541Z</time>
      </trkpt>
      <trkpt lat="47.81617" lon="5.34385">
        <ele>459</ele>
        <time>2024-05-17T10:51:41.696Z</time>
      </trkpt>
      <trkpt lat="47.81623" lon="5.34382">
        <ele>459</ele>
        <time>2024-05-17T10:51:45.842Z</time>
      </trkpt>
      <trkpt lat="47.81629" lon="5.3438">
        <ele>457</ele>
        <time>2024-05-17T10:51:50.157Z</time>
      </trkpt>
      <trkpt lat="47.81634" lon="5.34381">
        <ele>457</ele>
        <time>2024-05-17T10:51:54.616Z</time>
      </trkpt>
      <trkpt lat="47.8164" lon="5.34384">
        <ele>457</ele>
        <time>2024-05-17T10:51:59.186Z</time>
      </trkpt>
      <trkpt lat="47.81645" lon="5.34388">
        <ele>457</ele>
        <time>2024-05-17T10:52:03.483Z</time>
      </trkpt>
      <trkpt lat="47.81651" lon="5.3439">
        <ele>457</ele>
        <time>2024-05-17T10:52:07.756Z</time>
      </trkpt>
      <trkpt lat="47.81656" lon="5.34389">
        <ele>454</ele>
        <time>2024-05-17T10:52:11.823Z</time>
      </trkpt>
      <trkpt lat="47.81657" lon="5.34381">
        <ele>454</ele>
        <time>2024-05-17T10:52:16.186Z</time>
      </trkpt>
      <trkpt lat="47.81653" lon="5.34374">
        <ele>460</ele>
        <time>2024-05-17T10:52:20.650Z</time>
      </trkpt>
      <trkpt lat="47.81657" lon="5.34369">
        <ele>458</ele>
        <time>2024-05-17T10:53:30.713Z</time>
      </trkpt>
      <trkpt lat="47.81653" lon="5.34372">
        <ele>460</ele>
        <time>2024-05-17T10:53:35.208Z</time>
      </trkpt>
      <trkpt lat="47.81658" lon="5.3438">
        <ele>454</ele>
        <time>2024-05-17T10:53:40.065Z</time>
      </trkpt>
      <trkpt lat="47.81665" lon="5.34381">
        <ele>454</ele>
        <time>2024-05-17T10:53:44.109Z</time>
      </trkpt>
      <trkpt lat="47.81672" lon="5.34377">
        <ele>454</ele>
        <time>2024-05-17T10:53:48.948Z</time>
      </trkpt>
      <trkpt lat="47.81678" lon="5.34376">
        <ele>454</ele>
        <time>2024-05-17T10:53:52.987Z</time>
      </trkpt>
      <trkpt lat="47.81684" lon="5.34373">
        <ele>454</ele>
        <time>2024-05-17T10:53:57.187Z</time>
      </trkpt>
      <trkpt lat="47.81691" lon="5.3437">
        <ele>454</ele>
        <time>2024-05-17T10:54:01.928Z</time>
      </trkpt>
      <trkpt lat="47.81697" lon="5.34367">
        <ele>454</ele>
        <time>2024-05-17T10:54:05.946Z</time>
      </trkpt>
      <trkpt lat="47.81704" lon="5.34366">
        <ele>454</ele>
        <time>2024-05-17T10:54:10.970Z</time>
      </trkpt>
      <trkpt lat="47.81711" lon="5.34364">
        <ele>449</ele>
        <time>2024-05-17T10:54:15.931Z</time>
      </trkpt>
      <trkpt lat="47.81718" lon="5.34361">
        <ele>449</ele>
        <time>2024-05-17T10:54:20.890Z</time>
      </trkpt>
      <trkpt lat="47.81725" lon="5.3436">
        <ele>449</ele>
        <time>2024-05-17T10:54:24.925Z</time>
      </trkpt>
      <trkpt lat="47.81731" lon="5.34359">
        <ele>449</ele>
        <time>2024-05-17T10:54:29.187Z</time>
      </trkpt>
      <trkpt lat="47.81733" lon="5.3435">
        <ele>449</ele>
        <time>2024-05-17T10:54:33.852Z</time>
      </trkpt>
      <trkpt lat="47.81729" lon="5.34341">
        <ele>453</ele>
        <time>2024-05-17T10:54:38.544Z</time>
      </trkpt>
      <trkpt lat="47.81726" lon="5.34331">
        <ele>453</ele>
        <time>2024-05-17T10:54:43.187Z</time>
      </trkpt>
      <trkpt lat="47.81721" lon="5.34323">
        <ele>453</ele>
        <time>2024-05-17T10:54:48.085Z</time>
      </trkpt>
      <trkpt lat="47.81719" lon="5.34315">
        <ele>455</ele>
        <time>2024-05-17T10:54:52.565Z</time>
      </trkpt>
      <trkpt lat="47.81716" lon="5.34307">
        <ele>455</ele>
        <time>2024-05-17T10:54:56.645Z</time>
      </trkpt>
      <trkpt lat="47.81713" lon="5.34298">
        <ele>455</ele>
        <time>2024-05-17T10:55:01.186Z</time>
      </trkpt>
      <trkpt lat="47.8171" lon="5.3429">
        <ele>456</ele>
        <time>2024-05-17T10:55:05.810Z</time>
      </trkpt>
      <trkpt lat="47.81707" lon="5.34283">
        <ele>456</ele>
        <time>2024-05-17T10:55:09.931Z</time>
      </trkpt>
      <trkpt lat="47.81704" lon="5.34277">
        <ele>456</ele>
        <time>2024-05-17T10:55:14.385Z</time>
      </trkpt>
      <trkpt lat="47.81702" lon="5.3427">
        <ele>456</ele>
        <time>2024-05-17T10:55:19.190Z</time>
      </trkpt>
      <trkpt lat="47.81701" lon="5.34269">
        <ele>456</ele>
        <time>2024-05-17T10:55:23.549Z</time>
      </trkpt>
      <trkpt lat="47.81704" lon="5.3426">
        <ele>456</ele>
        <time>2024-05-17T10:55:28.186Z</time>
      </trkpt>
      <trkpt lat="47.8171" lon="5.34254">
        <ele>457</ele>
        <time>2024-05-17T10:55:32.591Z</time>
      </trkpt>
      <trkpt lat="47.81716" lon="5.34253">
        <ele>457</ele>
        <time>2024-05-17T10:55:36.690Z</time>
      </trkpt>
      <trkpt lat="47.81721" lon="5.34251">
        <ele>457</ele>
        <time>2024-05-17T10:55:41.187Z</time>
      </trkpt>
      <trkpt lat="47.81726" lon="5.34249">
        <ele>457</ele>
        <time>2024-05-17T10:55:45.309Z</time>
      </trkpt>
      <trkpt lat="47.8173" lon="5.34243">
        <ele>457</ele>
        <time>2024-05-17T10:55:49.927Z</time>
      </trkpt>
      <trkpt lat="47.81731" lon="5.34234">
        <ele>457</ele>
        <time>2024-05-17T10:55:54.030Z</time>
      </trkpt>
      <trkpt lat="47.8173" lon="5.34226">
        <ele>457</ele>
        <time>2024-05-17T10:55:58.466Z</time>
      </trkpt>
      <trkpt lat="47.81729" lon="5.34216">
        <ele>457</ele>
        <time>2024-05-17T10:56:03.147Z</time>
      </trkpt>
      <trkpt lat="47.81727" lon="5.34208">
        <ele>457</ele>
        <time>2024-05-17T10:56:07.464Z</time>
      </trkpt>
      <trkpt lat="47.81726" lon="5.342">
        <ele>457</ele>
        <time>2024-05-17T10:56:11.646Z</time>
      </trkpt>
      <trkpt lat="47.81723" lon="5.34191">
        <ele>457</ele>
        <time>2024-05-17T10:56:15.785Z</time>
      </trkpt>
      <trkpt lat="47.81722" lon="5.34182">
        <ele>457</ele>
        <time>2024-05-17T10:56:20.188Z</time>
      </trkpt>
      <trkpt lat="47.81719" lon="5.34174">
        <ele>456</ele>
        <time>2024-05-17T10:56:24.685Z</time>
      </trkpt>
      <trkpt lat="47.81718" lon="5.34166">
        <ele>456</ele>
        <time>2024-05-17T10:56:29.187Z</time>
      </trkpt>
      <trkpt lat="47.81715" lon="5.34158">
        <ele>456</ele>
        <time>2024-05-17T10:56:33.705Z</time>
      </trkpt>
      <trkpt lat="47.81714" lon="5.34149">
        <ele>457</ele>
        <time>2024-05-17T10:56:38.186Z</time>
      </trkpt>
      <trkpt lat="47.81711" lon="5.34141">
        <ele>457</ele>
        <time>2024-05-17T10:56:42.527Z</time>
      </trkpt>
      <trkpt lat="47.81709" lon="5.34132">
        <ele>457</ele>
        <time>2024-05-17T10:56:46.631Z</time>
      </trkpt>
      <trkpt lat="47.81707" lon="5.34124">
        <ele>456</ele>
        <time>2024-05-17T10:56:51.085Z</time>
      </trkpt>
      <trkpt lat="47.81705" lon="5.34117">
        <ele>456</ele>
        <time>2024-05-17T10:56:55.166Z</time>
      </trkpt>
      <trkpt lat="47.81705" lon="5.34108">
        <ele>456</ele>
        <time>2024-05-17T10:56:59.186Z</time>
      </trkpt>
      <trkpt lat="47.81702" lon="5.341">
        <ele>456</ele>
        <time>2024-05-17T10:57:03.426Z</time>
      </trkpt>
      <trkpt lat="47.817" lon="5.34093">
        <ele>455</ele>
        <time>2024-05-17T10:57:07.871Z</time>
      </trkpt>
      <trkpt lat="47.81697" lon="5.34086">
        <ele>455</ele>
        <time>2024-05-17T10:57:11.889Z</time>
      </trkpt>
      <trkpt lat="47.81694" lon="5.34077">
        <ele>455</ele>
        <time>2024-05-17T10:57:17.010Z</time>
      </trkpt>
      <trkpt lat="47.81692" lon="5.3407">
        <ele>455</ele>
        <time>2024-05-17T10:57:21.190Z</time>
      </trkpt>
      <trkpt lat="47.81691" lon="5.34063">
        <ele>454</ele>
        <time>2024-05-17T10:57:25.186Z</time>
      </trkpt>
      <trkpt lat="47.8169" lon="5.34057">
        <ele>454</ele>
        <time>2024-05-17T10:57:29.485Z</time>
      </trkpt>
      <trkpt lat="47.81688" lon="5.34051">
        <ele>454</ele>
        <time>2024-05-17T10:57:33.537Z</time>
      </trkpt>
      <trkpt lat="47.81686" lon="5.34044">
        <ele>454</ele>
        <time>2024-05-17T10:57:37.888Z</time>
      </trkpt>
      <trkpt lat="47.81684" lon="5.34038">
        <ele>455</ele>
        <time>2024-05-17T10:57:42.447Z</time>
      </trkpt>
      <trkpt lat="47.81683" lon="5.34028">
        <ele>455</ele>
        <time>2024-05-17T10:57:46.832Z</time>
      </trkpt>
      <trkpt lat="47.8168" lon="5.3402">
        <ele>450</ele>
        <time>2024-05-17T10:57:51.185Z</time>
      </trkpt>
      <trkpt lat="47.81679" lon="5.34013">
        <ele>452</ele>
        <time>2024-05-17T10:57:55.227Z</time>
      </trkpt>
      <trkpt lat="47.81677" lon="5.34006">
        <ele>452</ele>
        <time>2024-05-17T10:57:59.305Z</time>
      </trkpt>
      <trkpt lat="47.81675" lon="5.33998">
        <ele>452</ele>
        <time>2024-05-17T10:58:03.709Z</time>
      </trkpt>
      <trkpt lat="47.81673" lon="5.3399">
        <ele>452</ele>
        <time>2024-05-17T10:58:07.985Z</time>
      </trkpt>
      <trkpt lat="47.81671" lon="5.33983">
        <ele>453</ele>
        <time>2024-05-17T10:58:12.147Z</time>
      </trkpt>
      <trkpt lat="47.8167" lon="5.33975">
        <ele>453</ele>
        <time>2024-05-17T10:58:16.185Z</time>
      </trkpt>
      <trkpt lat="47.81668" lon="5.33967">
        <ele>453</ele>
        <time>2024-05-17T10:58:20.766Z</time>
      </trkpt>
      <trkpt lat="47.81667" lon="5.3396">
        <ele>453</ele>
        <time>2024-05-17T10:58:25.109Z</time>
      </trkpt>
      <trkpt lat="47.81666" lon="5.33952">
        <ele>453</ele>
        <time>2024-05-17T10:58:29.421Z</time>
      </trkpt>
      <trkpt lat="47.81664" lon="5.33943">
        <ele>453</ele>
        <time>2024-05-17T10:58:33.770Z</time>
      </trkpt>
      <trkpt lat="47.81663" lon="5.33935">
        <ele>453</ele>
        <time>2024-05-17T10:58:38.011Z</time>
      </trkpt>
      <trkpt lat="47.81662" lon="5.33927">
        <ele>454</ele>
        <time>2024-05-17T10:58:42.048Z</time>
      </trkpt>
      <trkpt lat="47.81661" lon="5.33919">
        <ele>454</ele>
        <time>2024-05-17T10:58:46.271Z</time>
      </trkpt>
      <trkpt lat="47.81659" lon="5.33911">
        <ele>454</ele>
        <time>2024-05-17T10:58:50.707Z</time>
      </trkpt>
      <trkpt lat="47.81657" lon="5.33903">
        <ele>457</ele>
        <time>2024-05-17T10:58:54.991Z</time>
      </trkpt>
      <trkpt lat="47.81656" lon="5.33895">
        <ele>457</ele>
        <time>2024-05-17T10:58:59.471Z</time>
      </trkpt>
      <trkpt lat="47.81655" lon="5.33885">
        <ele>457</ele>
        <time>2024-05-17T10:59:04.185Z</time>
      </trkpt>
      <trkpt lat="47.81654" lon="5.33878">
        <ele>457</ele>
        <time>2024-05-17T10:59:09.186Z</time>
      </trkpt>
      <trkpt lat="47.81653" lon="5.33873">
        <ele>459</ele>
        <time>2024-05-17T10:59:13.765Z</time>
      </trkpt>
      <trkpt lat="47.81651" lon="5.33864">
        <ele>453</ele>
        <time>2024-05-17T10:59:18.150Z</time>
      </trkpt>
      <trkpt lat="47.81649" lon="5.33856">
        <ele>453</ele>
        <time>2024-05-17T10:59:22.912Z</time>
      </trkpt>
      <trkpt lat="47.81647" lon="5.3385">
        <ele>453</ele>
        <time>2024-05-17T10:59:27.308Z</time>
      </trkpt>
      <trkpt lat="47.81646" lon="5.33842">
        <ele>455</ele>
        <time>2024-05-17T10:59:31.768Z</time>
      </trkpt>
      <trkpt lat="47.81645" lon="5.33833">
        <ele>455</ele>
        <time>2024-05-17T10:59:36.171Z</time>
      </trkpt>
      <trkpt lat="47.81645" lon="5.33824">
        <ele>455</ele>
        <time>2024-05-17T10:59:41.145Z</time>
      </trkpt>
      <trkpt lat="47.81643" lon="5.33816">
        <ele>456</ele>
        <time>2024-05-17T10:59:45.490Z</time>
      </trkpt>
      <trkpt lat="47.81642" lon="5.33808">
        <ele>456</ele>
        <time>2024-05-17T10:59:50.030Z</time>
      </trkpt>
      <trkpt lat="47.8164" lon="5.33799">
        <ele>456</ele>
        <time>2024-05-17T10:59:54.431Z</time>
      </trkpt>
      <trkpt lat="47.81639" lon="5.3379">
        <ele>458</ele>
        <time>2024-05-17T10:59:58.988Z</time>
      </trkpt>
      <trkpt lat="47.81637" lon="5.33782">
        <ele>458</ele>
        <time>2024-05-17T11:00:03.451Z</time>
      </trkpt>
      <trkpt lat="47.81636" lon="5.33774">
        <ele>458</ele>
        <time>2024-05-17T11:00:08.007Z</time>
      </trkpt>
      <trkpt lat="47.81634" lon="5.33765">
        <ele>458</ele>
        <time>2024-05-17T11:00:12.470Z</time>
      </trkpt>
      <trkpt lat="47.81632" lon="5.33758">
        <ele>461</ele>
        <time>2024-05-17T11:00:16.848Z</time>
      </trkpt>
      <trkpt lat="47.81632" lon="5.33749">
        <ele>461</ele>
        <time>2024-05-17T11:00:21.186Z</time>
      </trkpt>
      <trkpt lat="47.8163" lon="5.33743">
        <ele>461</ele>
        <time>2024-05-17T11:00:25.457Z</time>
      </trkpt>
      <trkpt lat="47.81629" lon="5.33734">
        <ele>463</ele>
        <time>2024-05-17T11:00:29.912Z</time>
      </trkpt>
      <trkpt lat="47.81627" lon="5.33727">
        <ele>463</ele>
        <time>2024-05-17T11:00:34.186Z</time>
      </trkpt>
      <trkpt lat="47.81626" lon="5.33719">
        <ele>463</ele>
        <time>2024-05-17T11:00:38.651Z</time>
      </trkpt>
      <trkpt lat="47.81625" lon="5.3371">
        <ele>463</ele>
        <time>2024-05-17T11:00:43.149Z</time>
      </trkpt>
      <trkpt lat="47.81624" lon="5.33702">
        <ele>464</ele>
        <time>2024-05-17T11:00:47.652Z</time>
      </trkpt>
      <trkpt lat="47.81622" lon="5.33694">
        <ele>464</ele>
        <time>2024-05-17T11:00:51.672Z</time>
      </trkpt>
      <trkpt lat="47.81621" lon="5.33686">
        <ele>464</ele>
        <time>2024-05-17T11:00:56.186Z</time>
      </trkpt>
      <trkpt lat="47.81619" lon="5.33678">
        <ele>465</ele>
        <time>2024-05-17T11:01:00.682Z</time>
      </trkpt>
      <trkpt lat="47.81619" lon="5.3367">
        <ele>465</ele>
        <time>2024-05-17T11:01:05.068Z</time>
      </trkpt>
      <trkpt lat="47.81616" lon="5.33662">
        <ele>465</ele>
        <time>2024-05-17T11:01:09.445Z</time>
      </trkpt>
      <trkpt lat="47.81615" lon="5.33654">
        <ele>465</ele>
        <time>2024-05-17T11:01:13.808Z</time>
      </trkpt>
      <trkpt lat="47.81614" lon="5.33646">
        <ele>465</ele>
        <time>2024-05-17T11:01:18.387Z</time>
      </trkpt>
      <trkpt lat="47.81612" lon="5.33638">
        <ele>465</ele>
        <time>2024-05-17T11:01:22.927Z</time>
      </trkpt>
      <trkpt lat="47.8161" lon="5.3363">
        <ele>465</ele>
        <time>2024-05-17T11:01:27.346Z</time>
      </trkpt>
      <trkpt lat="47.81609" lon="5.33622">
        <ele>465</ele>
        <time>2024-05-17T11:01:31.726Z</time>
      </trkpt>
      <trkpt lat="47.81608" lon="5.33612">
        <ele>465</ele>
        <time>2024-05-17T11:01:36.185Z</time>
      </trkpt>
      <trkpt lat="47.81606" lon="5.33605">
        <ele>465</ele>
        <time>2024-05-17T11:01:40.811Z</time>
      </trkpt>
      <trkpt lat="47.81605" lon="5.33596">
        <ele>465</ele>
        <time>2024-05-17T11:01:45.231Z</time>
      </trkpt>
      <trkpt lat="47.81604" lon="5.33588">
        <ele>465</ele>
        <time>2024-05-17T11:01:49.668Z</time>
      </trkpt>
      <trkpt lat="47.81602" lon="5.3358">
        <ele>465</ele>
        <time>2024-05-17T11:01:53.688Z</time>
      </trkpt>
      <trkpt lat="47.816" lon="5.33572">
        <ele>465</ele>
        <time>2024-05-17T11:01:58.031Z</time>
      </trkpt>
      <trkpt lat="47.816" lon="5.33563">
        <ele>465</ele>
        <time>2024-05-17T11:02:02.109Z</time>
      </trkpt>
      <trkpt lat="47.81598" lon="5.33556">
        <ele>465</ele>
        <time>2024-05-17T11:02:06.488Z</time>
      </trkpt>
      <trkpt lat="47.81596" lon="5.33547">
        <ele>469</ele>
        <time>2024-05-17T11:02:10.967Z</time>
      </trkpt>
      <trkpt lat="47.81595" lon="5.33539">
        <ele>469</ele>
        <time>2024-05-17T11:02:15.429Z</time>
      </trkpt>
      <trkpt lat="47.81593" lon="5.3353">
        <ele>469</ele>
        <time>2024-05-17T11:02:19.866Z</time>
      </trkpt>
      <trkpt lat="47.81592" lon="5.33522">
        <ele>469</ele>
        <time>2024-05-17T11:02:24.402Z</time>
      </trkpt>
      <trkpt lat="47.8159" lon="5.33514">
        <ele>468</ele>
        <time>2024-05-17T11:02:28.827Z</time>
      </trkpt>
      <trkpt lat="47.81588" lon="5.33505">
        <ele>468</ele>
        <time>2024-05-17T11:02:33.186Z</time>
      </trkpt>
      <trkpt lat="47.81587" lon="5.33497">
        <ele>468</ele>
        <time>2024-05-17T11:02:37.668Z</time>
      </trkpt>
      <trkpt lat="47.81584" lon="5.33488">
        <ele>468</ele>
        <time>2024-05-17T11:02:42.185Z</time>
      </trkpt>
      <trkpt lat="47.81582" lon="5.33478">
        <ele>467</ele>
        <time>2024-05-17T11:02:47.185Z</time>
      </trkpt>
      <trkpt lat="47.8158" lon="5.3347">
        <ele>467</ele>
        <time>2024-05-17T11:02:51.590Z</time>
      </trkpt>
      <trkpt lat="47.81578" lon="5.33462">
        <ele>467</ele>
        <time>2024-05-17T11:02:56.027Z</time>
      </trkpt>
      <trkpt lat="47.81576" lon="5.33454">
        <ele>466</ele>
        <time>2024-05-17T11:03:00.186Z</time>
      </trkpt>
      <trkpt lat="47.81574" lon="5.33445">
        <ele>466</ele>
        <time>2024-05-17T11:03:04.792Z</time>
      </trkpt>
      <trkpt lat="47.81572" lon="5.33437">
        <ele>466</ele>
        <time>2024-05-17T11:03:09.186Z</time>
      </trkpt>
      <trkpt lat="47.81569" lon="5.3343">
        <ele>470</ele>
        <time>2024-05-17T11:03:13.426Z</time>
      </trkpt>
      <trkpt lat="47.81567" lon="5.33421">
        <ele>470</ele>
        <time>2024-05-17T11:03:17.847Z</time>
      </trkpt>
      <trkpt lat="47.81565" lon="5.33412">
        <ele>470</ele>
        <time>2024-05-17T11:03:22.013Z</time>
      </trkpt>
      <trkpt lat="47.81562" lon="5.33406">
        <ele>470</ele>
        <time>2024-05-17T11:03:26.086Z</time>
      </trkpt>
      <trkpt lat="47.8156" lon="5.33396">
        <ele>469</ele>
        <time>2024-05-17T11:03:30.865Z</time>
      </trkpt>
      <trkpt lat="47.81558" lon="5.33388">
        <ele>469</ele>
        <time>2024-05-17T11:03:35.012Z</time>
      </trkpt>
      <trkpt lat="47.81557" lon="5.3338">
        <ele>469</ele>
        <time>2024-05-17T11:03:39.125Z</time>
      </trkpt>
      <trkpt lat="47.81556" lon="5.33371">
        <ele>466</ele>
        <time>2024-05-17T11:03:43.486Z</time>
      </trkpt>
      <trkpt lat="47.81555" lon="5.33362">
        <ele>466</ele>
        <time>2024-05-17T11:03:47.708Z</time>
      </trkpt>
      <trkpt lat="47.81554" lon="5.33354">
        <ele>466</ele>
        <time>2024-05-17T11:03:51.952Z</time>
      </trkpt>
      <trkpt lat="47.81553" lon="5.33346">
        <ele>464</ele>
        <time>2024-05-17T11:03:56.046Z</time>
      </trkpt>
      <trkpt lat="47.81553" lon="5.33336">
        <ele>464</ele>
        <time>2024-05-17T11:04:01.071Z</time>
      </trkpt>
      <trkpt lat="47.81552" lon="5.33327">
        <ele>464</ele>
        <time>2024-05-17T11:04:05.969Z</time>
      </trkpt>
      <trkpt lat="47.81552" lon="5.33317">
        <ele>463</ele>
        <time>2024-05-17T11:04:10.167Z</time>
      </trkpt>
      <trkpt lat="47.81551" lon="5.33308">
        <ele>463</ele>
        <time>2024-05-17T11:04:14.451Z</time>
      </trkpt>
      <trkpt lat="47.81551" lon="5.33301">
        <ele>463</ele>
        <time>2024-05-17T11:04:18.751Z</time>
      </trkpt>
      <trkpt lat="47.81551" lon="5.33292">
        <ele>463</ele>
        <time>2024-05-17T11:04:23.111Z</time>
      </trkpt>
      <trkpt lat="47.8155" lon="5.33283">
        <ele>462</ele>
        <time>2024-05-17T11:04:27.346Z</time>
      </trkpt>
      <trkpt lat="47.8155" lon="5.33274">
        <ele>462</ele>
        <time>2024-05-17T11:04:31.671Z</time>
      </trkpt>
      <trkpt lat="47.81549" lon="5.33264">
        <ele>462</ele>
        <time>2024-05-17T11:04:36.185Z</time>
      </trkpt>
      <trkpt lat="47.8155" lon="5.33256">
        <ele>462</ele>
        <time>2024-05-17T11:04:40.370Z</time>
      </trkpt>
      <trkpt lat="47.81549" lon="5.33248">
        <ele>462</ele>
        <time>2024-05-17T11:04:44.525Z</time>
      </trkpt>
      <trkpt lat="47.81548" lon="5.33239">
        <ele>462</ele>
        <time>2024-05-17T11:04:48.988Z</time>
      </trkpt>
      <trkpt lat="47.81548" lon="5.3323">
        <ele>463</ele>
        <time>2024-05-17T11:04:53.365Z</time>
      </trkpt>
      <trkpt lat="47.81548" lon="5.33221">
        <ele>463</ele>
        <time>2024-05-17T11:04:57.812Z</time>
      </trkpt>
      <trkpt lat="47.81548" lon="5.33213">
        <ele>463</ele>
        <time>2024-05-17T11:05:02.351Z</time>
      </trkpt>
      <trkpt lat="47.81548" lon="5.33205">
        <ele>464</ele>
        <time>2024-05-17T11:05:06.489Z</time>
      </trkpt>
      <trkpt lat="47.81549" lon="5.33196">
        <ele>464</ele>
        <time>2024-05-17T11:05:10.850Z</time>
      </trkpt>
      <trkpt lat="47.8155" lon="5.33187">
        <ele>464</ele>
        <time>2024-05-17T11:05:15.185Z</time>
      </trkpt>
      <trkpt lat="47.81552" lon="5.33178">
        <ele>464</ele>
        <time>2024-05-17T11:05:19.690Z</time>
      </trkpt>
      <trkpt lat="47.81551" lon="5.33169">
        <ele>464</ele>
        <time>2024-05-17T11:05:24.007Z</time>
      </trkpt>
      <trkpt lat="47.81552" lon="5.3316">
        <ele>464</ele>
        <time>2024-05-17T11:05:28.351Z</time>
      </trkpt>
      <trkpt lat="47.81552" lon="5.33152">
        <ele>465</ele>
        <time>2024-05-17T11:05:32.770Z</time>
      </trkpt>
      <trkpt lat="47.81555" lon="5.33144">
        <ele>465</ele>
        <time>2024-05-17T11:05:37.185Z</time>
      </trkpt>
      <trkpt lat="47.81555" lon="5.33134">
        <ele>465</ele>
        <time>2024-05-17T11:05:41.690Z</time>
      </trkpt>
      <trkpt lat="47.81556" lon="5.33126">
        <ele>465</ele>
        <time>2024-05-17T11:05:46.108Z</time>
      </trkpt>
      <trkpt lat="47.81556" lon="5.33116">
        <ele>464</ele>
        <time>2024-05-17T11:05:50.630Z</time>
      </trkpt>
      <trkpt lat="47.81556" lon="5.33108">
        <ele>464</ele>
        <time>2024-05-17T11:05:54.889Z</time>
      </trkpt>
      <trkpt lat="47.81556" lon="5.33099">
        <ele>464</ele>
        <time>2024-05-17T11:05:59.292Z</time>
      </trkpt>
      <trkpt lat="47.81555" lon="5.3309">
        <ele>462</ele>
        <time>2024-05-17T11:06:03.830Z</time>
      </trkpt>
      <trkpt lat="47.81554" lon="5.3308">
        <ele>462</ele>
        <time>2024-05-17T11:06:08.191Z</time>
      </trkpt>
      <trkpt lat="47.81552" lon="5.33073">
        <ele>462</ele>
        <time>2024-05-17T11:06:12.614Z</time>
      </trkpt>
      <trkpt lat="47.8155" lon="5.33065">
        <ele>461</ele>
        <time>2024-05-17T11:06:16.665Z</time>
      </trkpt>
      <trkpt lat="47.81545" lon="5.33059">
        <ele>461</ele>
        <time>2024-05-17T11:06:21.050Z</time>
      </trkpt>
      <trkpt lat="47.81539" lon="5.33058">
        <ele>463</ele>
        <time>2024-05-17T11:06:25.189Z</time>
      </trkpt>
      <trkpt lat="47.81533" lon="5.33059">
        <ele>463</ele>
        <time>2024-05-17T11:06:29.685Z</time>
      </trkpt>
      <trkpt lat="47.81527" lon="5.33061">
        <ele>463</ele>
        <time>2024-05-17T11:06:34.190Z</time>
      </trkpt>
      <trkpt lat="47.81521" lon="5.33061">
        <ele>463</ele>
        <time>2024-05-17T11:06:38.670Z</time>
      </trkpt>
      <trkpt lat="47.81515" lon="5.33062">
        <ele>463</ele>
        <time>2024-05-17T11:06:42.809Z</time>
      </trkpt>
      <trkpt lat="47.8151" lon="5.33064">
        <ele>464</ele>
        <time>2024-05-17T11:06:47.810Z</time>
      </trkpt>
      <trkpt lat="47.81504" lon="5.33067">
        <ele>464</ele>
        <time>2024-05-17T11:06:52.185Z</time>
      </trkpt>
      <trkpt lat="47.815" lon="5.33068">
        <ele>464</ele>
        <time>2024-05-17T11:06:56.420Z</time>
      </trkpt>
      <trkpt lat="47.81493" lon="5.33069">
        <ele>464</ele>
        <time>2024-05-17T11:07:00.890Z</time>
      </trkpt>
      <trkpt lat="47.81488" lon="5.33071">
        <ele>466</ele>
        <time>2024-05-17T11:07:04.985Z</time>
      </trkpt>
      <trkpt lat="47.81484" lon="5.33072">
        <ele>469</ele>
        <time>2024-05-17T11:07:09.184Z</time>
      </trkpt>
      <trkpt lat="47.81478" lon="5.33076">
        <ele>469</ele>
        <time>2024-05-17T11:07:14.185Z</time>
      </trkpt>
      <trkpt lat="47.81472" lon="5.33076">
        <ele>469</ele>
        <time>2024-05-17T11:07:18.691Z</time>
      </trkpt>
      <trkpt lat="47.81466" lon="5.33079">
        <ele>469</ele>
        <time>2024-05-17T11:07:23.128Z</time>
      </trkpt>
      <trkpt lat="47.81461" lon="5.33082">
        <ele>469</ele>
        <time>2024-05-17T11:07:27.667Z</time>
      </trkpt>
      <trkpt lat="47.81457" lon="5.33085">
        <ele>473</ele>
        <time>2024-05-17T11:07:31.805Z</time>
      </trkpt>
      <trkpt lat="47.81453" lon="5.33087">
        <ele>473</ele>
        <time>2024-05-17T11:07:36.416Z</time>
      </trkpt>
      <trkpt lat="47.81438" lon="5.33082">
        <ele>473</ele>
        <time>2024-05-17T11:07:59.185Z</time>
      </trkpt>
      <trkpt lat="47.81438" lon="5.33079">
        <ele>473</ele>
        <time>2024-05-17T11:08:04.009Z</time>
      </trkpt>
      <trkpt lat="47.81436" lon="5.33078">
        <ele>473</ele>
        <time>2024-05-17T11:08:08.184Z</time>
      </trkpt>
      <trkpt lat="47.81436" lon="5.33077">
        <ele>473</ele>
        <time>2024-05-17T11:08:12.193Z</time>
      </trkpt>
      <trkpt lat="47.81436" lon="5.33077">
        <ele>473</ele>
        <time>2024-05-17T11:08:17.185Z</time>
      </trkpt>
      <trkpt lat="47.81438" lon="5.3308">
        <ele>473</ele>
        <time>2024-05-17T11:08:59.185Z</time>
      </trkpt>
      <trkpt lat="47.81438" lon="5.33081">
        <ele>473</ele>
        <time>2024-05-17T11:09:04.185Z</time>
      </trkpt>
      <trkpt lat="47.81438" lon="5.33082">
        <ele>473</ele>
        <time>2024-05-17T11:09:09.185Z</time>
      </trkpt>
      <trkpt lat="47.81438" lon="5.33088">
        <ele>473</ele>
        <time>2024-05-17T11:09:13.408Z</time>
      </trkpt>
      <trkpt lat="47.81438" lon="5.33097">
        <ele>473</ele>
        <time>2024-05-17T11:09:17.872Z</time>
      </trkpt>
      <trkpt lat="47.81443" lon="5.33099">
        <ele>473</ele>
        <time>2024-05-17T11:10:23.184Z</time>
      </trkpt>
      <trkpt lat="47.81445" lon="5.33096">
        <ele>473</ele>
        <time>2024-05-17T11:10:27.585Z</time>
      </trkpt>
      <trkpt lat="47.81444" lon="5.33088">
        <ele>473</ele>
        <time>2024-05-17T11:10:31.690Z</time>
      </trkpt>
      <trkpt lat="47.81441" lon="5.33081">
        <ele>473</ele>
        <time>2024-05-17T11:10:35.872Z</time>
      </trkpt>
      <trkpt lat="47.81439" lon="5.3308">
        <ele>473</ele>
        <time>2024-05-17T11:10:40.185Z</time>
      </trkpt>
      <trkpt lat="47.8144" lon="5.33081">
        <ele>473</ele>
        <time>2024-05-17T11:10:54.184Z</time>
      </trkpt>
      <trkpt lat="47.8144" lon="5.33081">
        <ele>473</ele>
        <time>2024-05-17T11:10:58.185Z</time>
      </trkpt>
      <trkpt lat="47.81441" lon="5.33083">
        <ele>473</ele>
        <time>2024-05-17T11:11:02.946Z</time>
      </trkpt>
      <trkpt lat="47.81442" lon="5.3309">
        <ele>473</ele>
        <time>2024-05-17T11:11:07.184Z</time>
      </trkpt>
      <trkpt lat="47.81441" lon="5.33096">
        <ele>473</ele>
        <time>2024-05-17T11:11:12.184Z</time>
      </trkpt>
    </trkseg>
  </trk>
</gpx>